<?xml version="1.0" encoding="UTF-8" standalone="no" ?>
<gpx xmlns="http://www.topografix.com/GPX/1/1" xmlns:xsi="http://www.w3.org/2001/XMLSchema-instance" xsi:schemaLocation="http://www.topografix.com/GPX/1/1 http://www.topografix.com/GPX/1/1/gpx.xsd" version="1.1" creator="VisuGPX - https://www.visugpx.com">
  <metadata>
    <name>La Galère</name>
    <desc><![CDATA[Difficulté moyenne,beau point de vue sur Gémenos,Aubagne et Marseille.]]></desc>
  </metadata>
  <trk>
    <name><![CDATA[La Galère_1]]></name>
    <trkseg>
      <trkpt lat="43.29271" lon="5.64175">
        <ele>173.899993</ele>
        <time>2014-01-22T07:34:15Z</time>
      </trkpt>
      <trkpt lat="43.29271" lon="5.64175">
        <ele>173.699996</ele>
        <time>2014-01-22T07:34:16Z</time>
      </trkpt>
      <trkpt lat="43.29265" lon="5.64175">
        <ele>179.1</ele>
        <time>2014-01-22T07:34:59Z</time>
      </trkpt>
      <trkpt lat="43.29268" lon="5.64171">
        <ele>166.8</ele>
        <time>2014-01-22T07:35:37Z</time>
      </trkpt>
      <trkpt lat="43.29268" lon="5.6417">
        <ele>166.1</ele>
        <time>2014-01-22T07:35:38Z</time>
      </trkpt>
      <trkpt lat="43.29263" lon="5.64179">
        <ele>170.1</ele>
        <time>2014-01-22T07:36:15Z</time>
      </trkpt>
      <trkpt lat="43.2926" lon="5.64182">
        <ele>170.6</ele>
        <time>2014-01-22T07:36:19Z</time>
      </trkpt>
      <trkpt lat="43.29256" lon="5.64185">
        <ele>171.5</ele>
        <time>2014-01-22T07:36:24Z</time>
      </trkpt>
      <trkpt lat="43.29253" lon="5.64188">
        <ele>172.8</ele>
        <time>2014-01-22T07:36:28Z</time>
      </trkpt>
      <trkpt lat="43.2925" lon="5.64192">
        <ele>174.6</ele>
        <time>2014-01-22T07:36:32Z</time>
      </trkpt>
      <trkpt lat="43.29249" lon="5.64197">
        <ele>175</ele>
        <time>2014-01-22T07:36:38Z</time>
      </trkpt>
      <trkpt lat="43.29249" lon="5.64198">
        <ele>175.1</ele>
        <time>2014-01-22T07:36:39Z</time>
      </trkpt>
      <trkpt lat="43.29249" lon="5.64209">
        <ele>174.6</ele>
        <time>2014-01-22T07:36:54Z</time>
      </trkpt>
      <trkpt lat="43.2925" lon="5.64214">
        <ele>173.5</ele>
        <time>2014-01-22T07:36:59Z</time>
      </trkpt>
      <trkpt lat="43.29251" lon="5.6422">
        <ele>172.8</ele>
        <time>2014-01-22T07:37:03Z</time>
      </trkpt>
      <trkpt lat="43.29251" lon="5.64225">
        <ele>173.3</ele>
        <time>2014-01-22T07:37:07Z</time>
      </trkpt>
      <trkpt lat="43.29251" lon="5.64231">
        <ele>175.3</ele>
        <time>2014-01-22T07:37:11Z</time>
      </trkpt>
      <trkpt lat="43.29251" lon="5.64236">
        <ele>177.8</ele>
        <time>2014-01-22T07:37:14Z</time>
      </trkpt>
      <trkpt lat="43.2925" lon="5.64241">
        <ele>180.1</ele>
        <time>2014-01-22T07:37:16Z</time>
      </trkpt>
      <trkpt lat="43.2925" lon="5.64247">
        <ele>183.1</ele>
        <time>2014-01-22T07:37:19Z</time>
      </trkpt>
      <trkpt lat="43.29249" lon="5.64252">
        <ele>182.6</ele>
        <time>2014-01-22T07:37:23Z</time>
      </trkpt>
      <trkpt lat="43.2925" lon="5.64257">
        <ele>181.6</ele>
        <time>2014-01-22T07:37:27Z</time>
      </trkpt>
      <trkpt lat="43.29251" lon="5.64263">
        <ele>182.3</ele>
        <time>2014-01-22T07:37:30Z</time>
      </trkpt>
      <trkpt lat="43.29253" lon="5.64267">
        <ele>182.6</ele>
        <time>2014-01-22T07:37:33Z</time>
      </trkpt>
      <trkpt lat="43.29254" lon="5.64272">
        <ele>182.8</ele>
        <time>2014-01-22T07:37:36Z</time>
      </trkpt>
      <trkpt lat="43.29254" lon="5.64278">
        <ele>183.1</ele>
        <time>2014-01-22T07:37:40Z</time>
      </trkpt>
      <trkpt lat="43.29255" lon="5.64279">
        <ele>183.1</ele>
        <time>2014-01-22T07:37:41Z</time>
      </trkpt>
      <trkpt lat="43.29257" lon="5.64289">
        <ele>182.6</ele>
        <time>2014-01-22T07:37:48Z</time>
      </trkpt>
      <trkpt lat="43.29258" lon="5.64294">
        <ele>182.1</ele>
        <time>2014-01-22T07:37:52Z</time>
      </trkpt>
      <trkpt lat="43.29257" lon="5.643">
        <ele>181.6</ele>
        <time>2014-01-22T07:37:56Z</time>
      </trkpt>
      <trkpt lat="43.29256" lon="5.64305">
        <ele>183.1</ele>
        <time>2014-01-22T07:37:59Z</time>
      </trkpt>
      <trkpt lat="43.29254" lon="5.6431">
        <ele>182.8</ele>
        <time>2014-01-22T07:38:03Z</time>
      </trkpt>
      <trkpt lat="43.29253" lon="5.64316">
        <ele>183.8</ele>
        <time>2014-01-22T07:38:07Z</time>
      </trkpt>
      <trkpt lat="43.29251" lon="5.64321">
        <ele>183.8</ele>
        <time>2014-01-22T07:38:12Z</time>
      </trkpt>
      <trkpt lat="43.29249" lon="5.64326">
        <ele>183.1</ele>
        <time>2014-01-22T07:38:16Z</time>
      </trkpt>
      <trkpt lat="43.29248" lon="5.64331">
        <ele>183.8</ele>
        <time>2014-01-22T07:38:19Z</time>
      </trkpt>
      <trkpt lat="43.29247" lon="5.64336">
        <ele>183</ele>
        <time>2014-01-22T07:38:23Z</time>
      </trkpt>
      <trkpt lat="43.29246" lon="5.64341">
        <ele>182.1</ele>
        <time>2014-01-22T07:38:27Z</time>
      </trkpt>
      <trkpt lat="43.29244" lon="5.64347">
        <ele>181.6</ele>
        <time>2014-01-22T07:38:31Z</time>
      </trkpt>
      <trkpt lat="43.29243" lon="5.64351">
        <ele>180.6</ele>
        <time>2014-01-22T07:38:34Z</time>
      </trkpt>
      <trkpt lat="43.29242" lon="5.64356">
        <ele>182.8</ele>
        <time>2014-01-22T07:38:37Z</time>
      </trkpt>
      <trkpt lat="43.29241" lon="5.64362">
        <ele>182.5</ele>
        <time>2014-01-22T07:38:40Z</time>
      </trkpt>
      <trkpt lat="43.2924" lon="5.64367">
        <ele>182.3</ele>
        <time>2014-01-22T07:38:43Z</time>
      </trkpt>
      <trkpt lat="43.2924" lon="5.64368">
        <ele>182.1</ele>
        <time>2014-01-22T07:38:44Z</time>
      </trkpt>
      <trkpt lat="43.29238" lon="5.64376">
        <ele>182.6</ele>
        <time>2014-01-22T07:38:49Z</time>
      </trkpt>
      <trkpt lat="43.29235" lon="5.64381">
        <ele>184.6</ele>
        <time>2014-01-22T07:38:52Z</time>
      </trkpt>
      <trkpt lat="43.29233" lon="5.64385">
        <ele>184.8</ele>
        <time>2014-01-22T07:38:55Z</time>
      </trkpt>
      <trkpt lat="43.29231" lon="5.64389">
        <ele>185.5</ele>
        <time>2014-01-22T07:38:58Z</time>
      </trkpt>
      <trkpt lat="43.2923" lon="5.64395">
        <ele>184.8</ele>
        <time>2014-01-22T07:39:02Z</time>
      </trkpt>
      <trkpt lat="43.29229" lon="5.64399">
        <ele>186.3</ele>
        <time>2014-01-22T07:39:04Z</time>
      </trkpt>
      <trkpt lat="43.29227" lon="5.64404">
        <ele>187.8</ele>
        <time>2014-01-22T07:39:07Z</time>
      </trkpt>
      <trkpt lat="43.29226" lon="5.64409">
        <ele>189.1</ele>
        <time>2014-01-22T07:39:10Z</time>
      </trkpt>
      <trkpt lat="43.29225" lon="5.64414">
        <ele>188.8</ele>
        <time>2014-01-22T07:39:13Z</time>
      </trkpt>
      <trkpt lat="43.29224" lon="5.64419">
        <ele>188.8</ele>
        <time>2014-01-22T07:39:16Z</time>
      </trkpt>
      <trkpt lat="43.29224" lon="5.64424">
        <ele>188.1</ele>
        <time>2014-01-22T07:39:19Z</time>
      </trkpt>
      <trkpt lat="43.29223" lon="5.64429">
        <ele>188.1</ele>
        <time>2014-01-22T07:39:22Z</time>
      </trkpt>
      <trkpt lat="43.29223" lon="5.64434">
        <ele>187.6</ele>
        <time>2014-01-22T07:39:25Z</time>
      </trkpt>
      <trkpt lat="43.29222" lon="5.64439">
        <ele>187.8</ele>
        <time>2014-01-22T07:39:28Z</time>
      </trkpt>
      <trkpt lat="43.29221" lon="5.64444">
        <ele>187.8</ele>
        <time>2014-01-22T07:39:31Z</time>
      </trkpt>
      <trkpt lat="43.2922" lon="5.64448">
        <ele>187.8</ele>
        <time>2014-01-22T07:39:34Z</time>
      </trkpt>
      <trkpt lat="43.2922" lon="5.64453">
        <ele>187.3</ele>
        <time>2014-01-22T07:39:37Z</time>
      </trkpt>
      <trkpt lat="43.29219" lon="5.64458">
        <ele>187.3</ele>
        <time>2014-01-22T07:39:40Z</time>
      </trkpt>
      <trkpt lat="43.29217" lon="5.64462">
        <ele>187.6</ele>
        <time>2014-01-22T07:39:43Z</time>
      </trkpt>
      <trkpt lat="43.29215" lon="5.64466">
        <ele>187.6</ele>
        <time>2014-01-22T07:39:46Z</time>
      </trkpt>
      <trkpt lat="43.29214" lon="5.64468">
        <ele>187.6</ele>
        <time>2014-01-22T07:39:47Z</time>
      </trkpt>
      <trkpt lat="43.29211" lon="5.64475">
        <ele>187.8</ele>
        <time>2014-01-22T07:39:52Z</time>
      </trkpt>
      <trkpt lat="43.29209" lon="5.6448">
        <ele>187.3</ele>
        <time>2014-01-22T07:39:56Z</time>
      </trkpt>
      <trkpt lat="43.29207" lon="5.64486">
        <ele>187.3</ele>
        <time>2014-01-22T07:40:00Z</time>
      </trkpt>
      <trkpt lat="43.29205" lon="5.64491">
        <ele>187.1</ele>
        <time>2014-01-22T07:40:04Z</time>
      </trkpt>
      <trkpt lat="43.29202" lon="5.64495">
        <ele>186.6</ele>
        <time>2014-01-22T07:40:08Z</time>
      </trkpt>
      <trkpt lat="43.29199" lon="5.645">
        <ele>186.6</ele>
        <time>2014-01-22T07:40:12Z</time>
      </trkpt>
      <trkpt lat="43.29197" lon="5.64503">
        <ele>186.8</ele>
        <time>2014-01-22T07:40:15Z</time>
      </trkpt>
      <trkpt lat="43.29194" lon="5.64508">
        <ele>187.3</ele>
        <time>2014-01-22T07:40:19Z</time>
      </trkpt>
      <trkpt lat="43.29193" lon="5.64513">
        <ele>187.5</ele>
        <time>2014-01-22T07:40:24Z</time>
      </trkpt>
      <trkpt lat="43.29193" lon="5.64519">
        <ele>187.6</ele>
        <time>2014-01-22T07:40:30Z</time>
      </trkpt>
      <trkpt lat="43.29195" lon="5.64523">
        <ele>186.6</ele>
        <time>2014-01-22T07:40:35Z</time>
      </trkpt>
      <trkpt lat="43.29198" lon="5.64527">
        <ele>186.6</ele>
        <time>2014-01-22T07:40:39Z</time>
      </trkpt>
      <trkpt lat="43.29202" lon="5.64529">
        <ele>186.3</ele>
        <time>2014-01-22T07:40:43Z</time>
      </trkpt>
      <trkpt lat="43.29205" lon="5.64531">
        <ele>185.6</ele>
        <time>2014-01-22T07:40:46Z</time>
      </trkpt>
      <trkpt lat="43.29209" lon="5.64533">
        <ele>184.8</ele>
        <time>2014-01-22T07:40:49Z</time>
      </trkpt>
      <trkpt lat="43.2921" lon="5.64533">
        <ele>184.3</ele>
        <time>2014-01-22T07:40:50Z</time>
      </trkpt>
      <trkpt lat="43.29216" lon="5.64537">
        <ele>181.1</ele>
        <time>2014-01-22T07:40:57Z</time>
      </trkpt>
      <trkpt lat="43.29219" lon="5.6454">
        <ele>180.3</ele>
        <time>2014-01-22T07:41:00Z</time>
      </trkpt>
      <trkpt lat="43.29222" lon="5.64544">
        <ele>179.3</ele>
        <time>2014-01-22T07:41:03Z</time>
      </trkpt>
      <trkpt lat="43.29225" lon="5.64548">
        <ele>179.3</ele>
        <time>2014-01-22T07:41:06Z</time>
      </trkpt>
      <trkpt lat="43.29226" lon="5.64552">
        <ele>180.8</ele>
        <time>2014-01-22T07:41:08Z</time>
      </trkpt>
      <trkpt lat="43.29227" lon="5.64557">
        <ele>183.1</ele>
        <time>2014-01-22T07:41:10Z</time>
      </trkpt>
      <trkpt lat="43.29228" lon="5.64562">
        <ele>182.3</ele>
        <time>2014-01-22T07:41:14Z</time>
      </trkpt>
      <trkpt lat="43.29229" lon="5.64567">
        <ele>182.1</ele>
        <time>2014-01-22T07:41:18Z</time>
      </trkpt>
      <trkpt lat="43.29229" lon="5.64573">
        <ele>182.6</ele>
        <time>2014-01-22T07:41:22Z</time>
      </trkpt>
      <trkpt lat="43.29228" lon="5.64578">
        <ele>181.6</ele>
        <time>2014-01-22T07:41:27Z</time>
      </trkpt>
      <trkpt lat="43.29228" lon="5.64584">
        <ele>181.8</ele>
        <time>2014-01-22T07:41:35Z</time>
      </trkpt>
      <trkpt lat="43.29227" lon="5.64589">
        <ele>182</ele>
        <time>2014-01-22T07:41:40Z</time>
      </trkpt>
      <trkpt lat="43.29226" lon="5.64594">
        <ele>182.1</ele>
        <time>2014-01-22T07:41:44Z</time>
      </trkpt>
      <trkpt lat="43.29225" lon="5.64599">
        <ele>182.1</ele>
        <time>2014-01-22T07:41:49Z</time>
      </trkpt>
      <trkpt lat="43.29224" lon="5.64605">
        <ele>185.1</ele>
        <time>2014-01-22T07:42:01Z</time>
      </trkpt>
      <trkpt lat="43.29224" lon="5.64606">
        <ele>185.1</ele>
        <time>2014-01-22T07:42:02Z</time>
      </trkpt>
      <trkpt lat="43.29224" lon="5.64605">
        <ele>193.8</ele>
        <time>2014-01-22T07:42:38Z</time>
      </trkpt>
      <trkpt lat="43.29223" lon="5.646">
        <ele>191</ele>
        <time>2014-01-22T07:42:50Z</time>
      </trkpt>
      <trkpt lat="43.29226" lon="5.64596">
        <ele>187.3</ele>
        <time>2014-01-22T07:42:55Z</time>
      </trkpt>
      <trkpt lat="43.29229" lon="5.64593">
        <ele>184.1</ele>
        <time>2014-01-22T07:42:59Z</time>
      </trkpt>
      <trkpt lat="43.29231" lon="5.64589">
        <ele>182</ele>
        <time>2014-01-22T07:43:03Z</time>
      </trkpt>
      <trkpt lat="43.29231" lon="5.64587">
        <ele>182.1</ele>
        <time>2014-01-22T07:43:04Z</time>
      </trkpt>
      <trkpt lat="43.29235" lon="5.64578">
        <ele>180.3</ele>
        <time>2014-01-22T07:43:11Z</time>
      </trkpt>
      <trkpt lat="43.29236" lon="5.64572">
        <ele>180.1</ele>
        <time>2014-01-22T07:43:15Z</time>
      </trkpt>
      <trkpt lat="43.29238" lon="5.64568">
        <ele>179.5</ele>
        <time>2014-01-22T07:43:22Z</time>
      </trkpt>
      <trkpt lat="43.29241" lon="5.64566">
        <ele>178.8</ele>
        <time>2014-01-22T07:43:26Z</time>
      </trkpt>
      <trkpt lat="43.29245" lon="5.64569">
        <ele>189.3</ele>
        <time>2014-01-22T07:44:48Z</time>
      </trkpt>
      <trkpt lat="43.29246" lon="5.64568">
        <ele>189.3</ele>
        <time>2014-01-22T07:44:49Z</time>
      </trkpt>
      <trkpt lat="43.29252" lon="5.64568">
        <ele>187.6</ele>
        <time>2014-01-22T07:44:56Z</time>
      </trkpt>
      <trkpt lat="43.29257" lon="5.64568">
        <ele>187.3</ele>
        <time>2014-01-22T07:45:01Z</time>
      </trkpt>
      <trkpt lat="43.2926" lon="5.64568">
        <ele>189.1</ele>
        <time>2014-01-22T07:45:05Z</time>
      </trkpt>
      <trkpt lat="43.29265" lon="5.64569">
        <ele>191.6</ele>
        <time>2014-01-22T07:45:09Z</time>
      </trkpt>
      <trkpt lat="43.29268" lon="5.64571">
        <ele>192.8</ele>
        <time>2014-01-22T07:45:13Z</time>
      </trkpt>
      <trkpt lat="43.29272" lon="5.64571">
        <ele>193.3</ele>
        <time>2014-01-22T07:45:17Z</time>
      </trkpt>
      <trkpt lat="43.29276" lon="5.64571">
        <ele>192.8</ele>
        <time>2014-01-22T07:45:22Z</time>
      </trkpt>
      <trkpt lat="43.2928" lon="5.64572">
        <ele>191.8</ele>
        <time>2014-01-22T07:45:27Z</time>
      </trkpt>
      <trkpt lat="43.29284" lon="5.64573">
        <ele>191.3</ele>
        <time>2014-01-22T07:45:31Z</time>
      </trkpt>
      <trkpt lat="43.29289" lon="5.64574">
        <ele>191.6</ele>
        <time>2014-01-22T07:45:36Z</time>
      </trkpt>
      <trkpt lat="43.29292" lon="5.64576">
        <ele>191.8</ele>
        <time>2014-01-22T07:45:40Z</time>
      </trkpt>
      <trkpt lat="43.29295" lon="5.64577">
        <ele>191.6</ele>
        <time>2014-01-22T07:45:43Z</time>
      </trkpt>
      <trkpt lat="43.29299" lon="5.64579">
        <ele>192</ele>
        <time>2014-01-22T07:45:46Z</time>
      </trkpt>
      <trkpt lat="43.29302" lon="5.6458">
        <ele>194</ele>
        <time>2014-01-22T07:45:49Z</time>
      </trkpt>
      <trkpt lat="43.29303" lon="5.64581">
        <ele>194.8</ele>
        <time>2014-01-22T07:45:50Z</time>
      </trkpt>
      <trkpt lat="43.29309" lon="5.64587">
        <ele>194.6</ele>
        <time>2014-01-22T07:45:58Z</time>
      </trkpt>
      <trkpt lat="43.29312" lon="5.64591">
        <ele>195.1</ele>
        <time>2014-01-22T07:46:03Z</time>
      </trkpt>
      <trkpt lat="43.29314" lon="5.64595">
        <ele>196</ele>
        <time>2014-01-22T07:46:07Z</time>
      </trkpt>
      <trkpt lat="43.29317" lon="5.64599">
        <ele>196.8</ele>
        <time>2014-01-22T07:46:12Z</time>
      </trkpt>
      <trkpt lat="43.29321" lon="5.64602">
        <ele>197.8</ele>
        <time>2014-01-22T07:46:17Z</time>
      </trkpt>
      <trkpt lat="43.29324" lon="5.64604">
        <ele>197.6</ele>
        <time>2014-01-22T07:46:21Z</time>
      </trkpt>
      <trkpt lat="43.29327" lon="5.64606">
        <ele>197.5</ele>
        <time>2014-01-22T07:46:25Z</time>
      </trkpt>
      <trkpt lat="43.29331" lon="5.64609">
        <ele>198.1</ele>
        <time>2014-01-22T07:46:29Z</time>
      </trkpt>
      <trkpt lat="43.29334" lon="5.64612">
        <ele>199.1</ele>
        <time>2014-01-22T07:46:33Z</time>
      </trkpt>
      <trkpt lat="43.29337" lon="5.64615">
        <ele>199.3</ele>
        <time>2014-01-22T07:46:37Z</time>
      </trkpt>
      <trkpt lat="43.2934" lon="5.64618">
        <ele>200.1</ele>
        <time>2014-01-22T07:46:41Z</time>
      </trkpt>
      <trkpt lat="43.29343" lon="5.64622">
        <ele>199.5</ele>
        <time>2014-01-22T07:46:46Z</time>
      </trkpt>
      <trkpt lat="43.29346" lon="5.64626">
        <ele>199.3</ele>
        <time>2014-01-22T07:46:50Z</time>
      </trkpt>
      <trkpt lat="43.29347" lon="5.64627">
        <ele>199.5</ele>
        <time>2014-01-22T07:46:51Z</time>
      </trkpt>
      <trkpt lat="43.29352" lon="5.64633">
        <ele>200.1</ele>
        <time>2014-01-22T07:46:59Z</time>
      </trkpt>
      <trkpt lat="43.29355" lon="5.64637">
        <ele>202.6</ele>
        <time>2014-01-22T07:47:04Z</time>
      </trkpt>
      <trkpt lat="43.29358" lon="5.64641">
        <ele>205</ele>
        <time>2014-01-22T07:47:09Z</time>
      </trkpt>
      <trkpt lat="43.29362" lon="5.64645">
        <ele>206.3</ele>
        <time>2014-01-22T07:47:15Z</time>
      </trkpt>
      <trkpt lat="43.29365" lon="5.64649">
        <ele>207.1</ele>
        <time>2014-01-22T07:47:21Z</time>
      </trkpt>
      <trkpt lat="43.29368" lon="5.64653">
        <ele>208.3</ele>
        <time>2014-01-22T07:47:27Z</time>
      </trkpt>
      <trkpt lat="43.2937" lon="5.64657">
        <ele>210.6</ele>
        <time>2014-01-22T07:47:32Z</time>
      </trkpt>
      <trkpt lat="43.29373" lon="5.6466">
        <ele>211.5</ele>
        <time>2014-01-22T07:47:37Z</time>
      </trkpt>
      <trkpt lat="43.29377" lon="5.64662">
        <ele>211</ele>
        <time>2014-01-22T07:47:43Z</time>
      </trkpt>
      <trkpt lat="43.29381" lon="5.64665">
        <ele>212.8</ele>
        <time>2014-01-22T07:47:49Z</time>
      </trkpt>
      <trkpt lat="43.29386" lon="5.64665">
        <ele>212.8</ele>
        <time>2014-01-22T07:47:56Z</time>
      </trkpt>
      <trkpt lat="43.29386" lon="5.64665">
        <ele>212.8</ele>
        <time>2014-01-22T07:47:57Z</time>
      </trkpt>
      <trkpt lat="43.29394" lon="5.64666">
        <ele>212.1</ele>
        <time>2014-01-22T07:48:09Z</time>
      </trkpt>
      <trkpt lat="43.29398" lon="5.64668">
        <ele>212.8</ele>
        <time>2014-01-22T07:48:15Z</time>
      </trkpt>
      <trkpt lat="43.29402" lon="5.6467">
        <ele>214.1</ele>
        <time>2014-01-22T07:48:21Z</time>
      </trkpt>
      <trkpt lat="43.29405" lon="5.64673">
        <ele>214.3</ele>
        <time>2014-01-22T07:48:26Z</time>
      </trkpt>
      <trkpt lat="43.29408" lon="5.64676">
        <ele>215.8</ele>
        <time>2014-01-22T07:48:31Z</time>
      </trkpt>
      <trkpt lat="43.29411" lon="5.6468">
        <ele>215.6</ele>
        <time>2014-01-22T07:48:37Z</time>
      </trkpt>
      <trkpt lat="43.29415" lon="5.64684">
        <ele>217.1</ele>
        <time>2014-01-22T07:48:43Z</time>
      </trkpt>
      <trkpt lat="43.29418" lon="5.64689">
        <ele>218.6</ele>
        <time>2014-01-22T07:48:53Z</time>
      </trkpt>
      <trkpt lat="43.29421" lon="5.64692">
        <ele>218.6</ele>
        <time>2014-01-22T07:49:01Z</time>
      </trkpt>
      <trkpt lat="43.29422" lon="5.64693">
        <ele>218.6</ele>
        <time>2014-01-22T07:49:02Z</time>
      </trkpt>
      <trkpt lat="43.29428" lon="5.64695">
        <ele>226.6</ele>
        <time>2014-01-22T07:49:15Z</time>
      </trkpt>
      <trkpt lat="43.29432" lon="5.64697">
        <ele>225.5</ele>
        <time>2014-01-22T07:49:23Z</time>
      </trkpt>
      <trkpt lat="43.29435" lon="5.647">
        <ele>223.6</ele>
        <time>2014-01-22T07:49:27Z</time>
      </trkpt>
      <trkpt lat="43.29439" lon="5.64699">
        <ele>222.3</ele>
        <time>2014-01-22T07:49:35Z</time>
      </trkpt>
      <trkpt lat="43.29443" lon="5.64699">
        <ele>223.3</ele>
        <time>2014-01-22T07:49:42Z</time>
      </trkpt>
      <trkpt lat="43.29447" lon="5.64699">
        <ele>222.6</ele>
        <time>2014-01-22T07:49:49Z</time>
      </trkpt>
      <trkpt lat="43.29451" lon="5.64702">
        <ele>224.5</ele>
        <time>2014-01-22T07:49:54Z</time>
      </trkpt>
      <trkpt lat="43.29455" lon="5.64704">
        <ele>224.1</ele>
        <time>2014-01-22T07:50:00Z</time>
      </trkpt>
      <trkpt lat="43.29459" lon="5.64704">
        <ele>225.1</ele>
        <time>2014-01-22T07:50:06Z</time>
      </trkpt>
      <trkpt lat="43.2946" lon="5.64704">
        <ele>224.8</ele>
        <time>2014-01-22T07:50:07Z</time>
      </trkpt>
      <trkpt lat="43.29466" lon="5.64706">
        <ele>225.3</ele>
        <time>2014-01-22T07:50:16Z</time>
      </trkpt>
      <trkpt lat="43.2947" lon="5.64706">
        <ele>225.5</ele>
        <time>2014-01-22T07:50:22Z</time>
      </trkpt>
      <trkpt lat="43.29474" lon="5.64708">
        <ele>226.1</ele>
        <time>2014-01-22T07:50:29Z</time>
      </trkpt>
      <trkpt lat="43.29478" lon="5.64708">
        <ele>230.5</ele>
        <time>2014-01-22T07:50:36Z</time>
      </trkpt>
      <trkpt lat="43.29482" lon="5.6471">
        <ele>235.8</ele>
        <time>2014-01-22T07:50:41Z</time>
      </trkpt>
      <trkpt lat="43.29486" lon="5.64712">
        <ele>240.1</ele>
        <time>2014-01-22T07:50:50Z</time>
      </trkpt>
      <trkpt lat="43.2949" lon="5.64711">
        <ele>245.6</ele>
        <time>2014-01-22T07:50:57Z</time>
      </trkpt>
      <trkpt lat="43.29494" lon="5.64713">
        <ele>243.1</ele>
        <time>2014-01-22T07:51:01Z</time>
      </trkpt>
      <trkpt lat="43.29497" lon="5.64713">
        <ele>244.3</ele>
        <time>2014-01-22T07:51:05Z</time>
      </trkpt>
      <trkpt lat="43.29501" lon="5.64714">
        <ele>242.3</ele>
        <time>2014-01-22T07:51:12Z</time>
      </trkpt>
      <trkpt lat="43.29502" lon="5.64713">
        <ele>242</ele>
        <time>2014-01-22T07:51:13Z</time>
      </trkpt>
      <trkpt lat="43.29509" lon="5.64715">
        <ele>234.6</ele>
        <time>2014-01-22T07:51:25Z</time>
      </trkpt>
      <trkpt lat="43.29513" lon="5.64717">
        <ele>237.6</ele>
        <time>2014-01-22T07:51:31Z</time>
      </trkpt>
      <trkpt lat="43.29517" lon="5.64718">
        <ele>238.3</ele>
        <time>2014-01-22T07:51:38Z</time>
      </trkpt>
      <trkpt lat="43.2952" lon="5.64721">
        <ele>237.1</ele>
        <time>2014-01-22T07:51:45Z</time>
      </trkpt>
      <trkpt lat="43.29524" lon="5.64724">
        <ele>237.1</ele>
        <time>2014-01-22T07:51:52Z</time>
      </trkpt>
      <trkpt lat="43.29528" lon="5.64726">
        <ele>240.3</ele>
        <time>2014-01-22T07:52:00Z</time>
      </trkpt>
      <trkpt lat="43.29533" lon="5.64727">
        <ele>244.5</ele>
        <time>2014-01-22T07:52:07Z</time>
      </trkpt>
      <trkpt lat="43.29537" lon="5.64725">
        <ele>246.3</ele>
        <time>2014-01-22T07:52:17Z</time>
      </trkpt>
      <trkpt lat="43.29537" lon="5.64725">
        <ele>246.8</ele>
        <time>2014-01-22T07:52:18Z</time>
      </trkpt>
      <trkpt lat="43.29546" lon="5.64725">
        <ele>244.6</ele>
        <time>2014-01-22T07:52:34Z</time>
      </trkpt>
      <trkpt lat="43.2955" lon="5.64726">
        <ele>245.6</ele>
        <time>2014-01-22T07:52:40Z</time>
      </trkpt>
      <trkpt lat="43.29554" lon="5.64727">
        <ele>247.3</ele>
        <time>2014-01-22T07:52:48Z</time>
      </trkpt>
      <trkpt lat="43.29557" lon="5.64731">
        <ele>252.1</ele>
        <time>2014-01-22T07:52:55Z</time>
      </trkpt>
      <trkpt lat="43.2956" lon="5.64735">
        <ele>255</ele>
        <time>2014-01-22T07:53:01Z</time>
      </trkpt>
      <trkpt lat="43.29563" lon="5.6474">
        <ele>257</ele>
        <time>2014-01-22T07:53:12Z</time>
      </trkpt>
      <trkpt lat="43.29566" lon="5.64744">
        <ele>258.2</ele>
        <time>2014-01-22T07:53:22Z</time>
      </trkpt>
      <trkpt lat="43.29566" lon="5.64744">
        <ele>258.2</ele>
        <time>2014-01-22T07:53:23Z</time>
      </trkpt>
      <trkpt lat="43.29571" lon="5.64753">
        <ele>258.8</ele>
        <time>2014-01-22T07:53:40Z</time>
      </trkpt>
      <trkpt lat="43.2957" lon="5.64758">
        <ele>263.7</ele>
        <time>2014-01-22T07:53:45Z</time>
      </trkpt>
      <trkpt lat="43.29566" lon="5.64762">
        <ele>267</ele>
        <time>2014-01-22T07:53:56Z</time>
      </trkpt>
      <trkpt lat="43.29564" lon="5.64767">
        <ele>266.7</ele>
        <time>2014-01-22T07:54:05Z</time>
      </trkpt>
      <trkpt lat="43.29564" lon="5.64773">
        <ele>277.8</ele>
        <time>2014-01-22T07:54:23Z</time>
      </trkpt>
      <trkpt lat="43.29564" lon="5.64774">
        <ele>278.2</ele>
        <time>2014-01-22T07:54:24Z</time>
      </trkpt>
      <trkpt lat="43.29568" lon="5.64769">
        <ele>299.2</ele>
        <time>2014-01-22T07:54:38Z</time>
      </trkpt>
      <trkpt lat="43.2957" lon="5.64773">
        <ele>296.6</ele>
        <time>2014-01-22T07:54:51Z</time>
      </trkpt>
      <trkpt lat="43.29573" lon="5.64776">
        <ele>297.7</ele>
        <time>2014-01-22T07:55:01Z</time>
      </trkpt>
      <trkpt lat="43.29576" lon="5.64779">
        <ele>294.8</ele>
        <time>2014-01-22T07:55:04Z</time>
      </trkpt>
      <trkpt lat="43.29579" lon="5.64783">
        <ele>290.5</ele>
        <time>2014-01-22T07:55:09Z</time>
      </trkpt>
      <trkpt lat="43.29583" lon="5.64781">
        <ele>292.7</ele>
        <time>2014-01-22T07:55:19Z</time>
      </trkpt>
      <trkpt lat="43.29586" lon="5.64778">
        <ele>296.6</ele>
        <time>2014-01-22T07:55:26Z</time>
      </trkpt>
      <trkpt lat="43.29587" lon="5.64778">
        <ele>295.8</ele>
        <time>2014-01-22T07:55:27Z</time>
      </trkpt>
      <trkpt lat="43.29592" lon="5.64787">
        <ele>285.8</ele>
        <time>2014-01-22T07:55:35Z</time>
      </trkpt>
      <trkpt lat="43.29596" lon="5.64789">
        <ele>283.5</ele>
        <time>2014-01-22T07:55:48Z</time>
      </trkpt>
      <trkpt lat="43.296" lon="5.64787">
        <ele>282.3</ele>
        <time>2014-01-22T07:55:58Z</time>
      </trkpt>
      <trkpt lat="43.29604" lon="5.64788">
        <ele>280</ele>
        <time>2014-01-22T07:56:04Z</time>
      </trkpt>
      <trkpt lat="43.29609" lon="5.64786">
        <ele>278</ele>
        <time>2014-01-22T07:56:10Z</time>
      </trkpt>
      <trkpt lat="43.29613" lon="5.64784">
        <ele>277.7</ele>
        <time>2014-01-22T07:56:18Z</time>
      </trkpt>
      <trkpt lat="43.29609" lon="5.64784">
        <ele>285.2</ele>
        <time>2014-01-22T07:57:02Z</time>
      </trkpt>
      <trkpt lat="43.29608" lon="5.64784">
        <ele>286.5</ele>
        <time>2014-01-22T07:57:03Z</time>
      </trkpt>
      <trkpt lat="43.29616" lon="5.64787">
        <ele>287.7</ele>
        <time>2014-01-22T07:57:18Z</time>
      </trkpt>
      <trkpt lat="43.2962" lon="5.64788">
        <ele>286.5</ele>
        <time>2014-01-22T07:57:23Z</time>
      </trkpt>
      <trkpt lat="43.29624" lon="5.64791">
        <ele>287.2</ele>
        <time>2014-01-22T07:57:29Z</time>
      </trkpt>
      <trkpt lat="43.29627" lon="5.64795">
        <ele>289.2</ele>
        <time>2014-01-22T07:57:35Z</time>
      </trkpt>
      <trkpt lat="43.2963" lon="5.64798">
        <ele>289.2</ele>
        <time>2014-01-22T07:57:42Z</time>
      </trkpt>
      <trkpt lat="43.29633" lon="5.64803">
        <ele>289.1</ele>
        <time>2014-01-22T07:57:50Z</time>
      </trkpt>
      <trkpt lat="43.29635" lon="5.64808">
        <ele>288.5</ele>
        <time>2014-01-22T07:57:57Z</time>
      </trkpt>
      <trkpt lat="43.29638" lon="5.64812">
        <ele>288.5</ele>
        <time>2014-01-22T07:58:04Z</time>
      </trkpt>
      <trkpt lat="43.29638" lon="5.64812">
        <ele>288.2</ele>
        <time>2014-01-22T07:58:05Z</time>
      </trkpt>
      <trkpt lat="43.29642" lon="5.64821">
        <ele>289.3</ele>
        <time>2014-01-22T07:58:18Z</time>
      </trkpt>
      <trkpt lat="43.29642" lon="5.64827">
        <ele>291.7</ele>
        <time>2014-01-22T07:58:25Z</time>
      </trkpt>
      <trkpt lat="43.29642" lon="5.64833">
        <ele>292.8</ele>
        <time>2014-01-22T07:58:31Z</time>
      </trkpt>
      <trkpt lat="43.29643" lon="5.64838">
        <ele>292.2</ele>
        <time>2014-01-22T07:58:39Z</time>
      </trkpt>
      <trkpt lat="43.29646" lon="5.64841">
        <ele>294.2</ele>
        <time>2014-01-22T07:58:46Z</time>
      </trkpt>
      <trkpt lat="43.2965" lon="5.64841">
        <ele>296.7</ele>
        <time>2014-01-22T07:58:54Z</time>
      </trkpt>
      <trkpt lat="43.29655" lon="5.64843">
        <ele>298.2</ele>
        <time>2014-01-22T07:59:02Z</time>
      </trkpt>
      <trkpt lat="43.29659" lon="5.64844">
        <ele>297.6</ele>
        <time>2014-01-22T07:59:09Z</time>
      </trkpt>
      <trkpt lat="43.29659" lon="5.64844">
        <ele>297.5</ele>
        <time>2014-01-22T07:59:10Z</time>
      </trkpt>
      <trkpt lat="43.29667" lon="5.64846">
        <ele>302.8</ele>
        <time>2014-01-22T07:59:25Z</time>
      </trkpt>
      <trkpt lat="43.29671" lon="5.64847">
        <ele>304.1</ele>
        <time>2014-01-22T07:59:35Z</time>
      </trkpt>
      <trkpt lat="43.29675" lon="5.64848">
        <ele>304.7</ele>
        <time>2014-01-22T07:59:44Z</time>
      </trkpt>
      <trkpt lat="43.29679" lon="5.64849">
        <ele>303.8</ele>
        <time>2014-01-22T07:59:51Z</time>
      </trkpt>
      <trkpt lat="43.29684" lon="5.64851">
        <ele>307</ele>
        <time>2014-01-22T08:00:01Z</time>
      </trkpt>
      <trkpt lat="43.29688" lon="5.64853">
        <ele>308.6</ele>
        <time>2014-01-22T08:00:10Z</time>
      </trkpt>
      <trkpt lat="43.29688" lon="5.64853">
        <ele>308.7</ele>
        <time>2014-01-22T08:00:11Z</time>
      </trkpt>
      <trkpt lat="43.29696" lon="5.64854">
        <ele>310.2</ele>
        <time>2014-01-22T08:00:28Z</time>
      </trkpt>
      <trkpt lat="43.297" lon="5.64854">
        <ele>311.2</ele>
        <time>2014-01-22T08:00:36Z</time>
      </trkpt>
      <trkpt lat="43.29705" lon="5.64856">
        <ele>312.5</ele>
        <time>2014-01-22T08:00:43Z</time>
      </trkpt>
      <trkpt lat="43.29709" lon="5.64858">
        <ele>312.2</ele>
        <time>2014-01-22T08:00:50Z</time>
      </trkpt>
      <trkpt lat="43.29713" lon="5.64861">
        <ele>311.8</ele>
        <time>2014-01-22T08:00:56Z</time>
      </trkpt>
      <trkpt lat="43.29716" lon="5.64864">
        <ele>311.1</ele>
        <time>2014-01-22T08:01:02Z</time>
      </trkpt>
      <trkpt lat="43.29719" lon="5.64868">
        <ele>312.2</ele>
        <time>2014-01-22T08:01:09Z</time>
      </trkpt>
      <trkpt lat="43.29722" lon="5.64872">
        <ele>313.1</ele>
        <time>2014-01-22T08:01:17Z</time>
      </trkpt>
      <trkpt lat="43.29723" lon="5.64873">
        <ele>313.2</ele>
        <time>2014-01-22T08:01:18Z</time>
      </trkpt>
      <trkpt lat="43.29727" lon="5.64881">
        <ele>317.7</ele>
        <time>2014-01-22T08:01:48Z</time>
      </trkpt>
      <trkpt lat="43.29731" lon="5.64884">
        <ele>316.3</ele>
        <time>2014-01-22T08:06:46Z</time>
      </trkpt>
      <trkpt lat="43.29732" lon="5.64885">
        <ele>316.3</ele>
        <time>2014-01-22T08:06:47Z</time>
      </trkpt>
      <trkpt lat="43.29734" lon="5.64895">
        <ele>318.2</ele>
        <time>2014-01-22T08:07:06Z</time>
      </trkpt>
      <trkpt lat="43.29737" lon="5.649">
        <ele>319.1</ele>
        <time>2014-01-22T08:07:15Z</time>
      </trkpt>
      <trkpt lat="43.2974" lon="5.64904">
        <ele>320</ele>
        <time>2014-01-22T08:07:23Z</time>
      </trkpt>
      <trkpt lat="43.29743" lon="5.64907">
        <ele>320.1</ele>
        <time>2014-01-22T08:07:31Z</time>
      </trkpt>
      <trkpt lat="43.29746" lon="5.64911">
        <ele>319.3</ele>
        <time>2014-01-22T08:07:38Z</time>
      </trkpt>
      <trkpt lat="43.29749" lon="5.64914">
        <ele>318.7</ele>
        <time>2014-01-22T08:07:44Z</time>
      </trkpt>
      <trkpt lat="43.29752" lon="5.64919">
        <ele>319.7</ele>
        <time>2014-01-22T08:07:51Z</time>
      </trkpt>
      <trkpt lat="43.29753" lon="5.64919">
        <ele>320</ele>
        <time>2014-01-22T08:07:52Z</time>
      </trkpt>
      <trkpt lat="43.29758" lon="5.64926">
        <ele>322.2</ele>
        <time>2014-01-22T08:08:04Z</time>
      </trkpt>
      <trkpt lat="43.29762" lon="5.6493">
        <ele>323.2</ele>
        <time>2014-01-22T08:08:10Z</time>
      </trkpt>
      <trkpt lat="43.29766" lon="5.64931">
        <ele>324.3</ele>
        <time>2014-01-22T08:08:17Z</time>
      </trkpt>
      <trkpt lat="43.2977" lon="5.64933">
        <ele>325.6</ele>
        <time>2014-01-22T08:08:25Z</time>
      </trkpt>
      <trkpt lat="43.29774" lon="5.64936">
        <ele>326.2</ele>
        <time>2014-01-22T08:08:31Z</time>
      </trkpt>
      <trkpt lat="43.29777" lon="5.64939">
        <ele>326.1</ele>
        <time>2014-01-22T08:08:37Z</time>
      </trkpt>
      <trkpt lat="43.29781" lon="5.6494">
        <ele>327.1</ele>
        <time>2014-01-22T08:08:41Z</time>
      </trkpt>
      <trkpt lat="43.29784" lon="5.64942">
        <ele>329</ele>
        <time>2014-01-22T08:08:46Z</time>
      </trkpt>
      <trkpt lat="43.29787" lon="5.64947">
        <ele>330.8</ele>
        <time>2014-01-22T08:08:52Z</time>
      </trkpt>
      <trkpt lat="43.29788" lon="5.64947">
        <ele>331</ele>
        <time>2014-01-22T08:08:53Z</time>
      </trkpt>
      <trkpt lat="43.29792" lon="5.64957">
        <ele>331.7</ele>
        <time>2014-01-22T08:09:06Z</time>
      </trkpt>
      <trkpt lat="43.29795" lon="5.64961">
        <ele>332.6</ele>
        <time>2014-01-22T08:09:12Z</time>
      </trkpt>
      <trkpt lat="43.29797" lon="5.64966">
        <ele>335.1</ele>
        <time>2014-01-22T08:09:18Z</time>
      </trkpt>
      <trkpt lat="43.298" lon="5.64969">
        <ele>334.8</ele>
        <time>2014-01-22T08:09:23Z</time>
      </trkpt>
      <trkpt lat="43.29797" lon="5.64973">
        <ele>335.1</ele>
        <time>2014-01-22T08:09:33Z</time>
      </trkpt>
      <trkpt lat="43.29793" lon="5.64971">
        <ele>335</ele>
        <time>2014-01-22T08:09:39Z</time>
      </trkpt>
      <trkpt lat="43.29789" lon="5.64969">
        <ele>335.6</ele>
        <time>2014-01-22T08:09:45Z</time>
      </trkpt>
      <trkpt lat="43.29785" lon="5.64965">
        <ele>337.3</ele>
        <time>2014-01-22T08:09:50Z</time>
      </trkpt>
      <trkpt lat="43.29781" lon="5.64963">
        <ele>338.8</ele>
        <time>2014-01-22T08:09:57Z</time>
      </trkpt>
      <trkpt lat="43.29781" lon="5.64963">
        <ele>339.1</ele>
        <time>2014-01-22T08:09:58Z</time>
      </trkpt>
      <trkpt lat="43.29773" lon="5.64963">
        <ele>342.2</ele>
        <time>2014-01-22T08:10:10Z</time>
      </trkpt>
      <trkpt lat="43.29769" lon="5.64963">
        <ele>344</ele>
        <time>2014-01-22T08:10:17Z</time>
      </trkpt>
      <trkpt lat="43.29765" lon="5.64964">
        <ele>344.3</ele>
        <time>2014-01-22T08:10:24Z</time>
      </trkpt>
      <trkpt lat="43.29761" lon="5.64965">
        <ele>345.2</ele>
        <time>2014-01-22T08:10:31Z</time>
      </trkpt>
      <trkpt lat="43.29757" lon="5.64966">
        <ele>345</ele>
        <time>2014-01-22T08:10:36Z</time>
      </trkpt>
      <trkpt lat="43.29754" lon="5.64968">
        <ele>345.2</ele>
        <time>2014-01-22T08:10:41Z</time>
      </trkpt>
      <trkpt lat="43.29749" lon="5.64969">
        <ele>345.7</ele>
        <time>2014-01-22T08:10:47Z</time>
      </trkpt>
      <trkpt lat="43.29745" lon="5.6497">
        <ele>345.8</ele>
        <time>2014-01-22T08:10:52Z</time>
      </trkpt>
      <trkpt lat="43.29741" lon="5.6497">
        <ele>345.8</ele>
        <time>2014-01-22T08:10:57Z</time>
      </trkpt>
      <trkpt lat="43.29737" lon="5.64969">
        <ele>346.2</ele>
        <time>2014-01-22T08:11:02Z</time>
      </trkpt>
      <trkpt lat="43.29737" lon="5.64969">
        <ele>346.5</ele>
        <time>2014-01-22T08:11:03Z</time>
      </trkpt>
      <trkpt lat="43.29729" lon="5.64968">
        <ele>347.7</ele>
        <time>2014-01-22T08:11:12Z</time>
      </trkpt>
      <trkpt lat="43.29725" lon="5.64967">
        <ele>348.1</ele>
        <time>2014-01-22T08:11:17Z</time>
      </trkpt>
      <trkpt lat="43.29721" lon="5.64965">
        <ele>348.7</ele>
        <time>2014-01-22T08:11:22Z</time>
      </trkpt>
      <trkpt lat="43.29717" lon="5.64963">
        <ele>349.6</ele>
        <time>2014-01-22T08:11:27Z</time>
      </trkpt>
      <trkpt lat="43.29714" lon="5.64963">
        <ele>350.8</ele>
        <time>2014-01-22T08:11:31Z</time>
      </trkpt>
      <trkpt lat="43.29715" lon="5.64968">
        <ele>354</ele>
        <time>2014-01-22T08:11:40Z</time>
      </trkpt>
      <trkpt lat="43.29718" lon="5.64971">
        <ele>355.3</ele>
        <time>2014-01-22T08:11:46Z</time>
      </trkpt>
      <trkpt lat="43.29722" lon="5.64974">
        <ele>355.7</ele>
        <time>2014-01-22T08:11:52Z</time>
      </trkpt>
      <trkpt lat="43.29725" lon="5.64977">
        <ele>356</ele>
        <time>2014-01-22T08:11:58Z</time>
      </trkpt>
      <trkpt lat="43.29729" lon="5.6498">
        <ele>356.2</ele>
        <time>2014-01-22T08:12:04Z</time>
      </trkpt>
      <trkpt lat="43.2973" lon="5.64981">
        <ele>356.2</ele>
        <time>2014-01-22T08:12:05Z</time>
      </trkpt>
      <trkpt lat="43.29736" lon="5.64985">
        <ele>357.7</ele>
        <time>2014-01-22T08:12:14Z</time>
      </trkpt>
      <trkpt lat="43.2974" lon="5.64987">
        <ele>358.2</ele>
        <time>2014-01-22T08:12:19Z</time>
      </trkpt>
      <trkpt lat="43.29743" lon="5.6499">
        <ele>359.7</ele>
        <time>2014-01-22T08:12:24Z</time>
      </trkpt>
      <trkpt lat="43.29747" lon="5.64993">
        <ele>361.1</ele>
        <time>2014-01-22T08:12:30Z</time>
      </trkpt>
      <trkpt lat="43.29751" lon="5.64996">
        <ele>362.1</ele>
        <time>2014-01-22T08:12:36Z</time>
      </trkpt>
      <trkpt lat="43.29754" lon="5.64999">
        <ele>362.7</ele>
        <time>2014-01-22T08:12:42Z</time>
      </trkpt>
      <trkpt lat="43.29758" lon="5.65002">
        <ele>363.1</ele>
        <time>2014-01-22T08:12:48Z</time>
      </trkpt>
      <trkpt lat="43.29762" lon="5.65005">
        <ele>363.6</ele>
        <time>2014-01-22T08:12:54Z</time>
      </trkpt>
      <trkpt lat="43.29765" lon="5.65009">
        <ele>364.1</ele>
        <time>2014-01-22T08:12:59Z</time>
      </trkpt>
      <trkpt lat="43.29768" lon="5.65012">
        <ele>364.7</ele>
        <time>2014-01-22T08:13:04Z</time>
      </trkpt>
      <trkpt lat="43.29771" lon="5.65015">
        <ele>364.7</ele>
        <time>2014-01-22T08:13:10Z</time>
      </trkpt>
      <trkpt lat="43.29771" lon="5.65016">
        <ele>364.6</ele>
        <time>2014-01-22T08:13:11Z</time>
      </trkpt>
      <trkpt lat="43.29776" lon="5.65024">
        <ele>363.7</ele>
        <time>2014-01-22T08:13:26Z</time>
      </trkpt>
      <trkpt lat="43.29779" lon="5.65028">
        <ele>365.1</ele>
        <time>2014-01-22T08:13:34Z</time>
      </trkpt>
      <trkpt lat="43.29782" lon="5.65032">
        <ele>367.1</ele>
        <time>2014-01-22T08:13:42Z</time>
      </trkpt>
      <trkpt lat="43.29785" lon="5.65037">
        <ele>367.8</ele>
        <time>2014-01-22T08:13:50Z</time>
      </trkpt>
      <trkpt lat="43.29787" lon="5.65041">
        <ele>369.6</ele>
        <time>2014-01-22T08:14:00Z</time>
      </trkpt>
      <trkpt lat="43.2979" lon="5.65045">
        <ele>370.3</ele>
        <time>2014-01-22T08:14:09Z</time>
      </trkpt>
      <trkpt lat="43.29792" lon="5.65051">
        <ele>374.7</ele>
        <time>2014-01-22T08:14:38Z</time>
      </trkpt>
      <trkpt lat="43.29792" lon="5.65051">
        <ele>374.8</ele>
        <time>2014-01-22T08:14:39Z</time>
      </trkpt>
      <trkpt lat="43.29798" lon="5.65058">
        <ele>376.1</ele>
        <time>2014-01-22T08:15:02Z</time>
      </trkpt>
      <trkpt lat="43.298" lon="5.65063">
        <ele>377.1</ele>
        <time>2014-01-22T08:15:12Z</time>
      </trkpt>
      <trkpt lat="43.29803" lon="5.65068">
        <ele>377.7</ele>
        <time>2014-01-22T08:15:25Z</time>
      </trkpt>
      <trkpt lat="43.29805" lon="5.65073">
        <ele>380.1</ele>
        <time>2014-01-22T08:15:38Z</time>
      </trkpt>
      <trkpt lat="43.29809" lon="5.65077">
        <ele>380.3</ele>
        <time>2014-01-22T08:15:50Z</time>
      </trkpt>
      <trkpt lat="43.29809" lon="5.65077">
        <ele>380.3</ele>
        <time>2014-01-22T08:15:51Z</time>
      </trkpt>
      <trkpt lat="43.29813" lon="5.65087">
        <ele>384.7</ele>
        <time>2014-01-22T08:16:14Z</time>
      </trkpt>
      <trkpt lat="43.29817" lon="5.6509">
        <ele>385.5</ele>
        <time>2014-01-22T08:16:29Z</time>
      </trkpt>
      <trkpt lat="43.29821" lon="5.65093">
        <ele>387.6</ele>
        <time>2014-01-22T08:16:43Z</time>
      </trkpt>
      <trkpt lat="43.29824" lon="5.65097">
        <ele>390.5</ele>
        <time>2014-01-22T08:17:13Z</time>
      </trkpt>
      <trkpt lat="43.29824" lon="5.65098">
        <ele>390.6</ele>
        <time>2014-01-22T08:17:14Z</time>
      </trkpt>
      <trkpt lat="43.29828" lon="5.65107">
        <ele>393.2</ele>
        <time>2014-01-22T08:17:33Z</time>
      </trkpt>
      <trkpt lat="43.29832" lon="5.6511">
        <ele>395.2</ele>
        <time>2014-01-22T08:17:46Z</time>
      </trkpt>
      <trkpt lat="43.29835" lon="5.65115">
        <ele>396.6</ele>
        <time>2014-01-22T08:17:58Z</time>
      </trkpt>
      <trkpt lat="43.29838" lon="5.65119">
        <ele>396.7</ele>
        <time>2014-01-22T08:18:11Z</time>
      </trkpt>
      <trkpt lat="43.29841" lon="5.65123">
        <ele>398.8</ele>
        <time>2014-01-22T08:18:24Z</time>
      </trkpt>
      <trkpt lat="43.29842" lon="5.65123">
        <ele>399.2</ele>
        <time>2014-01-22T08:18:25Z</time>
      </trkpt>
      <trkpt lat="43.29847" lon="5.65132">
        <ele>399.6</ele>
        <time>2014-01-22T08:18:55Z</time>
      </trkpt>
      <trkpt lat="43.2985" lon="5.65136">
        <ele>398.5</ele>
        <time>2014-01-22T08:19:06Z</time>
      </trkpt>
      <trkpt lat="43.29853" lon="5.6514">
        <ele>401.3</ele>
        <time>2014-01-22T08:19:17Z</time>
      </trkpt>
      <trkpt lat="43.29856" lon="5.65145">
        <ele>404.7</ele>
        <time>2014-01-22T08:19:30Z</time>
      </trkpt>
      <trkpt lat="43.29856" lon="5.65145">
        <ele>404.8</ele>
        <time>2014-01-22T08:19:31Z</time>
      </trkpt>
      <trkpt lat="43.2986" lon="5.65155">
        <ele>412</ele>
        <time>2014-01-22T08:20:02Z</time>
      </trkpt>
      <trkpt lat="43.29862" lon="5.6516">
        <ele>413.7</ele>
        <time>2014-01-22T08:20:11Z</time>
      </trkpt>
      <trkpt lat="43.29864" lon="5.65165">
        <ele>415.6</ele>
        <time>2014-01-22T08:20:21Z</time>
      </trkpt>
      <trkpt lat="43.29865" lon="5.65171">
        <ele>419.8</ele>
        <time>2014-01-22T08:21:12Z</time>
      </trkpt>
      <trkpt lat="43.29866" lon="5.65171">
        <ele>420.1</ele>
        <time>2014-01-22T08:21:13Z</time>
      </trkpt>
      <trkpt lat="43.29869" lon="5.65181">
        <ele>419.7</ele>
        <time>2014-01-22T08:21:29Z</time>
      </trkpt>
      <trkpt lat="43.29871" lon="5.65186">
        <ele>421</ele>
        <time>2014-01-22T08:21:37Z</time>
      </trkpt>
      <trkpt lat="43.29872" lon="5.65192">
        <ele>422.7</ele>
        <time>2014-01-22T08:21:45Z</time>
      </trkpt>
      <trkpt lat="43.29874" lon="5.65197">
        <ele>424.2</ele>
        <time>2014-01-22T08:21:53Z</time>
      </trkpt>
      <trkpt lat="43.29876" lon="5.65203">
        <ele>425.8</ele>
        <time>2014-01-22T08:22:01Z</time>
      </trkpt>
      <trkpt lat="43.29878" lon="5.65208">
        <ele>428.2</ele>
        <time>2014-01-22T08:22:09Z</time>
      </trkpt>
      <trkpt lat="43.29881" lon="5.65213">
        <ele>432.2</ele>
        <time>2014-01-22T08:22:21Z</time>
      </trkpt>
      <trkpt lat="43.29881" lon="5.65213">
        <ele>432.7</ele>
        <time>2014-01-22T08:22:22Z</time>
      </trkpt>
      <trkpt lat="43.29882" lon="5.65224">
        <ele>433.2</ele>
        <time>2014-01-22T08:22:37Z</time>
      </trkpt>
      <trkpt lat="43.29884" lon="5.65229">
        <ele>433.2</ele>
        <time>2014-01-22T08:22:47Z</time>
      </trkpt>
      <trkpt lat="43.29885" lon="5.65235">
        <ele>433.8</ele>
        <time>2014-01-22T08:22:55Z</time>
      </trkpt>
      <trkpt lat="43.29887" lon="5.6524">
        <ele>437.8</ele>
        <time>2014-01-22T08:24:44Z</time>
      </trkpt>
      <trkpt lat="43.29887" lon="5.6524">
        <ele>438.3</ele>
        <time>2014-01-22T08:24:45Z</time>
      </trkpt>
      <trkpt lat="43.2989" lon="5.6525">
        <ele>440.6</ele>
        <time>2014-01-22T08:24:57Z</time>
      </trkpt>
      <trkpt lat="43.29892" lon="5.65255">
        <ele>441.8</ele>
        <time>2014-01-22T08:25:02Z</time>
      </trkpt>
      <trkpt lat="43.29893" lon="5.6526">
        <ele>442.1</ele>
        <time>2014-01-22T08:25:07Z</time>
      </trkpt>
      <trkpt lat="43.29895" lon="5.65266">
        <ele>442.1</ele>
        <time>2014-01-22T08:25:12Z</time>
      </trkpt>
      <trkpt lat="43.29896" lon="5.65271">
        <ele>442.3</ele>
        <time>2014-01-22T08:25:17Z</time>
      </trkpt>
      <trkpt lat="43.29898" lon="5.65276">
        <ele>442.7</ele>
        <time>2014-01-22T08:25:21Z</time>
      </trkpt>
      <trkpt lat="43.299" lon="5.6528">
        <ele>444.5</ele>
        <time>2014-01-22T08:25:25Z</time>
      </trkpt>
      <trkpt lat="43.29903" lon="5.65284">
        <ele>443.2</ele>
        <time>2014-01-22T08:25:30Z</time>
      </trkpt>
      <trkpt lat="43.29905" lon="5.65289">
        <ele>442.2</ele>
        <time>2014-01-22T08:25:34Z</time>
      </trkpt>
      <trkpt lat="43.29908" lon="5.65293">
        <ele>441.7</ele>
        <time>2014-01-22T08:25:39Z</time>
      </trkpt>
      <trkpt lat="43.29911" lon="5.65297">
        <ele>442.7</ele>
        <time>2014-01-22T08:25:44Z</time>
      </trkpt>
      <trkpt lat="43.29914" lon="5.653">
        <ele>440.2</ele>
        <time>2014-01-22T08:25:49Z</time>
      </trkpt>
      <trkpt lat="43.29915" lon="5.65301">
        <ele>439.8</ele>
        <time>2014-01-22T08:25:50Z</time>
      </trkpt>
      <trkpt lat="43.29921" lon="5.65309">
        <ele>440.7</ele>
        <time>2014-01-22T08:26:01Z</time>
      </trkpt>
      <trkpt lat="43.29924" lon="5.65312">
        <ele>441.8</ele>
        <time>2014-01-22T08:26:08Z</time>
      </trkpt>
      <trkpt lat="43.29928" lon="5.65315">
        <ele>443.5</ele>
        <time>2014-01-22T08:26:16Z</time>
      </trkpt>
      <trkpt lat="43.29932" lon="5.65317">
        <ele>445.1</ele>
        <time>2014-01-22T08:26:25Z</time>
      </trkpt>
      <trkpt lat="43.29936" lon="5.65318">
        <ele>446.8</ele>
        <time>2014-01-22T08:26:32Z</time>
      </trkpt>
      <trkpt lat="43.29939" lon="5.6532">
        <ele>450.1</ele>
        <time>2014-01-22T08:26:36Z</time>
      </trkpt>
      <trkpt lat="43.29944" lon="5.65321">
        <ele>450.8</ele>
        <time>2014-01-22T08:26:42Z</time>
      </trkpt>
      <trkpt lat="43.29948" lon="5.65322">
        <ele>452.7</ele>
        <time>2014-01-22T08:26:50Z</time>
      </trkpt>
      <trkpt lat="43.29948" lon="5.65323">
        <ele>452.5</ele>
        <time>2014-01-22T08:26:51Z</time>
      </trkpt>
      <trkpt lat="43.29956" lon="5.65325">
        <ele>453.8</ele>
        <time>2014-01-22T08:27:08Z</time>
      </trkpt>
      <trkpt lat="43.2996" lon="5.65326">
        <ele>454.6</ele>
        <time>2014-01-22T08:27:19Z</time>
      </trkpt>
      <trkpt lat="43.29964" lon="5.65328">
        <ele>454.3</ele>
        <time>2014-01-22T08:27:28Z</time>
      </trkpt>
      <trkpt lat="43.29968" lon="5.65329">
        <ele>453.5</ele>
        <time>2014-01-22T08:27:37Z</time>
      </trkpt>
      <trkpt lat="43.29972" lon="5.65328">
        <ele>454.6</ele>
        <time>2014-01-22T08:27:43Z</time>
      </trkpt>
      <trkpt lat="43.29976" lon="5.65327">
        <ele>456</ele>
        <time>2014-01-22T08:27:52Z</time>
      </trkpt>
      <trkpt lat="43.29977" lon="5.65327">
        <ele>456.2</ele>
        <time>2014-01-22T08:27:53Z</time>
      </trkpt>
      <trkpt lat="43.29984" lon="5.65326">
        <ele>460</ele>
        <time>2014-01-22T08:28:10Z</time>
      </trkpt>
      <trkpt lat="43.29988" lon="5.65325">
        <ele>461.3</ele>
        <time>2014-01-22T08:28:15Z</time>
      </trkpt>
      <trkpt lat="43.29992" lon="5.65321">
        <ele>462.7</ele>
        <time>2014-01-22T08:28:21Z</time>
      </trkpt>
      <trkpt lat="43.29996" lon="5.65318">
        <ele>464.2</ele>
        <time>2014-01-22T08:28:30Z</time>
      </trkpt>
      <trkpt lat="43.29999" lon="5.65316">
        <ele>464.5</ele>
        <time>2014-01-22T08:28:37Z</time>
      </trkpt>
      <trkpt lat="43.30003" lon="5.65314">
        <ele>465.1</ele>
        <time>2014-01-22T08:28:43Z</time>
      </trkpt>
      <trkpt lat="43.30007" lon="5.65312">
        <ele>464.8</ele>
        <time>2014-01-22T08:28:48Z</time>
      </trkpt>
      <trkpt lat="43.30011" lon="5.65311">
        <ele>465</ele>
        <time>2014-01-22T08:28:53Z</time>
      </trkpt>
      <trkpt lat="43.30012" lon="5.65311">
        <ele>465</ele>
        <time>2014-01-22T08:28:54Z</time>
      </trkpt>
      <trkpt lat="43.30019" lon="5.65309">
        <ele>465.2</ele>
        <time>2014-01-22T08:29:01Z</time>
      </trkpt>
      <trkpt lat="43.30023" lon="5.65308">
        <ele>464.8</ele>
        <time>2014-01-22T08:29:06Z</time>
      </trkpt>
      <trkpt lat="43.30027" lon="5.65308">
        <ele>464.8</ele>
        <time>2014-01-22T08:29:10Z</time>
      </trkpt>
      <trkpt lat="43.3003" lon="5.65307">
        <ele>464.8</ele>
        <time>2014-01-22T08:29:14Z</time>
      </trkpt>
      <trkpt lat="43.30034" lon="5.65307">
        <ele>465.8</ele>
        <time>2014-01-22T08:29:18Z</time>
      </trkpt>
      <trkpt lat="43.30037" lon="5.65306">
        <ele>466.8</ele>
        <time>2014-01-22T08:29:22Z</time>
      </trkpt>
      <trkpt lat="43.30041" lon="5.65306">
        <ele>466.7</ele>
        <time>2014-01-22T08:29:26Z</time>
      </trkpt>
      <trkpt lat="43.30042" lon="5.65312">
        <ele>466.7</ele>
        <time>2014-01-22T08:29:35Z</time>
      </trkpt>
      <trkpt lat="43.30044" lon="5.65317">
        <ele>469.6</ele>
        <time>2014-01-22T08:29:44Z</time>
      </trkpt>
      <trkpt lat="43.30048" lon="5.65317">
        <ele>466.8</ele>
        <time>2014-01-22T08:29:54Z</time>
      </trkpt>
      <trkpt lat="43.30049" lon="5.65316">
        <ele>466.3</ele>
        <time>2014-01-22T08:29:55Z</time>
      </trkpt>
      <trkpt lat="43.30056" lon="5.65312">
        <ele>465.8</ele>
        <time>2014-01-22T08:30:11Z</time>
      </trkpt>
      <trkpt lat="43.30059" lon="5.6531">
        <ele>465.6</ele>
        <time>2014-01-22T08:30:18Z</time>
      </trkpt>
      <trkpt lat="43.30062" lon="5.65306">
        <ele>468</ele>
        <time>2014-01-22T08:30:23Z</time>
      </trkpt>
      <trkpt lat="43.30065" lon="5.65301">
        <ele>469.2</ele>
        <time>2014-01-22T08:30:27Z</time>
      </trkpt>
      <trkpt lat="43.30067" lon="5.65296">
        <ele>470</ele>
        <time>2014-01-22T08:30:31Z</time>
      </trkpt>
      <trkpt lat="43.30067" lon="5.6529">
        <ele>471.3</ele>
        <time>2014-01-22T08:30:36Z</time>
      </trkpt>
      <trkpt lat="43.30069" lon="5.65285">
        <ele>472.2</ele>
        <time>2014-01-22T08:30:42Z</time>
      </trkpt>
      <trkpt lat="43.30073" lon="5.65284">
        <ele>477.2</ele>
        <time>2014-01-22T08:31:46Z</time>
      </trkpt>
      <trkpt lat="43.30073" lon="5.65284">
        <ele>477.2</ele>
        <time>2014-01-22T08:31:47Z</time>
      </trkpt>
      <trkpt lat="43.30069" lon="5.65279">
        <ele>475</ele>
        <time>2014-01-22T08:32:55Z</time>
      </trkpt>
      <trkpt lat="43.30073" lon="5.65276">
        <ele>475.2</ele>
        <time>2014-01-22T08:34:46Z</time>
      </trkpt>
      <trkpt lat="43.30075" lon="5.65281">
        <ele>478.2</ele>
        <time>2014-01-22T08:43:49Z</time>
      </trkpt>
      <trkpt lat="43.30078" lon="5.65272">
        <ele>473.5</ele>
        <time>2014-01-22T08:44:35Z</time>
      </trkpt>
      <trkpt lat="43.30077" lon="5.65266">
        <ele>474.5</ele>
        <time>2014-01-22T08:44:40Z</time>
      </trkpt>
      <trkpt lat="43.30076" lon="5.65261">
        <ele>475.2</ele>
        <time>2014-01-22T08:44:45Z</time>
      </trkpt>
      <trkpt lat="43.30074" lon="5.65255">
        <ele>476.6</ele>
        <time>2014-01-22T08:44:50Z</time>
      </trkpt>
      <trkpt lat="43.30074" lon="5.65254">
        <ele>476.8</ele>
        <time>2014-01-22T08:44:51Z</time>
      </trkpt>
      <trkpt lat="43.3007" lon="5.65246">
        <ele>478.3</ele>
        <time>2014-01-22T08:44:59Z</time>
      </trkpt>
      <trkpt lat="43.30069" lon="5.65241">
        <ele>479.1</ele>
        <time>2014-01-22T08:45:03Z</time>
      </trkpt>
      <trkpt lat="43.30068" lon="5.65236">
        <ele>479.5</ele>
        <time>2014-01-22T08:45:08Z</time>
      </trkpt>
      <trkpt lat="43.30066" lon="5.6523">
        <ele>480</ele>
        <time>2014-01-22T08:45:13Z</time>
      </trkpt>
      <trkpt lat="43.30064" lon="5.65225">
        <ele>480.6</ele>
        <time>2014-01-22T08:45:18Z</time>
      </trkpt>
      <trkpt lat="43.30063" lon="5.6522">
        <ele>480.8</ele>
        <time>2014-01-22T08:45:23Z</time>
      </trkpt>
      <trkpt lat="43.30063" lon="5.65214">
        <ele>481.2</ele>
        <time>2014-01-22T08:45:28Z</time>
      </trkpt>
      <trkpt lat="43.30064" lon="5.65209">
        <ele>481.5</ele>
        <time>2014-01-22T08:45:33Z</time>
      </trkpt>
      <trkpt lat="43.30064" lon="5.65203">
        <ele>482.5</ele>
        <time>2014-01-22T08:45:39Z</time>
      </trkpt>
      <trkpt lat="43.30069" lon="5.65201">
        <ele>483.2</ele>
        <time>2014-01-22T08:45:51Z</time>
      </trkpt>
      <trkpt lat="43.30069" lon="5.652">
        <ele>483.2</ele>
        <time>2014-01-22T08:45:52Z</time>
      </trkpt>
      <trkpt lat="43.30073" lon="5.65191">
        <ele>484.6</ele>
        <time>2014-01-22T08:46:05Z</time>
      </trkpt>
      <trkpt lat="43.30076" lon="5.65187">
        <ele>487.7</ele>
        <time>2014-01-22T08:46:14Z</time>
      </trkpt>
      <trkpt lat="43.30079" lon="5.65183">
        <ele>487.8</ele>
        <time>2014-01-22T08:46:22Z</time>
      </trkpt>
      <trkpt lat="43.30082" lon="5.65179">
        <ele>487.7</ele>
        <time>2014-01-22T08:46:27Z</time>
      </trkpt>
      <trkpt lat="43.30085" lon="5.65175">
        <ele>488.2</ele>
        <time>2014-01-22T08:46:33Z</time>
      </trkpt>
      <trkpt lat="43.30087" lon="5.65171">
        <ele>488.1</ele>
        <time>2014-01-22T08:46:39Z</time>
      </trkpt>
      <trkpt lat="43.3009" lon="5.65166">
        <ele>488.5</ele>
        <time>2014-01-22T08:46:46Z</time>
      </trkpt>
      <trkpt lat="43.30092" lon="5.65161">
        <ele>488.7</ele>
        <time>2014-01-22T08:46:53Z</time>
      </trkpt>
      <trkpt lat="43.30093" lon="5.65161">
        <ele>488.6</ele>
        <time>2014-01-22T08:46:54Z</time>
      </trkpt>
      <trkpt lat="43.30099" lon="5.65156">
        <ele>489.3</ele>
        <time>2014-01-22T08:47:02Z</time>
      </trkpt>
      <trkpt lat="43.30102" lon="5.65154">
        <ele>490.2</ele>
        <time>2014-01-22T08:47:08Z</time>
      </trkpt>
      <trkpt lat="43.30106" lon="5.65152">
        <ele>491.8</ele>
        <time>2014-01-22T08:47:14Z</time>
      </trkpt>
      <trkpt lat="43.3011" lon="5.6515">
        <ele>493.1</ele>
        <time>2014-01-22T08:47:18Z</time>
      </trkpt>
      <trkpt lat="43.30114" lon="5.65148">
        <ele>493.7</ele>
        <time>2014-01-22T08:47:23Z</time>
      </trkpt>
      <trkpt lat="43.30118" lon="5.65148">
        <ele>493.2</ele>
        <time>2014-01-22T08:47:28Z</time>
      </trkpt>
      <trkpt lat="43.30121" lon="5.65145">
        <ele>493.1</ele>
        <time>2014-01-22T08:47:33Z</time>
      </trkpt>
      <trkpt lat="43.30125" lon="5.65142">
        <ele>493</ele>
        <time>2014-01-22T08:47:39Z</time>
      </trkpt>
      <trkpt lat="43.30128" lon="5.6514">
        <ele>492.3</ele>
        <time>2014-01-22T08:47:45Z</time>
      </trkpt>
      <trkpt lat="43.30132" lon="5.65137">
        <ele>493.1</ele>
        <time>2014-01-22T08:47:52Z</time>
      </trkpt>
      <trkpt lat="43.30136" lon="5.65136">
        <ele>491.7</ele>
        <time>2014-01-22T08:47:58Z</time>
      </trkpt>
      <trkpt lat="43.30137" lon="5.65136">
        <ele>491.5</ele>
        <time>2014-01-22T08:47:59Z</time>
      </trkpt>
      <trkpt lat="43.30144" lon="5.65134">
        <ele>490.2</ele>
        <time>2014-01-22T08:48:08Z</time>
      </trkpt>
      <trkpt lat="43.30148" lon="5.65134">
        <ele>489.6</ele>
        <time>2014-01-22T08:48:13Z</time>
      </trkpt>
      <trkpt lat="43.30152" lon="5.65131">
        <ele>491.1</ele>
        <time>2014-01-22T08:48:20Z</time>
      </trkpt>
      <trkpt lat="43.30156" lon="5.65129">
        <ele>490.7</ele>
        <time>2014-01-22T08:48:26Z</time>
      </trkpt>
      <trkpt lat="43.30153" lon="5.65133">
        <ele>501.7</ele>
        <time>2014-01-22T08:48:41Z</time>
      </trkpt>
      <trkpt lat="43.30152" lon="5.65139">
        <ele>504.7</ele>
        <time>2014-01-22T08:48:50Z</time>
      </trkpt>
      <trkpt lat="43.30151" lon="5.65145">
        <ele>508.2</ele>
        <time>2014-01-22T08:49:00Z</time>
      </trkpt>
      <trkpt lat="43.30151" lon="5.65145">
        <ele>508.6</ele>
        <time>2014-01-22T08:49:01Z</time>
      </trkpt>
      <trkpt lat="43.30149" lon="5.65156">
        <ele>513.5</ele>
        <time>2014-01-22T08:49:18Z</time>
      </trkpt>
      <trkpt lat="43.30148" lon="5.65162">
        <ele>515.7</ele>
        <time>2014-01-22T08:49:28Z</time>
      </trkpt>
      <trkpt lat="43.30145" lon="5.65166">
        <ele>518.4</ele>
        <time>2014-01-22T08:49:39Z</time>
      </trkpt>
      <trkpt lat="43.30143" lon="5.65171">
        <ele>521.2</ele>
        <time>2014-01-22T08:49:49Z</time>
      </trkpt>
      <trkpt lat="43.3014" lon="5.65176">
        <ele>524.4</ele>
        <time>2014-01-22T08:50:01Z</time>
      </trkpt>
      <trkpt lat="43.3014" lon="5.65176">
        <ele>524.5</ele>
        <time>2014-01-22T08:50:02Z</time>
      </trkpt>
      <trkpt lat="43.30139" lon="5.65187">
        <ele>527.7</ele>
        <time>2014-01-22T08:50:21Z</time>
      </trkpt>
      <trkpt lat="43.30137" lon="5.65193">
        <ele>529.5</ele>
        <time>2014-01-22T08:50:28Z</time>
      </trkpt>
      <trkpt lat="43.30138" lon="5.65199">
        <ele>530.2</ele>
        <time>2014-01-22T08:50:34Z</time>
      </trkpt>
      <trkpt lat="43.30138" lon="5.65204">
        <ele>531.2</ele>
        <time>2014-01-22T08:50:42Z</time>
      </trkpt>
      <trkpt lat="43.30138" lon="5.6521">
        <ele>532.7</ele>
        <time>2014-01-22T08:50:50Z</time>
      </trkpt>
      <trkpt lat="43.30139" lon="5.65216">
        <ele>533.9</ele>
        <time>2014-01-22T08:50:57Z</time>
      </trkpt>
      <trkpt lat="43.3014" lon="5.65221">
        <ele>535</ele>
        <time>2014-01-22T08:51:05Z</time>
      </trkpt>
      <trkpt lat="43.3014" lon="5.65222">
        <ele>535.2</ele>
        <time>2014-01-22T08:51:06Z</time>
      </trkpt>
      <trkpt lat="43.30145" lon="5.65231">
        <ele>536</ele>
        <time>2014-01-22T08:51:21Z</time>
      </trkpt>
      <trkpt lat="43.30148" lon="5.65235">
        <ele>536</ele>
        <time>2014-01-22T08:51:28Z</time>
      </trkpt>
      <trkpt lat="43.30151" lon="5.65239">
        <ele>536</ele>
        <time>2014-01-22T08:51:35Z</time>
      </trkpt>
      <trkpt lat="43.30153" lon="5.65244">
        <ele>536.5</ele>
        <time>2014-01-22T08:51:41Z</time>
      </trkpt>
      <trkpt lat="43.30156" lon="5.65248">
        <ele>537</ele>
        <time>2014-01-22T08:51:47Z</time>
      </trkpt>
      <trkpt lat="43.30158" lon="5.65253">
        <ele>538.2</ele>
        <time>2014-01-22T08:51:54Z</time>
      </trkpt>
      <trkpt lat="43.3016" lon="5.65258">
        <ele>538.9</ele>
        <time>2014-01-22T08:52:00Z</time>
      </trkpt>
      <trkpt lat="43.30162" lon="5.65263">
        <ele>539.7</ele>
        <time>2014-01-22T08:52:07Z</time>
      </trkpt>
      <trkpt lat="43.30162" lon="5.65264">
        <ele>540</ele>
        <time>2014-01-22T08:52:08Z</time>
      </trkpt>
      <trkpt lat="43.30165" lon="5.65274">
        <ele>541.5</ele>
        <time>2014-01-22T08:52:18Z</time>
      </trkpt>
      <trkpt lat="43.30167" lon="5.65278">
        <ele>542</ele>
        <time>2014-01-22T08:52:23Z</time>
      </trkpt>
      <trkpt lat="43.30169" lon="5.65283">
        <ele>542</ele>
        <time>2014-01-22T08:52:29Z</time>
      </trkpt>
      <trkpt lat="43.30172" lon="5.65287">
        <ele>542.4</ele>
        <time>2014-01-22T08:52:34Z</time>
      </trkpt>
      <trkpt lat="43.30175" lon="5.65291">
        <ele>542.7</ele>
        <time>2014-01-22T08:52:39Z</time>
      </trkpt>
      <trkpt lat="43.30177" lon="5.65295">
        <ele>543.2</ele>
        <time>2014-01-22T08:52:44Z</time>
      </trkpt>
      <trkpt lat="43.30179" lon="5.65299">
        <ele>543.2</ele>
        <time>2014-01-22T08:52:49Z</time>
      </trkpt>
      <trkpt lat="43.30182" lon="5.65304">
        <ele>542.9</ele>
        <time>2014-01-22T08:52:55Z</time>
      </trkpt>
      <trkpt lat="43.30184" lon="5.65309">
        <ele>543.2</ele>
        <time>2014-01-22T08:53:00Z</time>
      </trkpt>
      <trkpt lat="43.30185" lon="5.65315">
        <ele>545</ele>
        <time>2014-01-22T08:53:05Z</time>
      </trkpt>
      <trkpt lat="43.30183" lon="5.6532">
        <ele>548.7</ele>
        <time>2014-01-22T08:53:28Z</time>
      </trkpt>
      <trkpt lat="43.30183" lon="5.65321">
        <ele>548.7</ele>
        <time>2014-01-22T08:53:29Z</time>
      </trkpt>
      <trkpt lat="43.30182" lon="5.65327">
        <ele>554.7</ele>
        <time>2014-01-22T08:55:56Z</time>
      </trkpt>
      <trkpt lat="43.30182" lon="5.65338">
        <ele>554.7</ele>
        <time>2014-01-22T08:56:05Z</time>
      </trkpt>
      <trkpt lat="43.30181" lon="5.65344">
        <ele>554.5</ele>
        <time>2014-01-22T08:56:10Z</time>
      </trkpt>
      <trkpt lat="43.30181" lon="5.65349">
        <ele>554.7</ele>
        <time>2014-01-22T08:56:14Z</time>
      </trkpt>
      <trkpt lat="43.3018" lon="5.65354">
        <ele>554.7</ele>
        <time>2014-01-22T08:56:18Z</time>
      </trkpt>
      <trkpt lat="43.3018" lon="5.65359">
        <ele>554.9</ele>
        <time>2014-01-22T08:56:22Z</time>
      </trkpt>
      <trkpt lat="43.3018" lon="5.65365">
        <ele>555.2</ele>
        <time>2014-01-22T08:56:27Z</time>
      </trkpt>
      <trkpt lat="43.3018" lon="5.6537">
        <ele>555.5</ele>
        <time>2014-01-22T08:56:31Z</time>
      </trkpt>
      <trkpt lat="43.3018" lon="5.65375">
        <ele>555.5</ele>
        <time>2014-01-22T08:56:35Z</time>
      </trkpt>
      <trkpt lat="43.3018" lon="5.65381">
        <ele>555.9</ele>
        <time>2014-01-22T08:56:40Z</time>
      </trkpt>
      <trkpt lat="43.30181" lon="5.65387">
        <ele>556.7</ele>
        <time>2014-01-22T08:56:45Z</time>
      </trkpt>
      <trkpt lat="43.30182" lon="5.65393">
        <ele>556.9</ele>
        <time>2014-01-22T08:56:50Z</time>
      </trkpt>
      <trkpt lat="43.30184" lon="5.65398">
        <ele>556.7</ele>
        <time>2014-01-22T08:56:56Z</time>
      </trkpt>
      <trkpt lat="43.30184" lon="5.65399">
        <ele>556.7</ele>
        <time>2014-01-22T08:56:57Z</time>
      </trkpt>
      <trkpt lat="43.30191" lon="5.65402">
        <ele>555.5</ele>
        <time>2014-01-22T08:57:09Z</time>
      </trkpt>
      <trkpt lat="43.30195" lon="5.65404">
        <ele>556</ele>
        <time>2014-01-22T08:57:17Z</time>
      </trkpt>
      <trkpt lat="43.302" lon="5.65402">
        <ele>555.7</ele>
        <time>2014-01-22T08:57:26Z</time>
      </trkpt>
      <trkpt lat="43.30203" lon="5.65399">
        <ele>556</ele>
        <time>2014-01-22T08:57:33Z</time>
      </trkpt>
      <trkpt lat="43.30206" lon="5.65396">
        <ele>556.5</ele>
        <time>2014-01-22T08:57:41Z</time>
      </trkpt>
      <trkpt lat="43.30209" lon="5.65391">
        <ele>557.2</ele>
        <time>2014-01-22T08:57:48Z</time>
      </trkpt>
      <trkpt lat="43.30211" lon="5.65386">
        <ele>557.2</ele>
        <time>2014-01-22T08:57:54Z</time>
      </trkpt>
      <trkpt lat="43.30213" lon="5.65381">
        <ele>557.7</ele>
        <time>2014-01-22T08:58:00Z</time>
      </trkpt>
      <trkpt lat="43.30214" lon="5.65381">
        <ele>557.7</ele>
        <time>2014-01-22T08:58:01Z</time>
      </trkpt>
      <trkpt lat="43.30217" lon="5.65372">
        <ele>559</ele>
        <time>2014-01-22T08:58:12Z</time>
      </trkpt>
      <trkpt lat="43.30219" lon="5.65367">
        <ele>559.5</ele>
        <time>2014-01-22T08:58:19Z</time>
      </trkpt>
      <trkpt lat="43.30222" lon="5.65362">
        <ele>560</ele>
        <time>2014-01-22T08:58:26Z</time>
      </trkpt>
      <trkpt lat="43.30226" lon="5.65362">
        <ele>560.7</ele>
        <time>2014-01-22T08:58:36Z</time>
      </trkpt>
      <trkpt lat="43.3023" lon="5.65363">
        <ele>562.2</ele>
        <time>2014-01-22T08:58:43Z</time>
      </trkpt>
      <trkpt lat="43.30235" lon="5.65365">
        <ele>564</ele>
        <time>2014-01-22T08:58:52Z</time>
      </trkpt>
      <trkpt lat="43.30239" lon="5.65368">
        <ele>565.7</ele>
        <time>2014-01-22T08:59:01Z</time>
      </trkpt>
      <trkpt lat="43.30239" lon="5.65368">
        <ele>566</ele>
        <time>2014-01-22T08:59:02Z</time>
      </trkpt>
      <trkpt lat="43.30246" lon="5.65371">
        <ele>568.2</ele>
        <time>2014-01-22T08:59:16Z</time>
      </trkpt>
      <trkpt lat="43.3025" lon="5.6537">
        <ele>569</ele>
        <time>2014-01-22T08:59:25Z</time>
      </trkpt>
      <trkpt lat="43.30254" lon="5.65369">
        <ele>569.9</ele>
        <time>2014-01-22T08:59:31Z</time>
      </trkpt>
      <trkpt lat="43.30258" lon="5.65367">
        <ele>571.5</ele>
        <time>2014-01-22T08:59:40Z</time>
      </trkpt>
      <trkpt lat="43.30263" lon="5.65365">
        <ele>573.2</ele>
        <time>2014-01-22T08:59:48Z</time>
      </trkpt>
      <trkpt lat="43.30266" lon="5.65367">
        <ele>574.2</ele>
        <time>2014-01-22T08:59:57Z</time>
      </trkpt>
      <trkpt lat="43.3027" lon="5.6537">
        <ele>576.2</ele>
        <time>2014-01-22T09:00:03Z</time>
      </trkpt>
      <trkpt lat="43.3027" lon="5.65371">
        <ele>576.5</ele>
        <time>2014-01-22T09:00:04Z</time>
      </trkpt>
      <trkpt lat="43.30276" lon="5.65377">
        <ele>578.9</ele>
        <time>2014-01-22T09:00:18Z</time>
      </trkpt>
      <trkpt lat="43.30279" lon="5.6538">
        <ele>579.7</ele>
        <time>2014-01-22T09:00:24Z</time>
      </trkpt>
      <trkpt lat="43.30282" lon="5.65383">
        <ele>580.4</ele>
        <time>2014-01-22T09:00:30Z</time>
      </trkpt>
      <trkpt lat="43.30286" lon="5.65387">
        <ele>581.2</ele>
        <time>2014-01-22T09:00:37Z</time>
      </trkpt>
      <trkpt lat="43.30289" lon="5.65383">
        <ele>583.4</ele>
        <time>2014-01-22T09:00:49Z</time>
      </trkpt>
      <trkpt lat="43.30291" lon="5.65378">
        <ele>584</ele>
        <time>2014-01-22T09:00:56Z</time>
      </trkpt>
      <trkpt lat="43.30293" lon="5.65373">
        <ele>584.7</ele>
        <time>2014-01-22T09:01:04Z</time>
      </trkpt>
      <trkpt lat="43.30294" lon="5.65373">
        <ele>584.9</ele>
        <time>2014-01-22T09:01:05Z</time>
      </trkpt>
      <trkpt lat="43.30297" lon="5.65363">
        <ele>586.9</ele>
        <time>2014-01-22T09:01:19Z</time>
      </trkpt>
      <trkpt lat="43.30299" lon="5.65358">
        <ele>587.4</ele>
        <time>2014-01-22T09:01:25Z</time>
      </trkpt>
      <trkpt lat="43.303" lon="5.65353">
        <ele>588.2</ele>
        <time>2014-01-22T09:01:31Z</time>
      </trkpt>
      <trkpt lat="43.30303" lon="5.65348">
        <ele>589</ele>
        <time>2014-01-22T09:01:38Z</time>
      </trkpt>
      <trkpt lat="43.30307" lon="5.65349">
        <ele>590.5</ele>
        <time>2014-01-22T09:01:49Z</time>
      </trkpt>
      <trkpt lat="43.30311" lon="5.65349">
        <ele>591.2</ele>
        <time>2014-01-22T09:01:58Z</time>
      </trkpt>
      <trkpt lat="43.30315" lon="5.65351">
        <ele>591.7</ele>
        <time>2014-01-22T09:02:08Z</time>
      </trkpt>
      <trkpt lat="43.30315" lon="5.65352">
        <ele>591.9</ele>
        <time>2014-01-22T09:02:09Z</time>
      </trkpt>
      <trkpt lat="43.30322" lon="5.65357">
        <ele>594.5</ele>
        <time>2014-01-22T09:02:28Z</time>
      </trkpt>
      <trkpt lat="43.30325" lon="5.65361">
        <ele>597</ele>
        <time>2014-01-22T09:02:36Z</time>
      </trkpt>
      <trkpt lat="43.30328" lon="5.65366">
        <ele>599.2</ele>
        <time>2014-01-22T09:02:44Z</time>
      </trkpt>
      <trkpt lat="43.3033" lon="5.65371">
        <ele>600.4</ele>
        <time>2014-01-22T09:02:53Z</time>
      </trkpt>
      <trkpt lat="43.30332" lon="5.65365">
        <ele>601</ele>
        <time>2014-01-22T09:03:02Z</time>
      </trkpt>
      <trkpt lat="43.30334" lon="5.6536">
        <ele>602.5</ele>
        <time>2014-01-22T09:03:10Z</time>
      </trkpt>
      <trkpt lat="43.30334" lon="5.65359">
        <ele>602.7</ele>
        <time>2014-01-22T09:03:11Z</time>
      </trkpt>
      <trkpt lat="43.30338" lon="5.6535">
        <ele>604.2</ele>
        <time>2014-01-22T09:03:26Z</time>
      </trkpt>
      <trkpt lat="43.30337" lon="5.65344">
        <ele>604.4</ele>
        <time>2014-01-22T09:03:33Z</time>
      </trkpt>
      <trkpt lat="43.30336" lon="5.65339">
        <ele>606.4</ele>
        <time>2014-01-22T09:03:41Z</time>
      </trkpt>
      <trkpt lat="43.30341" lon="5.65339">
        <ele>610.2</ele>
        <time>2014-01-22T09:03:54Z</time>
      </trkpt>
      <trkpt lat="43.30344" lon="5.65342">
        <ele>611.7</ele>
        <time>2014-01-22T09:04:02Z</time>
      </trkpt>
      <trkpt lat="43.30348" lon="5.65338">
        <ele>614</ele>
        <time>2014-01-22T09:04:20Z</time>
      </trkpt>
      <trkpt lat="43.30348" lon="5.65338">
        <ele>614</ele>
        <time>2014-01-22T09:04:21Z</time>
      </trkpt>
      <trkpt lat="43.30348" lon="5.65327">
        <ele>616</ele>
        <time>2014-01-22T09:04:39Z</time>
      </trkpt>
      <trkpt lat="43.30348" lon="5.65321">
        <ele>619.9</ele>
        <time>2014-01-22T09:04:53Z</time>
      </trkpt>
      <trkpt lat="43.30349" lon="5.65315">
        <ele>619</ele>
        <time>2014-01-22T09:05:02Z</time>
      </trkpt>
      <trkpt lat="43.3035" lon="5.6531">
        <ele>621.2</ele>
        <time>2014-01-22T09:05:13Z</time>
      </trkpt>
      <trkpt lat="43.30352" lon="5.65304">
        <ele>621.9</ele>
        <time>2014-01-22T09:05:24Z</time>
      </trkpt>
      <trkpt lat="43.30353" lon="5.65304">
        <ele>622</ele>
        <time>2014-01-22T09:05:25Z</time>
      </trkpt>
      <trkpt lat="43.3036" lon="5.65309">
        <ele>624</ele>
        <time>2014-01-22T09:05:44Z</time>
      </trkpt>
      <trkpt lat="43.30362" lon="5.65304">
        <ele>625.5</ele>
        <time>2014-01-22T09:05:53Z</time>
      </trkpt>
      <trkpt lat="43.30367" lon="5.65302">
        <ele>626.5</ele>
        <time>2014-01-22T09:06:06Z</time>
      </trkpt>
      <trkpt lat="43.3037" lon="5.65304">
        <ele>627.9</ele>
        <time>2014-01-22T09:06:16Z</time>
      </trkpt>
      <trkpt lat="43.30374" lon="5.65303">
        <ele>629.4</ele>
        <time>2014-01-22T09:06:28Z</time>
      </trkpt>
      <trkpt lat="43.30375" lon="5.65302">
        <ele>629.5</ele>
        <time>2014-01-22T09:06:29Z</time>
      </trkpt>
      <trkpt lat="43.30378" lon="5.65309">
        <ele>636.7</ele>
        <time>2014-01-22T09:08:03Z</time>
      </trkpt>
      <trkpt lat="43.30377" lon="5.65309">
        <ele>636.7</ele>
        <time>2014-01-22T09:08:04Z</time>
      </trkpt>
      <trkpt lat="43.30372" lon="5.65317">
        <ele>634.9</ele>
        <time>2014-01-22T09:08:22Z</time>
      </trkpt>
      <trkpt lat="43.30368" lon="5.65318">
        <ele>632.2</ele>
        <time>2014-01-22T09:08:32Z</time>
      </trkpt>
      <trkpt lat="43.30364" lon="5.65322">
        <ele>632</ele>
        <time>2014-01-22T09:08:43Z</time>
      </trkpt>
      <trkpt lat="43.3036" lon="5.65324">
        <ele>627.2</ele>
        <time>2014-01-22T09:09:01Z</time>
      </trkpt>
      <trkpt lat="43.30356" lon="5.65327">
        <ele>626.2</ele>
        <time>2014-01-22T09:09:12Z</time>
      </trkpt>
      <trkpt lat="43.30356" lon="5.65327">
        <ele>626.4</ele>
        <time>2014-01-22T09:09:13Z</time>
      </trkpt>
      <trkpt lat="43.3035" lon="5.65332">
        <ele>622.7</ele>
        <time>2014-01-22T09:09:39Z</time>
      </trkpt>
      <trkpt lat="43.30346" lon="5.65335">
        <ele>621.4</ele>
        <time>2014-01-22T09:09:49Z</time>
      </trkpt>
      <trkpt lat="43.30345" lon="5.65341">
        <ele>620.7</ele>
        <time>2014-01-22T09:09:59Z</time>
      </trkpt>
      <trkpt lat="43.30342" lon="5.65344">
        <ele>617</ele>
        <time>2014-01-22T09:10:08Z</time>
      </trkpt>
      <trkpt lat="43.30338" lon="5.65343">
        <ele>614.4</ele>
        <time>2014-01-22T09:10:14Z</time>
      </trkpt>
      <trkpt lat="43.30337" lon="5.65343">
        <ele>614</ele>
        <time>2014-01-22T09:10:15Z</time>
      </trkpt>
      <trkpt lat="43.30335" lon="5.65352">
        <ele>614</ele>
        <time>2014-01-22T09:10:26Z</time>
      </trkpt>
      <trkpt lat="43.30336" lon="5.65357">
        <ele>614</ele>
        <time>2014-01-22T09:10:30Z</time>
      </trkpt>
      <trkpt lat="43.30334" lon="5.65363">
        <ele>613</ele>
        <time>2014-01-22T09:10:36Z</time>
      </trkpt>
      <trkpt lat="43.30333" lon="5.65368">
        <ele>611.7</ele>
        <time>2014-01-22T09:10:42Z</time>
      </trkpt>
      <trkpt lat="43.30331" lon="5.65373">
        <ele>611.5</ele>
        <time>2014-01-22T09:10:46Z</time>
      </trkpt>
      <trkpt lat="43.30332" lon="5.65378">
        <ele>611.7</ele>
        <time>2014-01-22T09:10:52Z</time>
      </trkpt>
      <trkpt lat="43.30335" lon="5.65383">
        <ele>611.5</ele>
        <time>2014-01-22T09:10:59Z</time>
      </trkpt>
      <trkpt lat="43.30337" lon="5.65387">
        <ele>610.7</ele>
        <time>2014-01-22T09:11:06Z</time>
      </trkpt>
      <trkpt lat="43.3034" lon="5.65392">
        <ele>610</ele>
        <time>2014-01-22T09:11:13Z</time>
      </trkpt>
      <trkpt lat="43.30344" lon="5.65395">
        <ele>610</ele>
        <time>2014-01-22T09:11:20Z</time>
      </trkpt>
      <trkpt lat="43.30344" lon="5.65396">
        <ele>610</ele>
        <time>2014-01-22T09:11:21Z</time>
      </trkpt>
      <trkpt lat="43.3035" lon="5.65403">
        <ele>611.4</ele>
        <time>2014-01-22T09:11:35Z</time>
      </trkpt>
      <trkpt lat="43.30351" lon="5.65408">
        <ele>612.5</ele>
        <time>2014-01-22T09:11:41Z</time>
      </trkpt>
      <trkpt lat="43.30351" lon="5.65414">
        <ele>614</ele>
        <time>2014-01-22T09:11:48Z</time>
      </trkpt>
      <trkpt lat="43.30351" lon="5.6542">
        <ele>616.2</ele>
        <time>2014-01-22T09:11:55Z</time>
      </trkpt>
      <trkpt lat="43.30351" lon="5.65426">
        <ele>617.2</ele>
        <time>2014-01-22T09:12:02Z</time>
      </trkpt>
      <trkpt lat="43.30352" lon="5.65432">
        <ele>618.5</ele>
        <time>2014-01-22T09:12:09Z</time>
      </trkpt>
      <trkpt lat="43.30352" lon="5.65438">
        <ele>619.7</ele>
        <time>2014-01-22T09:12:17Z</time>
      </trkpt>
      <trkpt lat="43.30353" lon="5.65443">
        <ele>621.4</ele>
        <time>2014-01-22T09:12:26Z</time>
      </trkpt>
      <trkpt lat="43.30353" lon="5.65444">
        <ele>621.5</ele>
        <time>2014-01-22T09:12:27Z</time>
      </trkpt>
      <trkpt lat="43.30354" lon="5.65455">
        <ele>623.5</ele>
        <time>2014-01-22T09:12:40Z</time>
      </trkpt>
      <trkpt lat="43.30354" lon="5.65461">
        <ele>624.7</ele>
        <time>2014-01-22T09:12:46Z</time>
      </trkpt>
      <trkpt lat="43.30354" lon="5.65466">
        <ele>625.7</ele>
        <time>2014-01-22T09:12:52Z</time>
      </trkpt>
      <trkpt lat="43.30355" lon="5.65472">
        <ele>626.5</ele>
        <time>2014-01-22T09:12:58Z</time>
      </trkpt>
      <trkpt lat="43.30354" lon="5.65477">
        <ele>628</ele>
        <time>2014-01-22T09:13:05Z</time>
      </trkpt>
      <trkpt lat="43.30354" lon="5.65483">
        <ele>628.9</ele>
        <time>2014-01-22T09:13:12Z</time>
      </trkpt>
      <trkpt lat="43.30354" lon="5.65489">
        <ele>629.9</ele>
        <time>2014-01-22T09:13:19Z</time>
      </trkpt>
      <trkpt lat="43.30354" lon="5.65494">
        <ele>630.9</ele>
        <time>2014-01-22T09:13:26Z</time>
      </trkpt>
      <trkpt lat="43.30353" lon="5.655">
        <ele>631.7</ele>
        <time>2014-01-22T09:13:32Z</time>
      </trkpt>
      <trkpt lat="43.30353" lon="5.65501">
        <ele>632</ele>
        <time>2014-01-22T09:13:33Z</time>
      </trkpt>
      <trkpt lat="43.30352" lon="5.65511">
        <ele>634.4</ele>
        <time>2014-01-22T09:13:45Z</time>
      </trkpt>
      <trkpt lat="43.30352" lon="5.65516">
        <ele>635.5</ele>
        <time>2014-01-22T09:13:52Z</time>
      </trkpt>
      <trkpt lat="43.30351" lon="5.65522">
        <ele>637</ele>
        <time>2014-01-22T09:13:58Z</time>
      </trkpt>
      <trkpt lat="43.30351" lon="5.65527">
        <ele>638</ele>
        <time>2014-01-22T09:14:04Z</time>
      </trkpt>
      <trkpt lat="43.30351" lon="5.65533">
        <ele>639.4</ele>
        <time>2014-01-22T09:14:11Z</time>
      </trkpt>
      <trkpt lat="43.30352" lon="5.65539">
        <ele>640.5</ele>
        <time>2014-01-22T09:14:17Z</time>
      </trkpt>
      <trkpt lat="43.30353" lon="5.65544">
        <ele>641.7</ele>
        <time>2014-01-22T09:14:23Z</time>
      </trkpt>
      <trkpt lat="43.30355" lon="5.65549">
        <ele>642.5</ele>
        <time>2014-01-22T09:14:29Z</time>
      </trkpt>
      <trkpt lat="43.30358" lon="5.65553">
        <ele>643</ele>
        <time>2014-01-22T09:14:35Z</time>
      </trkpt>
      <trkpt lat="43.30358" lon="5.65554">
        <ele>643.2</ele>
        <time>2014-01-22T09:14:36Z</time>
      </trkpt>
      <trkpt lat="43.30365" lon="5.65556">
        <ele>643.9</ele>
        <time>2014-01-22T09:15:35Z</time>
      </trkpt>
      <trkpt lat="43.30369" lon="5.65555">
        <ele>644.2</ele>
        <time>2014-01-22T09:21:41Z</time>
      </trkpt>
      <trkpt lat="43.30369" lon="5.65555">
        <ele>644.2</ele>
        <time>2014-01-22T09:21:42Z</time>
      </trkpt>
      <trkpt lat="43.30377" lon="5.65556">
        <ele>644.9</ele>
        <time>2014-01-22T09:21:54Z</time>
      </trkpt>
      <trkpt lat="43.30381" lon="5.65557">
        <ele>645.4</ele>
        <time>2014-01-22T09:22:00Z</time>
      </trkpt>
      <trkpt lat="43.30385" lon="5.65559">
        <ele>645.7</ele>
        <time>2014-01-22T09:22:05Z</time>
      </trkpt>
      <trkpt lat="43.30389" lon="5.6556">
        <ele>646.4</ele>
        <time>2014-01-22T09:22:11Z</time>
      </trkpt>
      <trkpt lat="43.30393" lon="5.6556">
        <ele>647.5</ele>
        <time>2014-01-22T09:22:17Z</time>
      </trkpt>
      <trkpt lat="43.30397" lon="5.65562">
        <ele>648.7</ele>
        <time>2014-01-22T09:22:23Z</time>
      </trkpt>
      <trkpt lat="43.30401" lon="5.65563">
        <ele>649.2</ele>
        <time>2014-01-22T09:22:28Z</time>
      </trkpt>
      <trkpt lat="43.30405" lon="5.65564">
        <ele>649.5</ele>
        <time>2014-01-22T09:22:33Z</time>
      </trkpt>
      <trkpt lat="43.30409" lon="5.65564">
        <ele>649.7</ele>
        <time>2014-01-22T09:22:39Z</time>
      </trkpt>
      <trkpt lat="43.30413" lon="5.65566">
        <ele>650.2</ele>
        <time>2014-01-22T09:22:45Z</time>
      </trkpt>
      <trkpt lat="43.30414" lon="5.65566">
        <ele>650.5</ele>
        <time>2014-01-22T09:22:46Z</time>
      </trkpt>
      <trkpt lat="43.30421" lon="5.65565">
        <ele>650.4</ele>
        <time>2014-01-22T09:22:56Z</time>
      </trkpt>
      <trkpt lat="43.30425" lon="5.65567">
        <ele>650.7</ele>
        <time>2014-01-22T09:23:01Z</time>
      </trkpt>
      <trkpt lat="43.30428" lon="5.65567">
        <ele>651.5</ele>
        <time>2014-01-22T09:23:06Z</time>
      </trkpt>
      <trkpt lat="43.30433" lon="5.65567">
        <ele>652.7</ele>
        <time>2014-01-22T09:23:11Z</time>
      </trkpt>
      <trkpt lat="43.30437" lon="5.65568">
        <ele>653.2</ele>
        <time>2014-01-22T09:23:16Z</time>
      </trkpt>
      <trkpt lat="43.30441" lon="5.65569">
        <ele>653.5</ele>
        <time>2014-01-22T09:23:23Z</time>
      </trkpt>
      <trkpt lat="43.30445" lon="5.65571">
        <ele>654.7</ele>
        <time>2014-01-22T09:23:30Z</time>
      </trkpt>
      <trkpt lat="43.30449" lon="5.65572">
        <ele>655.9</ele>
        <time>2014-01-22T09:23:38Z</time>
      </trkpt>
      <trkpt lat="43.30453" lon="5.65574">
        <ele>656.7</ele>
        <time>2014-01-22T09:23:45Z</time>
      </trkpt>
      <trkpt lat="43.30458" lon="5.65575">
        <ele>657.5</ele>
        <time>2014-01-22T09:23:54Z</time>
      </trkpt>
      <trkpt lat="43.30458" lon="5.65575">
        <ele>657.7</ele>
        <time>2014-01-22T09:23:55Z</time>
      </trkpt>
      <trkpt lat="43.30466" lon="5.65577">
        <ele>660.2</ele>
        <time>2014-01-22T09:24:17Z</time>
      </trkpt>
      <trkpt lat="43.3047" lon="5.65579">
        <ele>661.2</ele>
        <time>2014-01-22T09:24:25Z</time>
      </trkpt>
      <trkpt lat="43.30474" lon="5.6558">
        <ele>662</ele>
        <time>2014-01-22T09:24:33Z</time>
      </trkpt>
      <trkpt lat="43.30478" lon="5.65581">
        <ele>662.7</ele>
        <time>2014-01-22T09:24:41Z</time>
      </trkpt>
      <trkpt lat="43.30482" lon="5.65583">
        <ele>663.7</ele>
        <time>2014-01-22T09:24:49Z</time>
      </trkpt>
      <trkpt lat="43.30487" lon="5.65583">
        <ele>665.5</ele>
        <time>2014-01-22T09:24:58Z</time>
      </trkpt>
      <trkpt lat="43.30487" lon="5.65584">
        <ele>665.7</ele>
        <time>2014-01-22T09:24:59Z</time>
      </trkpt>
      <trkpt lat="43.30495" lon="5.65585">
        <ele>668.7</ele>
        <time>2014-01-22T09:25:15Z</time>
      </trkpt>
      <trkpt lat="43.30499" lon="5.65585">
        <ele>670.2</ele>
        <time>2014-01-22T09:25:24Z</time>
      </trkpt>
      <trkpt lat="43.30503" lon="5.65585">
        <ele>671.4</ele>
        <time>2014-01-22T09:25:37Z</time>
      </trkpt>
      <trkpt lat="43.30508" lon="5.65586">
        <ele>671.7</ele>
        <time>2014-01-22T09:25:47Z</time>
      </trkpt>
      <trkpt lat="43.30512" lon="5.65587">
        <ele>672.7</ele>
        <time>2014-01-22T09:25:54Z</time>
      </trkpt>
      <trkpt lat="43.30516" lon="5.65587">
        <ele>674</ele>
        <time>2014-01-22T09:26:02Z</time>
      </trkpt>
      <trkpt lat="43.30516" lon="5.65586">
        <ele>673.9</ele>
        <time>2014-01-22T09:26:03Z</time>
      </trkpt>
      <trkpt lat="43.30524" lon="5.65585">
        <ele>676.5</ele>
        <time>2014-01-22T09:26:19Z</time>
      </trkpt>
      <trkpt lat="43.30528" lon="5.65585">
        <ele>676.4</ele>
        <time>2014-01-22T09:26:27Z</time>
      </trkpt>
      <trkpt lat="43.30532" lon="5.65584">
        <ele>676.5</ele>
        <time>2014-01-22T09:26:32Z</time>
      </trkpt>
      <trkpt lat="43.30537" lon="5.65583">
        <ele>675.9</ele>
        <time>2014-01-22T09:26:39Z</time>
      </trkpt>
      <trkpt lat="43.3054" lon="5.65586">
        <ele>675.5</ele>
        <time>2014-01-22T09:26:44Z</time>
      </trkpt>
      <trkpt lat="43.30544" lon="5.65589">
        <ele>676.2</ele>
        <time>2014-01-22T09:26:50Z</time>
      </trkpt>
      <trkpt lat="43.30546" lon="5.65593">
        <ele>678.2</ele>
        <time>2014-01-22T09:26:56Z</time>
      </trkpt>
      <trkpt lat="43.30548" lon="5.65598">
        <ele>680.4</ele>
        <time>2014-01-22T09:27:02Z</time>
      </trkpt>
      <trkpt lat="43.30549" lon="5.65604">
        <ele>681.5</ele>
        <time>2014-01-22T09:27:09Z</time>
      </trkpt>
      <trkpt lat="43.3055" lon="5.65605">
        <ele>681.7</ele>
        <time>2014-01-22T09:27:10Z</time>
      </trkpt>
      <trkpt lat="43.30553" lon="5.65615">
        <ele>683.9</ele>
        <time>2014-01-22T09:27:24Z</time>
      </trkpt>
      <trkpt lat="43.30557" lon="5.65617">
        <ele>685.9</ele>
        <time>2014-01-22T09:28:31Z</time>
      </trkpt>
      <trkpt lat="43.30557" lon="5.65618">
        <ele>685.7</ele>
        <time>2014-01-22T09:28:32Z</time>
      </trkpt>
      <trkpt lat="43.30564" lon="5.65623">
        <ele>688.7</ele>
        <time>2014-01-22T09:32:36Z</time>
      </trkpt>
      <trkpt lat="43.30564" lon="5.65624">
        <ele>688.7</ele>
        <time>2014-01-22T09:32:37Z</time>
      </trkpt>
      <trkpt lat="43.30571" lon="5.65631">
        <ele>690.2</ele>
        <time>2014-01-22T09:32:52Z</time>
      </trkpt>
      <trkpt lat="43.30574" lon="5.65635">
        <ele>691</ele>
        <time>2014-01-22T09:32:59Z</time>
      </trkpt>
      <trkpt lat="43.30575" lon="5.6564">
        <ele>691.7</ele>
        <time>2014-01-22T09:33:07Z</time>
      </trkpt>
      <trkpt lat="43.30577" lon="5.65646">
        <ele>692</ele>
        <time>2014-01-22T09:33:13Z</time>
      </trkpt>
      <trkpt lat="43.30578" lon="5.65651">
        <ele>691.9</ele>
        <time>2014-01-22T09:33:18Z</time>
      </trkpt>
      <trkpt lat="43.3058" lon="5.65655">
        <ele>691.9</ele>
        <time>2014-01-22T09:33:22Z</time>
      </trkpt>
      <trkpt lat="43.30583" lon="5.6566">
        <ele>691.9</ele>
        <time>2014-01-22T09:33:27Z</time>
      </trkpt>
      <trkpt lat="43.30586" lon="5.65664">
        <ele>691.9</ele>
        <time>2014-01-22T09:33:35Z</time>
      </trkpt>
      <trkpt lat="43.3059" lon="5.65664">
        <ele>693.2</ele>
        <time>2014-01-22T09:33:43Z</time>
      </trkpt>
      <trkpt lat="43.30591" lon="5.65665">
        <ele>693.4</ele>
        <time>2014-01-22T09:33:44Z</time>
      </trkpt>
      <trkpt lat="43.30596" lon="5.65672">
        <ele>693.7</ele>
        <time>2014-01-22T09:33:51Z</time>
      </trkpt>
      <trkpt lat="43.30599" lon="5.65676">
        <ele>694.2</ele>
        <time>2014-01-22T09:33:56Z</time>
      </trkpt>
      <trkpt lat="43.30601" lon="5.6568">
        <ele>694.7</ele>
        <time>2014-01-22T09:34:01Z</time>
      </trkpt>
      <trkpt lat="43.30604" lon="5.65684">
        <ele>695</ele>
        <time>2014-01-22T09:34:05Z</time>
      </trkpt>
      <trkpt lat="43.30607" lon="5.65689">
        <ele>695.5</ele>
        <time>2014-01-22T09:34:09Z</time>
      </trkpt>
      <trkpt lat="43.30609" lon="5.65693">
        <ele>696</ele>
        <time>2014-01-22T09:34:14Z</time>
      </trkpt>
      <trkpt lat="43.30611" lon="5.65699">
        <ele>696.4</ele>
        <time>2014-01-22T09:34:19Z</time>
      </trkpt>
      <trkpt lat="43.30612" lon="5.65704">
        <ele>696.9</ele>
        <time>2014-01-22T09:34:25Z</time>
      </trkpt>
      <trkpt lat="43.30614" lon="5.65709">
        <ele>697.5</ele>
        <time>2014-01-22T09:34:31Z</time>
      </trkpt>
      <trkpt lat="43.30617" lon="5.65713">
        <ele>698.7</ele>
        <time>2014-01-22T09:34:40Z</time>
      </trkpt>
      <trkpt lat="43.30621" lon="5.65715">
        <ele>700</ele>
        <time>2014-01-22T09:34:49Z</time>
      </trkpt>
      <trkpt lat="43.30621" lon="5.65716">
        <ele>700.2</ele>
        <time>2014-01-22T09:34:50Z</time>
      </trkpt>
      <trkpt lat="43.30629" lon="5.65715">
        <ele>703.5</ele>
        <time>2014-01-22T09:35:12Z</time>
      </trkpt>
      <trkpt lat="43.30634" lon="5.65717">
        <ele>704.7</ele>
        <time>2014-01-22T09:35:22Z</time>
      </trkpt>
      <trkpt lat="43.30637" lon="5.65721">
        <ele>705.5</ele>
        <time>2014-01-22T09:35:33Z</time>
      </trkpt>
      <trkpt lat="43.3064" lon="5.65725">
        <ele>707.2</ele>
        <time>2014-01-22T09:35:44Z</time>
      </trkpt>
      <trkpt lat="43.30643" lon="5.65729">
        <ele>708.5</ele>
        <time>2014-01-22T09:35:53Z</time>
      </trkpt>
      <trkpt lat="43.30643" lon="5.6573">
        <ele>708.4</ele>
        <time>2014-01-22T09:35:54Z</time>
      </trkpt>
      <trkpt lat="43.30649" lon="5.65736">
        <ele>709.4</ele>
        <time>2014-01-22T09:36:02Z</time>
      </trkpt>
      <trkpt lat="43.30651" lon="5.65739">
        <ele>709.9</ele>
        <time>2014-01-22T09:36:06Z</time>
      </trkpt>
      <trkpt lat="43.30654" lon="5.65744">
        <ele>710.5</ele>
        <time>2014-01-22T09:36:12Z</time>
      </trkpt>
      <trkpt lat="43.30657" lon="5.65748">
        <ele>710.7</ele>
        <time>2014-01-22T09:36:17Z</time>
      </trkpt>
      <trkpt lat="43.3066" lon="5.65751">
        <ele>711.2</ele>
        <time>2014-01-22T09:36:22Z</time>
      </trkpt>
      <trkpt lat="43.30663" lon="5.65755">
        <ele>711.7</ele>
        <time>2014-01-22T09:36:27Z</time>
      </trkpt>
      <trkpt lat="43.30666" lon="5.65759">
        <ele>712.7</ele>
        <time>2014-01-22T09:36:33Z</time>
      </trkpt>
      <trkpt lat="43.30669" lon="5.65762">
        <ele>713.2</ele>
        <time>2014-01-22T09:36:38Z</time>
      </trkpt>
      <trkpt lat="43.30673" lon="5.65764">
        <ele>713.2</ele>
        <time>2014-01-22T09:36:43Z</time>
      </trkpt>
      <trkpt lat="43.30677" lon="5.65765">
        <ele>713</ele>
        <time>2014-01-22T09:36:48Z</time>
      </trkpt>
      <trkpt lat="43.30681" lon="5.65767">
        <ele>713</ele>
        <time>2014-01-22T09:36:53Z</time>
      </trkpt>
      <trkpt lat="43.30683" lon="5.65772">
        <ele>713</ele>
        <time>2014-01-22T09:36:57Z</time>
      </trkpt>
      <trkpt lat="43.30684" lon="5.65773">
        <ele>713</ele>
        <time>2014-01-22T09:36:58Z</time>
      </trkpt>
      <trkpt lat="43.30686" lon="5.65782">
        <ele>712.7</ele>
        <time>2014-01-22T09:37:06Z</time>
      </trkpt>
      <trkpt lat="43.30688" lon="5.65787">
        <ele>712.2</ele>
        <time>2014-01-22T09:37:12Z</time>
      </trkpt>
      <trkpt lat="43.3069" lon="5.65792">
        <ele>711.7</ele>
        <time>2014-01-22T09:37:20Z</time>
      </trkpt>
      <trkpt lat="43.3069" lon="5.65797">
        <ele>710.5</ele>
        <time>2014-01-22T09:37:29Z</time>
      </trkpt>
      <trkpt lat="43.30693" lon="5.65802">
        <ele>710.5</ele>
        <time>2014-01-22T09:37:34Z</time>
      </trkpt>
      <trkpt lat="43.30695" lon="5.65806">
        <ele>710.5</ele>
        <time>2014-01-22T09:37:39Z</time>
      </trkpt>
      <trkpt lat="43.30699" lon="5.65809">
        <ele>710.9</ele>
        <time>2014-01-22T09:37:46Z</time>
      </trkpt>
      <trkpt lat="43.30703" lon="5.6581">
        <ele>710.7</ele>
        <time>2014-01-22T09:37:51Z</time>
      </trkpt>
      <trkpt lat="43.30706" lon="5.65812">
        <ele>710.4</ele>
        <time>2014-01-22T09:37:55Z</time>
      </trkpt>
      <trkpt lat="43.3071" lon="5.65814">
        <ele>710.5</ele>
        <time>2014-01-22T09:38:00Z</time>
      </trkpt>
      <trkpt lat="43.30711" lon="5.65814">
        <ele>710.5</ele>
        <time>2014-01-22T09:38:01Z</time>
      </trkpt>
      <trkpt lat="43.30718" lon="5.65818">
        <ele>711.2</ele>
        <time>2014-01-22T09:38:10Z</time>
      </trkpt>
      <trkpt lat="43.30722" lon="5.65818">
        <ele>711.5</ele>
        <time>2014-01-22T09:38:15Z</time>
      </trkpt>
      <trkpt lat="43.30726" lon="5.65821">
        <ele>712.5</ele>
        <time>2014-01-22T09:38:20Z</time>
      </trkpt>
      <trkpt lat="43.30729" lon="5.65824">
        <ele>712.7</ele>
        <time>2014-01-22T09:38:25Z</time>
      </trkpt>
      <trkpt lat="43.30733" lon="5.65827">
        <ele>713.5</ele>
        <time>2014-01-22T09:38:38Z</time>
      </trkpt>
      <trkpt lat="43.30737" lon="5.65829">
        <ele>715</ele>
        <time>2014-01-22T09:38:46Z</time>
      </trkpt>
      <trkpt lat="43.30741" lon="5.65831">
        <ele>715.7</ele>
        <time>2014-01-22T09:38:53Z</time>
      </trkpt>
      <trkpt lat="43.30744" lon="5.65834">
        <ele>716.2</ele>
        <time>2014-01-22T09:39:00Z</time>
      </trkpt>
      <trkpt lat="43.30748" lon="5.65836">
        <ele>716.7</ele>
        <time>2014-01-22T09:39:07Z</time>
      </trkpt>
      <trkpt lat="43.30749" lon="5.65837">
        <ele>716.7</ele>
        <time>2014-01-22T09:39:08Z</time>
      </trkpt>
      <trkpt lat="43.30755" lon="5.65843">
        <ele>718.7</ele>
        <time>2014-01-22T09:39:32Z</time>
      </trkpt>
      <trkpt lat="43.30758" lon="5.65846">
        <ele>719.2</ele>
        <time>2014-01-22T09:39:39Z</time>
      </trkpt>
      <trkpt lat="43.30762" lon="5.65849">
        <ele>720.2</ele>
        <time>2014-01-22T09:39:46Z</time>
      </trkpt>
      <trkpt lat="43.30765" lon="5.65852">
        <ele>721</ele>
        <time>2014-01-22T09:39:53Z</time>
      </trkpt>
      <trkpt lat="43.30769" lon="5.65856">
        <ele>723</ele>
        <time>2014-01-22T09:40:03Z</time>
      </trkpt>
      <trkpt lat="43.30771" lon="5.65861">
        <ele>723.5</ele>
        <time>2014-01-22T09:40:10Z</time>
      </trkpt>
      <trkpt lat="43.30771" lon="5.65862">
        <ele>723.5</ele>
        <time>2014-01-22T09:40:11Z</time>
      </trkpt>
      <trkpt lat="43.30776" lon="5.65869">
        <ele>724.7</ele>
        <time>2014-01-22T09:40:26Z</time>
      </trkpt>
      <trkpt lat="43.30779" lon="5.65874">
        <ele>726</ele>
        <time>2014-01-22T09:40:35Z</time>
      </trkpt>
      <trkpt lat="43.30782" lon="5.65878">
        <ele>727.4</ele>
        <time>2014-01-22T09:40:43Z</time>
      </trkpt>
      <trkpt lat="43.30784" lon="5.65883">
        <ele>729</ele>
        <time>2014-01-22T09:40:51Z</time>
      </trkpt>
      <trkpt lat="43.30786" lon="5.65889">
        <ele>729.9</ele>
        <time>2014-01-22T09:40:59Z</time>
      </trkpt>
      <trkpt lat="43.30789" lon="5.65893">
        <ele>731.5</ele>
        <time>2014-01-22T09:41:08Z</time>
      </trkpt>
      <trkpt lat="43.30792" lon="5.65897">
        <ele>732.7</ele>
        <time>2014-01-22T09:41:16Z</time>
      </trkpt>
      <trkpt lat="43.30793" lon="5.65897">
        <ele>732.7</ele>
        <time>2014-01-22T09:41:17Z</time>
      </trkpt>
      <trkpt lat="43.30801" lon="5.659">
        <ele>734.5</ele>
        <time>2014-01-22T09:41:32Z</time>
      </trkpt>
      <trkpt lat="43.30805" lon="5.65901">
        <ele>736.2</ele>
        <time>2014-01-22T09:41:40Z</time>
      </trkpt>
      <trkpt lat="43.30809" lon="5.65902">
        <ele>739.2</ele>
        <time>2014-01-22T09:42:32Z</time>
      </trkpt>
      <trkpt lat="43.30809" lon="5.65902">
        <ele>739.2</ele>
        <time>2014-01-22T09:42:33Z</time>
      </trkpt>
      <trkpt lat="43.30816" lon="5.6591">
        <ele>739.7</ele>
        <time>2014-01-22T09:42:45Z</time>
      </trkpt>
      <trkpt lat="43.30819" lon="5.65913">
        <ele>739.7</ele>
        <time>2014-01-22T09:42:50Z</time>
      </trkpt>
      <trkpt lat="43.30822" lon="5.65917">
        <ele>740.7</ele>
        <time>2014-01-22T09:42:56Z</time>
      </trkpt>
      <trkpt lat="43.30825" lon="5.6592">
        <ele>742.7</ele>
        <time>2014-01-22T09:43:02Z</time>
      </trkpt>
      <trkpt lat="43.30828" lon="5.65924">
        <ele>744.5</ele>
        <time>2014-01-22T09:43:08Z</time>
      </trkpt>
      <trkpt lat="43.30832" lon="5.65927">
        <ele>745.7</ele>
        <time>2014-01-22T09:43:16Z</time>
      </trkpt>
      <trkpt lat="43.30836" lon="5.65929">
        <ele>745.7</ele>
        <time>2014-01-22T09:43:22Z</time>
      </trkpt>
      <trkpt lat="43.30839" lon="5.65932">
        <ele>746</ele>
        <time>2014-01-22T09:43:28Z</time>
      </trkpt>
      <trkpt lat="43.30843" lon="5.65934">
        <ele>746.7</ele>
        <time>2014-01-22T09:43:33Z</time>
      </trkpt>
      <trkpt lat="43.30844" lon="5.65935">
        <ele>746.7</ele>
        <time>2014-01-22T09:43:34Z</time>
      </trkpt>
      <trkpt lat="43.30849" lon="5.65942">
        <ele>747.9</ele>
        <time>2014-01-22T09:43:44Z</time>
      </trkpt>
      <trkpt lat="43.30852" lon="5.65946">
        <ele>748.7</ele>
        <time>2014-01-22T09:43:49Z</time>
      </trkpt>
      <trkpt lat="43.30854" lon="5.6595">
        <ele>749.2</ele>
        <time>2014-01-22T09:43:53Z</time>
      </trkpt>
      <trkpt lat="43.30857" lon="5.65954">
        <ele>749.5</ele>
        <time>2014-01-22T09:43:57Z</time>
      </trkpt>
      <trkpt lat="43.30859" lon="5.65958">
        <ele>750.2</ele>
        <time>2014-01-22T09:44:02Z</time>
      </trkpt>
      <trkpt lat="43.30862" lon="5.65963">
        <ele>751.4</ele>
        <time>2014-01-22T09:44:08Z</time>
      </trkpt>
      <trkpt lat="43.30865" lon="5.65966">
        <ele>752.4</ele>
        <time>2014-01-22T09:44:14Z</time>
      </trkpt>
      <trkpt lat="43.30869" lon="5.65969">
        <ele>753.2</ele>
        <time>2014-01-22T09:44:21Z</time>
      </trkpt>
      <trkpt lat="43.30872" lon="5.65973">
        <ele>754.2</ele>
        <time>2014-01-22T09:44:27Z</time>
      </trkpt>
      <trkpt lat="43.30876" lon="5.65976">
        <ele>754.2</ele>
        <time>2014-01-22T09:44:40Z</time>
      </trkpt>
      <trkpt lat="43.30876" lon="5.65977">
        <ele>754.2</ele>
        <time>2014-01-22T09:44:41Z</time>
      </trkpt>
      <trkpt lat="43.30881" lon="5.65985">
        <ele>756.4</ele>
        <time>2014-01-22T09:44:53Z</time>
      </trkpt>
      <trkpt lat="43.30884" lon="5.65989">
        <ele>757.5</ele>
        <time>2014-01-22T09:45:00Z</time>
      </trkpt>
      <trkpt lat="43.30885" lon="5.65995">
        <ele>758.5</ele>
        <time>2014-01-22T09:45:06Z</time>
      </trkpt>
      <trkpt lat="43.30887" lon="5.66">
        <ele>759.2</ele>
        <time>2014-01-22T09:45:11Z</time>
      </trkpt>
      <trkpt lat="43.30887" lon="5.66006">
        <ele>759.2</ele>
        <time>2014-01-22T09:45:17Z</time>
      </trkpt>
      <trkpt lat="43.3089" lon="5.66011">
        <ele>758.5</ele>
        <time>2014-01-22T09:45:56Z</time>
      </trkpt>
      <trkpt lat="43.3089" lon="5.66011">
        <ele>758.4</ele>
        <time>2014-01-22T09:45:57Z</time>
      </trkpt>
      <trkpt lat="43.3089" lon="5.66017">
        <ele>760.7</ele>
        <time>2014-01-22T09:52:11Z</time>
      </trkpt>
      <trkpt lat="43.30893" lon="5.66027">
        <ele>761.2</ele>
        <time>2014-01-22T09:52:21Z</time>
      </trkpt>
      <trkpt lat="43.30895" lon="5.66032">
        <ele>761.7</ele>
        <time>2014-01-22T09:52:27Z</time>
      </trkpt>
      <trkpt lat="43.30896" lon="5.66038">
        <ele>761.9</ele>
        <time>2014-01-22T09:52:32Z</time>
      </trkpt>
      <trkpt lat="43.30896" lon="5.66043">
        <ele>761.7</ele>
        <time>2014-01-22T09:52:35Z</time>
      </trkpt>
      <trkpt lat="43.30897" lon="5.66049">
        <ele>761.5</ele>
        <time>2014-01-22T09:52:39Z</time>
      </trkpt>
      <trkpt lat="43.30899" lon="5.66054">
        <ele>762</ele>
        <time>2014-01-22T09:52:43Z</time>
      </trkpt>
      <trkpt lat="43.309" lon="5.6606">
        <ele>762.5</ele>
        <time>2014-01-22T09:52:47Z</time>
      </trkpt>
      <trkpt lat="43.30902" lon="5.66064">
        <ele>762.9</ele>
        <time>2014-01-22T09:52:51Z</time>
      </trkpt>
      <trkpt lat="43.30905" lon="5.66069">
        <ele>763</ele>
        <time>2014-01-22T09:52:55Z</time>
      </trkpt>
      <trkpt lat="43.30907" lon="5.66074">
        <ele>763.5</ele>
        <time>2014-01-22T09:52:59Z</time>
      </trkpt>
      <trkpt lat="43.3091" lon="5.66078">
        <ele>763.5</ele>
        <time>2014-01-22T09:53:03Z</time>
      </trkpt>
      <trkpt lat="43.30911" lon="5.66084">
        <ele>763.7</ele>
        <time>2014-01-22T09:53:09Z</time>
      </trkpt>
      <trkpt lat="43.30909" lon="5.66089">
        <ele>762.7</ele>
        <time>2014-01-22T09:53:17Z</time>
      </trkpt>
      <trkpt lat="43.30909" lon="5.6609">
        <ele>762.5</ele>
        <time>2014-01-22T09:53:18Z</time>
      </trkpt>
      <trkpt lat="43.3091" lon="5.66098">
        <ele>762.4</ele>
        <time>2014-01-22T09:53:24Z</time>
      </trkpt>
      <trkpt lat="43.30912" lon="5.66103">
        <ele>762.7</ele>
        <time>2014-01-22T09:53:28Z</time>
      </trkpt>
      <trkpt lat="43.30916" lon="5.66103">
        <ele>763.5</ele>
        <time>2014-01-22T09:53:36Z</time>
      </trkpt>
      <trkpt lat="43.3092" lon="5.66103">
        <ele>763.5</ele>
        <time>2014-01-22T09:53:42Z</time>
      </trkpt>
      <trkpt lat="43.30924" lon="5.66106">
        <ele>764</ele>
        <time>2014-01-22T09:53:49Z</time>
      </trkpt>
      <trkpt lat="43.30928" lon="5.66108">
        <ele>765.2</ele>
        <time>2014-01-22T09:53:58Z</time>
      </trkpt>
      <trkpt lat="43.30932" lon="5.6611">
        <ele>766.4</ele>
        <time>2014-01-22T09:54:09Z</time>
      </trkpt>
      <trkpt lat="43.30936" lon="5.66111">
        <ele>768.2</ele>
        <time>2014-01-22T09:54:19Z</time>
      </trkpt>
      <trkpt lat="43.30936" lon="5.66111">
        <ele>768.2</ele>
        <time>2014-01-22T09:54:20Z</time>
      </trkpt>
      <trkpt lat="43.30944" lon="5.66108">
        <ele>769.5</ele>
        <time>2014-01-22T09:54:40Z</time>
      </trkpt>
      <trkpt lat="43.30948" lon="5.66106">
        <ele>770.7</ele>
        <time>2014-01-22T09:54:47Z</time>
      </trkpt>
      <trkpt lat="43.30952" lon="5.66106">
        <ele>772.2</ele>
        <time>2014-01-22T09:54:54Z</time>
      </trkpt>
      <trkpt lat="43.30957" lon="5.66106">
        <ele>773.5</ele>
        <time>2014-01-22T09:55:04Z</time>
      </trkpt>
      <trkpt lat="43.3096" lon="5.66108">
        <ele>774.5</ele>
        <time>2014-01-22T09:55:18Z</time>
      </trkpt>
      <trkpt lat="43.30964" lon="5.66107">
        <ele>775.7</ele>
        <time>2014-01-22T09:55:28Z</time>
      </trkpt>
      <trkpt lat="43.30965" lon="5.66107">
        <ele>775.9</ele>
        <time>2014-01-22T09:55:29Z</time>
      </trkpt>
      <trkpt lat="43.30972" lon="5.66111">
        <ele>776.5</ele>
        <time>2014-01-22T09:55:43Z</time>
      </trkpt>
      <trkpt lat="43.30976" lon="5.66113">
        <ele>778</ele>
        <time>2014-01-22T09:55:54Z</time>
      </trkpt>
      <trkpt lat="43.30974" lon="5.66108">
        <ele>777.2</ele>
        <time>2014-01-22T09:56:40Z</time>
      </trkpt>
      <trkpt lat="43.30974" lon="5.66108">
        <ele>777</ele>
        <time>2014-01-22T09:56:41Z</time>
      </trkpt>
      <trkpt lat="43.30975" lon="5.66108">
        <ele>775.2</ele>
        <time>2014-01-22T09:57:54Z</time>
      </trkpt>
      <trkpt lat="43.30976" lon="5.66107">
        <ele>775</ele>
        <time>2014-01-22T09:57:55Z</time>
      </trkpt>
      <trkpt lat="43.30982" lon="5.661">
        <ele>775.7</ele>
        <time>2014-01-22T09:58:36Z</time>
      </trkpt>
      <trkpt lat="43.30986" lon="5.66098">
        <ele>776.2</ele>
        <time>2014-01-22T09:58:44Z</time>
      </trkpt>
      <trkpt lat="43.30988" lon="5.66093">
        <ele>775</ele>
        <time>2014-01-22T09:58:50Z</time>
      </trkpt>
      <trkpt lat="43.30992" lon="5.66092">
        <ele>775.2</ele>
        <time>2014-01-22T09:58:54Z</time>
      </trkpt>
      <trkpt lat="43.30996" lon="5.6609">
        <ele>775</ele>
        <time>2014-01-22T09:58:58Z</time>
      </trkpt>
      <trkpt lat="43.30997" lon="5.66089">
        <ele>775</ele>
        <time>2014-01-22T09:58:59Z</time>
      </trkpt>
      <trkpt lat="43.31004" lon="5.66087">
        <ele>775.4</ele>
        <time>2014-01-22T09:59:05Z</time>
      </trkpt>
      <trkpt lat="43.31008" lon="5.66086">
        <ele>776.2</ele>
        <time>2014-01-22T09:59:10Z</time>
      </trkpt>
      <trkpt lat="43.31011" lon="5.66086">
        <ele>776.5</ele>
        <time>2014-01-22T09:59:14Z</time>
      </trkpt>
      <trkpt lat="43.31015" lon="5.66089">
        <ele>776.5</ele>
        <time>2014-01-22T09:59:20Z</time>
      </trkpt>
      <trkpt lat="43.31019" lon="5.66091">
        <ele>778.7</ele>
        <time>2014-01-22T09:59:30Z</time>
      </trkpt>
      <trkpt lat="43.31024" lon="5.66091">
        <ele>783</ele>
        <time>2014-01-22T10:01:07Z</time>
      </trkpt>
      <trkpt lat="43.31024" lon="5.66091">
        <ele>783</ele>
        <time>2014-01-22T10:01:08Z</time>
      </trkpt>
      <trkpt lat="43.31031" lon="5.66085">
        <ele>780.5</ele>
        <time>2014-01-22T10:01:56Z</time>
      </trkpt>
      <trkpt lat="43.31034" lon="5.66081">
        <ele>780.2</ele>
        <time>2014-01-22T10:02:02Z</time>
      </trkpt>
      <trkpt lat="43.31038" lon="5.66079">
        <ele>780</ele>
        <time>2014-01-22T10:02:08Z</time>
      </trkpt>
      <trkpt lat="43.31038" lon="5.66078">
        <ele>779.9</ele>
        <time>2014-01-22T10:02:09Z</time>
      </trkpt>
      <trkpt lat="43.31045" lon="5.66074">
        <ele>779.4</ele>
        <time>2014-01-22T10:02:18Z</time>
      </trkpt>
      <trkpt lat="43.3105" lon="5.66073">
        <ele>778.5</ele>
        <time>2014-01-22T10:02:25Z</time>
      </trkpt>
      <trkpt lat="43.31054" lon="5.66071">
        <ele>777.4</ele>
        <time>2014-01-22T10:02:37Z</time>
      </trkpt>
      <trkpt lat="43.31058" lon="5.66068">
        <ele>776.2</ele>
        <time>2014-01-22T10:02:45Z</time>
      </trkpt>
      <trkpt lat="43.31061" lon="5.66065">
        <ele>775</ele>
        <time>2014-01-22T10:02:53Z</time>
      </trkpt>
      <trkpt lat="43.31065" lon="5.66063">
        <ele>773.9</ele>
        <time>2014-01-22T10:03:01Z</time>
      </trkpt>
      <trkpt lat="43.31068" lon="5.66058">
        <ele>771.7</ele>
        <time>2014-01-22T10:03:10Z</time>
      </trkpt>
      <trkpt lat="43.31068" lon="5.66058">
        <ele>771.2</ele>
        <time>2014-01-22T10:03:11Z</time>
      </trkpt>
      <trkpt lat="43.31076" lon="5.66062">
        <ele>769.5</ele>
        <time>2014-01-22T10:03:23Z</time>
      </trkpt>
      <trkpt lat="43.3108" lon="5.6606">
        <ele>768.5</ele>
        <time>2014-01-22T10:03:30Z</time>
      </trkpt>
      <trkpt lat="43.31084" lon="5.66057">
        <ele>767.7</ele>
        <time>2014-01-22T10:03:38Z</time>
      </trkpt>
      <trkpt lat="43.31088" lon="5.66058">
        <ele>766</ele>
        <time>2014-01-22T10:03:46Z</time>
      </trkpt>
      <trkpt lat="43.31092" lon="5.66059">
        <ele>765.7</ele>
        <time>2014-01-22T10:03:57Z</time>
      </trkpt>
      <trkpt lat="43.31094" lon="5.66064">
        <ele>768</ele>
        <time>2014-01-22T10:04:12Z</time>
      </trkpt>
      <trkpt lat="43.31095" lon="5.66064">
        <ele>768</ele>
        <time>2014-01-22T10:04:13Z</time>
      </trkpt>
      <trkpt lat="43.31101" lon="5.66071">
        <ele>768.2</ele>
        <time>2014-01-22T10:04:29Z</time>
      </trkpt>
      <trkpt lat="43.31105" lon="5.66071">
        <ele>768.4</ele>
        <time>2014-01-22T10:04:34Z</time>
      </trkpt>
      <trkpt lat="43.31109" lon="5.66074">
        <ele>768.2</ele>
        <time>2014-01-22T10:04:40Z</time>
      </trkpt>
      <trkpt lat="43.31113" lon="5.66072">
        <ele>766.9</ele>
        <time>2014-01-22T10:04:46Z</time>
      </trkpt>
      <trkpt lat="43.31117" lon="5.66071">
        <ele>765.9</ele>
        <time>2014-01-22T10:04:53Z</time>
      </trkpt>
      <trkpt lat="43.31121" lon="5.66069">
        <ele>765.9</ele>
        <time>2014-01-22T10:05:00Z</time>
      </trkpt>
      <trkpt lat="43.31125" lon="5.66066">
        <ele>765.7</ele>
        <time>2014-01-22T10:05:10Z</time>
      </trkpt>
      <trkpt lat="43.31129" lon="5.66064">
        <ele>764.2</ele>
        <time>2014-01-22T10:05:19Z</time>
      </trkpt>
      <trkpt lat="43.3113" lon="5.66065">
        <ele>764</ele>
        <time>2014-01-22T10:05:20Z</time>
      </trkpt>
      <trkpt lat="43.31137" lon="5.66068">
        <ele>764.4</ele>
        <time>2014-01-22T10:05:32Z</time>
      </trkpt>
      <trkpt lat="43.31141" lon="5.66068">
        <ele>765</ele>
        <time>2014-01-22T10:05:36Z</time>
      </trkpt>
      <trkpt lat="43.31144" lon="5.66072">
        <ele>765.9</ele>
        <time>2014-01-22T10:05:43Z</time>
      </trkpt>
      <trkpt lat="43.31147" lon="5.66076">
        <ele>767.5</ele>
        <time>2014-01-22T10:05:51Z</time>
      </trkpt>
      <trkpt lat="43.31151" lon="5.66079">
        <ele>769.4</ele>
        <time>2014-01-22T10:05:58Z</time>
      </trkpt>
      <trkpt lat="43.31155" lon="5.66079">
        <ele>770</ele>
        <time>2014-01-22T10:06:06Z</time>
      </trkpt>
      <trkpt lat="43.31159" lon="5.66077">
        <ele>769.2</ele>
        <time>2014-01-22T10:06:11Z</time>
      </trkpt>
      <trkpt lat="43.31163" lon="5.66078">
        <ele>769.5</ele>
        <time>2014-01-22T10:06:17Z</time>
      </trkpt>
      <trkpt lat="43.31167" lon="5.66077">
        <ele>769.2</ele>
        <time>2014-01-22T10:06:23Z</time>
      </trkpt>
      <trkpt lat="43.31168" lon="5.66077">
        <ele>769.2</ele>
        <time>2014-01-22T10:06:24Z</time>
      </trkpt>
      <trkpt lat="43.31176" lon="5.66079">
        <ele>771</ele>
        <time>2014-01-22T10:06:35Z</time>
      </trkpt>
      <trkpt lat="43.31179" lon="5.66083">
        <ele>771</ele>
        <time>2014-01-22T10:06:42Z</time>
      </trkpt>
      <trkpt lat="43.31183" lon="5.66085">
        <ele>771.7</ele>
        <time>2014-01-22T10:06:48Z</time>
      </trkpt>
      <trkpt lat="43.31187" lon="5.66084">
        <ele>772.7</ele>
        <time>2014-01-22T10:06:55Z</time>
      </trkpt>
      <trkpt lat="43.31191" lon="5.66087">
        <ele>774</ele>
        <time>2014-01-22T10:07:03Z</time>
      </trkpt>
      <trkpt lat="43.31194" lon="5.6609">
        <ele>774.4</ele>
        <time>2014-01-22T10:07:09Z</time>
      </trkpt>
      <trkpt lat="43.31198" lon="5.66092">
        <ele>775.5</ele>
        <time>2014-01-22T10:07:14Z</time>
      </trkpt>
      <trkpt lat="43.31202" lon="5.66091">
        <ele>776.5</ele>
        <time>2014-01-22T10:07:20Z</time>
      </trkpt>
      <trkpt lat="43.31206" lon="5.66091">
        <ele>777.7</ele>
        <time>2014-01-22T10:07:26Z</time>
      </trkpt>
      <trkpt lat="43.31207" lon="5.66092">
        <ele>778</ele>
        <time>2014-01-22T10:07:27Z</time>
      </trkpt>
      <trkpt lat="43.31214" lon="5.66093">
        <ele>779</ele>
        <time>2014-01-22T10:07:39Z</time>
      </trkpt>
      <trkpt lat="43.31218" lon="5.66091">
        <ele>779.7</ele>
        <time>2014-01-22T10:07:44Z</time>
      </trkpt>
      <trkpt lat="43.31221" lon="5.66089">
        <ele>779.7</ele>
        <time>2014-01-22T10:07:51Z</time>
      </trkpt>
      <trkpt lat="43.31225" lon="5.66088">
        <ele>779.7</ele>
        <time>2014-01-22T10:07:56Z</time>
      </trkpt>
      <trkpt lat="43.31229" lon="5.66089">
        <ele>780.2</ele>
        <time>2014-01-22T10:08:01Z</time>
      </trkpt>
      <trkpt lat="43.31233" lon="5.66088">
        <ele>779.7</ele>
        <time>2014-01-22T10:08:07Z</time>
      </trkpt>
      <trkpt lat="43.31237" lon="5.6609">
        <ele>779.7</ele>
        <time>2014-01-22T10:08:12Z</time>
      </trkpt>
      <trkpt lat="43.31241" lon="5.66092">
        <ele>780</ele>
        <time>2014-01-22T10:08:17Z</time>
      </trkpt>
      <trkpt lat="43.31245" lon="5.66093">
        <ele>780.5</ele>
        <time>2014-01-22T10:08:22Z</time>
      </trkpt>
      <trkpt lat="43.31249" lon="5.66094">
        <ele>780.7</ele>
        <time>2014-01-22T10:08:27Z</time>
      </trkpt>
      <trkpt lat="43.3125" lon="5.66094">
        <ele>780.9</ele>
        <time>2014-01-22T10:08:28Z</time>
      </trkpt>
      <trkpt lat="43.31256" lon="5.66095">
        <ele>780.7</ele>
        <time>2014-01-22T10:08:37Z</time>
      </trkpt>
      <trkpt lat="43.31261" lon="5.66094">
        <ele>780.4</ele>
        <time>2014-01-22T10:08:43Z</time>
      </trkpt>
      <trkpt lat="43.31265" lon="5.66092">
        <ele>780</ele>
        <time>2014-01-22T10:08:49Z</time>
      </trkpt>
      <trkpt lat="43.31269" lon="5.66092">
        <ele>779.7</ele>
        <time>2014-01-22T10:08:54Z</time>
      </trkpt>
      <trkpt lat="43.31273" lon="5.66091">
        <ele>779.4</ele>
        <time>2014-01-22T10:08:58Z</time>
      </trkpt>
      <trkpt lat="43.31277" lon="5.6609">
        <ele>778.7</ele>
        <time>2014-01-22T10:09:03Z</time>
      </trkpt>
      <trkpt lat="43.31281" lon="5.66089">
        <ele>779</ele>
        <time>2014-01-22T10:09:09Z</time>
      </trkpt>
      <trkpt lat="43.31285" lon="5.66088">
        <ele>779.5</ele>
        <time>2014-01-22T10:09:16Z</time>
      </trkpt>
      <trkpt lat="43.31289" lon="5.66089">
        <ele>780</ele>
        <time>2014-01-22T10:09:21Z</time>
      </trkpt>
      <trkpt lat="43.31294" lon="5.66087">
        <ele>780.2</ele>
        <time>2014-01-22T10:09:26Z</time>
      </trkpt>
      <trkpt lat="43.31298" lon="5.66087">
        <ele>779.2</ele>
        <time>2014-01-22T10:09:33Z</time>
      </trkpt>
      <trkpt lat="43.31299" lon="5.66087">
        <ele>778.9</ele>
        <time>2014-01-22T10:09:34Z</time>
      </trkpt>
      <trkpt lat="43.31307" lon="5.66086">
        <ele>777</ele>
        <time>2014-01-22T10:09:45Z</time>
      </trkpt>
      <trkpt lat="43.31311" lon="5.66087">
        <ele>777</ele>
        <time>2014-01-22T10:09:53Z</time>
      </trkpt>
      <trkpt lat="43.31315" lon="5.66087">
        <ele>776.2</ele>
        <time>2014-01-22T10:09:58Z</time>
      </trkpt>
      <trkpt lat="43.31319" lon="5.66086">
        <ele>775.9</ele>
        <time>2014-01-22T10:10:02Z</time>
      </trkpt>
      <trkpt lat="43.31323" lon="5.66086">
        <ele>775.5</ele>
        <time>2014-01-22T10:10:06Z</time>
      </trkpt>
      <trkpt lat="43.31327" lon="5.66085">
        <ele>775.7</ele>
        <time>2014-01-22T10:10:10Z</time>
      </trkpt>
      <trkpt lat="43.31331" lon="5.66083">
        <ele>775.9</ele>
        <time>2014-01-22T10:10:15Z</time>
      </trkpt>
      <trkpt lat="43.31335" lon="5.6608">
        <ele>775.7</ele>
        <time>2014-01-22T10:10:22Z</time>
      </trkpt>
      <trkpt lat="43.31338" lon="5.66077">
        <ele>774.9</ele>
        <time>2014-01-22T10:10:27Z</time>
      </trkpt>
      <trkpt lat="43.31342" lon="5.66075">
        <ele>774.4</ele>
        <time>2014-01-22T10:10:31Z</time>
      </trkpt>
      <trkpt lat="43.31346" lon="5.66074">
        <ele>773.7</ele>
        <time>2014-01-22T10:10:36Z</time>
      </trkpt>
      <trkpt lat="43.31347" lon="5.66074">
        <ele>773.5</ele>
        <time>2014-01-22T10:10:37Z</time>
      </trkpt>
      <trkpt lat="43.31354" lon="5.6607">
        <ele>772.7</ele>
        <time>2014-01-22T10:10:46Z</time>
      </trkpt>
      <trkpt lat="43.31357" lon="5.66067">
        <ele>771.7</ele>
        <time>2014-01-22T10:10:51Z</time>
      </trkpt>
      <trkpt lat="43.3136" lon="5.66063">
        <ele>770.7</ele>
        <time>2014-01-22T10:10:56Z</time>
      </trkpt>
      <trkpt lat="43.31363" lon="5.66061">
        <ele>770.2</ele>
        <time>2014-01-22T10:11:03Z</time>
      </trkpt>
      <trkpt lat="43.31367" lon="5.66058">
        <ele>769.2</ele>
        <time>2014-01-22T10:11:09Z</time>
      </trkpt>
      <trkpt lat="43.3137" lon="5.66055">
        <ele>767.5</ele>
        <time>2014-01-22T10:11:17Z</time>
      </trkpt>
      <trkpt lat="43.31374" lon="5.66055">
        <ele>766.4</ele>
        <time>2014-01-22T10:11:27Z</time>
      </trkpt>
      <trkpt lat="43.31378" lon="5.66058">
        <ele>765</ele>
        <time>2014-01-22T10:11:34Z</time>
      </trkpt>
      <trkpt lat="43.31381" lon="5.66062">
        <ele>763.9</ele>
        <time>2014-01-22T10:11:41Z</time>
      </trkpt>
      <trkpt lat="43.31381" lon="5.66063">
        <ele>764</ele>
        <time>2014-01-22T10:11:42Z</time>
      </trkpt>
      <trkpt lat="43.31384" lon="5.66072">
        <ele>761.7</ele>
        <time>2014-01-22T10:11:55Z</time>
      </trkpt>
      <trkpt lat="43.31388" lon="5.66075">
        <ele>759.7</ele>
        <time>2014-01-22T10:12:02Z</time>
      </trkpt>
      <trkpt lat="43.31389" lon="5.6608">
        <ele>759</ele>
        <time>2014-01-22T10:12:07Z</time>
      </trkpt>
      <trkpt lat="43.31392" lon="5.66085">
        <ele>758.4</ele>
        <time>2014-01-22T10:12:12Z</time>
      </trkpt>
      <trkpt lat="43.31395" lon="5.66087">
        <ele>757.5</ele>
        <time>2014-01-22T10:12:17Z</time>
      </trkpt>
      <trkpt lat="43.31398" lon="5.66091">
        <ele>756.7</ele>
        <time>2014-01-22T10:12:24Z</time>
      </trkpt>
      <trkpt lat="43.31401" lon="5.66095">
        <ele>756</ele>
        <time>2014-01-22T10:12:28Z</time>
      </trkpt>
      <trkpt lat="43.31404" lon="5.66099">
        <ele>756</ele>
        <time>2014-01-22T10:12:32Z</time>
      </trkpt>
      <trkpt lat="43.31407" lon="5.66101">
        <ele>755</ele>
        <time>2014-01-22T10:12:38Z</time>
      </trkpt>
      <trkpt lat="43.31411" lon="5.66103">
        <ele>753.9</ele>
        <time>2014-01-22T10:12:43Z</time>
      </trkpt>
      <trkpt lat="43.31411" lon="5.66103">
        <ele>753.7</ele>
        <time>2014-01-22T10:12:44Z</time>
      </trkpt>
      <trkpt lat="43.31418" lon="5.66105">
        <ele>753</ele>
        <time>2014-01-22T10:12:54Z</time>
      </trkpt>
      <trkpt lat="43.31422" lon="5.66106">
        <ele>752</ele>
        <time>2014-01-22T10:13:00Z</time>
      </trkpt>
      <trkpt lat="43.31425" lon="5.6611">
        <ele>750</ele>
        <time>2014-01-22T10:13:07Z</time>
      </trkpt>
      <trkpt lat="43.31429" lon="5.66107">
        <ele>749.2</ele>
        <time>2014-01-22T10:13:13Z</time>
      </trkpt>
      <trkpt lat="43.31433" lon="5.66105">
        <ele>747.5</ele>
        <time>2014-01-22T10:13:21Z</time>
      </trkpt>
      <trkpt lat="43.31435" lon="5.66109">
        <ele>746.2</ele>
        <time>2014-01-22T10:13:27Z</time>
      </trkpt>
      <trkpt lat="43.31438" lon="5.66114">
        <ele>744.4</ele>
        <time>2014-01-22T10:13:34Z</time>
      </trkpt>
      <trkpt lat="43.31441" lon="5.66117">
        <ele>742.7</ele>
        <time>2014-01-22T10:13:39Z</time>
      </trkpt>
      <trkpt lat="43.31443" lon="5.66121">
        <ele>741.5</ele>
        <time>2014-01-22T10:13:43Z</time>
      </trkpt>
      <trkpt lat="43.31447" lon="5.66125">
        <ele>740.2</ele>
        <time>2014-01-22T10:13:47Z</time>
      </trkpt>
      <trkpt lat="43.31447" lon="5.66126">
        <ele>740.2</ele>
        <time>2014-01-22T10:13:48Z</time>
      </trkpt>
      <trkpt lat="43.3145" lon="5.66134">
        <ele>739.2</ele>
        <time>2014-01-22T10:13:55Z</time>
      </trkpt>
      <trkpt lat="43.31453" lon="5.66138">
        <ele>738.7</ele>
        <time>2014-01-22T10:14:00Z</time>
      </trkpt>
      <trkpt lat="43.31456" lon="5.66141">
        <ele>737.9</ele>
        <time>2014-01-22T10:14:04Z</time>
      </trkpt>
      <trkpt lat="43.3146" lon="5.66144">
        <ele>736.4</ele>
        <time>2014-01-22T10:14:08Z</time>
      </trkpt>
      <trkpt lat="43.31463" lon="5.66147">
        <ele>735.4</ele>
        <time>2014-01-22T10:14:12Z</time>
      </trkpt>
      <trkpt lat="43.31466" lon="5.6615">
        <ele>734.9</ele>
        <time>2014-01-22T10:14:15Z</time>
      </trkpt>
      <trkpt lat="43.31468" lon="5.66155">
        <ele>734.5</ele>
        <time>2014-01-22T10:14:19Z</time>
      </trkpt>
      <trkpt lat="43.31472" lon="5.66159">
        <ele>734</ele>
        <time>2014-01-22T10:14:23Z</time>
      </trkpt>
      <trkpt lat="43.31475" lon="5.66162">
        <ele>733.4</ele>
        <time>2014-01-22T10:14:27Z</time>
      </trkpt>
      <trkpt lat="43.31479" lon="5.66165">
        <ele>732.5</ele>
        <time>2014-01-22T10:14:31Z</time>
      </trkpt>
      <trkpt lat="43.3148" lon="5.6617">
        <ele>732.5</ele>
        <time>2014-01-22T10:14:35Z</time>
      </trkpt>
      <trkpt lat="43.31481" lon="5.66176">
        <ele>732.5</ele>
        <time>2014-01-22T10:14:39Z</time>
      </trkpt>
      <trkpt lat="43.31481" lon="5.66182">
        <ele>733</ele>
        <time>2014-01-22T10:16:20Z</time>
      </trkpt>
      <trkpt lat="43.31481" lon="5.66182">
        <ele>733</ele>
        <time>2014-01-22T10:16:21Z</time>
      </trkpt>
      <trkpt lat="43.31485" lon="5.66179">
        <ele>733.5</ele>
        <time>2014-01-22T10:17:44Z</time>
      </trkpt>
      <trkpt lat="43.31486" lon="5.66173">
        <ele>731.5</ele>
        <time>2014-01-22T10:20:52Z</time>
      </trkpt>
      <trkpt lat="43.3149" lon="5.66174">
        <ele>731.5</ele>
        <time>2014-01-22T10:22:32Z</time>
      </trkpt>
      <trkpt lat="43.31498" lon="5.66176">
        <ele>730.5</ele>
        <time>2014-01-22T10:22:42Z</time>
      </trkpt>
      <trkpt lat="43.31502" lon="5.66177">
        <ele>729.5</ele>
        <time>2014-01-22T10:22:49Z</time>
      </trkpt>
      <trkpt lat="43.31506" lon="5.66179">
        <ele>728.9</ele>
        <time>2014-01-22T10:22:56Z</time>
      </trkpt>
      <trkpt lat="43.31509" lon="5.66182">
        <ele>728.2</ele>
        <time>2014-01-22T10:23:00Z</time>
      </trkpt>
      <trkpt lat="43.31512" lon="5.66183">
        <ele>727.5</ele>
        <time>2014-01-22T10:23:04Z</time>
      </trkpt>
      <trkpt lat="43.31516" lon="5.66184">
        <ele>726.7</ele>
        <time>2014-01-22T10:23:09Z</time>
      </trkpt>
      <trkpt lat="43.31521" lon="5.66185">
        <ele>726.2</ele>
        <time>2014-01-22T10:23:15Z</time>
      </trkpt>
      <trkpt lat="43.31525" lon="5.66184">
        <ele>726.4</ele>
        <time>2014-01-22T10:23:21Z</time>
      </trkpt>
      <trkpt lat="43.31528" lon="5.66182">
        <ele>725.7</ele>
        <time>2014-01-22T10:23:27Z</time>
      </trkpt>
      <trkpt lat="43.31528" lon="5.66176">
        <ele>724.9</ele>
        <time>2014-01-22T10:23:34Z</time>
      </trkpt>
      <trkpt lat="43.31528" lon="5.66175">
        <ele>724.7</ele>
        <time>2014-01-22T10:23:35Z</time>
      </trkpt>
      <trkpt lat="43.31531" lon="5.66165">
        <ele>722.7</ele>
        <time>2014-01-22T10:23:44Z</time>
      </trkpt>
      <trkpt lat="43.31532" lon="5.6616">
        <ele>722.2</ele>
        <time>2014-01-22T10:23:47Z</time>
      </trkpt>
      <trkpt lat="43.31531" lon="5.66154">
        <ele>722</ele>
        <time>2014-01-22T10:23:51Z</time>
      </trkpt>
      <trkpt lat="43.31529" lon="5.66149">
        <ele>722.5</ele>
        <time>2014-01-22T10:23:57Z</time>
      </trkpt>
      <trkpt lat="43.31527" lon="5.66144">
        <ele>723.2</ele>
        <time>2014-01-22T10:24:02Z</time>
      </trkpt>
      <trkpt lat="43.31524" lon="5.66139">
        <ele>723.4</ele>
        <time>2014-01-22T10:24:06Z</time>
      </trkpt>
      <trkpt lat="43.31523" lon="5.66134">
        <ele>723.5</ele>
        <time>2014-01-22T10:24:10Z</time>
      </trkpt>
      <trkpt lat="43.31522" lon="5.66129">
        <ele>723.2</ele>
        <time>2014-01-22T10:24:14Z</time>
      </trkpt>
      <trkpt lat="43.31521" lon="5.66124">
        <ele>723.7</ele>
        <time>2014-01-22T10:24:17Z</time>
      </trkpt>
      <trkpt lat="43.31521" lon="5.66118">
        <ele>723.7</ele>
        <time>2014-01-22T10:24:21Z</time>
      </trkpt>
      <trkpt lat="43.3152" lon="5.66112">
        <ele>723.4</ele>
        <time>2014-01-22T10:24:25Z</time>
      </trkpt>
      <trkpt lat="43.3152" lon="5.66107">
        <ele>723</ele>
        <time>2014-01-22T10:24:29Z</time>
      </trkpt>
      <trkpt lat="43.31519" lon="5.66102">
        <ele>722.5</ele>
        <time>2014-01-22T10:24:33Z</time>
      </trkpt>
      <trkpt lat="43.31518" lon="5.66096">
        <ele>722</ele>
        <time>2014-01-22T10:24:37Z</time>
      </trkpt>
      <trkpt lat="43.31518" lon="5.66095">
        <ele>721.7</ele>
        <time>2014-01-22T10:24:38Z</time>
      </trkpt>
      <trkpt lat="43.31517" lon="5.66085">
        <ele>721.7</ele>
        <time>2014-01-22T10:24:44Z</time>
      </trkpt>
      <trkpt lat="43.31516" lon="5.66081">
        <ele>721.5</ele>
        <time>2014-01-22T10:24:47Z</time>
      </trkpt>
      <trkpt lat="43.31516" lon="5.66076">
        <ele>721.2</ele>
        <time>2014-01-22T10:24:51Z</time>
      </trkpt>
      <trkpt lat="43.31515" lon="5.6607">
        <ele>721</ele>
        <time>2014-01-22T10:24:55Z</time>
      </trkpt>
      <trkpt lat="43.31513" lon="5.66065">
        <ele>720.5</ele>
        <time>2014-01-22T10:24:59Z</time>
      </trkpt>
      <trkpt lat="43.31511" lon="5.66061">
        <ele>720.4</ele>
        <time>2014-01-22T10:25:03Z</time>
      </trkpt>
      <trkpt lat="43.3151" lon="5.66057">
        <ele>719.7</ele>
        <time>2014-01-22T10:25:06Z</time>
      </trkpt>
      <trkpt lat="43.31507" lon="5.66053">
        <ele>719.7</ele>
        <time>2014-01-22T10:25:09Z</time>
      </trkpt>
      <trkpt lat="43.31505" lon="5.66048">
        <ele>719</ele>
        <time>2014-01-22T10:25:13Z</time>
      </trkpt>
      <trkpt lat="43.31503" lon="5.66043">
        <ele>719.2</ele>
        <time>2014-01-22T10:25:17Z</time>
      </trkpt>
      <trkpt lat="43.31503" lon="5.66038">
        <ele>718.2</ele>
        <time>2014-01-22T10:25:21Z</time>
      </trkpt>
      <trkpt lat="43.31503" lon="5.66032">
        <ele>717.7</ele>
        <time>2014-01-22T10:25:25Z</time>
      </trkpt>
      <trkpt lat="43.31506" lon="5.66028">
        <ele>717.5</ele>
        <time>2014-01-22T10:25:29Z</time>
      </trkpt>
      <trkpt lat="43.31508" lon="5.66023">
        <ele>717</ele>
        <time>2014-01-22T10:25:33Z</time>
      </trkpt>
      <trkpt lat="43.31511" lon="5.66018">
        <ele>716.2</ele>
        <time>2014-01-22T10:25:37Z</time>
      </trkpt>
      <trkpt lat="43.31513" lon="5.66014">
        <ele>716</ele>
        <time>2014-01-22T10:25:40Z</time>
      </trkpt>
      <trkpt lat="43.31513" lon="5.66012">
        <ele>716</ele>
        <time>2014-01-22T10:25:41Z</time>
      </trkpt>
      <trkpt lat="43.31517" lon="5.66003">
        <ele>714.2</ele>
        <time>2014-01-22T10:25:48Z</time>
      </trkpt>
      <trkpt lat="43.31519" lon="5.65999">
        <ele>714</ele>
        <time>2014-01-22T10:25:51Z</time>
      </trkpt>
      <trkpt lat="43.3152" lon="5.65995">
        <ele>713.5</ele>
        <time>2014-01-22T10:25:54Z</time>
      </trkpt>
      <trkpt lat="43.31522" lon="5.6599">
        <ele>713</ele>
        <time>2014-01-22T10:25:57Z</time>
      </trkpt>
      <trkpt lat="43.31524" lon="5.65986">
        <ele>712.9</ele>
        <time>2014-01-22T10:26:00Z</time>
      </trkpt>
      <trkpt lat="43.31524" lon="5.65981">
        <ele>712</ele>
        <time>2014-01-22T10:26:03Z</time>
      </trkpt>
      <trkpt lat="43.31526" lon="5.65976">
        <ele>711.5</ele>
        <time>2014-01-22T10:26:07Z</time>
      </trkpt>
      <trkpt lat="43.31527" lon="5.65971">
        <ele>710.7</ele>
        <time>2014-01-22T10:26:10Z</time>
      </trkpt>
      <trkpt lat="43.31528" lon="5.65965">
        <ele>709.9</ele>
        <time>2014-01-22T10:26:14Z</time>
      </trkpt>
      <trkpt lat="43.31529" lon="5.65959">
        <ele>709.9</ele>
        <time>2014-01-22T10:26:18Z</time>
      </trkpt>
      <trkpt lat="43.31529" lon="5.65955">
        <ele>709.7</ele>
        <time>2014-01-22T10:26:21Z</time>
      </trkpt>
      <trkpt lat="43.31529" lon="5.6595">
        <ele>709.4</ele>
        <time>2014-01-22T10:26:24Z</time>
      </trkpt>
      <trkpt lat="43.31531" lon="5.65945">
        <ele>708.7</ele>
        <time>2014-01-22T10:26:27Z</time>
      </trkpt>
      <trkpt lat="43.31531" lon="5.6594">
        <ele>708.5</ele>
        <time>2014-01-22T10:26:30Z</time>
      </trkpt>
      <trkpt lat="43.31532" lon="5.65936">
        <ele>708.5</ele>
        <time>2014-01-22T10:26:33Z</time>
      </trkpt>
      <trkpt lat="43.31532" lon="5.6593">
        <ele>709.2</ele>
        <time>2014-01-22T10:26:36Z</time>
      </trkpt>
      <trkpt lat="43.31532" lon="5.65925">
        <ele>709.2</ele>
        <time>2014-01-22T10:26:39Z</time>
      </trkpt>
      <trkpt lat="43.31533" lon="5.65921">
        <ele>709.2</ele>
        <time>2014-01-22T10:26:42Z</time>
      </trkpt>
      <trkpt lat="43.31534" lon="5.65919">
        <ele>709</ele>
        <time>2014-01-22T10:26:43Z</time>
      </trkpt>
      <trkpt lat="43.31535" lon="5.65911">
        <ele>708.9</ele>
        <time>2014-01-22T10:26:48Z</time>
      </trkpt>
      <trkpt lat="43.31536" lon="5.65906">
        <ele>709.2</ele>
        <time>2014-01-22T10:26:51Z</time>
      </trkpt>
      <trkpt lat="43.31536" lon="5.65901">
        <ele>709.2</ele>
        <time>2014-01-22T10:26:54Z</time>
      </trkpt>
      <trkpt lat="43.31537" lon="5.65896">
        <ele>708.7</ele>
        <time>2014-01-22T10:26:57Z</time>
      </trkpt>
      <trkpt lat="43.31537" lon="5.65891">
        <ele>708.4</ele>
        <time>2014-01-22T10:27:00Z</time>
      </trkpt>
      <trkpt lat="43.31537" lon="5.65886">
        <ele>708</ele>
        <time>2014-01-22T10:27:03Z</time>
      </trkpt>
      <trkpt lat="43.31536" lon="5.65881">
        <ele>707.7</ele>
        <time>2014-01-22T10:27:06Z</time>
      </trkpt>
      <trkpt lat="43.31535" lon="5.65876">
        <ele>707.5</ele>
        <time>2014-01-22T10:27:09Z</time>
      </trkpt>
      <trkpt lat="43.31534" lon="5.65871">
        <ele>707.5</ele>
        <time>2014-01-22T10:27:12Z</time>
      </trkpt>
      <trkpt lat="43.31533" lon="5.65866">
        <ele>707.4</ele>
        <time>2014-01-22T10:27:15Z</time>
      </trkpt>
      <trkpt lat="43.31533" lon="5.65861">
        <ele>707.4</ele>
        <time>2014-01-22T10:27:18Z</time>
      </trkpt>
      <trkpt lat="43.31532" lon="5.65856">
        <ele>707.7</ele>
        <time>2014-01-22T10:27:21Z</time>
      </trkpt>
      <trkpt lat="43.31531" lon="5.65851">
        <ele>708</ele>
        <time>2014-01-22T10:27:24Z</time>
      </trkpt>
      <trkpt lat="43.31531" lon="5.65846">
        <ele>708.4</ele>
        <time>2014-01-22T10:27:27Z</time>
      </trkpt>
      <trkpt lat="43.3153" lon="5.65841">
        <ele>708</ele>
        <time>2014-01-22T10:27:30Z</time>
      </trkpt>
      <trkpt lat="43.31529" lon="5.65836">
        <ele>707.9</ele>
        <time>2014-01-22T10:27:33Z</time>
      </trkpt>
      <trkpt lat="43.31529" lon="5.65831">
        <ele>707.4</ele>
        <time>2014-01-22T10:27:36Z</time>
      </trkpt>
      <trkpt lat="43.31529" lon="5.65826">
        <ele>707.4</ele>
        <time>2014-01-22T10:27:39Z</time>
      </trkpt>
      <trkpt lat="43.31529" lon="5.65821">
        <ele>707.2</ele>
        <time>2014-01-22T10:27:42Z</time>
      </trkpt>
      <trkpt lat="43.31529" lon="5.65816">
        <ele>707</ele>
        <time>2014-01-22T10:27:45Z</time>
      </trkpt>
      <trkpt lat="43.31529" lon="5.65815">
        <ele>707</ele>
        <time>2014-01-22T10:27:46Z</time>
      </trkpt>
      <trkpt lat="43.3153" lon="5.65807">
        <ele>706.2</ele>
        <time>2014-01-22T10:27:51Z</time>
      </trkpt>
      <trkpt lat="43.31531" lon="5.65802">
        <ele>706</ele>
        <time>2014-01-22T10:27:54Z</time>
      </trkpt>
      <trkpt lat="43.31532" lon="5.65797">
        <ele>705.5</ele>
        <time>2014-01-22T10:27:57Z</time>
      </trkpt>
      <trkpt lat="43.31532" lon="5.65792">
        <ele>705.2</ele>
        <time>2014-01-22T10:28:00Z</time>
      </trkpt>
      <trkpt lat="43.31532" lon="5.65787">
        <ele>704.5</ele>
        <time>2014-01-22T10:28:03Z</time>
      </trkpt>
      <trkpt lat="43.31533" lon="5.65782">
        <ele>704</ele>
        <time>2014-01-22T10:28:06Z</time>
      </trkpt>
      <trkpt lat="43.31535" lon="5.65778">
        <ele>703.9</ele>
        <time>2014-01-22T10:28:09Z</time>
      </trkpt>
      <trkpt lat="43.31536" lon="5.65773">
        <ele>703.9</ele>
        <time>2014-01-22T10:28:12Z</time>
      </trkpt>
      <trkpt lat="43.31536" lon="5.65768">
        <ele>703.5</ele>
        <time>2014-01-22T10:28:15Z</time>
      </trkpt>
      <trkpt lat="43.31537" lon="5.65763">
        <ele>703.2</ele>
        <time>2014-01-22T10:28:18Z</time>
      </trkpt>
      <trkpt lat="43.31538" lon="5.65758">
        <ele>703.2</ele>
        <time>2014-01-22T10:28:21Z</time>
      </trkpt>
      <trkpt lat="43.31539" lon="5.65754">
        <ele>703.2</ele>
        <time>2014-01-22T10:28:24Z</time>
      </trkpt>
      <trkpt lat="43.31539" lon="5.65748">
        <ele>703.2</ele>
        <time>2014-01-22T10:28:27Z</time>
      </trkpt>
      <trkpt lat="43.31539" lon="5.65743">
        <ele>702.7</ele>
        <time>2014-01-22T10:28:30Z</time>
      </trkpt>
      <trkpt lat="43.3154" lon="5.65738">
        <ele>702.2</ele>
        <time>2014-01-22T10:28:33Z</time>
      </trkpt>
      <trkpt lat="43.3154" lon="5.65733">
        <ele>702.2</ele>
        <time>2014-01-22T10:28:36Z</time>
      </trkpt>
      <trkpt lat="43.3154" lon="5.65727">
        <ele>702.2</ele>
        <time>2014-01-22T10:28:39Z</time>
      </trkpt>
      <trkpt lat="43.31541" lon="5.65722">
        <ele>702.7</ele>
        <time>2014-01-22T10:28:42Z</time>
      </trkpt>
      <trkpt lat="43.31542" lon="5.65718">
        <ele>702.7</ele>
        <time>2014-01-22T10:28:45Z</time>
      </trkpt>
      <trkpt lat="43.31543" lon="5.65713">
        <ele>702.4</ele>
        <time>2014-01-22T10:28:48Z</time>
      </trkpt>
      <trkpt lat="43.31543" lon="5.65711">
        <ele>702</ele>
        <time>2014-01-22T10:28:49Z</time>
      </trkpt>
      <trkpt lat="43.31544" lon="5.65703">
        <ele>701.2</ele>
        <time>2014-01-22T10:28:54Z</time>
      </trkpt>
      <trkpt lat="43.31545" lon="5.65699">
        <ele>700.7</ele>
        <time>2014-01-22T10:28:57Z</time>
      </trkpt>
      <trkpt lat="43.31547" lon="5.65694">
        <ele>700.5</ele>
        <time>2014-01-22T10:29:00Z</time>
      </trkpt>
      <trkpt lat="43.31548" lon="5.6569">
        <ele>700.2</ele>
        <time>2014-01-22T10:29:03Z</time>
      </trkpt>
      <trkpt lat="43.3155" lon="5.65685">
        <ele>700</ele>
        <time>2014-01-22T10:29:06Z</time>
      </trkpt>
      <trkpt lat="43.31551" lon="5.65681">
        <ele>699.7</ele>
        <time>2014-01-22T10:29:09Z</time>
      </trkpt>
      <trkpt lat="43.31552" lon="5.65676">
        <ele>699.7</ele>
        <time>2014-01-22T10:29:12Z</time>
      </trkpt>
      <trkpt lat="43.31554" lon="5.65671">
        <ele>699.4</ele>
        <time>2014-01-22T10:29:15Z</time>
      </trkpt>
      <trkpt lat="43.31555" lon="5.65667">
        <ele>699.2</ele>
        <time>2014-01-22T10:29:18Z</time>
      </trkpt>
      <trkpt lat="43.31556" lon="5.65661">
        <ele>699.2</ele>
        <time>2014-01-22T10:29:22Z</time>
      </trkpt>
      <trkpt lat="43.31558" lon="5.65656">
        <ele>698.7</ele>
        <time>2014-01-22T10:29:26Z</time>
      </trkpt>
      <trkpt lat="43.3156" lon="5.65651">
        <ele>698.5</ele>
        <time>2014-01-22T10:29:30Z</time>
      </trkpt>
      <trkpt lat="43.31562" lon="5.65646">
        <ele>698.4</ele>
        <time>2014-01-22T10:29:34Z</time>
      </trkpt>
      <trkpt lat="43.31565" lon="5.65641">
        <ele>697.7</ele>
        <time>2014-01-22T10:29:38Z</time>
      </trkpt>
      <trkpt lat="43.31563" lon="5.65635">
        <ele>696.7</ele>
        <time>2014-01-22T10:29:44Z</time>
      </trkpt>
      <trkpt lat="43.31559" lon="5.65634">
        <ele>696.2</ele>
        <time>2014-01-22T10:29:48Z</time>
      </trkpt>
      <trkpt lat="43.31555" lon="5.65636">
        <ele>695.7</ele>
        <time>2014-01-22T10:29:51Z</time>
      </trkpt>
      <trkpt lat="43.31554" lon="5.65636">
        <ele>695.7</ele>
        <time>2014-01-22T10:29:52Z</time>
      </trkpt>
      <trkpt lat="43.31549" lon="5.6564">
        <ele>694.7</ele>
        <time>2014-01-22T10:29:57Z</time>
      </trkpt>
      <trkpt lat="43.31546" lon="5.65642">
        <ele>694.5</ele>
        <time>2014-01-22T10:30:00Z</time>
      </trkpt>
      <trkpt lat="43.31543" lon="5.65645">
        <ele>694</ele>
        <time>2014-01-22T10:30:03Z</time>
      </trkpt>
      <trkpt lat="43.31539" lon="5.65647">
        <ele>693.9</ele>
        <time>2014-01-22T10:30:06Z</time>
      </trkpt>
      <trkpt lat="43.31536" lon="5.65649">
        <ele>693.2</ele>
        <time>2014-01-22T10:30:09Z</time>
      </trkpt>
      <trkpt lat="43.31533" lon="5.65651">
        <ele>692.5</ele>
        <time>2014-01-22T10:30:12Z</time>
      </trkpt>
      <trkpt lat="43.31529" lon="5.65653">
        <ele>691.7</ele>
        <time>2014-01-22T10:30:16Z</time>
      </trkpt>
      <trkpt lat="43.31525" lon="5.65655">
        <ele>691.2</ele>
        <time>2014-01-22T10:30:19Z</time>
      </trkpt>
      <trkpt lat="43.31521" lon="5.65657">
        <ele>690.5</ele>
        <time>2014-01-22T10:30:23Z</time>
      </trkpt>
      <trkpt lat="43.31518" lon="5.65658">
        <ele>690.2</ele>
        <time>2014-01-22T10:30:26Z</time>
      </trkpt>
      <trkpt lat="43.31514" lon="5.65659">
        <ele>690.4</ele>
        <time>2014-01-22T10:30:29Z</time>
      </trkpt>
      <trkpt lat="43.3151" lon="5.6566">
        <ele>689.7</ele>
        <time>2014-01-22T10:30:33Z</time>
      </trkpt>
      <trkpt lat="43.31506" lon="5.65659">
        <ele>690</ele>
        <time>2014-01-22T10:30:36Z</time>
      </trkpt>
      <trkpt lat="43.31503" lon="5.65659">
        <ele>690</ele>
        <time>2014-01-22T10:30:39Z</time>
      </trkpt>
      <trkpt lat="43.31499" lon="5.65658">
        <ele>690.2</ele>
        <time>2014-01-22T10:30:42Z</time>
      </trkpt>
      <trkpt lat="43.31496" lon="5.65657">
        <ele>690.2</ele>
        <time>2014-01-22T10:30:45Z</time>
      </trkpt>
      <trkpt lat="43.31493" lon="5.65655">
        <ele>689.9</ele>
        <time>2014-01-22T10:30:48Z</time>
      </trkpt>
      <trkpt lat="43.31489" lon="5.65654">
        <ele>689.5</ele>
        <time>2014-01-22T10:30:51Z</time>
      </trkpt>
      <trkpt lat="43.31486" lon="5.65651">
        <ele>689</ele>
        <time>2014-01-22T10:30:55Z</time>
      </trkpt>
      <trkpt lat="43.31485" lon="5.6565">
        <ele>688.7</ele>
        <time>2014-01-22T10:30:56Z</time>
      </trkpt>
      <trkpt lat="43.3148" lon="5.65642">
        <ele>687.5</ele>
        <time>2014-01-22T10:31:03Z</time>
      </trkpt>
      <trkpt lat="43.31478" lon="5.65637">
        <ele>687.2</ele>
        <time>2014-01-22T10:31:07Z</time>
      </trkpt>
      <trkpt lat="43.31476" lon="5.65632">
        <ele>686.7</ele>
        <time>2014-01-22T10:31:11Z</time>
      </trkpt>
      <trkpt lat="43.31474" lon="5.65627">
        <ele>685.7</ele>
        <time>2014-01-22T10:31:15Z</time>
      </trkpt>
      <trkpt lat="43.31474" lon="5.65622">
        <ele>684.9</ele>
        <time>2014-01-22T10:31:19Z</time>
      </trkpt>
      <trkpt lat="43.31473" lon="5.65617">
        <ele>684.5</ele>
        <time>2014-01-22T10:31:22Z</time>
      </trkpt>
      <trkpt lat="43.31472" lon="5.65611">
        <ele>684.2</ele>
        <time>2014-01-22T10:31:26Z</time>
      </trkpt>
      <trkpt lat="43.31471" lon="5.65607">
        <ele>684</ele>
        <time>2014-01-22T10:31:29Z</time>
      </trkpt>
      <trkpt lat="43.3147" lon="5.65602">
        <ele>683.7</ele>
        <time>2014-01-22T10:31:32Z</time>
      </trkpt>
      <trkpt lat="43.31468" lon="5.65596">
        <ele>683.5</ele>
        <time>2014-01-22T10:31:36Z</time>
      </trkpt>
      <trkpt lat="43.31467" lon="5.65592">
        <ele>683.2</ele>
        <time>2014-01-22T10:31:39Z</time>
      </trkpt>
      <trkpt lat="43.31466" lon="5.65586">
        <ele>682.9</ele>
        <time>2014-01-22T10:31:43Z</time>
      </trkpt>
      <trkpt lat="43.31464" lon="5.65582">
        <ele>682.7</ele>
        <time>2014-01-22T10:31:46Z</time>
      </trkpt>
      <trkpt lat="43.31462" lon="5.65577">
        <ele>683</ele>
        <time>2014-01-22T10:31:49Z</time>
      </trkpt>
      <trkpt lat="43.3146" lon="5.65573">
        <ele>682.5</ele>
        <time>2014-01-22T10:31:53Z</time>
      </trkpt>
      <trkpt lat="43.31458" lon="5.65568">
        <ele>682.2</ele>
        <time>2014-01-22T10:31:57Z</time>
      </trkpt>
      <trkpt lat="43.31458" lon="5.65566">
        <ele>682</ele>
        <time>2014-01-22T10:31:58Z</time>
      </trkpt>
      <trkpt lat="43.31455" lon="5.65559">
        <ele>681.5</ele>
        <time>2014-01-22T10:32:03Z</time>
      </trkpt>
      <trkpt lat="43.31454" lon="5.65555">
        <ele>681.2</ele>
        <time>2014-01-22T10:32:06Z</time>
      </trkpt>
      <trkpt lat="43.31452" lon="5.6555">
        <ele>681.2</ele>
        <time>2014-01-22T10:32:09Z</time>
      </trkpt>
      <trkpt lat="43.31451" lon="5.65545">
        <ele>681.4</ele>
        <time>2014-01-22T10:32:12Z</time>
      </trkpt>
      <trkpt lat="43.31448" lon="5.6554">
        <ele>681</ele>
        <time>2014-01-22T10:32:17Z</time>
      </trkpt>
      <trkpt lat="43.31445" lon="5.65538">
        <ele>679.4</ele>
        <time>2014-01-22T10:32:31Z</time>
      </trkpt>
      <trkpt lat="43.31441" lon="5.65541">
        <ele>677.7</ele>
        <time>2014-01-22T10:33:43Z</time>
      </trkpt>
      <trkpt lat="43.31441" lon="5.65541">
        <ele>677.7</ele>
        <time>2014-01-22T10:33:44Z</time>
      </trkpt>
      <trkpt lat="43.31444" lon="5.65536">
        <ele>678.2</ele>
        <time>2014-01-22T10:35:42Z</time>
      </trkpt>
      <trkpt lat="43.31447" lon="5.65527">
        <ele>677.4</ele>
        <time>2014-01-22T10:35:50Z</time>
      </trkpt>
      <trkpt lat="43.31448" lon="5.65522">
        <ele>677.2</ele>
        <time>2014-01-22T10:35:53Z</time>
      </trkpt>
      <trkpt lat="43.31449" lon="5.65516">
        <ele>676.7</ele>
        <time>2014-01-22T10:35:57Z</time>
      </trkpt>
      <trkpt lat="43.31449" lon="5.65512">
        <ele>676.4</ele>
        <time>2014-01-22T10:36:00Z</time>
      </trkpt>
      <trkpt lat="43.3145" lon="5.65507">
        <ele>676.7</ele>
        <time>2014-01-22T10:36:03Z</time>
      </trkpt>
      <trkpt lat="43.31451" lon="5.65501">
        <ele>676.7</ele>
        <time>2014-01-22T10:36:07Z</time>
      </trkpt>
      <trkpt lat="43.31452" lon="5.65496">
        <ele>676.9</ele>
        <time>2014-01-22T10:36:10Z</time>
      </trkpt>
      <trkpt lat="43.31453" lon="5.6549">
        <ele>676.2</ele>
        <time>2014-01-22T10:36:14Z</time>
      </trkpt>
      <trkpt lat="43.31454" lon="5.65485">
        <ele>676.7</ele>
        <time>2014-01-22T10:36:17Z</time>
      </trkpt>
      <trkpt lat="43.31455" lon="5.65481">
        <ele>676.5</ele>
        <time>2014-01-22T10:36:20Z</time>
      </trkpt>
      <trkpt lat="43.31456" lon="5.65476">
        <ele>676.2</ele>
        <time>2014-01-22T10:36:23Z</time>
      </trkpt>
      <trkpt lat="43.31457" lon="5.65471">
        <ele>676</ele>
        <time>2014-01-22T10:36:26Z</time>
      </trkpt>
      <trkpt lat="43.31457" lon="5.65466">
        <ele>675.7</ele>
        <time>2014-01-22T10:36:29Z</time>
      </trkpt>
      <trkpt lat="43.31459" lon="5.65462">
        <ele>675.2</ele>
        <time>2014-01-22T10:36:32Z</time>
      </trkpt>
      <trkpt lat="43.3146" lon="5.65457">
        <ele>675.4</ele>
        <time>2014-01-22T10:36:35Z</time>
      </trkpt>
      <trkpt lat="43.31461" lon="5.65453">
        <ele>675.2</ele>
        <time>2014-01-22T10:36:38Z</time>
      </trkpt>
      <trkpt lat="43.31463" lon="5.65447">
        <ele>675.2</ele>
        <time>2014-01-22T10:36:41Z</time>
      </trkpt>
      <trkpt lat="43.31464" lon="5.65442">
        <ele>675.4</ele>
        <time>2014-01-22T10:36:44Z</time>
      </trkpt>
      <trkpt lat="43.31464" lon="5.65441">
        <ele>675.5</ele>
        <time>2014-01-22T10:36:45Z</time>
      </trkpt>
      <trkpt lat="43.31466" lon="5.65432">
        <ele>675.2</ele>
        <time>2014-01-22T10:36:50Z</time>
      </trkpt>
      <trkpt lat="43.31467" lon="5.65427">
        <ele>675.2</ele>
        <time>2014-01-22T10:36:53Z</time>
      </trkpt>
      <trkpt lat="43.31468" lon="5.65421">
        <ele>675.2</ele>
        <time>2014-01-22T10:36:57Z</time>
      </trkpt>
      <trkpt lat="43.31469" lon="5.65416">
        <ele>675.4</ele>
        <time>2014-01-22T10:37:00Z</time>
      </trkpt>
      <trkpt lat="43.31469" lon="5.6541">
        <ele>675.7</ele>
        <time>2014-01-22T10:37:03Z</time>
      </trkpt>
      <trkpt lat="43.31468" lon="5.65405">
        <ele>675.7</ele>
        <time>2014-01-22T10:37:06Z</time>
      </trkpt>
      <trkpt lat="43.31469" lon="5.654">
        <ele>675.5</ele>
        <time>2014-01-22T10:37:09Z</time>
      </trkpt>
      <trkpt lat="43.3147" lon="5.65394">
        <ele>675.4</ele>
        <time>2014-01-22T10:37:13Z</time>
      </trkpt>
      <trkpt lat="43.3147" lon="5.65389">
        <ele>675.2</ele>
        <time>2014-01-22T10:37:16Z</time>
      </trkpt>
      <trkpt lat="43.3147" lon="5.65384">
        <ele>674.7</ele>
        <time>2014-01-22T10:37:19Z</time>
      </trkpt>
      <trkpt lat="43.31469" lon="5.65379">
        <ele>674.9</ele>
        <time>2014-01-22T10:37:22Z</time>
      </trkpt>
      <trkpt lat="43.31469" lon="5.65374">
        <ele>674.9</ele>
        <time>2014-01-22T10:37:25Z</time>
      </trkpt>
      <trkpt lat="43.31469" lon="5.65369">
        <ele>675</ele>
        <time>2014-01-22T10:37:28Z</time>
      </trkpt>
      <trkpt lat="43.31468" lon="5.65363">
        <ele>675</ele>
        <time>2014-01-22T10:37:32Z</time>
      </trkpt>
      <trkpt lat="43.31466" lon="5.65358">
        <ele>675.2</ele>
        <time>2014-01-22T10:37:35Z</time>
      </trkpt>
      <trkpt lat="43.31465" lon="5.65353">
        <ele>675.5</ele>
        <time>2014-01-22T10:37:38Z</time>
      </trkpt>
      <trkpt lat="43.31464" lon="5.65348">
        <ele>675.5</ele>
        <time>2014-01-22T10:37:41Z</time>
      </trkpt>
      <trkpt lat="43.31462" lon="5.65343">
        <ele>675.2</ele>
        <time>2014-01-22T10:37:44Z</time>
      </trkpt>
      <trkpt lat="43.3146" lon="5.65338">
        <ele>675</ele>
        <time>2014-01-22T10:37:47Z</time>
      </trkpt>
      <trkpt lat="43.3146" lon="5.65336">
        <ele>675</ele>
        <time>2014-01-22T10:37:48Z</time>
      </trkpt>
      <trkpt lat="43.31458" lon="5.65328">
        <ele>674.7</ele>
        <time>2014-01-22T10:37:52Z</time>
      </trkpt>
      <trkpt lat="43.31458" lon="5.65322">
        <ele>674.4</ele>
        <time>2014-01-22T10:37:55Z</time>
      </trkpt>
      <trkpt lat="43.31457" lon="5.65316">
        <ele>673.9</ele>
        <time>2014-01-22T10:37:58Z</time>
      </trkpt>
      <trkpt lat="43.31458" lon="5.65311">
        <ele>673.7</ele>
        <time>2014-01-22T10:38:01Z</time>
      </trkpt>
      <trkpt lat="43.31458" lon="5.65306">
        <ele>673.2</ele>
        <time>2014-01-22T10:38:04Z</time>
      </trkpt>
      <trkpt lat="43.31458" lon="5.653">
        <ele>672.7</ele>
        <time>2014-01-22T10:38:07Z</time>
      </trkpt>
      <trkpt lat="43.31459" lon="5.65295">
        <ele>672.2</ele>
        <time>2014-01-22T10:38:10Z</time>
      </trkpt>
      <trkpt lat="43.3146" lon="5.6529">
        <ele>671.9</ele>
        <time>2014-01-22T10:38:13Z</time>
      </trkpt>
      <trkpt lat="43.3146" lon="5.65285">
        <ele>671.4</ele>
        <time>2014-01-22T10:38:16Z</time>
      </trkpt>
      <trkpt lat="43.31461" lon="5.65279">
        <ele>670.7</ele>
        <time>2014-01-22T10:38:19Z</time>
      </trkpt>
      <trkpt lat="43.31462" lon="5.65275">
        <ele>670</ele>
        <time>2014-01-22T10:38:22Z</time>
      </trkpt>
      <trkpt lat="43.31463" lon="5.6527">
        <ele>670</ele>
        <time>2014-01-22T10:38:25Z</time>
      </trkpt>
      <trkpt lat="43.31465" lon="5.65265">
        <ele>669.5</ele>
        <time>2014-01-22T10:38:28Z</time>
      </trkpt>
      <trkpt lat="43.31466" lon="5.6526">
        <ele>669</ele>
        <time>2014-01-22T10:38:31Z</time>
      </trkpt>
      <trkpt lat="43.31467" lon="5.65255">
        <ele>668.7</ele>
        <time>2014-01-22T10:38:34Z</time>
      </trkpt>
      <trkpt lat="43.31468" lon="5.6525">
        <ele>668.2</ele>
        <time>2014-01-22T10:38:37Z</time>
      </trkpt>
      <trkpt lat="43.31469" lon="5.65245">
        <ele>667.5</ele>
        <time>2014-01-22T10:38:40Z</time>
      </trkpt>
      <trkpt lat="43.31471" lon="5.65241">
        <ele>667.2</ele>
        <time>2014-01-22T10:38:43Z</time>
      </trkpt>
      <trkpt lat="43.31472" lon="5.65236">
        <ele>667.2</ele>
        <time>2014-01-22T10:38:46Z</time>
      </trkpt>
      <trkpt lat="43.31474" lon="5.65231">
        <ele>666.9</ele>
        <time>2014-01-22T10:38:49Z</time>
      </trkpt>
      <trkpt lat="43.31474" lon="5.65229">
        <ele>666.5</ele>
        <time>2014-01-22T10:38:50Z</time>
      </trkpt>
      <trkpt lat="43.31475" lon="5.65221">
        <ele>665.9</ele>
        <time>2014-01-22T10:38:55Z</time>
      </trkpt>
      <trkpt lat="43.31476" lon="5.65216">
        <ele>665.2</ele>
        <time>2014-01-22T10:38:58Z</time>
      </trkpt>
      <trkpt lat="43.31476" lon="5.65211">
        <ele>664.9</ele>
        <time>2014-01-22T10:39:01Z</time>
      </trkpt>
      <trkpt lat="43.31477" lon="5.65206">
        <ele>664.5</ele>
        <time>2014-01-22T10:39:04Z</time>
      </trkpt>
      <trkpt lat="43.31477" lon="5.65201">
        <ele>664.2</ele>
        <time>2014-01-22T10:39:07Z</time>
      </trkpt>
      <trkpt lat="43.31477" lon="5.65197">
        <ele>663.9</ele>
        <time>2014-01-22T10:39:10Z</time>
      </trkpt>
      <trkpt lat="43.31478" lon="5.65192">
        <ele>663.7</ele>
        <time>2014-01-22T10:39:13Z</time>
      </trkpt>
      <trkpt lat="43.31477" lon="5.65187">
        <ele>663.4</ele>
        <time>2014-01-22T10:39:16Z</time>
      </trkpt>
      <trkpt lat="43.31477" lon="5.65182">
        <ele>663.5</ele>
        <time>2014-01-22T10:39:19Z</time>
      </trkpt>
      <trkpt lat="43.31477" lon="5.65177">
        <ele>664</ele>
        <time>2014-01-22T10:39:22Z</time>
      </trkpt>
      <trkpt lat="43.31477" lon="5.65172">
        <ele>663.7</ele>
        <time>2014-01-22T10:39:25Z</time>
      </trkpt>
      <trkpt lat="43.31477" lon="5.65166">
        <ele>664</ele>
        <time>2014-01-22T10:39:28Z</time>
      </trkpt>
      <trkpt lat="43.31477" lon="5.65161">
        <ele>663.5</ele>
        <time>2014-01-22T10:39:31Z</time>
      </trkpt>
      <trkpt lat="43.31477" lon="5.65156">
        <ele>663.2</ele>
        <time>2014-01-22T10:39:34Z</time>
      </trkpt>
      <trkpt lat="43.31477" lon="5.65151">
        <ele>663</ele>
        <time>2014-01-22T10:39:37Z</time>
      </trkpt>
      <trkpt lat="43.31478" lon="5.65146">
        <ele>662.5</ele>
        <time>2014-01-22T10:39:40Z</time>
      </trkpt>
      <trkpt lat="43.31479" lon="5.65141">
        <ele>661.7</ele>
        <time>2014-01-22T10:39:43Z</time>
      </trkpt>
      <trkpt lat="43.31479" lon="5.65136">
        <ele>661.2</ele>
        <time>2014-01-22T10:39:46Z</time>
      </trkpt>
      <trkpt lat="43.3148" lon="5.65131">
        <ele>660.5</ele>
        <time>2014-01-22T10:39:49Z</time>
      </trkpt>
      <trkpt lat="43.31482" lon="5.65126">
        <ele>659.7</ele>
        <time>2014-01-22T10:39:52Z</time>
      </trkpt>
      <trkpt lat="43.31482" lon="5.65124">
        <ele>659.5</ele>
        <time>2014-01-22T10:39:53Z</time>
      </trkpt>
      <trkpt lat="43.31484" lon="5.65116">
        <ele>658.2</ele>
        <time>2014-01-22T10:39:58Z</time>
      </trkpt>
      <trkpt lat="43.31486" lon="5.65111">
        <ele>658</ele>
        <time>2014-01-22T10:40:01Z</time>
      </trkpt>
      <trkpt lat="43.31487" lon="5.65107">
        <ele>657.5</ele>
        <time>2014-01-22T10:40:04Z</time>
      </trkpt>
      <trkpt lat="43.31489" lon="5.65102">
        <ele>657.2</ele>
        <time>2014-01-22T10:40:07Z</time>
      </trkpt>
      <trkpt lat="43.31489" lon="5.65097">
        <ele>657</ele>
        <time>2014-01-22T10:40:10Z</time>
      </trkpt>
      <trkpt lat="43.3149" lon="5.65092">
        <ele>656.7</ele>
        <time>2014-01-22T10:40:13Z</time>
      </trkpt>
      <trkpt lat="43.31491" lon="5.65088">
        <ele>656.5</ele>
        <time>2014-01-22T10:40:16Z</time>
      </trkpt>
      <trkpt lat="43.31492" lon="5.65083">
        <ele>656.4</ele>
        <time>2014-01-22T10:40:19Z</time>
      </trkpt>
      <trkpt lat="43.31492" lon="5.65078">
        <ele>656.4</ele>
        <time>2014-01-22T10:40:22Z</time>
      </trkpt>
      <trkpt lat="43.31492" lon="5.65071">
        <ele>656</ele>
        <time>2014-01-22T10:40:26Z</time>
      </trkpt>
      <trkpt lat="43.31493" lon="5.65067">
        <ele>656</ele>
        <time>2014-01-22T10:40:29Z</time>
      </trkpt>
      <trkpt lat="43.31492" lon="5.65062">
        <ele>656</ele>
        <time>2014-01-22T10:40:32Z</time>
      </trkpt>
      <trkpt lat="43.31493" lon="5.65057">
        <ele>655.9</ele>
        <time>2014-01-22T10:40:35Z</time>
      </trkpt>
      <trkpt lat="43.31493" lon="5.65052">
        <ele>655.7</ele>
        <time>2014-01-22T10:40:38Z</time>
      </trkpt>
      <trkpt lat="43.31493" lon="5.65047">
        <ele>655.9</ele>
        <time>2014-01-22T10:40:41Z</time>
      </trkpt>
      <trkpt lat="43.31493" lon="5.65042">
        <ele>655.9</ele>
        <time>2014-01-22T10:40:44Z</time>
      </trkpt>
      <trkpt lat="43.31493" lon="5.65036">
        <ele>656</ele>
        <time>2014-01-22T10:40:47Z</time>
      </trkpt>
      <trkpt lat="43.31493" lon="5.65032">
        <ele>655.7</ele>
        <time>2014-01-22T10:40:50Z</time>
      </trkpt>
      <trkpt lat="43.31494" lon="5.65027">
        <ele>655.4</ele>
        <time>2014-01-22T10:40:53Z</time>
      </trkpt>
      <trkpt lat="43.31493" lon="5.65025">
        <ele>655.5</ele>
        <time>2014-01-22T10:40:54Z</time>
      </trkpt>
      <trkpt lat="43.31493" lon="5.65017">
        <ele>655</ele>
        <time>2014-01-22T10:40:59Z</time>
      </trkpt>
      <trkpt lat="43.31493" lon="5.65011">
        <ele>655</ele>
        <time>2014-01-22T10:41:02Z</time>
      </trkpt>
      <trkpt lat="43.31493" lon="5.65006">
        <ele>655.2</ele>
        <time>2014-01-22T10:41:05Z</time>
      </trkpt>
      <trkpt lat="43.31493" lon="5.65001">
        <ele>655</ele>
        <time>2014-01-22T10:41:08Z</time>
      </trkpt>
      <trkpt lat="43.31494" lon="5.64996">
        <ele>655</ele>
        <time>2014-01-22T10:41:11Z</time>
      </trkpt>
      <trkpt lat="43.31494" lon="5.6499">
        <ele>654.5</ele>
        <time>2014-01-22T10:41:15Z</time>
      </trkpt>
      <trkpt lat="43.31494" lon="5.64985">
        <ele>654</ele>
        <time>2014-01-22T10:41:18Z</time>
      </trkpt>
      <trkpt lat="43.31493" lon="5.6498">
        <ele>653.5</ele>
        <time>2014-01-22T10:41:21Z</time>
      </trkpt>
      <trkpt lat="43.31493" lon="5.64975">
        <ele>653.2</ele>
        <time>2014-01-22T10:41:24Z</time>
      </trkpt>
      <trkpt lat="43.31493" lon="5.6497">
        <ele>653</ele>
        <time>2014-01-22T10:41:27Z</time>
      </trkpt>
      <trkpt lat="43.31493" lon="5.64964">
        <ele>652.2</ele>
        <time>2014-01-22T10:41:32Z</time>
      </trkpt>
      <trkpt lat="43.31494" lon="5.64959">
        <ele>649</ele>
        <time>2014-01-22T10:42:21Z</time>
      </trkpt>
      <trkpt lat="43.31495" lon="5.64958">
        <ele>648.9</ele>
        <time>2014-01-22T10:42:22Z</time>
      </trkpt>
      <trkpt lat="43.31493" lon="5.64947">
        <ele>647.7</ele>
        <time>2014-01-22T10:42:47Z</time>
      </trkpt>
      <trkpt lat="43.31493" lon="5.64941">
        <ele>647.5</ele>
        <time>2014-01-22T10:42:52Z</time>
      </trkpt>
      <trkpt lat="43.31493" lon="5.64936">
        <ele>646.9</ele>
        <time>2014-01-22T10:42:57Z</time>
      </trkpt>
      <trkpt lat="43.31491" lon="5.6493">
        <ele>646.7</ele>
        <time>2014-01-22T10:43:02Z</time>
      </trkpt>
      <trkpt lat="43.31489" lon="5.64925">
        <ele>646.7</ele>
        <time>2014-01-22T10:43:06Z</time>
      </trkpt>
      <trkpt lat="43.31486" lon="5.64922">
        <ele>646.5</ele>
        <time>2014-01-22T10:43:10Z</time>
      </trkpt>
      <trkpt lat="43.31482" lon="5.64919">
        <ele>646.7</ele>
        <time>2014-01-22T10:43:14Z</time>
      </trkpt>
      <trkpt lat="43.31478" lon="5.64918">
        <ele>646.9</ele>
        <time>2014-01-22T10:43:18Z</time>
      </trkpt>
      <trkpt lat="43.31474" lon="5.6492">
        <ele>646.7</ele>
        <time>2014-01-22T10:43:23Z</time>
      </trkpt>
      <trkpt lat="43.31474" lon="5.6492">
        <ele>646.5</ele>
        <time>2014-01-22T10:43:24Z</time>
      </trkpt>
      <trkpt lat="43.31468" lon="5.64927">
        <ele>646</ele>
        <time>2014-01-22T10:43:43Z</time>
      </trkpt>
      <trkpt lat="43.31466" lon="5.64932">
        <ele>645.7</ele>
        <time>2014-01-22T10:43:50Z</time>
      </trkpt>
      <trkpt lat="43.31464" lon="5.64936">
        <ele>645.5</ele>
        <time>2014-01-22T10:43:55Z</time>
      </trkpt>
      <trkpt lat="43.31462" lon="5.64942">
        <ele>645.4</ele>
        <time>2014-01-22T10:44:00Z</time>
      </trkpt>
      <trkpt lat="43.31461" lon="5.64947">
        <ele>644.9</ele>
        <time>2014-01-22T10:44:06Z</time>
      </trkpt>
      <trkpt lat="43.3146" lon="5.64953">
        <ele>643.2</ele>
        <time>2014-01-22T10:44:33Z</time>
      </trkpt>
      <trkpt lat="43.3146" lon="5.64953">
        <ele>642.5</ele>
        <time>2014-01-22T10:44:34Z</time>
      </trkpt>
      <trkpt lat="43.31458" lon="5.64965">
        <ele>640.2</ele>
        <time>2014-01-22T10:45:03Z</time>
      </trkpt>
      <trkpt lat="43.31457" lon="5.64971">
        <ele>638.9</ele>
        <time>2014-01-22T10:45:11Z</time>
      </trkpt>
      <trkpt lat="43.31453" lon="5.64973">
        <ele>638</ele>
        <time>2014-01-22T10:45:40Z</time>
      </trkpt>
      <trkpt lat="43.31453" lon="5.64973">
        <ele>638</ele>
        <time>2014-01-22T10:45:41Z</time>
      </trkpt>
      <trkpt lat="43.31452" lon="5.64984">
        <ele>637.5</ele>
        <time>2014-01-22T10:45:54Z</time>
      </trkpt>
      <trkpt lat="43.31456" lon="5.64986">
        <ele>639</ele>
        <time>2014-01-22T10:53:58Z</time>
      </trkpt>
      <trkpt lat="43.31456" lon="5.64986">
        <ele>639</ele>
        <time>2014-01-22T10:53:59Z</time>
      </trkpt>
      <trkpt lat="43.31452" lon="5.64984">
        <ele>637.2</ele>
        <time>2014-01-22T11:27:07Z</time>
      </trkpt>
      <trkpt lat="43.31456" lon="5.6498">
        <ele>638.2</ele>
        <time>2014-01-22T12:14:42Z</time>
      </trkpt>
      <trkpt lat="43.31455" lon="5.64968">
        <ele>641.5</ele>
        <time>2014-01-22T12:15:05Z</time>
      </trkpt>
      <trkpt lat="43.31458" lon="5.64963">
        <ele>642</ele>
        <time>2014-01-22T12:15:12Z</time>
      </trkpt>
      <trkpt lat="43.31458" lon="5.64958">
        <ele>642.9</ele>
        <time>2014-01-22T12:15:20Z</time>
      </trkpt>
      <trkpt lat="43.3146" lon="5.64953">
        <ele>643.5</ele>
        <time>2014-01-22T12:15:26Z</time>
      </trkpt>
      <trkpt lat="43.31463" lon="5.64948">
        <ele>643.5</ele>
        <time>2014-01-22T12:15:32Z</time>
      </trkpt>
      <trkpt lat="43.31465" lon="5.64943">
        <ele>641.9</ele>
        <time>2014-01-22T12:16:25Z</time>
      </trkpt>
      <trkpt lat="43.31465" lon="5.64943">
        <ele>641.7</ele>
        <time>2014-01-22T12:16:26Z</time>
      </trkpt>
      <trkpt lat="43.31469" lon="5.64933">
        <ele>642.9</ele>
        <time>2014-01-22T12:16:49Z</time>
      </trkpt>
      <trkpt lat="43.31471" lon="5.64928">
        <ele>644.5</ele>
        <time>2014-01-22T12:16:55Z</time>
      </trkpt>
      <trkpt lat="43.31474" lon="5.64924">
        <ele>644.9</ele>
        <time>2014-01-22T12:17:00Z</time>
      </trkpt>
      <trkpt lat="43.31477" lon="5.64921">
        <ele>645.2</ele>
        <time>2014-01-22T12:17:05Z</time>
      </trkpt>
      <trkpt lat="43.31481" lon="5.64922">
        <ele>645.2</ele>
        <time>2014-01-22T12:17:12Z</time>
      </trkpt>
      <trkpt lat="43.31484" lon="5.64926">
        <ele>646</ele>
        <time>2014-01-22T12:17:19Z</time>
      </trkpt>
      <trkpt lat="43.31486" lon="5.64931">
        <ele>646.5</ele>
        <time>2014-01-22T12:17:24Z</time>
      </trkpt>
      <trkpt lat="43.31487" lon="5.64936">
        <ele>646.7</ele>
        <time>2014-01-22T12:17:29Z</time>
      </trkpt>
      <trkpt lat="43.31487" lon="5.64937">
        <ele>646.7</ele>
        <time>2014-01-22T12:17:30Z</time>
      </trkpt>
      <trkpt lat="43.31489" lon="5.64947">
        <ele>647.5</ele>
        <time>2014-01-22T12:17:39Z</time>
      </trkpt>
      <trkpt lat="43.3149" lon="5.64953">
        <ele>647.9</ele>
        <time>2014-01-22T12:17:44Z</time>
      </trkpt>
      <trkpt lat="43.31491" lon="5.64959">
        <ele>648.2</ele>
        <time>2014-01-22T12:17:49Z</time>
      </trkpt>
      <trkpt lat="43.31492" lon="5.64964">
        <ele>648.9</ele>
        <time>2014-01-22T12:17:54Z</time>
      </trkpt>
      <trkpt lat="43.31492" lon="5.6497">
        <ele>649.2</ele>
        <time>2014-01-22T12:17:59Z</time>
      </trkpt>
      <trkpt lat="43.31492" lon="5.64976">
        <ele>649.9</ele>
        <time>2014-01-22T12:18:04Z</time>
      </trkpt>
      <trkpt lat="43.31493" lon="5.64982">
        <ele>650.2</ele>
        <time>2014-01-22T12:18:09Z</time>
      </trkpt>
      <trkpt lat="43.31493" lon="5.64988">
        <ele>650.5</ele>
        <time>2014-01-22T12:18:14Z</time>
      </trkpt>
      <trkpt lat="43.31493" lon="5.64993">
        <ele>650.9</ele>
        <time>2014-01-22T12:18:18Z</time>
      </trkpt>
      <trkpt lat="43.31493" lon="5.64999">
        <ele>650.4</ele>
        <time>2014-01-22T12:18:22Z</time>
      </trkpt>
      <trkpt lat="43.31493" lon="5.65005">
        <ele>650.2</ele>
        <time>2014-01-22T12:18:27Z</time>
      </trkpt>
      <trkpt lat="43.31493" lon="5.65011">
        <ele>650.2</ele>
        <time>2014-01-22T12:18:32Z</time>
      </trkpt>
      <trkpt lat="43.31493" lon="5.65012">
        <ele>650.2</ele>
        <time>2014-01-22T12:18:33Z</time>
      </trkpt>
      <trkpt lat="43.31493" lon="5.65021">
        <ele>650.5</ele>
        <time>2014-01-22T12:18:40Z</time>
      </trkpt>
      <trkpt lat="43.31493" lon="5.65026">
        <ele>650.7</ele>
        <time>2014-01-22T12:18:44Z</time>
      </trkpt>
      <trkpt lat="43.31493" lon="5.65031">
        <ele>651.2</ele>
        <time>2014-01-22T12:18:48Z</time>
      </trkpt>
      <trkpt lat="43.31493" lon="5.65037">
        <ele>651.5</ele>
        <time>2014-01-22T12:18:53Z</time>
      </trkpt>
      <trkpt lat="43.31493" lon="5.65043">
        <ele>651.7</ele>
        <time>2014-01-22T12:18:58Z</time>
      </trkpt>
      <trkpt lat="43.31493" lon="5.65048">
        <ele>652</ele>
        <time>2014-01-22T12:19:02Z</time>
      </trkpt>
      <trkpt lat="43.31493" lon="5.65054">
        <ele>652.4</ele>
        <time>2014-01-22T12:19:07Z</time>
      </trkpt>
      <trkpt lat="43.31492" lon="5.65059">
        <ele>652.5</ele>
        <time>2014-01-22T12:19:11Z</time>
      </trkpt>
      <trkpt lat="43.31492" lon="5.65065">
        <ele>653</ele>
        <time>2014-01-22T12:19:15Z</time>
      </trkpt>
      <trkpt lat="43.31491" lon="5.6507">
        <ele>652.9</ele>
        <time>2014-01-22T12:19:19Z</time>
      </trkpt>
      <trkpt lat="43.31491" lon="5.65075">
        <ele>652.7</ele>
        <time>2014-01-22T12:19:23Z</time>
      </trkpt>
      <trkpt lat="43.3149" lon="5.65081">
        <ele>652.7</ele>
        <time>2014-01-22T12:19:27Z</time>
      </trkpt>
      <trkpt lat="43.31489" lon="5.65086">
        <ele>653</ele>
        <time>2014-01-22T12:19:31Z</time>
      </trkpt>
      <trkpt lat="43.31489" lon="5.65091">
        <ele>653.7</ele>
        <time>2014-01-22T12:19:35Z</time>
      </trkpt>
      <trkpt lat="43.31489" lon="5.65093">
        <ele>653.9</ele>
        <time>2014-01-22T12:19:36Z</time>
      </trkpt>
      <trkpt lat="43.31487" lon="5.65102">
        <ele>654</ele>
        <time>2014-01-22T12:19:43Z</time>
      </trkpt>
      <trkpt lat="43.31485" lon="5.65107">
        <ele>654</ele>
        <time>2014-01-22T12:19:47Z</time>
      </trkpt>
      <trkpt lat="43.31484" lon="5.65112">
        <ele>655</ele>
        <time>2014-01-22T12:19:51Z</time>
      </trkpt>
      <trkpt lat="43.31482" lon="5.65117">
        <ele>655.5</ele>
        <time>2014-01-22T12:19:55Z</time>
      </trkpt>
      <trkpt lat="43.3148" lon="5.65122">
        <ele>656.7</ele>
        <time>2014-01-22T12:19:59Z</time>
      </trkpt>
      <trkpt lat="43.31479" lon="5.65127">
        <ele>657.5</ele>
        <time>2014-01-22T12:20:03Z</time>
      </trkpt>
      <trkpt lat="43.31478" lon="5.65132">
        <ele>658.5</ele>
        <time>2014-01-22T12:20:07Z</time>
      </trkpt>
      <trkpt lat="43.31477" lon="5.65137">
        <ele>658.7</ele>
        <time>2014-01-22T12:20:11Z</time>
      </trkpt>
      <trkpt lat="43.31475" lon="5.65142">
        <ele>659.4</ele>
        <time>2014-01-22T12:20:15Z</time>
      </trkpt>
      <trkpt lat="43.31474" lon="5.65147">
        <ele>660</ele>
        <time>2014-01-22T12:20:19Z</time>
      </trkpt>
      <trkpt lat="43.31474" lon="5.65153">
        <ele>660.4</ele>
        <time>2014-01-22T12:20:23Z</time>
      </trkpt>
      <trkpt lat="43.31475" lon="5.65158">
        <ele>660.2</ele>
        <time>2014-01-22T12:20:27Z</time>
      </trkpt>
      <trkpt lat="43.31475" lon="5.65164">
        <ele>660.2</ele>
        <time>2014-01-22T12:20:31Z</time>
      </trkpt>
      <trkpt lat="43.31474" lon="5.6517">
        <ele>660.5</ele>
        <time>2014-01-22T12:20:35Z</time>
      </trkpt>
      <trkpt lat="43.31475" lon="5.65175">
        <ele>660.7</ele>
        <time>2014-01-22T12:20:39Z</time>
      </trkpt>
      <trkpt lat="43.31475" lon="5.65177">
        <ele>660.9</ele>
        <time>2014-01-22T12:20:40Z</time>
      </trkpt>
      <trkpt lat="43.31475" lon="5.65187">
        <ele>662.2</ele>
        <time>2014-01-22T12:20:47Z</time>
      </trkpt>
      <trkpt lat="43.31474" lon="5.65193">
        <ele>662.2</ele>
        <time>2014-01-22T12:20:51Z</time>
      </trkpt>
      <trkpt lat="43.31475" lon="5.65198">
        <ele>662.2</ele>
        <time>2014-01-22T12:20:55Z</time>
      </trkpt>
      <trkpt lat="43.31475" lon="5.65204">
        <ele>662</ele>
        <time>2014-01-22T12:20:59Z</time>
      </trkpt>
      <trkpt lat="43.31475" lon="5.65209">
        <ele>662</ele>
        <time>2014-01-22T12:21:03Z</time>
      </trkpt>
      <trkpt lat="43.31476" lon="5.65215">
        <ele>662.5</ele>
        <time>2014-01-22T12:21:07Z</time>
      </trkpt>
      <trkpt lat="43.31474" lon="5.65219">
        <ele>662.7</ele>
        <time>2014-01-22T12:21:10Z</time>
      </trkpt>
      <trkpt lat="43.31472" lon="5.65223">
        <ele>663.5</ele>
        <time>2014-01-22T12:21:13Z</time>
      </trkpt>
      <trkpt lat="43.3147" lon="5.65227">
        <ele>663.2</ele>
        <time>2014-01-22T12:21:16Z</time>
      </trkpt>
      <trkpt lat="43.31468" lon="5.65231">
        <ele>662.9</ele>
        <time>2014-01-22T12:21:19Z</time>
      </trkpt>
      <trkpt lat="43.31465" lon="5.65235">
        <ele>662.9</ele>
        <time>2014-01-22T12:21:22Z</time>
      </trkpt>
      <trkpt lat="43.31463" lon="5.6524">
        <ele>662.4</ele>
        <time>2014-01-22T12:21:26Z</time>
      </trkpt>
      <trkpt lat="43.31462" lon="5.65246">
        <ele>662.2</ele>
        <time>2014-01-22T12:21:30Z</time>
      </trkpt>
      <trkpt lat="43.31461" lon="5.65251">
        <ele>662.5</ele>
        <time>2014-01-22T12:21:33Z</time>
      </trkpt>
      <trkpt lat="43.3146" lon="5.65256">
        <ele>662.4</ele>
        <time>2014-01-22T12:21:37Z</time>
      </trkpt>
      <trkpt lat="43.31458" lon="5.65261">
        <ele>661.4</ele>
        <time>2014-01-22T12:21:40Z</time>
      </trkpt>
      <trkpt lat="43.31458" lon="5.65262">
        <ele>661</ele>
        <time>2014-01-22T12:21:41Z</time>
      </trkpt>
      <trkpt lat="43.31457" lon="5.65273">
        <ele>660.2</ele>
        <time>2014-01-22T12:21:48Z</time>
      </trkpt>
      <trkpt lat="43.31456" lon="5.65277">
        <ele>660</ele>
        <time>2014-01-22T12:21:51Z</time>
      </trkpt>
      <trkpt lat="43.31455" lon="5.65283">
        <ele>659.5</ele>
        <time>2014-01-22T12:21:55Z</time>
      </trkpt>
      <trkpt lat="43.31453" lon="5.65287">
        <ele>659.4</ele>
        <time>2014-01-22T12:21:58Z</time>
      </trkpt>
      <trkpt lat="43.31451" lon="5.65292">
        <ele>660</ele>
        <time>2014-01-22T12:22:01Z</time>
      </trkpt>
      <trkpt lat="43.3145" lon="5.65297">
        <ele>660.2</ele>
        <time>2014-01-22T12:22:05Z</time>
      </trkpt>
      <trkpt lat="43.31451" lon="5.65302">
        <ele>660.5</ele>
        <time>2014-01-22T12:22:08Z</time>
      </trkpt>
      <trkpt lat="43.31451" lon="5.65308">
        <ele>661.2</ele>
        <time>2014-01-22T12:22:12Z</time>
      </trkpt>
      <trkpt lat="43.31451" lon="5.65313">
        <ele>661.2</ele>
        <time>2014-01-22T12:22:15Z</time>
      </trkpt>
      <trkpt lat="43.3145" lon="5.65318">
        <ele>661.5</ele>
        <time>2014-01-22T12:22:18Z</time>
      </trkpt>
      <trkpt lat="43.3145" lon="5.65323">
        <ele>661.4</ele>
        <time>2014-01-22T12:22:21Z</time>
      </trkpt>
      <trkpt lat="43.31451" lon="5.65328">
        <ele>661.7</ele>
        <time>2014-01-22T12:22:24Z</time>
      </trkpt>
      <trkpt lat="43.31452" lon="5.65333">
        <ele>662</ele>
        <time>2014-01-22T12:22:27Z</time>
      </trkpt>
      <trkpt lat="43.31453" lon="5.65338">
        <ele>662.7</ele>
        <time>2014-01-22T12:22:30Z</time>
      </trkpt>
      <trkpt lat="43.31454" lon="5.65344">
        <ele>663.2</ele>
        <time>2014-01-22T12:22:34Z</time>
      </trkpt>
      <trkpt lat="43.31455" lon="5.65349">
        <ele>665</ele>
        <time>2014-01-22T12:22:37Z</time>
      </trkpt>
      <trkpt lat="43.31456" lon="5.65353">
        <ele>666</ele>
        <time>2014-01-22T12:22:40Z</time>
      </trkpt>
      <trkpt lat="43.31457" lon="5.65359">
        <ele>667</ele>
        <time>2014-01-22T12:22:44Z</time>
      </trkpt>
      <trkpt lat="43.31458" lon="5.65361">
        <ele>667</ele>
        <time>2014-01-22T12:22:45Z</time>
      </trkpt>
      <trkpt lat="43.3146" lon="5.6537">
        <ele>668</ele>
        <time>2014-01-22T12:22:51Z</time>
      </trkpt>
      <trkpt lat="43.31462" lon="5.65374">
        <ele>668.9</ele>
        <time>2014-01-22T12:22:54Z</time>
      </trkpt>
      <trkpt lat="43.31464" lon="5.65379">
        <ele>669.2</ele>
        <time>2014-01-22T12:22:58Z</time>
      </trkpt>
      <trkpt lat="43.31464" lon="5.65384">
        <ele>669.7</ele>
        <time>2014-01-22T12:23:02Z</time>
      </trkpt>
      <trkpt lat="43.31463" lon="5.6539">
        <ele>670.2</ele>
        <time>2014-01-22T12:23:06Z</time>
      </trkpt>
      <trkpt lat="43.31463" lon="5.65395">
        <ele>670.7</ele>
        <time>2014-01-22T12:23:10Z</time>
      </trkpt>
      <trkpt lat="43.31464" lon="5.65401">
        <ele>671.7</ele>
        <time>2014-01-22T12:23:14Z</time>
      </trkpt>
      <trkpt lat="43.31463" lon="5.65407">
        <ele>671.7</ele>
        <time>2014-01-22T12:23:18Z</time>
      </trkpt>
      <trkpt lat="43.31463" lon="5.65413">
        <ele>672</ele>
        <time>2014-01-22T12:23:22Z</time>
      </trkpt>
      <trkpt lat="43.31463" lon="5.65418">
        <ele>671.7</ele>
        <time>2014-01-22T12:23:26Z</time>
      </trkpt>
      <trkpt lat="43.31462" lon="5.65423">
        <ele>671.9</ele>
        <time>2014-01-22T12:23:29Z</time>
      </trkpt>
      <trkpt lat="43.31462" lon="5.65428">
        <ele>673</ele>
        <time>2014-01-22T12:23:32Z</time>
      </trkpt>
      <trkpt lat="43.31461" lon="5.65434">
        <ele>673.2</ele>
        <time>2014-01-22T12:23:36Z</time>
      </trkpt>
      <trkpt lat="43.3146" lon="5.65438">
        <ele>673.7</ele>
        <time>2014-01-22T12:23:39Z</time>
      </trkpt>
      <trkpt lat="43.3146" lon="5.65444">
        <ele>673.9</ele>
        <time>2014-01-22T12:23:43Z</time>
      </trkpt>
      <trkpt lat="43.31459" lon="5.6545">
        <ele>674</ele>
        <time>2014-01-22T12:23:47Z</time>
      </trkpt>
      <trkpt lat="43.31459" lon="5.65452">
        <ele>674.2</ele>
        <time>2014-01-22T12:23:48Z</time>
      </trkpt>
      <trkpt lat="43.31458" lon="5.65461">
        <ele>673.2</ele>
        <time>2014-01-22T12:23:55Z</time>
      </trkpt>
      <trkpt lat="43.31457" lon="5.65467">
        <ele>673.5</ele>
        <time>2014-01-22T12:23:59Z</time>
      </trkpt>
      <trkpt lat="43.31456" lon="5.65472">
        <ele>673</ele>
        <time>2014-01-22T12:24:02Z</time>
      </trkpt>
      <trkpt lat="43.31455" lon="5.65476">
        <ele>673.4</ele>
        <time>2014-01-22T12:24:05Z</time>
      </trkpt>
      <trkpt lat="43.31454" lon="5.65481">
        <ele>674.5</ele>
        <time>2014-01-22T12:24:08Z</time>
      </trkpt>
      <trkpt lat="43.31453" lon="5.65486">
        <ele>675</ele>
        <time>2014-01-22T12:24:11Z</time>
      </trkpt>
      <trkpt lat="43.31452" lon="5.65491">
        <ele>676</ele>
        <time>2014-01-22T12:24:15Z</time>
      </trkpt>
      <trkpt lat="43.31451" lon="5.65497">
        <ele>675.5</ele>
        <time>2014-01-22T12:24:19Z</time>
      </trkpt>
      <trkpt lat="43.3145" lon="5.65502">
        <ele>675.5</ele>
        <time>2014-01-22T12:24:22Z</time>
      </trkpt>
      <trkpt lat="43.31449" lon="5.65506">
        <ele>675.2</ele>
        <time>2014-01-22T12:24:25Z</time>
      </trkpt>
      <trkpt lat="43.31448" lon="5.65512">
        <ele>674.7</ele>
        <time>2014-01-22T12:24:29Z</time>
      </trkpt>
      <trkpt lat="43.31448" lon="5.65517">
        <ele>674.4</ele>
        <time>2014-01-22T12:24:32Z</time>
      </trkpt>
      <trkpt lat="43.31448" lon="5.65521">
        <ele>674.7</ele>
        <time>2014-01-22T12:24:35Z</time>
      </trkpt>
      <trkpt lat="43.31447" lon="5.65526">
        <ele>675</ele>
        <time>2014-01-22T12:24:38Z</time>
      </trkpt>
      <trkpt lat="43.31446" lon="5.65532">
        <ele>673.7</ele>
        <time>2014-01-22T12:24:42Z</time>
      </trkpt>
      <trkpt lat="43.31443" lon="5.65536">
        <ele>673.2</ele>
        <time>2014-01-22T12:24:46Z</time>
      </trkpt>
      <trkpt lat="43.3144" lon="5.6554">
        <ele>673.5</ele>
        <time>2014-01-22T12:24:50Z</time>
      </trkpt>
      <trkpt lat="43.3144" lon="5.65542">
        <ele>673.4</ele>
        <time>2014-01-22T12:24:51Z</time>
      </trkpt>
      <trkpt lat="43.31439" lon="5.6555">
        <ele>673</ele>
        <time>2014-01-22T12:24:56Z</time>
      </trkpt>
      <trkpt lat="43.3144" lon="5.65555">
        <ele>672.7</ele>
        <time>2014-01-22T12:24:59Z</time>
      </trkpt>
      <trkpt lat="43.3144" lon="5.6556">
        <ele>673.2</ele>
        <time>2014-01-22T12:25:02Z</time>
      </trkpt>
      <trkpt lat="43.3144" lon="5.65565">
        <ele>673.7</ele>
        <time>2014-01-22T12:25:05Z</time>
      </trkpt>
      <trkpt lat="43.31441" lon="5.6557">
        <ele>673.7</ele>
        <time>2014-01-22T12:25:08Z</time>
      </trkpt>
      <trkpt lat="43.31442" lon="5.65574">
        <ele>673.2</ele>
        <time>2014-01-22T12:25:11Z</time>
      </trkpt>
      <trkpt lat="43.31443" lon="5.65579">
        <ele>672.7</ele>
        <time>2014-01-22T12:25:14Z</time>
      </trkpt>
      <trkpt lat="43.31444" lon="5.65584">
        <ele>672</ele>
        <time>2014-01-22T12:25:17Z</time>
      </trkpt>
      <trkpt lat="43.31445" lon="5.65589">
        <ele>671.5</ele>
        <time>2014-01-22T12:25:20Z</time>
      </trkpt>
      <trkpt lat="43.31445" lon="5.65594">
        <ele>671.7</ele>
        <time>2014-01-22T12:25:23Z</time>
      </trkpt>
      <trkpt lat="43.31446" lon="5.65598">
        <ele>671</ele>
        <time>2014-01-22T12:25:26Z</time>
      </trkpt>
      <trkpt lat="43.31447" lon="5.65603">
        <ele>670</ele>
        <time>2014-01-22T12:25:29Z</time>
      </trkpt>
      <trkpt lat="43.31448" lon="5.65608">
        <ele>669.4</ele>
        <time>2014-01-22T12:25:32Z</time>
      </trkpt>
      <trkpt lat="43.3145" lon="5.65612">
        <ele>668.5</ele>
        <time>2014-01-22T12:25:35Z</time>
      </trkpt>
      <trkpt lat="43.31452" lon="5.65617">
        <ele>667.2</ele>
        <time>2014-01-22T12:25:39Z</time>
      </trkpt>
      <trkpt lat="43.31454" lon="5.65622">
        <ele>665.4</ele>
        <time>2014-01-22T12:25:43Z</time>
      </trkpt>
      <trkpt lat="43.31455" lon="5.65627">
        <ele>664.2</ele>
        <time>2014-01-22T12:25:46Z</time>
      </trkpt>
      <trkpt lat="43.31455" lon="5.65631">
        <ele>664.4</ele>
        <time>2014-01-22T12:25:49Z</time>
      </trkpt>
      <trkpt lat="43.31455" lon="5.65636">
        <ele>665.4</ele>
        <time>2014-01-22T12:25:52Z</time>
      </trkpt>
      <trkpt lat="43.31455" lon="5.65638">
        <ele>665.7</ele>
        <time>2014-01-22T12:25:53Z</time>
      </trkpt>
      <trkpt lat="43.31457" lon="5.65647">
        <ele>663</ele>
        <time>2014-01-22T12:26:00Z</time>
      </trkpt>
      <trkpt lat="43.31457" lon="5.65653">
        <ele>661.7</ele>
        <time>2014-01-22T12:26:04Z</time>
      </trkpt>
      <trkpt lat="43.31458" lon="5.65658">
        <ele>660.5</ele>
        <time>2014-01-22T12:26:08Z</time>
      </trkpt>
      <trkpt lat="43.31458" lon="5.65664">
        <ele>658.7</ele>
        <time>2014-01-22T12:26:12Z</time>
      </trkpt>
      <trkpt lat="43.31458" lon="5.65669">
        <ele>657</ele>
        <time>2014-01-22T12:26:16Z</time>
      </trkpt>
      <trkpt lat="43.31458" lon="5.65674">
        <ele>655.7</ele>
        <time>2014-01-22T12:26:20Z</time>
      </trkpt>
      <trkpt lat="43.31458" lon="5.6568">
        <ele>654.7</ele>
        <time>2014-01-22T12:26:24Z</time>
      </trkpt>
      <trkpt lat="43.31457" lon="5.65685">
        <ele>654</ele>
        <time>2014-01-22T12:26:28Z</time>
      </trkpt>
      <trkpt lat="43.31457" lon="5.65691">
        <ele>653</ele>
        <time>2014-01-22T12:26:32Z</time>
      </trkpt>
      <trkpt lat="43.31456" lon="5.65697">
        <ele>652.7</ele>
        <time>2014-01-22T12:26:36Z</time>
      </trkpt>
      <trkpt lat="43.31455" lon="5.65701">
        <ele>652.4</ele>
        <time>2014-01-22T12:26:39Z</time>
      </trkpt>
      <trkpt lat="43.31454" lon="5.65706">
        <ele>652.2</ele>
        <time>2014-01-22T12:26:42Z</time>
      </trkpt>
      <trkpt lat="43.31451" lon="5.65711">
        <ele>652</ele>
        <time>2014-01-22T12:26:46Z</time>
      </trkpt>
      <trkpt lat="43.31449" lon="5.65715">
        <ele>652</ele>
        <time>2014-01-22T12:26:50Z</time>
      </trkpt>
      <trkpt lat="43.31447" lon="5.65717">
        <ele>651.7</ele>
        <time>2014-01-22T12:26:52Z</time>
      </trkpt>
      <trkpt lat="43.31445" lon="5.65719">
        <ele>654</ele>
        <time>2014-01-22T12:26:53Z</time>
      </trkpt>
      <trkpt lat="43.31443" lon="5.6572">
        <ele>655.9</ele>
        <time>2014-01-22T12:26:54Z</time>
      </trkpt>
      <trkpt lat="43.31438" lon="5.65722">
        <ele>658.5</ele>
        <time>2014-01-22T12:26:58Z</time>
      </trkpt>
      <trkpt lat="43.31434" lon="5.6572">
        <ele>659.4</ele>
        <time>2014-01-22T12:27:02Z</time>
      </trkpt>
      <trkpt lat="43.31434" lon="5.65714">
        <ele>660</ele>
        <time>2014-01-22T12:27:07Z</time>
      </trkpt>
      <trkpt lat="43.31435" lon="5.65709">
        <ele>660</ele>
        <time>2014-01-22T12:27:11Z</time>
      </trkpt>
      <trkpt lat="43.31436" lon="5.65704">
        <ele>659.7</ele>
        <time>2014-01-22T12:27:15Z</time>
      </trkpt>
      <trkpt lat="43.31437" lon="5.65698">
        <ele>659.9</ele>
        <time>2014-01-22T12:27:19Z</time>
      </trkpt>
      <trkpt lat="43.31437" lon="5.65693">
        <ele>659.5</ele>
        <time>2014-01-22T12:27:23Z</time>
      </trkpt>
      <trkpt lat="43.31437" lon="5.65688">
        <ele>659.7</ele>
        <time>2014-01-22T12:27:26Z</time>
      </trkpt>
      <trkpt lat="43.31437" lon="5.65683">
        <ele>660.2</ele>
        <time>2014-01-22T12:27:29Z</time>
      </trkpt>
      <trkpt lat="43.31436" lon="5.65678">
        <ele>660.5</ele>
        <time>2014-01-22T12:27:32Z</time>
      </trkpt>
      <trkpt lat="43.31435" lon="5.65673">
        <ele>660.9</ele>
        <time>2014-01-22T12:27:35Z</time>
      </trkpt>
      <trkpt lat="43.31435" lon="5.65668">
        <ele>660.7</ele>
        <time>2014-01-22T12:27:38Z</time>
      </trkpt>
      <trkpt lat="43.31434" lon="5.65663">
        <ele>660.7</ele>
        <time>2014-01-22T12:27:41Z</time>
      </trkpt>
      <trkpt lat="43.31433" lon="5.65657">
        <ele>660.2</ele>
        <time>2014-01-22T12:27:45Z</time>
      </trkpt>
      <trkpt lat="43.31433" lon="5.65653">
        <ele>660</ele>
        <time>2014-01-22T12:27:48Z</time>
      </trkpt>
      <trkpt lat="43.31432" lon="5.65648">
        <ele>659.9</ele>
        <time>2014-01-22T12:27:51Z</time>
      </trkpt>
      <trkpt lat="43.31431" lon="5.65643">
        <ele>659.7</ele>
        <time>2014-01-22T12:27:54Z</time>
      </trkpt>
      <trkpt lat="43.3143" lon="5.65642">
        <ele>659.7</ele>
        <time>2014-01-22T12:27:55Z</time>
      </trkpt>
      <trkpt lat="43.31428" lon="5.65634">
        <ele>659.5</ele>
        <time>2014-01-22T12:28:00Z</time>
      </trkpt>
      <trkpt lat="43.31425" lon="5.65629">
        <ele>659</ele>
        <time>2014-01-22T12:28:04Z</time>
      </trkpt>
      <trkpt lat="43.31423" lon="5.65624">
        <ele>658.5</ele>
        <time>2014-01-22T12:28:08Z</time>
      </trkpt>
      <trkpt lat="43.3142" lon="5.65619">
        <ele>658</ele>
        <time>2014-01-22T12:28:12Z</time>
      </trkpt>
      <trkpt lat="43.31417" lon="5.65614">
        <ele>657.5</ele>
        <time>2014-01-22T12:28:16Z</time>
      </trkpt>
      <trkpt lat="43.31415" lon="5.6561">
        <ele>656.7</ele>
        <time>2014-01-22T12:28:20Z</time>
      </trkpt>
      <trkpt lat="43.31412" lon="5.65605">
        <ele>655.7</ele>
        <time>2014-01-22T12:28:24Z</time>
      </trkpt>
      <trkpt lat="43.3141" lon="5.65601">
        <ele>654.9</ele>
        <time>2014-01-22T12:28:28Z</time>
      </trkpt>
      <trkpt lat="43.31409" lon="5.65595">
        <ele>654.2</ele>
        <time>2014-01-22T12:28:32Z</time>
      </trkpt>
      <trkpt lat="43.31407" lon="5.6559">
        <ele>653.7</ele>
        <time>2014-01-22T12:28:36Z</time>
      </trkpt>
      <trkpt lat="43.31405" lon="5.65585">
        <ele>653.2</ele>
        <time>2014-01-22T12:28:40Z</time>
      </trkpt>
      <trkpt lat="43.31402" lon="5.6558">
        <ele>652.4</ele>
        <time>2014-01-22T12:28:44Z</time>
      </trkpt>
      <trkpt lat="43.31398" lon="5.65577">
        <ele>651.9</ele>
        <time>2014-01-22T12:28:48Z</time>
      </trkpt>
      <trkpt lat="43.31394" lon="5.65579">
        <ele>650.9</ele>
        <time>2014-01-22T12:28:52Z</time>
      </trkpt>
      <trkpt lat="43.31393" lon="5.65585">
        <ele>649.2</ele>
        <time>2014-01-22T12:28:56Z</time>
      </trkpt>
      <trkpt lat="43.31393" lon="5.65587">
        <ele>648.7</ele>
        <time>2014-01-22T12:28:57Z</time>
      </trkpt>
      <trkpt lat="43.31395" lon="5.65595">
        <ele>648</ele>
        <time>2014-01-22T12:29:02Z</time>
      </trkpt>
      <trkpt lat="43.31397" lon="5.656">
        <ele>646.7</ele>
        <time>2014-01-22T12:29:05Z</time>
      </trkpt>
      <trkpt lat="43.31398" lon="5.65604">
        <ele>645.7</ele>
        <time>2014-01-22T12:29:08Z</time>
      </trkpt>
      <trkpt lat="43.314" lon="5.65609">
        <ele>645.5</ele>
        <time>2014-01-22T12:29:11Z</time>
      </trkpt>
      <trkpt lat="43.31401" lon="5.65613">
        <ele>645.4</ele>
        <time>2014-01-22T12:29:14Z</time>
      </trkpt>
      <trkpt lat="43.31402" lon="5.65617">
        <ele>644.7</ele>
        <time>2014-01-22T12:29:17Z</time>
      </trkpt>
      <trkpt lat="43.31403" lon="5.65623">
        <ele>643.7</ele>
        <time>2014-01-22T12:29:21Z</time>
      </trkpt>
      <trkpt lat="43.31405" lon="5.65629">
        <ele>643.5</ele>
        <time>2014-01-22T12:29:25Z</time>
      </trkpt>
      <trkpt lat="43.31405" lon="5.65633">
        <ele>642.7</ele>
        <time>2014-01-22T12:29:28Z</time>
      </trkpt>
      <trkpt lat="43.31407" lon="5.65637">
        <ele>640.7</ele>
        <time>2014-01-22T12:29:31Z</time>
      </trkpt>
      <trkpt lat="43.31408" lon="5.65643">
        <ele>639</ele>
        <time>2014-01-22T12:29:35Z</time>
      </trkpt>
      <trkpt lat="43.31409" lon="5.65648">
        <ele>636</ele>
        <time>2014-01-22T12:29:39Z</time>
      </trkpt>
      <trkpt lat="43.31409" lon="5.65653">
        <ele>633.4</ele>
        <time>2014-01-22T12:29:43Z</time>
      </trkpt>
      <trkpt lat="43.31409" lon="5.65659">
        <ele>630.4</ele>
        <time>2014-01-22T12:29:48Z</time>
      </trkpt>
      <trkpt lat="43.31409" lon="5.65665">
        <ele>628</ele>
        <time>2014-01-22T12:29:53Z</time>
      </trkpt>
      <trkpt lat="43.31409" lon="5.6567">
        <ele>626.7</ele>
        <time>2014-01-22T12:29:57Z</time>
      </trkpt>
      <trkpt lat="43.31408" lon="5.65672">
        <ele>627.2</ele>
        <time>2014-01-22T12:29:58Z</time>
      </trkpt>
      <trkpt lat="43.31403" lon="5.65679">
        <ele>628.5</ele>
        <time>2014-01-22T12:30:03Z</time>
      </trkpt>
      <trkpt lat="43.31402" lon="5.65683">
        <ele>629.9</ele>
        <time>2014-01-22T12:30:06Z</time>
      </trkpt>
      <trkpt lat="43.31399" lon="5.65688">
        <ele>629.7</ele>
        <time>2014-01-22T12:30:10Z</time>
      </trkpt>
      <trkpt lat="43.31397" lon="5.65693">
        <ele>630.2</ele>
        <time>2014-01-22T12:30:13Z</time>
      </trkpt>
      <trkpt lat="43.31395" lon="5.65698">
        <ele>631.2</ele>
        <time>2014-01-22T12:30:16Z</time>
      </trkpt>
      <trkpt lat="43.31394" lon="5.65703">
        <ele>631.7</ele>
        <time>2014-01-22T12:30:19Z</time>
      </trkpt>
      <trkpt lat="43.31392" lon="5.65707">
        <ele>632.4</ele>
        <time>2014-01-22T12:30:22Z</time>
      </trkpt>
      <trkpt lat="43.31389" lon="5.65712">
        <ele>632.2</ele>
        <time>2014-01-22T12:30:26Z</time>
      </trkpt>
      <trkpt lat="43.31386" lon="5.65715">
        <ele>631.9</ele>
        <time>2014-01-22T12:30:29Z</time>
      </trkpt>
      <trkpt lat="43.31384" lon="5.65718">
        <ele>632</ele>
        <time>2014-01-22T12:30:32Z</time>
      </trkpt>
      <trkpt lat="43.3138" lon="5.6572">
        <ele>632.5</ele>
        <time>2014-01-22T12:30:35Z</time>
      </trkpt>
      <trkpt lat="43.31376" lon="5.65721">
        <ele>633</ele>
        <time>2014-01-22T12:30:38Z</time>
      </trkpt>
      <trkpt lat="43.31373" lon="5.65721">
        <ele>634.2</ele>
        <time>2014-01-22T12:30:42Z</time>
      </trkpt>
      <trkpt lat="43.31369" lon="5.65721">
        <ele>634.9</ele>
        <time>2014-01-22T12:30:46Z</time>
      </trkpt>
      <trkpt lat="43.31365" lon="5.65721">
        <ele>635.5</ele>
        <time>2014-01-22T12:30:49Z</time>
      </trkpt>
      <trkpt lat="43.31361" lon="5.65721">
        <ele>635.5</ele>
        <time>2014-01-22T12:30:53Z</time>
      </trkpt>
      <trkpt lat="43.31357" lon="5.65722">
        <ele>635.9</ele>
        <time>2014-01-22T12:30:57Z</time>
      </trkpt>
      <trkpt lat="43.31353" lon="5.65722">
        <ele>636</ele>
        <time>2014-01-22T12:31:01Z</time>
      </trkpt>
      <trkpt lat="43.31352" lon="5.65722">
        <ele>636</ele>
        <time>2014-01-22T12:31:02Z</time>
      </trkpt>
      <trkpt lat="43.31345" lon="5.65721">
        <ele>635.2</ele>
        <time>2014-01-22T12:31:08Z</time>
      </trkpt>
      <trkpt lat="43.31342" lon="5.6572">
        <ele>635</ele>
        <time>2014-01-22T12:31:11Z</time>
      </trkpt>
      <trkpt lat="43.31338" lon="5.65721">
        <ele>634</ele>
        <time>2014-01-22T12:31:14Z</time>
      </trkpt>
      <trkpt lat="43.31335" lon="5.65721">
        <ele>633.2</ele>
        <time>2014-01-22T12:31:17Z</time>
      </trkpt>
      <trkpt lat="43.31332" lon="5.65722">
        <ele>632.2</ele>
        <time>2014-01-22T12:31:20Z</time>
      </trkpt>
      <trkpt lat="43.31328" lon="5.65722">
        <ele>631.4</ele>
        <time>2014-01-22T12:31:23Z</time>
      </trkpt>
      <trkpt lat="43.31325" lon="5.65722">
        <ele>630.5</ele>
        <time>2014-01-22T12:31:26Z</time>
      </trkpt>
      <trkpt lat="43.31321" lon="5.65722">
        <ele>630</ele>
        <time>2014-01-22T12:31:29Z</time>
      </trkpt>
      <trkpt lat="43.31317" lon="5.65722">
        <ele>629.2</ele>
        <time>2014-01-22T12:31:32Z</time>
      </trkpt>
      <trkpt lat="43.31314" lon="5.65722">
        <ele>628.7</ele>
        <time>2014-01-22T12:31:35Z</time>
      </trkpt>
      <trkpt lat="43.3131" lon="5.65721">
        <ele>628.5</ele>
        <time>2014-01-22T12:31:38Z</time>
      </trkpt>
      <trkpt lat="43.31306" lon="5.6572">
        <ele>628</ele>
        <time>2014-01-22T12:31:41Z</time>
      </trkpt>
      <trkpt lat="43.31303" lon="5.65719">
        <ele>628.5</ele>
        <time>2014-01-22T12:31:44Z</time>
      </trkpt>
      <trkpt lat="43.31299" lon="5.65718">
        <ele>628.7</ele>
        <time>2014-01-22T12:31:47Z</time>
      </trkpt>
      <trkpt lat="43.31295" lon="5.65717">
        <ele>628.4</ele>
        <time>2014-01-22T12:31:50Z</time>
      </trkpt>
      <trkpt lat="43.31291" lon="5.65717">
        <ele>628.2</ele>
        <time>2014-01-22T12:31:53Z</time>
      </trkpt>
      <trkpt lat="43.31287" lon="5.65716">
        <ele>627.9</ele>
        <time>2014-01-22T12:31:56Z</time>
      </trkpt>
      <trkpt lat="43.31284" lon="5.65716">
        <ele>627.4</ele>
        <time>2014-01-22T12:31:59Z</time>
      </trkpt>
      <trkpt lat="43.31281" lon="5.65716">
        <ele>627</ele>
        <time>2014-01-22T12:32:02Z</time>
      </trkpt>
      <trkpt lat="43.31279" lon="5.65716">
        <ele>626.7</ele>
        <time>2014-01-22T12:32:03Z</time>
      </trkpt>
      <trkpt lat="43.31273" lon="5.65718">
        <ele>624.9</ele>
        <time>2014-01-22T12:32:09Z</time>
      </trkpt>
      <trkpt lat="43.31269" lon="5.65719">
        <ele>624.2</ele>
        <time>2014-01-22T12:32:12Z</time>
      </trkpt>
      <trkpt lat="43.31265" lon="5.6572">
        <ele>623.5</ele>
        <time>2014-01-22T12:32:16Z</time>
      </trkpt>
      <trkpt lat="43.31261" lon="5.65721">
        <ele>623.2</ele>
        <time>2014-01-22T12:32:19Z</time>
      </trkpt>
      <trkpt lat="43.31257" lon="5.65722">
        <ele>623</ele>
        <time>2014-01-22T12:32:22Z</time>
      </trkpt>
      <trkpt lat="43.31254" lon="5.65722">
        <ele>623</ele>
        <time>2014-01-22T12:32:25Z</time>
      </trkpt>
      <trkpt lat="43.3125" lon="5.65724">
        <ele>622.7</ele>
        <time>2014-01-22T12:32:28Z</time>
      </trkpt>
      <trkpt lat="43.31247" lon="5.65725">
        <ele>622</ele>
        <time>2014-01-22T12:32:31Z</time>
      </trkpt>
      <trkpt lat="43.31243" lon="5.65727">
        <ele>622.4</ele>
        <time>2014-01-22T12:32:34Z</time>
      </trkpt>
      <trkpt lat="43.31241" lon="5.65731">
        <ele>621</ele>
        <time>2014-01-22T12:32:37Z</time>
      </trkpt>
      <trkpt lat="43.31238" lon="5.65735">
        <ele>619.2</ele>
        <time>2014-01-22T12:32:41Z</time>
      </trkpt>
      <trkpt lat="43.31235" lon="5.6574">
        <ele>617.4</ele>
        <time>2014-01-22T12:32:45Z</time>
      </trkpt>
      <trkpt lat="43.31232" lon="5.65742">
        <ele>617.5</ele>
        <time>2014-01-22T12:32:48Z</time>
      </trkpt>
      <trkpt lat="43.31229" lon="5.65745">
        <ele>616.7</ele>
        <time>2014-01-22T12:32:51Z</time>
      </trkpt>
      <trkpt lat="43.31225" lon="5.65747">
        <ele>617</ele>
        <time>2014-01-22T12:32:54Z</time>
      </trkpt>
      <trkpt lat="43.31221" lon="5.65748">
        <ele>617.2</ele>
        <time>2014-01-22T12:32:57Z</time>
      </trkpt>
      <trkpt lat="43.31217" lon="5.65748">
        <ele>617.5</ele>
        <time>2014-01-22T12:33:00Z</time>
      </trkpt>
      <trkpt lat="43.31213" lon="5.65747">
        <ele>617.5</ele>
        <time>2014-01-22T12:33:03Z</time>
      </trkpt>
      <trkpt lat="43.31212" lon="5.65747">
        <ele>617.5</ele>
        <time>2014-01-22T12:33:04Z</time>
      </trkpt>
      <trkpt lat="43.31206" lon="5.65746">
        <ele>617.2</ele>
        <time>2014-01-22T12:33:09Z</time>
      </trkpt>
      <trkpt lat="43.31202" lon="5.65744">
        <ele>617</ele>
        <time>2014-01-22T12:33:12Z</time>
      </trkpt>
      <trkpt lat="43.31198" lon="5.65743">
        <ele>616.7</ele>
        <time>2014-01-22T12:33:15Z</time>
      </trkpt>
      <trkpt lat="43.31194" lon="5.6574">
        <ele>617.5</ele>
        <time>2014-01-22T12:33:18Z</time>
      </trkpt>
      <trkpt lat="43.31191" lon="5.65737">
        <ele>617.7</ele>
        <time>2014-01-22T12:33:21Z</time>
      </trkpt>
      <trkpt lat="43.31187" lon="5.65735">
        <ele>617.5</ele>
        <time>2014-01-22T12:33:24Z</time>
      </trkpt>
      <trkpt lat="43.31184" lon="5.65732">
        <ele>617.7</ele>
        <time>2014-01-22T12:33:27Z</time>
      </trkpt>
      <trkpt lat="43.31182" lon="5.65728">
        <ele>617.7</ele>
        <time>2014-01-22T12:33:30Z</time>
      </trkpt>
      <trkpt lat="43.31179" lon="5.65725">
        <ele>617.5</ele>
        <time>2014-01-22T12:33:33Z</time>
      </trkpt>
      <trkpt lat="43.31176" lon="5.65721">
        <ele>617</ele>
        <time>2014-01-22T12:33:36Z</time>
      </trkpt>
      <trkpt lat="43.31174" lon="5.65718">
        <ele>616.9</ele>
        <time>2014-01-22T12:33:39Z</time>
      </trkpt>
      <trkpt lat="43.3117" lon="5.65715">
        <ele>615.7</ele>
        <time>2014-01-22T12:33:43Z</time>
      </trkpt>
      <trkpt lat="43.31167" lon="5.65712">
        <ele>615</ele>
        <time>2014-01-22T12:33:46Z</time>
      </trkpt>
      <trkpt lat="43.31164" lon="5.65709">
        <ele>615</ele>
        <time>2014-01-22T12:33:49Z</time>
      </trkpt>
      <trkpt lat="43.31161" lon="5.65706">
        <ele>615</ele>
        <time>2014-01-22T12:33:52Z</time>
      </trkpt>
      <trkpt lat="43.31158" lon="5.65704">
        <ele>615</ele>
        <time>2014-01-22T12:33:55Z</time>
      </trkpt>
      <trkpt lat="43.31154" lon="5.65703">
        <ele>615</ele>
        <time>2014-01-22T12:33:58Z</time>
      </trkpt>
      <trkpt lat="43.31151" lon="5.65702">
        <ele>614.9</ele>
        <time>2014-01-22T12:34:01Z</time>
      </trkpt>
      <trkpt lat="43.31147" lon="5.65702">
        <ele>614.7</ele>
        <time>2014-01-22T12:34:04Z</time>
      </trkpt>
      <trkpt lat="43.31146" lon="5.65702">
        <ele>614.7</ele>
        <time>2014-01-22T12:34:05Z</time>
      </trkpt>
      <trkpt lat="43.3114" lon="5.65702">
        <ele>614.2</ele>
        <time>2014-01-22T12:34:10Z</time>
      </trkpt>
      <trkpt lat="43.31136" lon="5.65702">
        <ele>613.7</ele>
        <time>2014-01-22T12:34:13Z</time>
      </trkpt>
      <trkpt lat="43.31132" lon="5.65702">
        <ele>613.2</ele>
        <time>2014-01-22T12:34:16Z</time>
      </trkpt>
      <trkpt lat="43.31128" lon="5.65701">
        <ele>613</ele>
        <time>2014-01-22T12:34:19Z</time>
      </trkpt>
      <trkpt lat="43.31124" lon="5.65701">
        <ele>612.9</ele>
        <time>2014-01-22T12:34:22Z</time>
      </trkpt>
      <trkpt lat="43.3112" lon="5.65699">
        <ele>612.7</ele>
        <time>2014-01-22T12:34:25Z</time>
      </trkpt>
      <trkpt lat="43.31117" lon="5.65698">
        <ele>612.4</ele>
        <time>2014-01-22T12:34:28Z</time>
      </trkpt>
      <trkpt lat="43.31113" lon="5.65696">
        <ele>611.7</ele>
        <time>2014-01-22T12:34:31Z</time>
      </trkpt>
      <trkpt lat="43.3111" lon="5.65694">
        <ele>611</ele>
        <time>2014-01-22T12:34:34Z</time>
      </trkpt>
      <trkpt lat="43.31106" lon="5.65692">
        <ele>611.4</ele>
        <time>2014-01-22T12:34:37Z</time>
      </trkpt>
      <trkpt lat="43.31103" lon="5.6569">
        <ele>611.4</ele>
        <time>2014-01-22T12:34:40Z</time>
      </trkpt>
      <trkpt lat="43.31099" lon="5.65688">
        <ele>611.7</ele>
        <time>2014-01-22T12:34:43Z</time>
      </trkpt>
      <trkpt lat="43.31095" lon="5.65687">
        <ele>612.5</ele>
        <time>2014-01-22T12:34:46Z</time>
      </trkpt>
      <trkpt lat="43.31092" lon="5.65685">
        <ele>612.5</ele>
        <time>2014-01-22T12:34:49Z</time>
      </trkpt>
      <trkpt lat="43.31089" lon="5.65683">
        <ele>612.9</ele>
        <time>2014-01-22T12:34:52Z</time>
      </trkpt>
      <trkpt lat="43.31086" lon="5.6568">
        <ele>613</ele>
        <time>2014-01-22T12:34:55Z</time>
      </trkpt>
      <trkpt lat="43.31083" lon="5.65676">
        <ele>613</ele>
        <time>2014-01-22T12:34:58Z</time>
      </trkpt>
      <trkpt lat="43.31081" lon="5.65673">
        <ele>613</ele>
        <time>2014-01-22T12:35:01Z</time>
      </trkpt>
      <trkpt lat="43.31079" lon="5.65668">
        <ele>613.2</ele>
        <time>2014-01-22T12:35:04Z</time>
      </trkpt>
      <trkpt lat="43.31076" lon="5.65664">
        <ele>613</ele>
        <time>2014-01-22T12:35:07Z</time>
      </trkpt>
      <trkpt lat="43.31076" lon="5.65662">
        <ele>613</ele>
        <time>2014-01-22T12:35:08Z</time>
      </trkpt>
      <trkpt lat="43.31073" lon="5.65655">
        <ele>613</ele>
        <time>2014-01-22T12:35:13Z</time>
      </trkpt>
      <trkpt lat="43.31071" lon="5.65651">
        <ele>612.9</ele>
        <time>2014-01-22T12:35:16Z</time>
      </trkpt>
      <trkpt lat="43.31068" lon="5.65648">
        <ele>612.9</ele>
        <time>2014-01-22T12:35:19Z</time>
      </trkpt>
      <trkpt lat="43.31066" lon="5.65645">
        <ele>612.9</ele>
        <time>2014-01-22T12:35:22Z</time>
      </trkpt>
      <trkpt lat="43.31062" lon="5.65643">
        <ele>613</ele>
        <time>2014-01-22T12:35:25Z</time>
      </trkpt>
      <trkpt lat="43.31058" lon="5.65644">
        <ele>613.2</ele>
        <time>2014-01-22T12:35:29Z</time>
      </trkpt>
      <trkpt lat="43.31054" lon="5.65645">
        <ele>613</ele>
        <time>2014-01-22T12:35:33Z</time>
      </trkpt>
      <trkpt lat="43.31051" lon="5.65647">
        <ele>612.7</ele>
        <time>2014-01-22T12:35:36Z</time>
      </trkpt>
      <trkpt lat="43.31047" lon="5.65647">
        <ele>613</ele>
        <time>2014-01-22T12:35:39Z</time>
      </trkpt>
      <trkpt lat="43.31043" lon="5.65647">
        <ele>613.4</ele>
        <time>2014-01-22T12:35:43Z</time>
      </trkpt>
      <trkpt lat="43.31039" lon="5.65645">
        <ele>613.5</ele>
        <time>2014-01-22T12:35:46Z</time>
      </trkpt>
      <trkpt lat="43.31036" lon="5.65643">
        <ele>613.7</ele>
        <time>2014-01-22T12:35:49Z</time>
      </trkpt>
      <trkpt lat="43.31033" lon="5.6564">
        <ele>613.2</ele>
        <time>2014-01-22T12:35:52Z</time>
      </trkpt>
      <trkpt lat="43.31031" lon="5.65636">
        <ele>612.7</ele>
        <time>2014-01-22T12:35:55Z</time>
      </trkpt>
      <trkpt lat="43.31028" lon="5.65631">
        <ele>612</ele>
        <time>2014-01-22T12:35:59Z</time>
      </trkpt>
      <trkpt lat="43.31026" lon="5.65627">
        <ele>611.4</ele>
        <time>2014-01-22T12:36:03Z</time>
      </trkpt>
      <trkpt lat="43.31023" lon="5.65623">
        <ele>610.9</ele>
        <time>2014-01-22T12:36:06Z</time>
      </trkpt>
      <trkpt lat="43.31021" lon="5.6562">
        <ele>610.4</ele>
        <time>2014-01-22T12:36:09Z</time>
      </trkpt>
      <trkpt lat="43.3102" lon="5.65619">
        <ele>610.2</ele>
        <time>2014-01-22T12:36:10Z</time>
      </trkpt>
      <trkpt lat="43.31014" lon="5.65614">
        <ele>609</ele>
        <time>2014-01-22T12:36:16Z</time>
      </trkpt>
      <trkpt lat="43.31011" lon="5.6561">
        <ele>608.2</ele>
        <time>2014-01-22T12:36:20Z</time>
      </trkpt>
      <trkpt lat="43.31008" lon="5.65605">
        <ele>607.5</ele>
        <time>2014-01-22T12:36:24Z</time>
      </trkpt>
      <trkpt lat="43.31006" lon="5.65601">
        <ele>607</ele>
        <time>2014-01-22T12:36:27Z</time>
      </trkpt>
      <trkpt lat="43.31003" lon="5.65598">
        <ele>606.7</ele>
        <time>2014-01-22T12:36:30Z</time>
      </trkpt>
      <trkpt lat="43.31" lon="5.65594">
        <ele>606.7</ele>
        <time>2014-01-22T12:36:33Z</time>
      </trkpt>
      <trkpt lat="43.30997" lon="5.6559">
        <ele>606.9</ele>
        <time>2014-01-22T12:36:36Z</time>
      </trkpt>
      <trkpt lat="43.30993" lon="5.65587">
        <ele>607</ele>
        <time>2014-01-22T12:36:39Z</time>
      </trkpt>
      <trkpt lat="43.3099" lon="5.65584">
        <ele>606.9</ele>
        <time>2014-01-22T12:36:42Z</time>
      </trkpt>
      <trkpt lat="43.30987" lon="5.6558">
        <ele>606.5</ele>
        <time>2014-01-22T12:36:45Z</time>
      </trkpt>
      <trkpt lat="43.30984" lon="5.65577">
        <ele>606.4</ele>
        <time>2014-01-22T12:36:48Z</time>
      </trkpt>
      <trkpt lat="43.30982" lon="5.65574">
        <ele>606.4</ele>
        <time>2014-01-22T12:36:51Z</time>
      </trkpt>
      <trkpt lat="43.30979" lon="5.6557">
        <ele>606.2</ele>
        <time>2014-01-22T12:36:54Z</time>
      </trkpt>
      <trkpt lat="43.30976" lon="5.65567">
        <ele>605.7</ele>
        <time>2014-01-22T12:36:57Z</time>
      </trkpt>
      <trkpt lat="43.30973" lon="5.65563">
        <ele>605.5</ele>
        <time>2014-01-22T12:37:00Z</time>
      </trkpt>
      <trkpt lat="43.30971" lon="5.6556">
        <ele>605</ele>
        <time>2014-01-22T12:37:03Z</time>
      </trkpt>
      <trkpt lat="43.30968" lon="5.65556">
        <ele>604.5</ele>
        <time>2014-01-22T12:37:06Z</time>
      </trkpt>
      <trkpt lat="43.30965" lon="5.65552">
        <ele>604.4</ele>
        <time>2014-01-22T12:37:09Z</time>
      </trkpt>
      <trkpt lat="43.30963" lon="5.65549">
        <ele>604.5</ele>
        <time>2014-01-22T12:37:12Z</time>
      </trkpt>
      <trkpt lat="43.30962" lon="5.65547">
        <ele>604.7</ele>
        <time>2014-01-22T12:37:13Z</time>
      </trkpt>
      <trkpt lat="43.30957" lon="5.65541">
        <ele>605</ele>
        <time>2014-01-22T12:37:18Z</time>
      </trkpt>
      <trkpt lat="43.30953" lon="5.65538">
        <ele>605</ele>
        <time>2014-01-22T12:37:21Z</time>
      </trkpt>
      <trkpt lat="43.3095" lon="5.65535">
        <ele>605.5</ele>
        <time>2014-01-22T12:37:24Z</time>
      </trkpt>
      <trkpt lat="43.30947" lon="5.65533">
        <ele>605.2</ele>
        <time>2014-01-22T12:37:27Z</time>
      </trkpt>
      <trkpt lat="43.30944" lon="5.65531">
        <ele>605</ele>
        <time>2014-01-22T12:37:30Z</time>
      </trkpt>
      <trkpt lat="43.3094" lon="5.65529">
        <ele>605</ele>
        <time>2014-01-22T12:37:33Z</time>
      </trkpt>
      <trkpt lat="43.30937" lon="5.65527">
        <ele>605</ele>
        <time>2014-01-22T12:37:36Z</time>
      </trkpt>
      <trkpt lat="43.30933" lon="5.65526">
        <ele>605.2</ele>
        <time>2014-01-22T12:37:39Z</time>
      </trkpt>
      <trkpt lat="43.3093" lon="5.65524">
        <ele>605.2</ele>
        <time>2014-01-22T12:37:42Z</time>
      </trkpt>
      <trkpt lat="43.30925" lon="5.65524">
        <ele>605.4</ele>
        <time>2014-01-22T12:37:46Z</time>
      </trkpt>
      <trkpt lat="43.30921" lon="5.65525">
        <ele>605.5</ele>
        <time>2014-01-22T12:37:50Z</time>
      </trkpt>
      <trkpt lat="43.30918" lon="5.65528">
        <ele>605</ele>
        <time>2014-01-22T12:37:54Z</time>
      </trkpt>
      <trkpt lat="43.30914" lon="5.65532">
        <ele>605</ele>
        <time>2014-01-22T12:37:58Z</time>
      </trkpt>
      <trkpt lat="43.30912" lon="5.65535">
        <ele>604.2</ele>
        <time>2014-01-22T12:38:01Z</time>
      </trkpt>
      <trkpt lat="43.30909" lon="5.65538">
        <ele>603.7</ele>
        <time>2014-01-22T12:38:04Z</time>
      </trkpt>
      <trkpt lat="43.30907" lon="5.65543">
        <ele>602.7</ele>
        <time>2014-01-22T12:38:07Z</time>
      </trkpt>
      <trkpt lat="43.30904" lon="5.65547">
        <ele>602</ele>
        <time>2014-01-22T12:38:10Z</time>
      </trkpt>
      <trkpt lat="43.30902" lon="5.65551">
        <ele>601</ele>
        <time>2014-01-22T12:38:13Z</time>
      </trkpt>
      <trkpt lat="43.30901" lon="5.65552">
        <ele>600.9</ele>
        <time>2014-01-22T12:38:14Z</time>
      </trkpt>
      <trkpt lat="43.30897" lon="5.65558">
        <ele>599.7</ele>
        <time>2014-01-22T12:38:19Z</time>
      </trkpt>
      <trkpt lat="43.30895" lon="5.65562">
        <ele>600.2</ele>
        <time>2014-01-22T12:38:22Z</time>
      </trkpt>
      <trkpt lat="43.30892" lon="5.65566">
        <ele>599.9</ele>
        <time>2014-01-22T12:38:25Z</time>
      </trkpt>
      <trkpt lat="43.3089" lon="5.6557">
        <ele>599.7</ele>
        <time>2014-01-22T12:38:28Z</time>
      </trkpt>
      <trkpt lat="43.30887" lon="5.65574">
        <ele>600</ele>
        <time>2014-01-22T12:38:31Z</time>
      </trkpt>
      <trkpt lat="43.30884" lon="5.65578">
        <ele>600.5</ele>
        <time>2014-01-22T12:38:34Z</time>
      </trkpt>
      <trkpt lat="43.30882" lon="5.65581">
        <ele>600.4</ele>
        <time>2014-01-22T12:38:37Z</time>
      </trkpt>
      <trkpt lat="43.3088" lon="5.65585">
        <ele>600.5</ele>
        <time>2014-01-22T12:38:40Z</time>
      </trkpt>
      <trkpt lat="43.30877" lon="5.65589">
        <ele>600.5</ele>
        <time>2014-01-22T12:38:43Z</time>
      </trkpt>
      <trkpt lat="43.30874" lon="5.65592">
        <ele>599.9</ele>
        <time>2014-01-22T12:38:46Z</time>
      </trkpt>
      <trkpt lat="43.3087" lon="5.65594">
        <ele>598.9</ele>
        <time>2014-01-22T12:38:49Z</time>
      </trkpt>
      <trkpt lat="43.30867" lon="5.65594">
        <ele>598.7</ele>
        <time>2014-01-22T12:38:52Z</time>
      </trkpt>
      <trkpt lat="43.30863" lon="5.65593">
        <ele>598.7</ele>
        <time>2014-01-22T12:38:55Z</time>
      </trkpt>
      <trkpt lat="43.30859" lon="5.65592">
        <ele>598.5</ele>
        <time>2014-01-22T12:38:58Z</time>
      </trkpt>
      <trkpt lat="43.30855" lon="5.6559">
        <ele>598.2</ele>
        <time>2014-01-22T12:39:01Z</time>
      </trkpt>
      <trkpt lat="43.30851" lon="5.65588">
        <ele>597.5</ele>
        <time>2014-01-22T12:39:04Z</time>
      </trkpt>
      <trkpt lat="43.30848" lon="5.65587">
        <ele>596.9</ele>
        <time>2014-01-22T12:39:07Z</time>
      </trkpt>
      <trkpt lat="43.30844" lon="5.65584">
        <ele>596.5</ele>
        <time>2014-01-22T12:39:10Z</time>
      </trkpt>
      <trkpt lat="43.30841" lon="5.6558">
        <ele>596.7</ele>
        <time>2014-01-22T12:39:13Z</time>
      </trkpt>
      <trkpt lat="43.30839" lon="5.65576">
        <ele>596.5</ele>
        <time>2014-01-22T12:39:16Z</time>
      </trkpt>
      <trkpt lat="43.30838" lon="5.65575">
        <ele>596.4</ele>
        <time>2014-01-22T12:39:17Z</time>
      </trkpt>
      <trkpt lat="43.30833" lon="5.6557">
        <ele>595.7</ele>
        <time>2014-01-22T12:39:22Z</time>
      </trkpt>
      <trkpt lat="43.3083" lon="5.65568">
        <ele>595.5</ele>
        <time>2014-01-22T12:39:25Z</time>
      </trkpt>
      <trkpt lat="43.30826" lon="5.65566">
        <ele>595</ele>
        <time>2014-01-22T12:39:28Z</time>
      </trkpt>
      <trkpt lat="43.30823" lon="5.65563">
        <ele>594.4</ele>
        <time>2014-01-22T12:39:31Z</time>
      </trkpt>
      <trkpt lat="43.30821" lon="5.65561">
        <ele>594.2</ele>
        <time>2014-01-22T12:39:33Z</time>
      </trkpt>
      <trkpt lat="43.30819" lon="5.65557">
        <ele>594.7</ele>
        <time>2014-01-22T12:39:35Z</time>
      </trkpt>
      <trkpt lat="43.30817" lon="5.65552">
        <ele>594.5</ele>
        <time>2014-01-22T12:39:38Z</time>
      </trkpt>
      <trkpt lat="43.30815" lon="5.65547">
        <ele>594.2</ele>
        <time>2014-01-22T12:39:41Z</time>
      </trkpt>
      <trkpt lat="43.30813" lon="5.65542">
        <ele>593.9</ele>
        <time>2014-01-22T12:39:44Z</time>
      </trkpt>
      <trkpt lat="43.30812" lon="5.65537">
        <ele>593.5</ele>
        <time>2014-01-22T12:39:47Z</time>
      </trkpt>
      <trkpt lat="43.30811" lon="5.65531">
        <ele>593.2</ele>
        <time>2014-01-22T12:39:51Z</time>
      </trkpt>
      <trkpt lat="43.3081" lon="5.65525">
        <ele>592.7</ele>
        <time>2014-01-22T12:39:55Z</time>
      </trkpt>
      <trkpt lat="43.3081" lon="5.6552">
        <ele>592.2</ele>
        <time>2014-01-22T12:39:58Z</time>
      </trkpt>
      <trkpt lat="43.30808" lon="5.65516">
        <ele>592</ele>
        <time>2014-01-22T12:40:01Z</time>
      </trkpt>
      <trkpt lat="43.30806" lon="5.65512">
        <ele>591.7</ele>
        <time>2014-01-22T12:40:04Z</time>
      </trkpt>
      <trkpt lat="43.30804" lon="5.65508">
        <ele>591.4</ele>
        <time>2014-01-22T12:40:07Z</time>
      </trkpt>
      <trkpt lat="43.30801" lon="5.65505">
        <ele>591.2</ele>
        <time>2014-01-22T12:40:10Z</time>
      </trkpt>
      <trkpt lat="43.30798" lon="5.65502">
        <ele>591.2</ele>
        <time>2014-01-22T12:40:13Z</time>
      </trkpt>
      <trkpt lat="43.30794" lon="5.655">
        <ele>591.2</ele>
        <time>2014-01-22T12:40:16Z</time>
      </trkpt>
      <trkpt lat="43.30791" lon="5.65497">
        <ele>591.2</ele>
        <time>2014-01-22T12:40:19Z</time>
      </trkpt>
      <trkpt lat="43.3079" lon="5.65496">
        <ele>591</ele>
        <time>2014-01-22T12:40:20Z</time>
      </trkpt>
      <trkpt lat="43.30784" lon="5.65492">
        <ele>590.9</ele>
        <time>2014-01-22T12:40:25Z</time>
      </trkpt>
      <trkpt lat="43.30781" lon="5.6549">
        <ele>590.5</ele>
        <time>2014-01-22T12:40:28Z</time>
      </trkpt>
      <trkpt lat="43.30777" lon="5.65488">
        <ele>590.5</ele>
        <time>2014-01-22T12:40:31Z</time>
      </trkpt>
      <trkpt lat="43.30773" lon="5.65487">
        <ele>590.2</ele>
        <time>2014-01-22T12:40:34Z</time>
      </trkpt>
      <trkpt lat="43.30769" lon="5.65486">
        <ele>590</ele>
        <time>2014-01-22T12:40:37Z</time>
      </trkpt>
      <trkpt lat="43.30766" lon="5.65485">
        <ele>589.9</ele>
        <time>2014-01-22T12:40:40Z</time>
      </trkpt>
      <trkpt lat="43.30762" lon="5.65483">
        <ele>589.7</ele>
        <time>2014-01-22T12:40:43Z</time>
      </trkpt>
      <trkpt lat="43.30759" lon="5.65482">
        <ele>589</ele>
        <time>2014-01-22T12:40:46Z</time>
      </trkpt>
      <trkpt lat="43.30755" lon="5.6548">
        <ele>588.7</ele>
        <time>2014-01-22T12:40:49Z</time>
      </trkpt>
      <trkpt lat="43.30752" lon="5.65475">
        <ele>588.5</ele>
        <time>2014-01-22T12:40:52Z</time>
      </trkpt>
      <trkpt lat="43.30751" lon="5.65471">
        <ele>588.5</ele>
        <time>2014-01-22T12:40:55Z</time>
      </trkpt>
      <trkpt lat="43.30749" lon="5.65466">
        <ele>587.5</ele>
        <time>2014-01-22T12:40:58Z</time>
      </trkpt>
      <trkpt lat="43.30748" lon="5.65461">
        <ele>587</ele>
        <time>2014-01-22T12:41:01Z</time>
      </trkpt>
      <trkpt lat="43.30747" lon="5.65455">
        <ele>586</ele>
        <time>2014-01-22T12:41:05Z</time>
      </trkpt>
      <trkpt lat="43.30747" lon="5.65451">
        <ele>585.2</ele>
        <time>2014-01-22T12:41:08Z</time>
      </trkpt>
      <trkpt lat="43.30745" lon="5.65445">
        <ele>584.5</ele>
        <time>2014-01-22T12:41:12Z</time>
      </trkpt>
      <trkpt lat="43.30744" lon="5.6544">
        <ele>584</ele>
        <time>2014-01-22T12:41:15Z</time>
      </trkpt>
      <trkpt lat="43.30743" lon="5.65436">
        <ele>583.7</ele>
        <time>2014-01-22T12:41:18Z</time>
      </trkpt>
      <trkpt lat="43.30743" lon="5.65431">
        <ele>583.2</ele>
        <time>2014-01-22T12:41:21Z</time>
      </trkpt>
      <trkpt lat="43.30743" lon="5.65429">
        <ele>583</ele>
        <time>2014-01-22T12:41:22Z</time>
      </trkpt>
      <trkpt lat="43.30742" lon="5.65421">
        <ele>582.5</ele>
        <time>2014-01-22T12:41:27Z</time>
      </trkpt>
      <trkpt lat="43.30741" lon="5.65417">
        <ele>582.2</ele>
        <time>2014-01-22T12:41:30Z</time>
      </trkpt>
      <trkpt lat="43.3074" lon="5.65412">
        <ele>581.9</ele>
        <time>2014-01-22T12:41:33Z</time>
      </trkpt>
      <trkpt lat="43.3074" lon="5.65406">
        <ele>582.7</ele>
        <time>2014-01-22T12:41:36Z</time>
      </trkpt>
      <trkpt lat="43.30739" lon="5.65401">
        <ele>582.5</ele>
        <time>2014-01-22T12:41:39Z</time>
      </trkpt>
      <trkpt lat="43.30738" lon="5.65396">
        <ele>582.2</ele>
        <time>2014-01-22T12:41:42Z</time>
      </trkpt>
      <trkpt lat="43.30736" lon="5.65393">
        <ele>582.2</ele>
        <time>2014-01-22T12:41:45Z</time>
      </trkpt>
      <trkpt lat="43.30733" lon="5.65389">
        <ele>582.2</ele>
        <time>2014-01-22T12:41:48Z</time>
      </trkpt>
      <trkpt lat="43.3073" lon="5.65386">
        <ele>582.2</ele>
        <time>2014-01-22T12:41:51Z</time>
      </trkpt>
      <trkpt lat="43.30727" lon="5.65384">
        <ele>582</ele>
        <time>2014-01-22T12:41:54Z</time>
      </trkpt>
      <trkpt lat="43.30724" lon="5.65381">
        <ele>581.5</ele>
        <time>2014-01-22T12:41:57Z</time>
      </trkpt>
      <trkpt lat="43.30721" lon="5.65378">
        <ele>581</ele>
        <time>2014-01-22T12:42:00Z</time>
      </trkpt>
      <trkpt lat="43.30719" lon="5.65374">
        <ele>580.7</ele>
        <time>2014-01-22T12:42:03Z</time>
      </trkpt>
      <trkpt lat="43.30716" lon="5.65369">
        <ele>580.2</ele>
        <time>2014-01-22T12:42:07Z</time>
      </trkpt>
      <trkpt lat="43.30715" lon="5.65364">
        <ele>580</ele>
        <time>2014-01-22T12:42:10Z</time>
      </trkpt>
      <trkpt lat="43.30713" lon="5.6536">
        <ele>579.5</ele>
        <time>2014-01-22T12:42:13Z</time>
      </trkpt>
      <trkpt lat="43.30711" lon="5.65356">
        <ele>579.2</ele>
        <time>2014-01-22T12:42:16Z</time>
      </trkpt>
      <trkpt lat="43.30708" lon="5.65353">
        <ele>578.9</ele>
        <time>2014-01-22T12:42:19Z</time>
      </trkpt>
      <trkpt lat="43.30706" lon="5.6535">
        <ele>578.5</ele>
        <time>2014-01-22T12:42:22Z</time>
      </trkpt>
      <trkpt lat="43.30705" lon="5.65348">
        <ele>578.5</ele>
        <time>2014-01-22T12:42:23Z</time>
      </trkpt>
      <trkpt lat="43.307" lon="5.65343">
        <ele>578</ele>
        <time>2014-01-22T12:42:28Z</time>
      </trkpt>
      <trkpt lat="43.30697" lon="5.65339">
        <ele>577.5</ele>
        <time>2014-01-22T12:42:32Z</time>
      </trkpt>
      <trkpt lat="43.30694" lon="5.65336">
        <ele>577</ele>
        <time>2014-01-22T12:42:35Z</time>
      </trkpt>
      <trkpt lat="43.30691" lon="5.65333">
        <ele>576.5</ele>
        <time>2014-01-22T12:42:38Z</time>
      </trkpt>
      <trkpt lat="43.30688" lon="5.6533">
        <ele>576.2</ele>
        <time>2014-01-22T12:42:41Z</time>
      </trkpt>
      <trkpt lat="43.30685" lon="5.65328">
        <ele>575.9</ele>
        <time>2014-01-22T12:42:44Z</time>
      </trkpt>
      <trkpt lat="43.30682" lon="5.65326">
        <ele>575.7</ele>
        <time>2014-01-22T12:42:47Z</time>
      </trkpt>
      <trkpt lat="43.30679" lon="5.65324">
        <ele>575.5</ele>
        <time>2014-01-22T12:42:50Z</time>
      </trkpt>
      <trkpt lat="43.30675" lon="5.65322">
        <ele>575.2</ele>
        <time>2014-01-22T12:42:53Z</time>
      </trkpt>
      <trkpt lat="43.30672" lon="5.65321">
        <ele>575</ele>
        <time>2014-01-22T12:42:56Z</time>
      </trkpt>
      <trkpt lat="43.30669" lon="5.65319">
        <ele>574.9</ele>
        <time>2014-01-22T12:42:59Z</time>
      </trkpt>
      <trkpt lat="43.30665" lon="5.65318">
        <ele>574.7</ele>
        <time>2014-01-22T12:43:02Z</time>
      </trkpt>
      <trkpt lat="43.30661" lon="5.65317">
        <ele>574.5</ele>
        <time>2014-01-22T12:43:05Z</time>
      </trkpt>
      <trkpt lat="43.30658" lon="5.65317">
        <ele>574.2</ele>
        <time>2014-01-22T12:43:08Z</time>
      </trkpt>
      <trkpt lat="43.30654" lon="5.65318">
        <ele>573.9</ele>
        <time>2014-01-22T12:43:11Z</time>
      </trkpt>
      <trkpt lat="43.3065" lon="5.65319">
        <ele>573.2</ele>
        <time>2014-01-22T12:43:14Z</time>
      </trkpt>
      <trkpt lat="43.30647" lon="5.65319">
        <ele>572.9</ele>
        <time>2014-01-22T12:43:17Z</time>
      </trkpt>
      <trkpt lat="43.30643" lon="5.65319">
        <ele>572.2</ele>
        <time>2014-01-22T12:43:22Z</time>
      </trkpt>
      <trkpt lat="43.30639" lon="5.65318">
        <ele>572.2</ele>
        <time>2014-01-22T12:43:41Z</time>
      </trkpt>
      <trkpt lat="43.30639" lon="5.65317">
        <ele>572.2</ele>
        <time>2014-01-22T12:43:42Z</time>
      </trkpt>
      <trkpt lat="43.30632" lon="5.65314">
        <ele>571.9</ele>
        <time>2014-01-22T12:43:49Z</time>
      </trkpt>
      <trkpt lat="43.30629" lon="5.65312">
        <ele>571.5</ele>
        <time>2014-01-22T12:43:54Z</time>
      </trkpt>
      <trkpt lat="43.30625" lon="5.6531">
        <ele>571.2</ele>
        <time>2014-01-22T12:43:59Z</time>
      </trkpt>
      <trkpt lat="43.30621" lon="5.65309">
        <ele>570.7</ele>
        <time>2014-01-22T12:44:04Z</time>
      </trkpt>
      <trkpt lat="43.30617" lon="5.65307">
        <ele>570.2</ele>
        <time>2014-01-22T12:44:14Z</time>
      </trkpt>
      <trkpt lat="43.30613" lon="5.65306">
        <ele>569.9</ele>
        <time>2014-01-22T12:44:34Z</time>
      </trkpt>
      <trkpt lat="43.30616" lon="5.65309">
        <ele>564.4</ele>
        <time>2014-01-22T12:46:36Z</time>
      </trkpt>
      <trkpt lat="43.30617" lon="5.6531">
        <ele>563.7</ele>
        <time>2014-01-22T12:46:37Z</time>
      </trkpt>
      <trkpt lat="43.30611" lon="5.65309">
        <ele>573.9</ele>
        <time>2014-01-22T12:48:13Z</time>
      </trkpt>
      <trkpt lat="43.30604" lon="5.65306">
        <ele>571</ele>
        <time>2014-01-22T12:48:27Z</time>
      </trkpt>
      <trkpt lat="43.306" lon="5.65304">
        <ele>570</ele>
        <time>2014-01-22T12:48:34Z</time>
      </trkpt>
      <trkpt lat="43.30595" lon="5.65302">
        <ele>569.2</ele>
        <time>2014-01-22T12:48:40Z</time>
      </trkpt>
      <trkpt lat="43.30592" lon="5.65299">
        <ele>568.7</ele>
        <time>2014-01-22T12:48:45Z</time>
      </trkpt>
      <trkpt lat="43.30589" lon="5.65297">
        <ele>568.4</ele>
        <time>2014-01-22T12:48:49Z</time>
      </trkpt>
      <trkpt lat="43.30585" lon="5.65294">
        <ele>568</ele>
        <time>2014-01-22T12:48:53Z</time>
      </trkpt>
      <trkpt lat="43.30581" lon="5.65291">
        <ele>567.7</ele>
        <time>2014-01-22T12:48:57Z</time>
      </trkpt>
      <trkpt lat="43.30578" lon="5.65288">
        <ele>567.5</ele>
        <time>2014-01-22T12:49:00Z</time>
      </trkpt>
      <trkpt lat="43.30575" lon="5.65285">
        <ele>567.4</ele>
        <time>2014-01-22T12:49:03Z</time>
      </trkpt>
      <trkpt lat="43.30573" lon="5.65283">
        <ele>567</ele>
        <time>2014-01-22T12:49:06Z</time>
      </trkpt>
      <trkpt lat="43.30569" lon="5.6528">
        <ele>566.7</ele>
        <time>2014-01-22T12:49:10Z</time>
      </trkpt>
      <trkpt lat="43.30565" lon="5.65277">
        <ele>566.5</ele>
        <time>2014-01-22T12:49:14Z</time>
      </trkpt>
      <trkpt lat="43.30564" lon="5.65276">
        <ele>566.5</ele>
        <time>2014-01-22T12:49:15Z</time>
      </trkpt>
      <trkpt lat="43.30558" lon="5.65272">
        <ele>567</ele>
        <time>2014-01-22T12:49:21Z</time>
      </trkpt>
      <trkpt lat="43.30555" lon="5.6527">
        <ele>567.2</ele>
        <time>2014-01-22T12:49:24Z</time>
      </trkpt>
      <trkpt lat="43.30552" lon="5.65269">
        <ele>567.2</ele>
        <time>2014-01-22T12:49:27Z</time>
      </trkpt>
      <trkpt lat="43.30548" lon="5.65268">
        <ele>567.5</ele>
        <time>2014-01-22T12:49:30Z</time>
      </trkpt>
      <trkpt lat="43.30545" lon="5.65267">
        <ele>567.7</ele>
        <time>2014-01-22T12:49:33Z</time>
      </trkpt>
      <trkpt lat="43.30541" lon="5.65265">
        <ele>567.9</ele>
        <time>2014-01-22T12:49:37Z</time>
      </trkpt>
      <trkpt lat="43.30537" lon="5.65264">
        <ele>567.7</ele>
        <time>2014-01-22T12:49:41Z</time>
      </trkpt>
      <trkpt lat="43.30533" lon="5.65263">
        <ele>567.5</ele>
        <time>2014-01-22T12:49:44Z</time>
      </trkpt>
      <trkpt lat="43.30529" lon="5.65261">
        <ele>567</ele>
        <time>2014-01-22T12:49:48Z</time>
      </trkpt>
      <trkpt lat="43.30526" lon="5.6526">
        <ele>567</ele>
        <time>2014-01-22T12:49:51Z</time>
      </trkpt>
      <trkpt lat="43.30522" lon="5.65257">
        <ele>566.4</ele>
        <time>2014-01-22T12:49:55Z</time>
      </trkpt>
      <trkpt lat="43.30518" lon="5.65254">
        <ele>565.7</ele>
        <time>2014-01-22T12:49:59Z</time>
      </trkpt>
      <trkpt lat="43.30516" lon="5.6525">
        <ele>565.7</ele>
        <time>2014-01-22T12:50:02Z</time>
      </trkpt>
      <trkpt lat="43.30514" lon="5.65244">
        <ele>566.2</ele>
        <time>2014-01-22T12:50:06Z</time>
      </trkpt>
      <trkpt lat="43.30513" lon="5.6524">
        <ele>565.7</ele>
        <time>2014-01-22T12:50:10Z</time>
      </trkpt>
      <trkpt lat="43.30512" lon="5.65235">
        <ele>565</ele>
        <time>2014-01-22T12:50:13Z</time>
      </trkpt>
      <trkpt lat="43.30511" lon="5.65231">
        <ele>563.7</ele>
        <time>2014-01-22T12:50:16Z</time>
      </trkpt>
      <trkpt lat="43.3051" lon="5.65229">
        <ele>563.5</ele>
        <time>2014-01-22T12:50:17Z</time>
      </trkpt>
      <trkpt lat="43.3051" lon="5.65221">
        <ele>562</ele>
        <time>2014-01-22T12:50:22Z</time>
      </trkpt>
      <trkpt lat="43.30511" lon="5.65217">
        <ele>561.7</ele>
        <time>2014-01-22T12:50:25Z</time>
      </trkpt>
      <trkpt lat="43.30512" lon="5.65212">
        <ele>563</ele>
        <time>2014-01-22T12:50:28Z</time>
      </trkpt>
      <trkpt lat="43.30512" lon="5.65206">
        <ele>562.7</ele>
        <time>2014-01-22T12:50:32Z</time>
      </trkpt>
      <trkpt lat="43.3051" lon="5.65201">
        <ele>562.4</ele>
        <time>2014-01-22T12:50:35Z</time>
      </trkpt>
      <trkpt lat="43.30509" lon="5.65198">
        <ele>562</ele>
        <time>2014-01-22T12:50:37Z</time>
      </trkpt>
      <trkpt lat="43.30506" lon="5.65193">
        <ele>561.5</ele>
        <time>2014-01-22T12:50:40Z</time>
      </trkpt>
      <trkpt lat="43.30503" lon="5.65189">
        <ele>561.2</ele>
        <time>2014-01-22T12:50:43Z</time>
      </trkpt>
      <trkpt lat="43.30501" lon="5.65186">
        <ele>561</ele>
        <time>2014-01-22T12:50:45Z</time>
      </trkpt>
      <trkpt lat="43.30498" lon="5.65182">
        <ele>560.7</ele>
        <time>2014-01-22T12:50:48Z</time>
      </trkpt>
      <trkpt lat="43.30494" lon="5.65179">
        <ele>560.7</ele>
        <time>2014-01-22T12:50:53Z</time>
      </trkpt>
      <trkpt lat="43.30491" lon="5.65175">
        <ele>561</ele>
        <time>2014-01-22T12:50:58Z</time>
      </trkpt>
      <trkpt lat="43.30488" lon="5.6517">
        <ele>560.5</ele>
        <time>2014-01-22T12:51:02Z</time>
      </trkpt>
      <trkpt lat="43.30488" lon="5.65165">
        <ele>560.7</ele>
        <time>2014-01-22T12:51:07Z</time>
      </trkpt>
      <trkpt lat="43.3049" lon="5.6516">
        <ele>561.5</ele>
        <time>2014-01-22T12:51:10Z</time>
      </trkpt>
      <trkpt lat="43.30492" lon="5.65155">
        <ele>563</ele>
        <time>2014-01-22T12:51:13Z</time>
      </trkpt>
      <trkpt lat="43.30495" lon="5.65151">
        <ele>562.5</ele>
        <time>2014-01-22T12:51:17Z</time>
      </trkpt>
      <trkpt lat="43.30495" lon="5.6515">
        <ele>561.5</ele>
        <time>2014-01-22T12:51:18Z</time>
      </trkpt>
      <trkpt lat="43.30501" lon="5.65146">
        <ele>558</ele>
        <time>2014-01-22T12:51:26Z</time>
      </trkpt>
      <trkpt lat="43.30505" lon="5.65144">
        <ele>556</ele>
        <time>2014-01-22T12:51:31Z</time>
      </trkpt>
      <trkpt lat="43.30509" lon="5.65142">
        <ele>555.2</ele>
        <time>2014-01-22T12:51:35Z</time>
      </trkpt>
      <trkpt lat="43.30514" lon="5.6514">
        <ele>554.2</ele>
        <time>2014-01-22T12:51:39Z</time>
      </trkpt>
      <trkpt lat="43.30517" lon="5.65138">
        <ele>553.2</ele>
        <time>2014-01-22T12:51:43Z</time>
      </trkpt>
      <trkpt lat="43.30522" lon="5.65137">
        <ele>552.7</ele>
        <time>2014-01-22T12:51:47Z</time>
      </trkpt>
      <trkpt lat="43.30526" lon="5.65135">
        <ele>552.4</ele>
        <time>2014-01-22T12:51:51Z</time>
      </trkpt>
      <trkpt lat="43.30529" lon="5.65134">
        <ele>552.2</ele>
        <time>2014-01-22T12:51:54Z</time>
      </trkpt>
      <trkpt lat="43.30533" lon="5.65132">
        <ele>552</ele>
        <time>2014-01-22T12:51:57Z</time>
      </trkpt>
      <trkpt lat="43.30536" lon="5.65129">
        <ele>551.5</ele>
        <time>2014-01-22T12:52:00Z</time>
      </trkpt>
      <trkpt lat="43.30537" lon="5.65124">
        <ele>552.2</ele>
        <time>2014-01-22T12:52:03Z</time>
      </trkpt>
      <trkpt lat="43.3054" lon="5.65121">
        <ele>553.7</ele>
        <time>2014-01-22T12:52:05Z</time>
      </trkpt>
      <trkpt lat="43.30541" lon="5.65116">
        <ele>554.2</ele>
        <time>2014-01-22T12:52:08Z</time>
      </trkpt>
      <trkpt lat="43.3054" lon="5.65111">
        <ele>554.4</ele>
        <time>2014-01-22T12:52:11Z</time>
      </trkpt>
      <trkpt lat="43.30538" lon="5.65106">
        <ele>553.9</ele>
        <time>2014-01-22T12:52:15Z</time>
      </trkpt>
      <trkpt lat="43.30535" lon="5.65102">
        <ele>553.7</ele>
        <time>2014-01-22T12:52:18Z</time>
      </trkpt>
      <trkpt lat="43.30535" lon="5.65101">
        <ele>553.5</ele>
        <time>2014-01-22T12:52:19Z</time>
      </trkpt>
      <trkpt lat="43.30531" lon="5.65095">
        <ele>553.2</ele>
        <time>2014-01-22T12:52:24Z</time>
      </trkpt>
      <trkpt lat="43.30528" lon="5.65091">
        <ele>553.2</ele>
        <time>2014-01-22T12:52:27Z</time>
      </trkpt>
      <trkpt lat="43.30525" lon="5.65087">
        <ele>552.7</ele>
        <time>2014-01-22T12:52:30Z</time>
      </trkpt>
      <trkpt lat="43.30523" lon="5.65083">
        <ele>552.2</ele>
        <time>2014-01-22T12:52:33Z</time>
      </trkpt>
      <trkpt lat="43.3052" lon="5.65079">
        <ele>551.5</ele>
        <time>2014-01-22T12:52:36Z</time>
      </trkpt>
      <trkpt lat="43.30519" lon="5.65074">
        <ele>551</ele>
        <time>2014-01-22T12:52:39Z</time>
      </trkpt>
      <trkpt lat="43.30517" lon="5.65069">
        <ele>550.5</ele>
        <time>2014-01-22T12:52:43Z</time>
      </trkpt>
      <trkpt lat="43.30515" lon="5.65063">
        <ele>550.2</ele>
        <time>2014-01-22T12:52:47Z</time>
      </trkpt>
      <trkpt lat="43.30514" lon="5.65058">
        <ele>549.7</ele>
        <time>2014-01-22T12:52:51Z</time>
      </trkpt>
      <trkpt lat="43.30512" lon="5.65054">
        <ele>548</ele>
        <time>2014-01-22T12:52:54Z</time>
      </trkpt>
      <trkpt lat="43.30511" lon="5.65049">
        <ele>547.5</ele>
        <time>2014-01-22T12:52:57Z</time>
      </trkpt>
      <trkpt lat="43.3051" lon="5.65044">
        <ele>547.5</ele>
        <time>2014-01-22T12:53:00Z</time>
      </trkpt>
      <trkpt lat="43.30508" lon="5.65039">
        <ele>544.5</ele>
        <time>2014-01-22T12:53:04Z</time>
      </trkpt>
      <trkpt lat="43.30506" lon="5.65034">
        <ele>542</ele>
        <time>2014-01-22T12:53:08Z</time>
      </trkpt>
      <trkpt lat="43.30507" lon="5.65029">
        <ele>542.5</ele>
        <time>2014-01-22T12:53:11Z</time>
      </trkpt>
      <trkpt lat="43.30508" lon="5.65024">
        <ele>543.9</ele>
        <time>2014-01-22T12:53:14Z</time>
      </trkpt>
      <trkpt lat="43.30509" lon="5.65018">
        <ele>543.7</ele>
        <time>2014-01-22T12:53:18Z</time>
      </trkpt>
      <trkpt lat="43.30508" lon="5.65014">
        <ele>542.5</ele>
        <time>2014-01-22T12:53:21Z</time>
      </trkpt>
      <trkpt lat="43.30508" lon="5.65012">
        <ele>542.5</ele>
        <time>2014-01-22T12:53:22Z</time>
      </trkpt>
      <trkpt lat="43.30508" lon="5.65004">
        <ele>542.9</ele>
        <time>2014-01-22T12:53:27Z</time>
      </trkpt>
      <trkpt lat="43.30506" lon="5.65001">
        <ele>540.9</ele>
        <time>2014-01-22T12:53:29Z</time>
      </trkpt>
      <trkpt lat="43.30505" lon="5.64996">
        <ele>540.9</ele>
        <time>2014-01-22T12:53:32Z</time>
      </trkpt>
      <trkpt lat="43.30505" lon="5.64991">
        <ele>542.5</ele>
        <time>2014-01-22T12:53:35Z</time>
      </trkpt>
      <trkpt lat="43.30504" lon="5.64985">
        <ele>541.7</ele>
        <time>2014-01-22T12:53:39Z</time>
      </trkpt>
      <trkpt lat="43.30504" lon="5.64981">
        <ele>540.7</ele>
        <time>2014-01-22T12:53:42Z</time>
      </trkpt>
      <trkpt lat="43.30505" lon="5.64975">
        <ele>542.5</ele>
        <time>2014-01-22T12:53:45Z</time>
      </trkpt>
      <trkpt lat="43.30504" lon="5.64969">
        <ele>541</ele>
        <time>2014-01-22T12:53:49Z</time>
      </trkpt>
      <trkpt lat="43.30504" lon="5.64964">
        <ele>541.5</ele>
        <time>2014-01-22T12:53:52Z</time>
      </trkpt>
      <trkpt lat="43.30505" lon="5.6496">
        <ele>541.7</ele>
        <time>2014-01-22T12:53:55Z</time>
      </trkpt>
      <trkpt lat="43.30507" lon="5.64955">
        <ele>542.5</ele>
        <time>2014-01-22T12:53:58Z</time>
      </trkpt>
      <trkpt lat="43.30508" lon="5.64949">
        <ele>542</ele>
        <time>2014-01-22T12:54:02Z</time>
      </trkpt>
      <trkpt lat="43.3051" lon="5.64944">
        <ele>540.4</ele>
        <time>2014-01-22T12:54:06Z</time>
      </trkpt>
      <trkpt lat="43.30512" lon="5.64939">
        <ele>539</ele>
        <time>2014-01-22T12:54:10Z</time>
      </trkpt>
      <trkpt lat="43.30513" lon="5.64934">
        <ele>537.7</ele>
        <time>2014-01-22T12:54:14Z</time>
      </trkpt>
      <trkpt lat="43.30516" lon="5.6493">
        <ele>536.5</ele>
        <time>2014-01-22T12:54:18Z</time>
      </trkpt>
      <trkpt lat="43.30519" lon="5.64928">
        <ele>536.7</ele>
        <time>2014-01-22T12:54:21Z</time>
      </trkpt>
      <trkpt lat="43.30522" lon="5.64927">
        <ele>537.5</ele>
        <time>2014-01-22T12:54:23Z</time>
      </trkpt>
      <trkpt lat="43.30524" lon="5.64927">
        <ele>538.2</ele>
        <time>2014-01-22T12:54:24Z</time>
      </trkpt>
      <trkpt lat="43.3053" lon="5.64925">
        <ele>538.2</ele>
        <time>2014-01-22T12:54:30Z</time>
      </trkpt>
      <trkpt lat="43.30535" lon="5.64924">
        <ele>538</ele>
        <time>2014-01-22T12:54:34Z</time>
      </trkpt>
      <trkpt lat="43.30539" lon="5.64924">
        <ele>537.7</ele>
        <time>2014-01-22T12:54:38Z</time>
      </trkpt>
      <trkpt lat="43.30543" lon="5.64924">
        <ele>537.5</ele>
        <time>2014-01-22T12:54:41Z</time>
      </trkpt>
      <trkpt lat="43.30546" lon="5.64924">
        <ele>537.2</ele>
        <time>2014-01-22T12:54:44Z</time>
      </trkpt>
      <trkpt lat="43.3055" lon="5.64923">
        <ele>537</ele>
        <time>2014-01-22T12:54:47Z</time>
      </trkpt>
      <trkpt lat="43.30553" lon="5.64923">
        <ele>536.7</ele>
        <time>2014-01-22T12:54:50Z</time>
      </trkpt>
      <trkpt lat="43.30556" lon="5.64923">
        <ele>536.2</ele>
        <time>2014-01-22T12:54:53Z</time>
      </trkpt>
      <trkpt lat="43.3056" lon="5.64923">
        <ele>535.9</ele>
        <time>2014-01-22T12:54:56Z</time>
      </trkpt>
      <trkpt lat="43.30563" lon="5.64923">
        <ele>535.5</ele>
        <time>2014-01-22T12:54:59Z</time>
      </trkpt>
      <trkpt lat="43.30567" lon="5.64922">
        <ele>535.2</ele>
        <time>2014-01-22T12:55:02Z</time>
      </trkpt>
      <trkpt lat="43.3057" lon="5.64922">
        <ele>534.9</ele>
        <time>2014-01-22T12:55:05Z</time>
      </trkpt>
      <trkpt lat="43.30574" lon="5.64921">
        <ele>534.7</ele>
        <time>2014-01-22T12:55:09Z</time>
      </trkpt>
      <trkpt lat="43.30578" lon="5.64919">
        <ele>534.2</ele>
        <time>2014-01-22T12:55:13Z</time>
      </trkpt>
      <trkpt lat="43.30582" lon="5.64916">
        <ele>533.9</ele>
        <time>2014-01-22T12:55:17Z</time>
      </trkpt>
      <trkpt lat="43.30585" lon="5.64913">
        <ele>533.5</ele>
        <time>2014-01-22T12:55:21Z</time>
      </trkpt>
      <trkpt lat="43.30588" lon="5.64908">
        <ele>532.7</ele>
        <time>2014-01-22T12:55:25Z</time>
      </trkpt>
      <trkpt lat="43.30589" lon="5.64907">
        <ele>532.5</ele>
        <time>2014-01-22T12:55:26Z</time>
      </trkpt>
      <trkpt lat="43.30592" lon="5.64898">
        <ele>531.5</ele>
        <time>2014-01-22T12:55:33Z</time>
      </trkpt>
      <trkpt lat="43.30593" lon="5.64892">
        <ele>530.9</ele>
        <time>2014-01-22T12:55:37Z</time>
      </trkpt>
      <trkpt lat="43.30592" lon="5.64886">
        <ele>530</ele>
        <time>2014-01-22T12:55:41Z</time>
      </trkpt>
      <trkpt lat="43.30591" lon="5.64881">
        <ele>529.9</ele>
        <time>2014-01-22T12:55:44Z</time>
      </trkpt>
      <trkpt lat="43.30591" lon="5.64877">
        <ele>529.5</ele>
        <time>2014-01-22T12:55:47Z</time>
      </trkpt>
      <trkpt lat="43.30589" lon="5.64871">
        <ele>529.2</ele>
        <time>2014-01-22T12:55:51Z</time>
      </trkpt>
      <trkpt lat="43.30587" lon="5.64866">
        <ele>528.7</ele>
        <time>2014-01-22T12:55:55Z</time>
      </trkpt>
      <trkpt lat="43.30584" lon="5.64861">
        <ele>528.4</ele>
        <time>2014-01-22T12:55:59Z</time>
      </trkpt>
      <trkpt lat="43.30582" lon="5.64858">
        <ele>528</ele>
        <time>2014-01-22T12:56:02Z</time>
      </trkpt>
      <trkpt lat="43.30579" lon="5.64854">
        <ele>527.7</ele>
        <time>2014-01-22T12:56:05Z</time>
      </trkpt>
      <trkpt lat="43.30576" lon="5.6485">
        <ele>527.2</ele>
        <time>2014-01-22T12:56:09Z</time>
      </trkpt>
      <trkpt lat="43.30573" lon="5.64847">
        <ele>527</ele>
        <time>2014-01-22T12:56:12Z</time>
      </trkpt>
      <trkpt lat="43.30571" lon="5.64843">
        <ele>526.7</ele>
        <time>2014-01-22T12:56:15Z</time>
      </trkpt>
      <trkpt lat="43.30569" lon="5.6484">
        <ele>526.4</ele>
        <time>2014-01-22T12:56:18Z</time>
      </trkpt>
      <trkpt lat="43.30567" lon="5.64836">
        <ele>526</ele>
        <time>2014-01-22T12:56:21Z</time>
      </trkpt>
      <trkpt lat="43.30565" lon="5.64832">
        <ele>525.7</ele>
        <time>2014-01-22T12:56:24Z</time>
      </trkpt>
      <trkpt lat="43.30563" lon="5.64828">
        <ele>525.4</ele>
        <time>2014-01-22T12:56:27Z</time>
      </trkpt>
      <trkpt lat="43.30562" lon="5.64827">
        <ele>525.2</ele>
        <time>2014-01-22T12:56:28Z</time>
      </trkpt>
      <trkpt lat="43.30559" lon="5.64821">
        <ele>524.7</ele>
        <time>2014-01-22T12:56:33Z</time>
      </trkpt>
      <trkpt lat="43.30556" lon="5.64817">
        <ele>524.2</ele>
        <time>2014-01-22T12:56:36Z</time>
      </trkpt>
      <trkpt lat="43.30554" lon="5.64813">
        <ele>523.7</ele>
        <time>2014-01-22T12:56:40Z</time>
      </trkpt>
      <trkpt lat="43.30552" lon="5.64809">
        <ele>523.2</ele>
        <time>2014-01-22T12:56:43Z</time>
      </trkpt>
      <trkpt lat="43.30549" lon="5.64805">
        <ele>522.7</ele>
        <time>2014-01-22T12:56:46Z</time>
      </trkpt>
      <trkpt lat="43.30547" lon="5.64801">
        <ele>522.4</ele>
        <time>2014-01-22T12:56:49Z</time>
      </trkpt>
      <trkpt lat="43.30545" lon="5.64798">
        <ele>522</ele>
        <time>2014-01-22T12:56:52Z</time>
      </trkpt>
      <trkpt lat="43.30543" lon="5.64794">
        <ele>521.7</ele>
        <time>2014-01-22T12:56:55Z</time>
      </trkpt>
      <trkpt lat="43.3054" lon="5.6479">
        <ele>521.4</ele>
        <time>2014-01-22T12:56:59Z</time>
      </trkpt>
      <trkpt lat="43.30537" lon="5.64786">
        <ele>521</ele>
        <time>2014-01-22T12:57:02Z</time>
      </trkpt>
      <trkpt lat="43.30534" lon="5.64782">
        <ele>520.7</ele>
        <time>2014-01-22T12:57:06Z</time>
      </trkpt>
      <trkpt lat="43.30531" lon="5.64778">
        <ele>520.7</ele>
        <time>2014-01-22T12:57:09Z</time>
      </trkpt>
      <trkpt lat="43.30529" lon="5.64774">
        <ele>520.7</ele>
        <time>2014-01-22T12:57:12Z</time>
      </trkpt>
      <trkpt lat="43.30527" lon="5.6477">
        <ele>520.7</ele>
        <time>2014-01-22T12:57:15Z</time>
      </trkpt>
      <trkpt lat="43.30524" lon="5.64767">
        <ele>520.2</ele>
        <time>2014-01-22T12:57:18Z</time>
      </trkpt>
      <trkpt lat="43.30521" lon="5.64764">
        <ele>518.9</ele>
        <time>2014-01-22T12:57:21Z</time>
      </trkpt>
      <trkpt lat="43.30519" lon="5.6476">
        <ele>519</ele>
        <time>2014-01-22T12:57:25Z</time>
      </trkpt>
      <trkpt lat="43.30516" lon="5.64756">
        <ele>518.7</ele>
        <time>2014-01-22T12:57:28Z</time>
      </trkpt>
      <trkpt lat="43.30515" lon="5.64755">
        <ele>518.2</ele>
        <time>2014-01-22T12:57:29Z</time>
      </trkpt>
      <trkpt lat="43.30511" lon="5.64748">
        <ele>518.7</ele>
        <time>2014-01-22T12:57:34Z</time>
      </trkpt>
      <trkpt lat="43.30509" lon="5.64744">
        <ele>518.5</ele>
        <time>2014-01-22T12:57:37Z</time>
      </trkpt>
      <trkpt lat="43.30507" lon="5.6474">
        <ele>518.5</ele>
        <time>2014-01-22T12:57:40Z</time>
      </trkpt>
      <trkpt lat="43.30505" lon="5.64737">
        <ele>518.2</ele>
        <time>2014-01-22T12:57:42Z</time>
      </trkpt>
      <trkpt lat="43.30502" lon="5.64733">
        <ele>517.9</ele>
        <time>2014-01-22T12:57:45Z</time>
      </trkpt>
      <trkpt lat="43.30501" lon="5.64729">
        <ele>517.7</ele>
        <time>2014-01-22T12:57:47Z</time>
      </trkpt>
      <trkpt lat="43.30499" lon="5.64726">
        <ele>517.5</ele>
        <time>2014-01-22T12:57:49Z</time>
      </trkpt>
      <trkpt lat="43.30496" lon="5.64721">
        <ele>517.2</ele>
        <time>2014-01-22T12:57:52Z</time>
      </trkpt>
      <trkpt lat="43.30493" lon="5.64717">
        <ele>516.7</ele>
        <time>2014-01-22T12:57:56Z</time>
      </trkpt>
      <trkpt lat="43.30492" lon="5.64712">
        <ele>516.5</ele>
        <time>2014-01-22T12:58:01Z</time>
      </trkpt>
      <trkpt lat="43.30492" lon="5.64706">
        <ele>516.5</ele>
        <time>2014-01-22T12:58:06Z</time>
      </trkpt>
      <trkpt lat="43.30492" lon="5.647">
        <ele>515.5</ele>
        <time>2014-01-22T12:58:10Z</time>
      </trkpt>
      <trkpt lat="43.30493" lon="5.64696">
        <ele>515.2</ele>
        <time>2014-01-22T12:58:13Z</time>
      </trkpt>
      <trkpt lat="43.30494" lon="5.64691">
        <ele>515.5</ele>
        <time>2014-01-22T12:58:16Z</time>
      </trkpt>
      <trkpt lat="43.30495" lon="5.64686">
        <ele>515.2</ele>
        <time>2014-01-22T12:58:19Z</time>
      </trkpt>
      <trkpt lat="43.30496" lon="5.64682">
        <ele>514.7</ele>
        <time>2014-01-22T12:58:22Z</time>
      </trkpt>
      <trkpt lat="43.30497" lon="5.64677">
        <ele>514</ele>
        <time>2014-01-22T12:58:25Z</time>
      </trkpt>
      <trkpt lat="43.30498" lon="5.64673">
        <ele>513.7</ele>
        <time>2014-01-22T12:58:28Z</time>
      </trkpt>
      <trkpt lat="43.30499" lon="5.64668">
        <ele>513.7</ele>
        <time>2014-01-22T12:58:31Z</time>
      </trkpt>
      <trkpt lat="43.305" lon="5.64667">
        <ele>514.5</ele>
        <time>2014-01-22T12:58:32Z</time>
      </trkpt>
      <trkpt lat="43.30502" lon="5.64659">
        <ele>514.5</ele>
        <time>2014-01-22T12:58:37Z</time>
      </trkpt>
      <trkpt lat="43.30503" lon="5.64655">
        <ele>514.7</ele>
        <time>2014-01-22T12:58:40Z</time>
      </trkpt>
      <trkpt lat="43.30504" lon="5.64649">
        <ele>514.9</ele>
        <time>2014-01-22T12:58:44Z</time>
      </trkpt>
      <trkpt lat="43.30503" lon="5.64644">
        <ele>514.9</ele>
        <time>2014-01-22T12:58:47Z</time>
      </trkpt>
      <trkpt lat="43.30501" lon="5.64639">
        <ele>514.7</ele>
        <time>2014-01-22T12:58:51Z</time>
      </trkpt>
      <trkpt lat="43.30499" lon="5.64636">
        <ele>514.7</ele>
        <time>2014-01-22T12:58:54Z</time>
      </trkpt>
      <trkpt lat="43.30496" lon="5.64633">
        <ele>514.7</ele>
        <time>2014-01-22T12:58:57Z</time>
      </trkpt>
      <trkpt lat="43.30493" lon="5.64631">
        <ele>514.9</ele>
        <time>2014-01-22T12:59:00Z</time>
      </trkpt>
      <trkpt lat="43.3049" lon="5.64629">
        <ele>515</ele>
        <time>2014-01-22T12:59:03Z</time>
      </trkpt>
      <trkpt lat="43.30487" lon="5.64626">
        <ele>514.7</ele>
        <time>2014-01-22T12:59:06Z</time>
      </trkpt>
      <trkpt lat="43.30483" lon="5.64624">
        <ele>514.5</ele>
        <time>2014-01-22T12:59:09Z</time>
      </trkpt>
      <trkpt lat="43.3048" lon="5.64621">
        <ele>514.2</ele>
        <time>2014-01-22T12:59:12Z</time>
      </trkpt>
      <trkpt lat="43.30477" lon="5.64619">
        <ele>514</ele>
        <time>2014-01-22T12:59:15Z</time>
      </trkpt>
      <trkpt lat="43.30473" lon="5.64616">
        <ele>513.9</ele>
        <time>2014-01-22T12:59:18Z</time>
      </trkpt>
      <trkpt lat="43.3047" lon="5.64613">
        <ele>513.9</ele>
        <time>2014-01-22T12:59:21Z</time>
      </trkpt>
      <trkpt lat="43.30466" lon="5.64611">
        <ele>514</ele>
        <time>2014-01-22T12:59:25Z</time>
      </trkpt>
      <trkpt lat="43.30462" lon="5.64612">
        <ele>514.4</ele>
        <time>2014-01-22T12:59:28Z</time>
      </trkpt>
      <trkpt lat="43.30458" lon="5.64613">
        <ele>514.4</ele>
        <time>2014-01-22T12:59:32Z</time>
      </trkpt>
      <trkpt lat="43.30454" lon="5.64615">
        <ele>514</ele>
        <time>2014-01-22T12:59:36Z</time>
      </trkpt>
      <trkpt lat="43.30453" lon="5.64615">
        <ele>513.9</ele>
        <time>2014-01-22T12:59:37Z</time>
      </trkpt>
      <trkpt lat="43.30446" lon="5.64618">
        <ele>512.9</ele>
        <time>2014-01-22T12:59:44Z</time>
      </trkpt>
      <trkpt lat="43.30442" lon="5.64618">
        <ele>512.2</ele>
        <time>2014-01-22T12:59:47Z</time>
      </trkpt>
      <trkpt lat="43.30438" lon="5.64617">
        <ele>512.2</ele>
        <time>2014-01-22T12:59:51Z</time>
      </trkpt>
      <trkpt lat="43.30435" lon="5.64615">
        <ele>512.7</ele>
        <time>2014-01-22T12:59:56Z</time>
      </trkpt>
      <trkpt lat="43.30432" lon="5.64611">
        <ele>513</ele>
        <time>2014-01-22T13:00:00Z</time>
      </trkpt>
      <trkpt lat="43.3043" lon="5.64607">
        <ele>512.7</ele>
        <time>2014-01-22T13:00:03Z</time>
      </trkpt>
      <trkpt lat="43.30429" lon="5.64602">
        <ele>512.7</ele>
        <time>2014-01-22T13:00:06Z</time>
      </trkpt>
      <trkpt lat="43.30428" lon="5.64596">
        <ele>512.5</ele>
        <time>2014-01-22T13:00:10Z</time>
      </trkpt>
      <trkpt lat="43.30427" lon="5.64592">
        <ele>512.5</ele>
        <time>2014-01-22T13:00:13Z</time>
      </trkpt>
      <trkpt lat="43.30425" lon="5.64586">
        <ele>511.8</ele>
        <time>2014-01-22T13:00:16Z</time>
      </trkpt>
      <trkpt lat="43.30424" lon="5.64582">
        <ele>511.3</ele>
        <time>2014-01-22T13:00:19Z</time>
      </trkpt>
      <trkpt lat="43.30423" lon="5.64576">
        <ele>511.2</ele>
        <time>2014-01-22T13:00:23Z</time>
      </trkpt>
      <trkpt lat="43.30423" lon="5.6457">
        <ele>511.3</ele>
        <time>2014-01-22T13:00:27Z</time>
      </trkpt>
      <trkpt lat="43.30423" lon="5.64565">
        <ele>512</ele>
        <time>2014-01-22T13:00:31Z</time>
      </trkpt>
      <trkpt lat="43.30423" lon="5.6456">
        <ele>512.4</ele>
        <time>2014-01-22T13:00:34Z</time>
      </trkpt>
      <trkpt lat="43.30423" lon="5.64555">
        <ele>512.5</ele>
        <time>2014-01-22T13:00:37Z</time>
      </trkpt>
      <trkpt lat="43.30423" lon="5.64554">
        <ele>512.4</ele>
        <time>2014-01-22T13:00:38Z</time>
      </trkpt>
      <trkpt lat="43.30422" lon="5.64545">
        <ele>511.7</ele>
        <time>2014-01-22T13:00:44Z</time>
      </trkpt>
      <trkpt lat="43.30422" lon="5.64539">
        <ele>511.6</ele>
        <time>2014-01-22T13:00:48Z</time>
      </trkpt>
      <trkpt lat="43.30424" lon="5.64533">
        <ele>510.6</ele>
        <time>2014-01-22T13:00:52Z</time>
      </trkpt>
      <trkpt lat="43.30425" lon="5.64529">
        <ele>508.7</ele>
        <time>2014-01-22T13:00:56Z</time>
      </trkpt>
      <trkpt lat="43.30427" lon="5.64524">
        <ele>508.2</ele>
        <time>2014-01-22T13:01:00Z</time>
      </trkpt>
      <trkpt lat="43.30429" lon="5.64519">
        <ele>507.3</ele>
        <time>2014-01-22T13:01:04Z</time>
      </trkpt>
      <trkpt lat="43.30431" lon="5.64514">
        <ele>507</ele>
        <time>2014-01-22T13:01:08Z</time>
      </trkpt>
      <trkpt lat="43.30434" lon="5.6451">
        <ele>506.8</ele>
        <time>2014-01-22T13:01:12Z</time>
      </trkpt>
      <trkpt lat="43.30437" lon="5.64506">
        <ele>506.8</ele>
        <time>2014-01-22T13:01:16Z</time>
      </trkpt>
      <trkpt lat="43.3044" lon="5.64502">
        <ele>507.2</ele>
        <time>2014-01-22T13:01:19Z</time>
      </trkpt>
      <trkpt lat="43.30443" lon="5.645">
        <ele>506.3</ele>
        <time>2014-01-22T13:01:22Z</time>
      </trkpt>
      <trkpt lat="43.30446" lon="5.64497">
        <ele>507.1</ele>
        <time>2014-01-22T13:01:25Z</time>
      </trkpt>
      <trkpt lat="43.3045" lon="5.64494">
        <ele>507.2</ele>
        <time>2014-01-22T13:01:29Z</time>
      </trkpt>
      <trkpt lat="43.30453" lon="5.6449">
        <ele>507.2</ele>
        <time>2014-01-22T13:01:33Z</time>
      </trkpt>
      <trkpt lat="43.30456" lon="5.64486">
        <ele>513</ele>
        <time>2014-01-22T13:02:59Z</time>
      </trkpt>
      <trkpt lat="43.30456" lon="5.64486">
        <ele>513.4</ele>
        <time>2014-01-22T13:03:00Z</time>
      </trkpt>
      <trkpt lat="43.3046" lon="5.64482">
        <ele>512</ele>
        <time>2014-01-22T13:04:52Z</time>
      </trkpt>
      <trkpt lat="43.30462" lon="5.64473">
        <ele>509.7</ele>
        <time>2014-01-22T13:05:00Z</time>
      </trkpt>
      <trkpt lat="43.30464" lon="5.64468">
        <ele>508.7</ele>
        <time>2014-01-22T13:05:04Z</time>
      </trkpt>
      <trkpt lat="43.30465" lon="5.64463">
        <ele>508.1</ele>
        <time>2014-01-22T13:05:08Z</time>
      </trkpt>
      <trkpt lat="43.30466" lon="5.64457">
        <ele>507.2</ele>
        <time>2014-01-22T13:05:12Z</time>
      </trkpt>
      <trkpt lat="43.30466" lon="5.64451">
        <ele>506.5</ele>
        <time>2014-01-22T13:05:16Z</time>
      </trkpt>
      <trkpt lat="43.30466" lon="5.64445">
        <ele>505.6</ele>
        <time>2014-01-22T13:05:20Z</time>
      </trkpt>
      <trkpt lat="43.30464" lon="5.64439">
        <ele>504.7</ele>
        <time>2014-01-22T13:05:24Z</time>
      </trkpt>
      <trkpt lat="43.30463" lon="5.64435">
        <ele>504</ele>
        <time>2014-01-22T13:05:27Z</time>
      </trkpt>
      <trkpt lat="43.30462" lon="5.64431">
        <ele>503.5</ele>
        <time>2014-01-22T13:05:30Z</time>
      </trkpt>
      <trkpt lat="43.30461" lon="5.64426">
        <ele>503</ele>
        <time>2014-01-22T13:05:33Z</time>
      </trkpt>
      <trkpt lat="43.30459" lon="5.64421">
        <ele>502.6</ele>
        <time>2014-01-22T13:05:37Z</time>
      </trkpt>
      <trkpt lat="43.30456" lon="5.64416">
        <ele>502.2</ele>
        <time>2014-01-22T13:05:41Z</time>
      </trkpt>
      <trkpt lat="43.30453" lon="5.64412">
        <ele>502.2</ele>
        <time>2014-01-22T13:05:45Z</time>
      </trkpt>
      <trkpt lat="43.30451" lon="5.64409">
        <ele>502.2</ele>
        <time>2014-01-22T13:05:48Z</time>
      </trkpt>
      <trkpt lat="43.30448" lon="5.64405">
        <ele>501.7</ele>
        <time>2014-01-22T13:05:51Z</time>
      </trkpt>
      <trkpt lat="43.30446" lon="5.64402">
        <ele>501.5</ele>
        <time>2014-01-22T13:05:54Z</time>
      </trkpt>
      <trkpt lat="43.30445" lon="5.64401">
        <ele>501.5</ele>
        <time>2014-01-22T13:05:55Z</time>
      </trkpt>
      <trkpt lat="43.30441" lon="5.64392">
        <ele>500.6</ele>
        <time>2014-01-22T13:06:02Z</time>
      </trkpt>
      <trkpt lat="43.30439" lon="5.64387">
        <ele>500</ele>
        <time>2014-01-22T13:06:06Z</time>
      </trkpt>
      <trkpt lat="43.30437" lon="5.64382">
        <ele>499.6</ele>
        <time>2014-01-22T13:06:09Z</time>
      </trkpt>
      <trkpt lat="43.30435" lon="5.64377">
        <ele>499.2</ele>
        <time>2014-01-22T13:06:13Z</time>
      </trkpt>
      <trkpt lat="43.30433" lon="5.64372">
        <ele>498.8</ele>
        <time>2014-01-22T13:06:17Z</time>
      </trkpt>
      <trkpt lat="43.30432" lon="5.64366">
        <ele>498.3</ele>
        <time>2014-01-22T13:06:21Z</time>
      </trkpt>
      <trkpt lat="43.3043" lon="5.64362">
        <ele>498.1</ele>
        <time>2014-01-22T13:06:24Z</time>
      </trkpt>
      <trkpt lat="43.30428" lon="5.64357">
        <ele>497.6</ele>
        <time>2014-01-22T13:06:28Z</time>
      </trkpt>
      <trkpt lat="43.30426" lon="5.64352">
        <ele>497.2</ele>
        <time>2014-01-22T13:06:31Z</time>
      </trkpt>
      <trkpt lat="43.30424" lon="5.64348">
        <ele>496.6</ele>
        <time>2014-01-22T13:06:35Z</time>
      </trkpt>
      <trkpt lat="43.30422" lon="5.64343">
        <ele>495.8</ele>
        <time>2014-01-22T13:06:38Z</time>
      </trkpt>
      <trkpt lat="43.3042" lon="5.64339">
        <ele>495.5</ele>
        <time>2014-01-22T13:06:41Z</time>
      </trkpt>
      <trkpt lat="43.30418" lon="5.64335">
        <ele>495</ele>
        <time>2014-01-22T13:06:44Z</time>
      </trkpt>
      <trkpt lat="43.30416" lon="5.6433">
        <ele>494.2</ele>
        <time>2014-01-22T13:06:48Z</time>
      </trkpt>
      <trkpt lat="43.30414" lon="5.64325">
        <ele>494.2</ele>
        <time>2014-01-22T13:06:51Z</time>
      </trkpt>
      <trkpt lat="43.30411" lon="5.6432">
        <ele>493.6</ele>
        <time>2014-01-22T13:06:54Z</time>
      </trkpt>
      <trkpt lat="43.30408" lon="5.64316">
        <ele>492.8</ele>
        <time>2014-01-22T13:06:57Z</time>
      </trkpt>
      <trkpt lat="43.30408" lon="5.64315">
        <ele>492.7</ele>
        <time>2014-01-22T13:06:58Z</time>
      </trkpt>
      <trkpt lat="43.30403" lon="5.64308">
        <ele>492.2</ele>
        <time>2014-01-22T13:07:05Z</time>
      </trkpt>
      <trkpt lat="43.304" lon="5.64304">
        <ele>490.2</ele>
        <time>2014-01-22T13:07:08Z</time>
      </trkpt>
      <trkpt lat="43.304" lon="5.64299">
        <ele>488.1</ele>
        <time>2014-01-22T13:07:14Z</time>
      </trkpt>
      <trkpt lat="43.30404" lon="5.64297">
        <ele>488.1</ele>
        <time>2014-01-22T13:07:20Z</time>
      </trkpt>
      <trkpt lat="43.30408" lon="5.643">
        <ele>487.2</ele>
        <time>2014-01-22T13:07:24Z</time>
      </trkpt>
      <trkpt lat="43.3041" lon="5.64305">
        <ele>486.6</ele>
        <time>2014-01-22T13:07:28Z</time>
      </trkpt>
      <trkpt lat="43.30413" lon="5.64308">
        <ele>486.2</ele>
        <time>2014-01-22T13:07:31Z</time>
      </trkpt>
      <trkpt lat="43.30415" lon="5.64312">
        <ele>486.1</ele>
        <time>2014-01-22T13:07:34Z</time>
      </trkpt>
      <trkpt lat="43.30418" lon="5.64317">
        <ele>486.2</ele>
        <time>2014-01-22T13:07:38Z</time>
      </trkpt>
      <trkpt lat="43.30421" lon="5.64321">
        <ele>485.2</ele>
        <time>2014-01-22T13:07:41Z</time>
      </trkpt>
      <trkpt lat="43.30424" lon="5.64325">
        <ele>484.7</ele>
        <time>2014-01-22T13:07:45Z</time>
      </trkpt>
      <trkpt lat="43.30427" lon="5.64329">
        <ele>485</ele>
        <time>2014-01-22T13:07:49Z</time>
      </trkpt>
      <trkpt lat="43.3043" lon="5.64332">
        <ele>484.6</ele>
        <time>2014-01-22T13:07:52Z</time>
      </trkpt>
      <trkpt lat="43.30433" lon="5.64334">
        <ele>484.5</ele>
        <time>2014-01-22T13:07:55Z</time>
      </trkpt>
      <trkpt lat="43.30436" lon="5.64336">
        <ele>484.3</ele>
        <time>2014-01-22T13:07:58Z</time>
      </trkpt>
      <trkpt lat="43.30437" lon="5.64337">
        <ele>484.3</ele>
        <time>2014-01-22T13:07:59Z</time>
      </trkpt>
      <trkpt lat="43.30444" lon="5.64342">
        <ele>484.8</ele>
        <time>2014-01-22T13:08:06Z</time>
      </trkpt>
      <trkpt lat="43.30447" lon="5.64344">
        <ele>485</ele>
        <time>2014-01-22T13:08:09Z</time>
      </trkpt>
      <trkpt lat="43.3045" lon="5.64347">
        <ele>485.1</ele>
        <time>2014-01-22T13:08:13Z</time>
      </trkpt>
      <trkpt lat="43.30454" lon="5.64351">
        <ele>485.2</ele>
        <time>2014-01-22T13:08:17Z</time>
      </trkpt>
      <trkpt lat="43.30457" lon="5.64353">
        <ele>484.8</ele>
        <time>2014-01-22T13:08:20Z</time>
      </trkpt>
      <trkpt lat="43.30461" lon="5.64354">
        <ele>484.6</ele>
        <time>2014-01-22T13:08:23Z</time>
      </trkpt>
      <trkpt lat="43.30464" lon="5.64353">
        <ele>484</ele>
        <time>2014-01-22T13:08:26Z</time>
      </trkpt>
      <trkpt lat="43.30468" lon="5.64349">
        <ele>483</ele>
        <time>2014-01-22T13:08:30Z</time>
      </trkpt>
      <trkpt lat="43.30469" lon="5.64344">
        <ele>482.6</ele>
        <time>2014-01-22T13:08:34Z</time>
      </trkpt>
      <trkpt lat="43.30468" lon="5.64339">
        <ele>481.8</ele>
        <time>2014-01-22T13:08:38Z</time>
      </trkpt>
      <trkpt lat="43.30465" lon="5.64336">
        <ele>481.1</ele>
        <time>2014-01-22T13:08:42Z</time>
      </trkpt>
      <trkpt lat="43.30461" lon="5.64335">
        <ele>480.8</ele>
        <time>2014-01-22T13:08:45Z</time>
      </trkpt>
      <trkpt lat="43.30457" lon="5.64333">
        <ele>480.6</ele>
        <time>2014-01-22T13:08:49Z</time>
      </trkpt>
      <trkpt lat="43.30454" lon="5.6433">
        <ele>480.3</ele>
        <time>2014-01-22T13:08:52Z</time>
      </trkpt>
      <trkpt lat="43.30451" lon="5.64326">
        <ele>480.3</ele>
        <time>2014-01-22T13:08:56Z</time>
      </trkpt>
      <trkpt lat="43.30449" lon="5.64321">
        <ele>480.2</ele>
        <time>2014-01-22T13:09:00Z</time>
      </trkpt>
      <trkpt lat="43.30448" lon="5.6432">
        <ele>480.1</ele>
        <time>2014-01-22T13:09:01Z</time>
      </trkpt>
      <trkpt lat="43.30443" lon="5.64312">
        <ele>479.7</ele>
        <time>2014-01-22T13:09:08Z</time>
      </trkpt>
      <trkpt lat="43.30441" lon="5.64308">
        <ele>479.5</ele>
        <time>2014-01-22T13:09:11Z</time>
      </trkpt>
      <trkpt lat="43.30439" lon="5.64304">
        <ele>479.2</ele>
        <time>2014-01-22T13:09:14Z</time>
      </trkpt>
      <trkpt lat="43.30437" lon="5.64301">
        <ele>479.3</ele>
        <time>2014-01-22T13:09:17Z</time>
      </trkpt>
      <trkpt lat="43.30434" lon="5.64297">
        <ele>478.6</ele>
        <time>2014-01-22T13:09:20Z</time>
      </trkpt>
      <trkpt lat="43.30432" lon="5.64293">
        <ele>478</ele>
        <time>2014-01-22T13:09:23Z</time>
      </trkpt>
      <trkpt lat="43.30429" lon="5.64288">
        <ele>477.6</ele>
        <time>2014-01-22T13:09:27Z</time>
      </trkpt>
      <trkpt lat="43.30427" lon="5.64283">
        <ele>477.2</ele>
        <time>2014-01-22T13:09:30Z</time>
      </trkpt>
      <trkpt lat="43.30425" lon="5.64278">
        <ele>476.6</ele>
        <time>2014-01-22T13:09:34Z</time>
      </trkpt>
      <trkpt lat="43.30424" lon="5.64275">
        <ele>476.2</ele>
        <time>2014-01-22T13:09:37Z</time>
      </trkpt>
      <trkpt lat="43.30422" lon="5.6427">
        <ele>475.8</ele>
        <time>2014-01-22T13:09:41Z</time>
      </trkpt>
      <trkpt lat="43.3042" lon="5.64265">
        <ele>475.3</ele>
        <time>2014-01-22T13:09:45Z</time>
      </trkpt>
      <trkpt lat="43.30418" lon="5.6426">
        <ele>474.7</ele>
        <time>2014-01-22T13:09:49Z</time>
      </trkpt>
      <trkpt lat="43.30417" lon="5.64256">
        <ele>474.3</ele>
        <time>2014-01-22T13:09:52Z</time>
      </trkpt>
      <trkpt lat="43.30415" lon="5.64251">
        <ele>474.2</ele>
        <time>2014-01-22T13:09:55Z</time>
      </trkpt>
      <trkpt lat="43.30413" lon="5.64247">
        <ele>473.7</ele>
        <time>2014-01-22T13:09:58Z</time>
      </trkpt>
      <trkpt lat="43.30411" lon="5.64242">
        <ele>473.5</ele>
        <time>2014-01-22T13:10:02Z</time>
      </trkpt>
      <trkpt lat="43.30411" lon="5.64241">
        <ele>473.2</ele>
        <time>2014-01-22T13:10:03Z</time>
      </trkpt>
      <trkpt lat="43.30408" lon="5.64233">
        <ele>472.7</ele>
        <time>2014-01-22T13:10:08Z</time>
      </trkpt>
      <trkpt lat="43.30406" lon="5.64229">
        <ele>472.6</ele>
        <time>2014-01-22T13:10:12Z</time>
      </trkpt>
      <trkpt lat="43.30405" lon="5.64225">
        <ele>472.2</ele>
        <time>2014-01-22T13:10:15Z</time>
      </trkpt>
      <trkpt lat="43.30402" lon="5.6422">
        <ele>471.7</ele>
        <time>2014-01-22T13:10:19Z</time>
      </trkpt>
      <trkpt lat="43.304" lon="5.64216">
        <ele>471.2</ele>
        <time>2014-01-22T13:10:22Z</time>
      </trkpt>
      <trkpt lat="43.30398" lon="5.6421">
        <ele>470.7</ele>
        <time>2014-01-22T13:10:26Z</time>
      </trkpt>
      <trkpt lat="43.30397" lon="5.64206">
        <ele>470.2</ele>
        <time>2014-01-22T13:10:29Z</time>
      </trkpt>
      <trkpt lat="43.30395" lon="5.642">
        <ele>469.8</ele>
        <time>2014-01-22T13:10:33Z</time>
      </trkpt>
      <trkpt lat="43.30393" lon="5.64196">
        <ele>469.6</ele>
        <time>2014-01-22T13:10:36Z</time>
      </trkpt>
      <trkpt lat="43.30391" lon="5.64191">
        <ele>469.1</ele>
        <time>2014-01-22T13:10:40Z</time>
      </trkpt>
      <trkpt lat="43.30389" lon="5.64187">
        <ele>468.7</ele>
        <time>2014-01-22T13:10:43Z</time>
      </trkpt>
      <trkpt lat="43.30387" lon="5.64182">
        <ele>468.3</ele>
        <time>2014-01-22T13:10:46Z</time>
      </trkpt>
      <trkpt lat="43.30385" lon="5.64179">
        <ele>467.8</ele>
        <time>2014-01-22T13:10:50Z</time>
      </trkpt>
      <trkpt lat="43.30383" lon="5.64174">
        <ele>467.6</ele>
        <time>2014-01-22T13:10:53Z</time>
      </trkpt>
      <trkpt lat="43.30381" lon="5.6417">
        <ele>467.2</ele>
        <time>2014-01-22T13:10:56Z</time>
      </trkpt>
      <trkpt lat="43.30378" lon="5.64165">
        <ele>466.8</ele>
        <time>2014-01-22T13:11:00Z</time>
      </trkpt>
      <trkpt lat="43.30376" lon="5.6416">
        <ele>466.5</ele>
        <time>2014-01-22T13:11:04Z</time>
      </trkpt>
      <trkpt lat="43.30375" lon="5.64159">
        <ele>466.3</ele>
        <time>2014-01-22T13:11:05Z</time>
      </trkpt>
      <trkpt lat="43.30372" lon="5.64151">
        <ele>465.7</ele>
        <time>2014-01-22T13:11:12Z</time>
      </trkpt>
      <trkpt lat="43.30372" lon="5.64145">
        <ele>468.1</ele>
        <time>2014-01-22T13:11:26Z</time>
      </trkpt>
      <trkpt lat="43.3037" lon="5.64141">
        <ele>467.5</ele>
        <time>2014-01-22T13:11:31Z</time>
      </trkpt>
      <trkpt lat="43.30368" lon="5.64136">
        <ele>466.7</ele>
        <time>2014-01-22T13:11:35Z</time>
      </trkpt>
      <trkpt lat="43.30365" lon="5.64132">
        <ele>466</ele>
        <time>2014-01-22T13:11:39Z</time>
      </trkpt>
      <trkpt lat="43.30364" lon="5.64127">
        <ele>465.5</ele>
        <time>2014-01-22T13:11:42Z</time>
      </trkpt>
      <trkpt lat="43.30362" lon="5.64123">
        <ele>464.8</ele>
        <time>2014-01-22T13:11:46Z</time>
      </trkpt>
      <trkpt lat="43.3036" lon="5.64119">
        <ele>464.3</ele>
        <time>2014-01-22T13:11:49Z</time>
      </trkpt>
      <trkpt lat="43.30358" lon="5.64115">
        <ele>463.2</ele>
        <time>2014-01-22T13:11:52Z</time>
      </trkpt>
      <trkpt lat="43.30356" lon="5.6411">
        <ele>462.3</ele>
        <time>2014-01-22T13:11:55Z</time>
      </trkpt>
      <trkpt lat="43.30355" lon="5.64107">
        <ele>462</ele>
        <time>2014-01-22T13:11:57Z</time>
      </trkpt>
      <trkpt lat="43.30353" lon="5.64102">
        <ele>461.2</ele>
        <time>2014-01-22T13:12:00Z</time>
      </trkpt>
      <trkpt lat="43.30351" lon="5.64096">
        <ele>461</ele>
        <time>2014-01-22T13:12:03Z</time>
      </trkpt>
      <trkpt lat="43.3035" lon="5.64092">
        <ele>460.7</ele>
        <time>2014-01-22T13:12:06Z</time>
      </trkpt>
      <trkpt lat="43.3035" lon="5.6409">
        <ele>460.6</ele>
        <time>2014-01-22T13:12:07Z</time>
      </trkpt>
      <trkpt lat="43.30348" lon="5.64081">
        <ele>459.3</ele>
        <time>2014-01-22T13:12:14Z</time>
      </trkpt>
      <trkpt lat="43.30349" lon="5.64075">
        <ele>457.7</ele>
        <time>2014-01-22T13:12:23Z</time>
      </trkpt>
      <trkpt lat="43.30348" lon="5.6407">
        <ele>456.8</ele>
        <time>2014-01-22T13:12:27Z</time>
      </trkpt>
      <trkpt lat="43.30348" lon="5.64065">
        <ele>456.2</ele>
        <time>2014-01-22T13:12:31Z</time>
      </trkpt>
      <trkpt lat="43.30347" lon="5.64059">
        <ele>454.8</ele>
        <time>2014-01-22T13:12:35Z</time>
      </trkpt>
      <trkpt lat="43.30347" lon="5.64054">
        <ele>455.1</ele>
        <time>2014-01-22T13:12:38Z</time>
      </trkpt>
      <trkpt lat="43.30347" lon="5.6405">
        <ele>454.2</ele>
        <time>2014-01-22T13:12:41Z</time>
      </trkpt>
      <trkpt lat="43.30346" lon="5.64044">
        <ele>452.7</ele>
        <time>2014-01-22T13:12:45Z</time>
      </trkpt>
      <trkpt lat="43.30346" lon="5.64038">
        <ele>452.2</ele>
        <time>2014-01-22T13:12:49Z</time>
      </trkpt>
      <trkpt lat="43.30346" lon="5.64032">
        <ele>451.5</ele>
        <time>2014-01-22T13:12:53Z</time>
      </trkpt>
      <trkpt lat="43.30347" lon="5.64027">
        <ele>452.7</ele>
        <time>2014-01-22T13:12:56Z</time>
      </trkpt>
      <trkpt lat="43.30348" lon="5.64023">
        <ele>452.8</ele>
        <time>2014-01-22T13:12:59Z</time>
      </trkpt>
      <trkpt lat="43.3035" lon="5.64018">
        <ele>451.8</ele>
        <time>2014-01-22T13:13:09Z</time>
      </trkpt>
      <trkpt lat="43.3035" lon="5.64017">
        <ele>451.7</ele>
        <time>2014-01-22T13:13:10Z</time>
      </trkpt>
      <trkpt lat="43.30352" lon="5.64007">
        <ele>450.8</ele>
        <time>2014-01-22T13:13:17Z</time>
      </trkpt>
      <trkpt lat="43.30352" lon="5.64001">
        <ele>449.6</ele>
        <time>2014-01-22T13:13:21Z</time>
      </trkpt>
      <trkpt lat="43.30352" lon="5.63996">
        <ele>449.1</ele>
        <time>2014-01-22T13:13:25Z</time>
      </trkpt>
      <trkpt lat="43.30352" lon="5.6399">
        <ele>448.5</ele>
        <time>2014-01-22T13:13:29Z</time>
      </trkpt>
      <trkpt lat="43.30352" lon="5.63984">
        <ele>447.8</ele>
        <time>2014-01-22T13:13:33Z</time>
      </trkpt>
      <trkpt lat="43.30352" lon="5.63979">
        <ele>447.5</ele>
        <time>2014-01-22T13:13:36Z</time>
      </trkpt>
      <trkpt lat="43.30351" lon="5.63973">
        <ele>447.2</ele>
        <time>2014-01-22T13:13:39Z</time>
      </trkpt>
      <trkpt lat="43.3035" lon="5.63969">
        <ele>446.7</ele>
        <time>2014-01-22T13:13:42Z</time>
      </trkpt>
      <trkpt lat="43.30348" lon="5.63963">
        <ele>446.7</ele>
        <time>2014-01-22T13:13:46Z</time>
      </trkpt>
      <trkpt lat="43.30347" lon="5.63959">
        <ele>446.8</ele>
        <time>2014-01-22T13:13:49Z</time>
      </trkpt>
      <trkpt lat="43.30345" lon="5.63955">
        <ele>447.1</ele>
        <time>2014-01-22T13:13:52Z</time>
      </trkpt>
      <trkpt lat="43.30343" lon="5.6395">
        <ele>447.1</ele>
        <time>2014-01-22T13:13:55Z</time>
      </trkpt>
      <trkpt lat="43.30342" lon="5.63946">
        <ele>446.8</ele>
        <time>2014-01-22T13:13:58Z</time>
      </trkpt>
      <trkpt lat="43.3034" lon="5.63941">
        <ele>446.5</ele>
        <time>2014-01-22T13:14:02Z</time>
      </trkpt>
      <trkpt lat="43.30338" lon="5.63936">
        <ele>446.1</ele>
        <time>2014-01-22T13:14:05Z</time>
      </trkpt>
      <trkpt lat="43.30337" lon="5.63932">
        <ele>446.2</ele>
        <time>2014-01-22T13:14:09Z</time>
      </trkpt>
      <trkpt lat="43.30336" lon="5.63926">
        <ele>446.3</ele>
        <time>2014-01-22T13:14:13Z</time>
      </trkpt>
      <trkpt lat="43.30336" lon="5.63924">
        <ele>446.3</ele>
        <time>2014-01-22T13:14:14Z</time>
      </trkpt>
      <trkpt lat="43.30334" lon="5.63917">
        <ele>446.2</ele>
        <time>2014-01-22T13:14:19Z</time>
      </trkpt>
      <trkpt lat="43.30333" lon="5.63912">
        <ele>446.1</ele>
        <time>2014-01-22T13:14:22Z</time>
      </trkpt>
      <trkpt lat="43.30332" lon="5.63907">
        <ele>446</ele>
        <time>2014-01-22T13:14:25Z</time>
      </trkpt>
      <trkpt lat="43.30331" lon="5.63903">
        <ele>445.8</ele>
        <time>2014-01-22T13:14:28Z</time>
      </trkpt>
      <trkpt lat="43.3033" lon="5.63898">
        <ele>445.8</ele>
        <time>2014-01-22T13:14:31Z</time>
      </trkpt>
      <trkpt lat="43.30329" lon="5.63893">
        <ele>445.7</ele>
        <time>2014-01-22T13:14:35Z</time>
      </trkpt>
      <trkpt lat="43.30329" lon="5.63887">
        <ele>445.5</ele>
        <time>2014-01-22T13:14:39Z</time>
      </trkpt>
      <trkpt lat="43.30327" lon="5.63883">
        <ele>445.5</ele>
        <time>2014-01-22T13:14:43Z</time>
      </trkpt>
      <trkpt lat="43.30324" lon="5.6388">
        <ele>445.6</ele>
        <time>2014-01-22T13:14:47Z</time>
      </trkpt>
      <trkpt lat="43.30322" lon="5.63876">
        <ele>445.3</ele>
        <time>2014-01-22T13:14:51Z</time>
      </trkpt>
      <trkpt lat="43.30318" lon="5.63873">
        <ele>445.2</ele>
        <time>2014-01-22T13:15:04Z</time>
      </trkpt>
      <trkpt lat="43.30315" lon="5.6387">
        <ele>448.3</ele>
        <time>2014-01-22T13:15:26Z</time>
      </trkpt>
      <trkpt lat="43.30314" lon="5.6387">
        <ele>448.3</ele>
        <time>2014-01-22T13:15:27Z</time>
      </trkpt>
      <trkpt lat="43.30308" lon="5.6387">
        <ele>448.2</ele>
        <time>2014-01-22T13:15:34Z</time>
      </trkpt>
      <trkpt lat="43.30304" lon="5.63869">
        <ele>447.7</ele>
        <time>2014-01-22T13:15:38Z</time>
      </trkpt>
      <trkpt lat="43.30299" lon="5.63868">
        <ele>447.5</ele>
        <time>2014-01-22T13:15:43Z</time>
      </trkpt>
      <trkpt lat="43.30296" lon="5.63867">
        <ele>447.2</ele>
        <time>2014-01-22T13:15:47Z</time>
      </trkpt>
      <trkpt lat="43.30292" lon="5.63866">
        <ele>447.2</ele>
        <time>2014-01-22T13:15:51Z</time>
      </trkpt>
      <trkpt lat="43.30288" lon="5.63864">
        <ele>447.2</ele>
        <time>2014-01-22T13:15:55Z</time>
      </trkpt>
      <trkpt lat="43.30284" lon="5.63862">
        <ele>447.1</ele>
        <time>2014-01-22T13:16:00Z</time>
      </trkpt>
      <trkpt lat="43.3028" lon="5.6386">
        <ele>446.7</ele>
        <time>2014-01-22T13:16:04Z</time>
      </trkpt>
      <trkpt lat="43.30276" lon="5.63859">
        <ele>446.5</ele>
        <time>2014-01-22T13:16:08Z</time>
      </trkpt>
      <trkpt lat="43.30273" lon="5.63858">
        <ele>446.5</ele>
        <time>2014-01-22T13:16:12Z</time>
      </trkpt>
      <trkpt lat="43.30268" lon="5.63857">
        <ele>446.7</ele>
        <time>2014-01-22T13:16:16Z</time>
      </trkpt>
      <trkpt lat="43.30264" lon="5.63858">
        <ele>446.6</ele>
        <time>2014-01-22T13:16:20Z</time>
      </trkpt>
      <trkpt lat="43.3026" lon="5.63859">
        <ele>446.3</ele>
        <time>2014-01-22T13:16:24Z</time>
      </trkpt>
      <trkpt lat="43.30256" lon="5.63862">
        <ele>446.6</ele>
        <time>2014-01-22T13:16:28Z</time>
      </trkpt>
      <trkpt lat="43.30252" lon="5.63863">
        <ele>446.7</ele>
        <time>2014-01-22T13:16:31Z</time>
      </trkpt>
      <trkpt lat="43.30251" lon="5.63863">
        <ele>447</ele>
        <time>2014-01-22T13:16:32Z</time>
      </trkpt>
      <trkpt lat="43.30246" lon="5.63866">
        <ele>447.7</ele>
        <time>2014-01-22T13:16:37Z</time>
      </trkpt>
      <trkpt lat="43.30242" lon="5.63868">
        <ele>448.1</ele>
        <time>2014-01-22T13:16:40Z</time>
      </trkpt>
      <trkpt lat="43.30239" lon="5.6387">
        <ele>448.3</ele>
        <time>2014-01-22T13:16:43Z</time>
      </trkpt>
      <trkpt lat="43.30236" lon="5.63872">
        <ele>448.6</ele>
        <time>2014-01-22T13:16:46Z</time>
      </trkpt>
      <trkpt lat="43.30233" lon="5.63873">
        <ele>449.1</ele>
        <time>2014-01-22T13:16:49Z</time>
      </trkpt>
      <trkpt lat="43.30228" lon="5.63873">
        <ele>448.8</ele>
        <time>2014-01-22T13:16:53Z</time>
      </trkpt>
      <trkpt lat="43.30225" lon="5.63875">
        <ele>448.3</ele>
        <time>2014-01-22T13:16:57Z</time>
      </trkpt>
      <trkpt lat="43.30221" lon="5.63877">
        <ele>448.5</ele>
        <time>2014-01-22T13:17:00Z</time>
      </trkpt>
      <trkpt lat="43.30218" lon="5.6388">
        <ele>448.6</ele>
        <time>2014-01-22T13:17:03Z</time>
      </trkpt>
      <trkpt lat="43.30214" lon="5.6388">
        <ele>447.7</ele>
        <time>2014-01-22T13:17:07Z</time>
      </trkpt>
      <trkpt lat="43.30211" lon="5.6388">
        <ele>447</ele>
        <time>2014-01-22T13:17:10Z</time>
      </trkpt>
      <trkpt lat="43.30207" lon="5.6388">
        <ele>446.3</ele>
        <time>2014-01-22T13:17:13Z</time>
      </trkpt>
      <trkpt lat="43.30204" lon="5.6388">
        <ele>446</ele>
        <time>2014-01-22T13:17:16Z</time>
      </trkpt>
      <trkpt lat="43.302" lon="5.6388">
        <ele>445.2</ele>
        <time>2014-01-22T13:17:19Z</time>
      </trkpt>
      <trkpt lat="43.30196" lon="5.63879">
        <ele>444.5</ele>
        <time>2014-01-22T13:17:23Z</time>
      </trkpt>
      <trkpt lat="43.30192" lon="5.63876">
        <ele>443</ele>
        <time>2014-01-22T13:17:32Z</time>
      </trkpt>
      <trkpt lat="43.30189" lon="5.63874">
        <ele>442.2</ele>
        <time>2014-01-22T13:17:46Z</time>
      </trkpt>
      <trkpt lat="43.30188" lon="5.63874">
        <ele>442</ele>
        <time>2014-01-22T13:17:47Z</time>
      </trkpt>
      <trkpt lat="43.30182" lon="5.63875">
        <ele>440.5</ele>
        <time>2014-01-22T13:17:54Z</time>
      </trkpt>
      <trkpt lat="43.30177" lon="5.63876">
        <ele>439.5</ele>
        <time>2014-01-22T13:17:58Z</time>
      </trkpt>
      <trkpt lat="43.30173" lon="5.63876">
        <ele>439</ele>
        <time>2014-01-22T13:18:02Z</time>
      </trkpt>
      <trkpt lat="43.3017" lon="5.63876">
        <ele>438.5</ele>
        <time>2014-01-22T13:18:05Z</time>
      </trkpt>
      <trkpt lat="43.30167" lon="5.63876">
        <ele>438.2</ele>
        <time>2014-01-22T13:18:08Z</time>
      </trkpt>
      <trkpt lat="43.30162" lon="5.63876">
        <ele>438.2</ele>
        <time>2014-01-22T13:18:12Z</time>
      </trkpt>
      <trkpt lat="43.30159" lon="5.63875">
        <ele>438.3</ele>
        <time>2014-01-22T13:18:15Z</time>
      </trkpt>
      <trkpt lat="43.30155" lon="5.63875">
        <ele>438.5</ele>
        <time>2014-01-22T13:18:18Z</time>
      </trkpt>
      <trkpt lat="43.30152" lon="5.63875">
        <ele>438.5</ele>
        <time>2014-01-22T13:18:21Z</time>
      </trkpt>
      <trkpt lat="43.30148" lon="5.63875">
        <ele>438.6</ele>
        <time>2014-01-22T13:18:25Z</time>
      </trkpt>
      <trkpt lat="43.30143" lon="5.63875">
        <ele>438.5</ele>
        <time>2014-01-22T13:18:29Z</time>
      </trkpt>
      <trkpt lat="43.3014" lon="5.63878">
        <ele>437.7</ele>
        <time>2014-01-22T13:18:33Z</time>
      </trkpt>
      <trkpt lat="43.30136" lon="5.6388">
        <ele>438.1</ele>
        <time>2014-01-22T13:18:37Z</time>
      </trkpt>
      <trkpt lat="43.30133" lon="5.63884">
        <ele>438.1</ele>
        <time>2014-01-22T13:18:41Z</time>
      </trkpt>
      <trkpt lat="43.3013" lon="5.63887">
        <ele>438.2</ele>
        <time>2014-01-22T13:18:44Z</time>
      </trkpt>
      <trkpt lat="43.30128" lon="5.63891">
        <ele>438.2</ele>
        <time>2014-01-22T13:18:47Z</time>
      </trkpt>
      <trkpt lat="43.30128" lon="5.63893">
        <ele>438.2</ele>
        <time>2014-01-22T13:18:48Z</time>
      </trkpt>
      <trkpt lat="43.30126" lon="5.639">
        <ele>438.5</ele>
        <time>2014-01-22T13:18:53Z</time>
      </trkpt>
      <trkpt lat="43.30126" lon="5.63905">
        <ele>437.2</ele>
        <time>2014-01-22T13:18:57Z</time>
      </trkpt>
      <trkpt lat="43.30126" lon="5.6391">
        <ele>436.3</ele>
        <time>2014-01-22T13:19:00Z</time>
      </trkpt>
      <trkpt lat="43.30126" lon="5.63915">
        <ele>435.8</ele>
        <time>2014-01-22T13:19:03Z</time>
      </trkpt>
      <trkpt lat="43.30127" lon="5.6392">
        <ele>435.2</ele>
        <time>2014-01-22T13:19:06Z</time>
      </trkpt>
      <trkpt lat="43.30127" lon="5.63925">
        <ele>434.7</ele>
        <time>2014-01-22T13:19:09Z</time>
      </trkpt>
      <trkpt lat="43.30127" lon="5.6393">
        <ele>434.5</ele>
        <time>2014-01-22T13:19:12Z</time>
      </trkpt>
      <trkpt lat="43.30127" lon="5.63935">
        <ele>434</ele>
        <time>2014-01-22T13:19:15Z</time>
      </trkpt>
      <trkpt lat="43.30127" lon="5.6394">
        <ele>433.7</ele>
        <time>2014-01-22T13:19:18Z</time>
      </trkpt>
      <trkpt lat="43.30127" lon="5.63945">
        <ele>433.5</ele>
        <time>2014-01-22T13:19:21Z</time>
      </trkpt>
      <trkpt lat="43.30127" lon="5.63951">
        <ele>433.2</ele>
        <time>2014-01-22T13:19:24Z</time>
      </trkpt>
      <trkpt lat="43.30128" lon="5.63956">
        <ele>433</ele>
        <time>2014-01-22T13:19:27Z</time>
      </trkpt>
      <trkpt lat="43.30128" lon="5.63961">
        <ele>432.8</ele>
        <time>2014-01-22T13:19:30Z</time>
      </trkpt>
      <trkpt lat="43.30128" lon="5.63966">
        <ele>432.7</ele>
        <time>2014-01-22T13:19:33Z</time>
      </trkpt>
      <trkpt lat="43.30129" lon="5.63972">
        <ele>432.7</ele>
        <time>2014-01-22T13:19:36Z</time>
      </trkpt>
      <trkpt lat="43.30129" lon="5.63977">
        <ele>432.6</ele>
        <time>2014-01-22T13:19:39Z</time>
      </trkpt>
      <trkpt lat="43.30129" lon="5.63982">
        <ele>432.5</ele>
        <time>2014-01-22T13:19:42Z</time>
      </trkpt>
      <trkpt lat="43.3013" lon="5.63988">
        <ele>430.8</ele>
        <time>2014-01-22T13:19:46Z</time>
      </trkpt>
      <trkpt lat="43.30131" lon="5.63993">
        <ele>430.7</ele>
        <time>2014-01-22T13:19:49Z</time>
      </trkpt>
      <trkpt lat="43.30131" lon="5.63995">
        <ele>430.6</ele>
        <time>2014-01-22T13:19:50Z</time>
      </trkpt>
      <trkpt lat="43.30132" lon="5.64003">
        <ele>430.2</ele>
        <time>2014-01-22T13:19:55Z</time>
      </trkpt>
      <trkpt lat="43.30133" lon="5.64008">
        <ele>429.8</ele>
        <time>2014-01-22T13:19:58Z</time>
      </trkpt>
      <trkpt lat="43.30133" lon="5.64013">
        <ele>429.6</ele>
        <time>2014-01-22T13:20:01Z</time>
      </trkpt>
      <trkpt lat="43.30133" lon="5.64018">
        <ele>429.3</ele>
        <time>2014-01-22T13:20:04Z</time>
      </trkpt>
      <trkpt lat="43.30133" lon="5.64023">
        <ele>429.2</ele>
        <time>2014-01-22T13:20:07Z</time>
      </trkpt>
      <trkpt lat="43.30133" lon="5.64028">
        <ele>429.1</ele>
        <time>2014-01-22T13:20:10Z</time>
      </trkpt>
      <trkpt lat="43.30132" lon="5.64033">
        <ele>429</ele>
        <time>2014-01-22T13:20:13Z</time>
      </trkpt>
      <trkpt lat="43.30131" lon="5.64039">
        <ele>428.7</ele>
        <time>2014-01-22T13:20:17Z</time>
      </trkpt>
      <trkpt lat="43.30128" lon="5.64043">
        <ele>429</ele>
        <time>2014-01-22T13:20:21Z</time>
      </trkpt>
      <trkpt lat="43.30125" lon="5.64045">
        <ele>428</ele>
        <time>2014-01-22T13:20:25Z</time>
      </trkpt>
      <trkpt lat="43.30121" lon="5.64046">
        <ele>426.3</ele>
        <time>2014-01-22T13:20:29Z</time>
      </trkpt>
      <trkpt lat="43.30117" lon="5.64044">
        <ele>425.3</ele>
        <time>2014-01-22T13:20:33Z</time>
      </trkpt>
      <trkpt lat="43.30114" lon="5.64043">
        <ele>424.7</ele>
        <time>2014-01-22T13:20:36Z</time>
      </trkpt>
      <trkpt lat="43.30111" lon="5.64041">
        <ele>424</ele>
        <time>2014-01-22T13:20:39Z</time>
      </trkpt>
      <trkpt lat="43.30107" lon="5.64039">
        <ele>423.3</ele>
        <time>2014-01-22T13:20:43Z</time>
      </trkpt>
      <trkpt lat="43.30104" lon="5.64037">
        <ele>422.8</ele>
        <time>2014-01-22T13:20:46Z</time>
      </trkpt>
      <trkpt lat="43.30101" lon="5.64034">
        <ele>422.5</ele>
        <time>2014-01-22T13:20:49Z</time>
      </trkpt>
      <trkpt lat="43.30098" lon="5.64032">
        <ele>422</ele>
        <time>2014-01-22T13:20:52Z</time>
      </trkpt>
      <trkpt lat="43.30097" lon="5.64032">
        <ele>421.7</ele>
        <time>2014-01-22T13:20:53Z</time>
      </trkpt>
      <trkpt lat="43.3009" lon="5.64027">
        <ele>420.7</ele>
        <time>2014-01-22T13:21:00Z</time>
      </trkpt>
      <trkpt lat="43.30086" lon="5.64025">
        <ele>420.1</ele>
        <time>2014-01-22T13:21:04Z</time>
      </trkpt>
      <trkpt lat="43.30082" lon="5.64022">
        <ele>419.6</ele>
        <time>2014-01-22T13:21:08Z</time>
      </trkpt>
      <trkpt lat="43.30079" lon="5.6402">
        <ele>419.1</ele>
        <time>2014-01-22T13:21:12Z</time>
      </trkpt>
      <trkpt lat="43.30075" lon="5.64017">
        <ele>418.3</ele>
        <time>2014-01-22T13:21:15Z</time>
      </trkpt>
      <trkpt lat="43.30071" lon="5.64016">
        <ele>417.8</ele>
        <time>2014-01-22T13:21:19Z</time>
      </trkpt>
      <trkpt lat="43.30068" lon="5.64014">
        <ele>417.5</ele>
        <time>2014-01-22T13:21:23Z</time>
      </trkpt>
      <trkpt lat="43.30064" lon="5.64012">
        <ele>417.2</ele>
        <time>2014-01-22T13:21:27Z</time>
      </trkpt>
      <trkpt lat="43.3006" lon="5.64012">
        <ele>416.7</ele>
        <time>2014-01-22T13:21:31Z</time>
      </trkpt>
      <trkpt lat="43.30057" lon="5.6401">
        <ele>416.5</ele>
        <time>2014-01-22T13:21:34Z</time>
      </trkpt>
      <trkpt lat="43.30054" lon="5.64008">
        <ele>416.3</ele>
        <time>2014-01-22T13:21:37Z</time>
      </trkpt>
      <trkpt lat="43.30051" lon="5.64004">
        <ele>416.1</ele>
        <time>2014-01-22T13:21:41Z</time>
      </trkpt>
      <trkpt lat="43.30049" lon="5.63999">
        <ele>416.7</ele>
        <time>2014-01-22T13:21:45Z</time>
      </trkpt>
      <trkpt lat="43.30048" lon="5.63993">
        <ele>414.2</ele>
        <time>2014-01-22T13:22:14Z</time>
      </trkpt>
      <trkpt lat="43.30048" lon="5.63993">
        <ele>414.3</ele>
        <time>2014-01-22T13:22:15Z</time>
      </trkpt>
      <trkpt lat="43.30044" lon="5.63988">
        <ele>409.5</ele>
        <time>2014-01-22T13:23:54Z</time>
      </trkpt>
      <trkpt lat="43.30043" lon="5.63991">
        <ele>413.6</ele>
        <time>2014-01-22T13:25:10Z</time>
      </trkpt>
      <trkpt lat="43.30042" lon="5.63991">
        <ele>413.7</ele>
        <time>2014-01-22T13:25:11Z</time>
      </trkpt>
      <trkpt lat="43.30035" lon="5.6399">
        <ele>415.2</ele>
        <time>2014-01-22T13:25:22Z</time>
      </trkpt>
      <trkpt lat="43.3003" lon="5.6399">
        <ele>415.2</ele>
        <time>2014-01-22T13:25:43Z</time>
      </trkpt>
      <trkpt lat="43.30026" lon="5.63991">
        <ele>416.1</ele>
        <time>2014-01-22T13:25:48Z</time>
      </trkpt>
      <trkpt lat="43.30022" lon="5.63992">
        <ele>416.6</ele>
        <time>2014-01-22T13:25:53Z</time>
      </trkpt>
      <trkpt lat="43.30018" lon="5.63993">
        <ele>417.6</ele>
        <time>2014-01-22T13:25:58Z</time>
      </trkpt>
      <trkpt lat="43.30014" lon="5.63994">
        <ele>417.6</ele>
        <time>2014-01-22T13:26:02Z</time>
      </trkpt>
      <trkpt lat="43.30011" lon="5.63996">
        <ele>418.5</ele>
        <time>2014-01-22T13:26:06Z</time>
      </trkpt>
      <trkpt lat="43.30008" lon="5.63998">
        <ele>418.7</ele>
        <time>2014-01-22T13:26:10Z</time>
      </trkpt>
      <trkpt lat="43.30005" lon="5.64001">
        <ele>419.2</ele>
        <time>2014-01-22T13:26:14Z</time>
      </trkpt>
      <trkpt lat="43.30004" lon="5.64001">
        <ele>419.3</ele>
        <time>2014-01-22T13:26:15Z</time>
      </trkpt>
      <trkpt lat="43.29998" lon="5.64006">
        <ele>420.8</ele>
        <time>2014-01-22T13:26:22Z</time>
      </trkpt>
      <trkpt lat="43.29995" lon="5.64009">
        <ele>421.5</ele>
        <time>2014-01-22T13:26:26Z</time>
      </trkpt>
      <trkpt lat="43.29992" lon="5.64011">
        <ele>421.7</ele>
        <time>2014-01-22T13:26:30Z</time>
      </trkpt>
      <trkpt lat="43.29988" lon="5.64014">
        <ele>421.7</ele>
        <time>2014-01-22T13:26:35Z</time>
      </trkpt>
      <trkpt lat="43.29984" lon="5.64016">
        <ele>422</ele>
        <time>2014-01-22T13:26:39Z</time>
      </trkpt>
      <trkpt lat="43.29981" lon="5.64018">
        <ele>422.5</ele>
        <time>2014-01-22T13:26:43Z</time>
      </trkpt>
      <trkpt lat="43.29977" lon="5.6402">
        <ele>422.7</ele>
        <time>2014-01-22T13:26:47Z</time>
      </trkpt>
      <trkpt lat="43.29974" lon="5.64022">
        <ele>423.2</ele>
        <time>2014-01-22T13:26:51Z</time>
      </trkpt>
      <trkpt lat="43.2997" lon="5.64024">
        <ele>424.1</ele>
        <time>2014-01-22T13:26:55Z</time>
      </trkpt>
      <trkpt lat="43.29967" lon="5.64026">
        <ele>424.5</ele>
        <time>2014-01-22T13:26:59Z</time>
      </trkpt>
      <trkpt lat="43.29963" lon="5.64028">
        <ele>425.2</ele>
        <time>2014-01-22T13:27:03Z</time>
      </trkpt>
      <trkpt lat="43.2996" lon="5.6403">
        <ele>423.7</ele>
        <time>2014-01-22T13:27:07Z</time>
      </trkpt>
      <trkpt lat="43.29956" lon="5.64032">
        <ele>423.2</ele>
        <time>2014-01-22T13:27:11Z</time>
      </trkpt>
      <trkpt lat="43.29953" lon="5.64034">
        <ele>422.1</ele>
        <time>2014-01-22T13:27:15Z</time>
      </trkpt>
      <trkpt lat="43.29952" lon="5.64035">
        <ele>421.8</ele>
        <time>2014-01-22T13:27:16Z</time>
      </trkpt>
      <trkpt lat="43.29947" lon="5.64042">
        <ele>422.5</ele>
        <time>2014-01-22T13:27:24Z</time>
      </trkpt>
      <trkpt lat="43.29946" lon="5.64048">
        <ele>420.5</ele>
        <time>2014-01-22T13:27:29Z</time>
      </trkpt>
      <trkpt lat="43.29946" lon="5.64053">
        <ele>421.1</ele>
        <time>2014-01-22T13:27:32Z</time>
      </trkpt>
      <trkpt lat="43.29944" lon="5.64058">
        <ele>420.8</ele>
        <time>2014-01-22T13:27:36Z</time>
      </trkpt>
      <trkpt lat="43.29943" lon="5.64064">
        <ele>420.7</ele>
        <time>2014-01-22T13:27:40Z</time>
      </trkpt>
      <trkpt lat="43.29941" lon="5.64069">
        <ele>420</ele>
        <time>2014-01-22T13:27:44Z</time>
      </trkpt>
      <trkpt lat="43.2994" lon="5.64075">
        <ele>420.2</ele>
        <time>2014-01-22T13:27:48Z</time>
      </trkpt>
      <trkpt lat="43.29939" lon="5.6408">
        <ele>420.6</ele>
        <time>2014-01-22T13:27:51Z</time>
      </trkpt>
      <trkpt lat="43.29938" lon="5.64085">
        <ele>421.5</ele>
        <time>2014-01-22T13:27:54Z</time>
      </trkpt>
      <trkpt lat="43.29938" lon="5.6409">
        <ele>422.1</ele>
        <time>2014-01-22T13:27:57Z</time>
      </trkpt>
      <trkpt lat="43.29938" lon="5.64096">
        <ele>421.5</ele>
        <time>2014-01-22T13:28:01Z</time>
      </trkpt>
      <trkpt lat="43.29938" lon="5.64101">
        <ele>421.7</ele>
        <time>2014-01-22T13:28:04Z</time>
      </trkpt>
      <trkpt lat="43.29939" lon="5.64106">
        <ele>422.1</ele>
        <time>2014-01-22T13:28:07Z</time>
      </trkpt>
      <trkpt lat="43.2994" lon="5.6411">
        <ele>422.1</ele>
        <time>2014-01-22T13:28:10Z</time>
      </trkpt>
      <trkpt lat="43.29943" lon="5.64115">
        <ele>421.5</ele>
        <time>2014-01-22T13:28:14Z</time>
      </trkpt>
      <trkpt lat="43.29945" lon="5.64118">
        <ele>421.2</ele>
        <time>2014-01-22T13:28:17Z</time>
      </trkpt>
      <trkpt lat="43.29946" lon="5.64119">
        <ele>421.1</ele>
        <time>2014-01-22T13:28:18Z</time>
      </trkpt>
      <trkpt lat="43.29951" lon="5.64124">
        <ele>420.7</ele>
        <time>2014-01-22T13:28:23Z</time>
      </trkpt>
      <trkpt lat="43.29954" lon="5.64128">
        <ele>420.2</ele>
        <time>2014-01-22T13:28:26Z</time>
      </trkpt>
      <trkpt lat="43.29957" lon="5.64132">
        <ele>420</ele>
        <time>2014-01-22T13:28:29Z</time>
      </trkpt>
      <trkpt lat="43.29959" lon="5.64135">
        <ele>420.1</ele>
        <time>2014-01-22T13:28:32Z</time>
      </trkpt>
      <trkpt lat="43.29962" lon="5.64138">
        <ele>419.7</ele>
        <time>2014-01-22T13:28:35Z</time>
      </trkpt>
      <trkpt lat="43.29965" lon="5.64142">
        <ele>419.7</ele>
        <time>2014-01-22T13:28:39Z</time>
      </trkpt>
      <trkpt lat="43.29968" lon="5.64145">
        <ele>420</ele>
        <time>2014-01-22T13:28:42Z</time>
      </trkpt>
      <trkpt lat="43.29971" lon="5.6415">
        <ele>420.3</ele>
        <time>2014-01-22T13:28:46Z</time>
      </trkpt>
      <trkpt lat="43.29974" lon="5.64154">
        <ele>420.3</ele>
        <time>2014-01-22T13:28:50Z</time>
      </trkpt>
      <trkpt lat="43.29976" lon="5.64157">
        <ele>420.7</ele>
        <time>2014-01-22T13:28:53Z</time>
      </trkpt>
      <trkpt lat="43.29979" lon="5.6416">
        <ele>421.1</ele>
        <time>2014-01-22T13:28:56Z</time>
      </trkpt>
      <trkpt lat="43.29982" lon="5.64164">
        <ele>421.7</ele>
        <time>2014-01-22T13:29:00Z</time>
      </trkpt>
      <trkpt lat="43.29985" lon="5.64167">
        <ele>422</ele>
        <time>2014-01-22T13:29:03Z</time>
      </trkpt>
      <trkpt lat="43.29988" lon="5.6417">
        <ele>422.5</ele>
        <time>2014-01-22T13:29:06Z</time>
      </trkpt>
      <trkpt lat="43.2999" lon="5.64174">
        <ele>422.6</ele>
        <time>2014-01-22T13:29:09Z</time>
      </trkpt>
      <trkpt lat="43.29993" lon="5.64177">
        <ele>422.7</ele>
        <time>2014-01-22T13:29:12Z</time>
      </trkpt>
      <trkpt lat="43.29995" lon="5.6418">
        <ele>422.8</ele>
        <time>2014-01-22T13:29:15Z</time>
      </trkpt>
      <trkpt lat="43.29998" lon="5.64183">
        <ele>423</ele>
        <time>2014-01-22T13:29:18Z</time>
      </trkpt>
      <trkpt lat="43.30001" lon="5.64186">
        <ele>422.2</ele>
        <time>2014-01-22T13:29:21Z</time>
      </trkpt>
      <trkpt lat="43.30002" lon="5.64187">
        <ele>421.8</ele>
        <time>2014-01-22T13:29:22Z</time>
      </trkpt>
      <trkpt lat="43.30007" lon="5.64193">
        <ele>422</ele>
        <time>2014-01-22T13:29:28Z</time>
      </trkpt>
      <trkpt lat="43.30009" lon="5.64197">
        <ele>421.8</ele>
        <time>2014-01-22T13:29:32Z</time>
      </trkpt>
      <trkpt lat="43.30011" lon="5.64201">
        <ele>421.7</ele>
        <time>2014-01-22T13:29:35Z</time>
      </trkpt>
      <trkpt lat="43.30012" lon="5.64206">
        <ele>422.7</ele>
        <time>2014-01-22T13:29:38Z</time>
      </trkpt>
      <trkpt lat="43.30011" lon="5.64212">
        <ele>424.2</ele>
        <time>2014-01-22T13:29:42Z</time>
      </trkpt>
      <trkpt lat="43.30009" lon="5.64216">
        <ele>425.7</ele>
        <time>2014-01-22T13:29:46Z</time>
      </trkpt>
      <trkpt lat="43.30005" lon="5.64218">
        <ele>426.7</ele>
        <time>2014-01-22T13:29:50Z</time>
      </trkpt>
      <trkpt lat="43.30001" lon="5.64219">
        <ele>427.7</ele>
        <time>2014-01-22T13:29:54Z</time>
      </trkpt>
      <trkpt lat="43.29997" lon="5.6422">
        <ele>428.2</ele>
        <time>2014-01-22T13:29:57Z</time>
      </trkpt>
      <trkpt lat="43.29994" lon="5.6422">
        <ele>428.5</ele>
        <time>2014-01-22T13:30:00Z</time>
      </trkpt>
      <trkpt lat="43.2999" lon="5.64221">
        <ele>429.2</ele>
        <time>2014-01-22T13:30:03Z</time>
      </trkpt>
      <trkpt lat="43.29987" lon="5.64222">
        <ele>429.6</ele>
        <time>2014-01-22T13:30:06Z</time>
      </trkpt>
      <trkpt lat="43.29984" lon="5.64224">
        <ele>430.2</ele>
        <time>2014-01-22T13:30:09Z</time>
      </trkpt>
      <trkpt lat="43.2998" lon="5.64226">
        <ele>430.6</ele>
        <time>2014-01-22T13:30:13Z</time>
      </trkpt>
      <trkpt lat="43.29975" lon="5.64228">
        <ele>431.2</ele>
        <time>2014-01-22T13:30:17Z</time>
      </trkpt>
      <trkpt lat="43.29972" lon="5.6423">
        <ele>432</ele>
        <time>2014-01-22T13:30:21Z</time>
      </trkpt>
      <trkpt lat="43.29968" lon="5.64232">
        <ele>432.6</ele>
        <time>2014-01-22T13:30:25Z</time>
      </trkpt>
      <trkpt lat="43.29967" lon="5.64233">
        <ele>432.7</ele>
        <time>2014-01-22T13:30:26Z</time>
      </trkpt>
      <trkpt lat="43.29961" lon="5.64238">
        <ele>433.2</ele>
        <time>2014-01-22T13:30:33Z</time>
      </trkpt>
      <trkpt lat="43.29958" lon="5.6424">
        <ele>433.3</ele>
        <time>2014-01-22T13:30:36Z</time>
      </trkpt>
      <trkpt lat="43.29955" lon="5.64243">
        <ele>433.7</ele>
        <time>2014-01-22T13:30:39Z</time>
      </trkpt>
      <trkpt lat="43.29952" lon="5.64245">
        <ele>434</ele>
        <time>2014-01-22T13:30:42Z</time>
      </trkpt>
      <trkpt lat="43.29949" lon="5.64248">
        <ele>434.5</ele>
        <time>2014-01-22T13:30:45Z</time>
      </trkpt>
      <trkpt lat="43.29946" lon="5.64251">
        <ele>434.7</ele>
        <time>2014-01-22T13:30:48Z</time>
      </trkpt>
      <trkpt lat="43.29942" lon="5.64254">
        <ele>435.1</ele>
        <time>2014-01-22T13:30:52Z</time>
      </trkpt>
      <trkpt lat="43.29939" lon="5.64256">
        <ele>435</ele>
        <time>2014-01-22T13:30:55Z</time>
      </trkpt>
      <trkpt lat="43.29936" lon="5.64259">
        <ele>435.3</ele>
        <time>2014-01-22T13:30:58Z</time>
      </trkpt>
      <trkpt lat="43.29933" lon="5.64262">
        <ele>435.7</ele>
        <time>2014-01-22T13:31:01Z</time>
      </trkpt>
      <trkpt lat="43.2993" lon="5.64264">
        <ele>435.8</ele>
        <time>2014-01-22T13:31:04Z</time>
      </trkpt>
      <trkpt lat="43.29926" lon="5.64267">
        <ele>436.1</ele>
        <time>2014-01-22T13:31:08Z</time>
      </trkpt>
      <trkpt lat="43.29923" lon="5.64271">
        <ele>436.5</ele>
        <time>2014-01-22T13:31:12Z</time>
      </trkpt>
      <trkpt lat="43.2992" lon="5.64274">
        <ele>437.2</ele>
        <time>2014-01-22T13:31:15Z</time>
      </trkpt>
      <trkpt lat="43.29916" lon="5.64277">
        <ele>438.2</ele>
        <time>2014-01-22T13:31:19Z</time>
      </trkpt>
      <trkpt lat="43.29913" lon="5.64281">
        <ele>439</ele>
        <time>2014-01-22T13:31:23Z</time>
      </trkpt>
      <trkpt lat="43.2991" lon="5.64285">
        <ele>439.2</ele>
        <time>2014-01-22T13:31:27Z</time>
      </trkpt>
      <trkpt lat="43.2991" lon="5.64286">
        <ele>439.1</ele>
        <time>2014-01-22T13:31:28Z</time>
      </trkpt>
      <trkpt lat="43.29906" lon="5.64295">
        <ele>438.2</ele>
        <time>2014-01-22T13:31:35Z</time>
      </trkpt>
      <trkpt lat="43.29905" lon="5.643">
        <ele>438.2</ele>
        <time>2014-01-22T13:31:38Z</time>
      </trkpt>
      <trkpt lat="43.29904" lon="5.64306">
        <ele>438.5</ele>
        <time>2014-01-22T13:31:42Z</time>
      </trkpt>
      <trkpt lat="43.29904" lon="5.64311">
        <ele>437.3</ele>
        <time>2014-01-22T13:31:45Z</time>
      </trkpt>
      <trkpt lat="43.29905" lon="5.64317">
        <ele>437.2</ele>
        <time>2014-01-22T13:31:49Z</time>
      </trkpt>
      <trkpt lat="43.29905" lon="5.64323">
        <ele>437</ele>
        <time>2014-01-22T13:31:53Z</time>
      </trkpt>
      <trkpt lat="43.29906" lon="5.64328">
        <ele>436.7</ele>
        <time>2014-01-22T13:31:56Z</time>
      </trkpt>
      <trkpt lat="43.29907" lon="5.64333">
        <ele>436.5</ele>
        <time>2014-01-22T13:31:59Z</time>
      </trkpt>
      <trkpt lat="43.29907" lon="5.64337">
        <ele>436.6</ele>
        <time>2014-01-22T13:32:02Z</time>
      </trkpt>
      <trkpt lat="43.29909" lon="5.64343">
        <ele>435.8</ele>
        <time>2014-01-22T13:32:06Z</time>
      </trkpt>
      <trkpt lat="43.29911" lon="5.64349">
        <ele>434.6</ele>
        <time>2014-01-22T13:32:10Z</time>
      </trkpt>
      <trkpt lat="43.29912" lon="5.64354">
        <ele>433.7</ele>
        <time>2014-01-22T13:32:14Z</time>
      </trkpt>
      <trkpt lat="43.29914" lon="5.64359">
        <ele>433.1</ele>
        <time>2014-01-22T13:32:17Z</time>
      </trkpt>
      <trkpt lat="43.29916" lon="5.64364">
        <ele>432.3</ele>
        <time>2014-01-22T13:32:21Z</time>
      </trkpt>
      <trkpt lat="43.29917" lon="5.64368">
        <ele>432</ele>
        <time>2014-01-22T13:32:24Z</time>
      </trkpt>
      <trkpt lat="43.29918" lon="5.64373">
        <ele>431.8</ele>
        <time>2014-01-22T13:32:27Z</time>
      </trkpt>
      <trkpt lat="43.29919" lon="5.64377">
        <ele>432</ele>
        <time>2014-01-22T13:32:30Z</time>
      </trkpt>
      <trkpt lat="43.29919" lon="5.64379">
        <ele>432.2</ele>
        <time>2014-01-22T13:32:31Z</time>
      </trkpt>
      <trkpt lat="43.2992" lon="5.64387">
        <ele>433.3</ele>
        <time>2014-01-22T13:32:36Z</time>
      </trkpt>
      <trkpt lat="43.29921" lon="5.64393">
        <ele>433.6</ele>
        <time>2014-01-22T13:32:40Z</time>
      </trkpt>
      <trkpt lat="43.29923" lon="5.64398">
        <ele>433.1</ele>
        <time>2014-01-22T13:32:44Z</time>
      </trkpt>
      <trkpt lat="43.29924" lon="5.64403">
        <ele>433.2</ele>
        <time>2014-01-22T13:32:47Z</time>
      </trkpt>
      <trkpt lat="43.29925" lon="5.64408">
        <ele>433.7</ele>
        <time>2014-01-22T13:32:50Z</time>
      </trkpt>
      <trkpt lat="43.29925" lon="5.64412">
        <ele>434.5</ele>
        <time>2014-01-22T13:32:53Z</time>
      </trkpt>
      <trkpt lat="43.29926" lon="5.64417">
        <ele>435.1</ele>
        <time>2014-01-22T13:32:56Z</time>
      </trkpt>
      <trkpt lat="43.29927" lon="5.64422">
        <ele>436.2</ele>
        <time>2014-01-22T13:32:59Z</time>
      </trkpt>
      <trkpt lat="43.29927" lon="5.64427">
        <ele>436.8</ele>
        <time>2014-01-22T13:33:02Z</time>
      </trkpt>
      <trkpt lat="43.29928" lon="5.64433">
        <ele>437.2</ele>
        <time>2014-01-22T13:33:06Z</time>
      </trkpt>
      <trkpt lat="43.29929" lon="5.64438">
        <ele>437.7</ele>
        <time>2014-01-22T13:33:09Z</time>
      </trkpt>
      <trkpt lat="43.2993" lon="5.64443">
        <ele>438.3</ele>
        <time>2014-01-22T13:33:12Z</time>
      </trkpt>
      <trkpt lat="43.2993" lon="5.64448">
        <ele>438.5</ele>
        <time>2014-01-22T13:33:15Z</time>
      </trkpt>
      <trkpt lat="43.29931" lon="5.64453">
        <ele>438.7</ele>
        <time>2014-01-22T13:33:18Z</time>
      </trkpt>
      <trkpt lat="43.29932" lon="5.64458">
        <ele>438.7</ele>
        <time>2014-01-22T13:33:21Z</time>
      </trkpt>
      <trkpt lat="43.29933" lon="5.64464">
        <ele>438.8</ele>
        <time>2014-01-22T13:33:25Z</time>
      </trkpt>
      <trkpt lat="43.29934" lon="5.64468">
        <ele>439.2</ele>
        <time>2014-01-22T13:33:28Z</time>
      </trkpt>
      <trkpt lat="43.29935" lon="5.64474">
        <ele>439.2</ele>
        <time>2014-01-22T13:33:32Z</time>
      </trkpt>
      <trkpt lat="43.29935" lon="5.64476">
        <ele>439.2</ele>
        <time>2014-01-22T13:33:33Z</time>
      </trkpt>
      <trkpt lat="43.29937" lon="5.64484">
        <ele>440</ele>
        <time>2014-01-22T13:33:38Z</time>
      </trkpt>
      <trkpt lat="43.29938" lon="5.64489">
        <ele>440.3</ele>
        <time>2014-01-22T13:33:41Z</time>
      </trkpt>
      <trkpt lat="43.29939" lon="5.64494">
        <ele>440.8</ele>
        <time>2014-01-22T13:33:44Z</time>
      </trkpt>
      <trkpt lat="43.2994" lon="5.64499">
        <ele>440.7</ele>
        <time>2014-01-22T13:33:48Z</time>
      </trkpt>
      <trkpt lat="43.29941" lon="5.64505">
        <ele>441.3</ele>
        <time>2014-01-22T13:33:52Z</time>
      </trkpt>
      <trkpt lat="43.29941" lon="5.6451">
        <ele>442.3</ele>
        <time>2014-01-22T13:33:55Z</time>
      </trkpt>
      <trkpt lat="43.29941" lon="5.64515">
        <ele>443</ele>
        <time>2014-01-22T13:33:58Z</time>
      </trkpt>
      <trkpt lat="43.2994" lon="5.6452">
        <ele>443.3</ele>
        <time>2014-01-22T13:34:01Z</time>
      </trkpt>
      <trkpt lat="43.29939" lon="5.64525">
        <ele>443.7</ele>
        <time>2014-01-22T13:34:04Z</time>
      </trkpt>
      <trkpt lat="43.29938" lon="5.64531">
        <ele>444.7</ele>
        <time>2014-01-22T13:34:08Z</time>
      </trkpt>
      <trkpt lat="43.29936" lon="5.64535">
        <ele>445.3</ele>
        <time>2014-01-22T13:34:12Z</time>
      </trkpt>
      <trkpt lat="43.29934" lon="5.6454">
        <ele>446.2</ele>
        <time>2014-01-22T13:34:16Z</time>
      </trkpt>
      <trkpt lat="43.29934" lon="5.64545">
        <ele>447.2</ele>
        <time>2014-01-22T13:34:20Z</time>
      </trkpt>
      <trkpt lat="43.29936" lon="5.64551">
        <ele>447.7</ele>
        <time>2014-01-22T13:34:26Z</time>
      </trkpt>
      <trkpt lat="43.29937" lon="5.64556">
        <ele>450</ele>
        <time>2014-01-22T13:34:51Z</time>
      </trkpt>
      <trkpt lat="43.29937" lon="5.64557">
        <ele>450.2</ele>
        <time>2014-01-22T13:34:52Z</time>
      </trkpt>
      <trkpt lat="43.2994" lon="5.64561">
        <ele>451</ele>
        <time>2014-01-22T13:36:44Z</time>
      </trkpt>
      <trkpt lat="43.29942" lon="5.64555">
        <ele>450.6</ele>
        <time>2014-01-22T13:38:38Z</time>
      </trkpt>
      <trkpt lat="43.29939" lon="5.6455">
        <ele>451.7</ele>
        <time>2014-01-22T13:42:56Z</time>
      </trkpt>
      <trkpt lat="43.29933" lon="5.64544">
        <ele>451.5</ele>
        <time>2014-01-22T13:43:04Z</time>
      </trkpt>
      <trkpt lat="43.29929" lon="5.64541">
        <ele>451</ele>
        <time>2014-01-22T13:43:08Z</time>
      </trkpt>
      <trkpt lat="43.29926" lon="5.64538">
        <ele>450.8</ele>
        <time>2014-01-22T13:43:12Z</time>
      </trkpt>
      <trkpt lat="43.29921" lon="5.6454">
        <ele>451.5</ele>
        <time>2014-01-22T13:43:17Z</time>
      </trkpt>
      <trkpt lat="43.29918" lon="5.64541">
        <ele>451.7</ele>
        <time>2014-01-22T13:43:21Z</time>
      </trkpt>
      <trkpt lat="43.29914" lon="5.64542">
        <ele>451.7</ele>
        <time>2014-01-22T13:43:25Z</time>
      </trkpt>
      <trkpt lat="43.29909" lon="5.64542">
        <ele>451.5</ele>
        <time>2014-01-22T13:43:30Z</time>
      </trkpt>
      <trkpt lat="43.29906" lon="5.6454">
        <ele>450.7</ele>
        <time>2014-01-22T13:43:34Z</time>
      </trkpt>
      <trkpt lat="43.29902" lon="5.64538">
        <ele>450</ele>
        <time>2014-01-22T13:43:38Z</time>
      </trkpt>
      <trkpt lat="43.29898" lon="5.64535">
        <ele>449.2</ele>
        <time>2014-01-22T13:43:42Z</time>
      </trkpt>
      <trkpt lat="43.29895" lon="5.64532">
        <ele>448.6</ele>
        <time>2014-01-22T13:43:46Z</time>
      </trkpt>
      <trkpt lat="43.29891" lon="5.64529">
        <ele>447.7</ele>
        <time>2014-01-22T13:43:50Z</time>
      </trkpt>
      <trkpt lat="43.29886" lon="5.64528">
        <ele>447.3</ele>
        <time>2014-01-22T13:44:06Z</time>
      </trkpt>
      <trkpt lat="43.29886" lon="5.64528">
        <ele>447.3</ele>
        <time>2014-01-22T13:44:07Z</time>
      </trkpt>
      <trkpt lat="43.29879" lon="5.64522">
        <ele>447.2</ele>
        <time>2014-01-22T13:44:20Z</time>
      </trkpt>
      <trkpt lat="43.29878" lon="5.64516">
        <ele>440.3</ele>
        <time>2014-01-22T13:45:46Z</time>
      </trkpt>
      <trkpt lat="43.29878" lon="5.64516">
        <ele>440.5</ele>
        <time>2014-01-22T13:45:47Z</time>
      </trkpt>
      <trkpt lat="43.29875" lon="5.64513">
        <ele>441.2</ele>
        <time>2014-01-22T13:49:15Z</time>
      </trkpt>
      <trkpt lat="43.29882" lon="5.64521">
        <ele>440.3</ele>
        <time>2014-01-22T13:49:48Z</time>
      </trkpt>
      <trkpt lat="43.29884" lon="5.64524">
        <ele>440.6</ele>
        <time>2014-01-22T13:49:53Z</time>
      </trkpt>
      <trkpt lat="43.29887" lon="5.64527">
        <ele>440.8</ele>
        <time>2014-01-22T13:49:57Z</time>
      </trkpt>
      <trkpt lat="43.29891" lon="5.6453">
        <ele>441.7</ele>
        <time>2014-01-22T13:50:02Z</time>
      </trkpt>
      <trkpt lat="43.29894" lon="5.64534">
        <ele>442.3</ele>
        <time>2014-01-22T13:50:07Z</time>
      </trkpt>
      <trkpt lat="43.29898" lon="5.64536">
        <ele>443</ele>
        <time>2014-01-22T13:50:11Z</time>
      </trkpt>
      <trkpt lat="43.29901" lon="5.64539">
        <ele>443.7</ele>
        <time>2014-01-22T13:50:16Z</time>
      </trkpt>
      <trkpt lat="43.29902" lon="5.6454">
        <ele>443.7</ele>
        <time>2014-01-22T13:50:17Z</time>
      </trkpt>
      <trkpt lat="43.29908" lon="5.64544">
        <ele>445.1</ele>
        <time>2014-01-22T13:50:25Z</time>
      </trkpt>
      <trkpt lat="43.29913" lon="5.64545">
        <ele>445.7</ele>
        <time>2014-01-22T13:50:30Z</time>
      </trkpt>
      <trkpt lat="43.29917" lon="5.64545">
        <ele>446.1</ele>
        <time>2014-01-22T13:50:34Z</time>
      </trkpt>
      <trkpt lat="43.2992" lon="5.64545">
        <ele>446.5</ele>
        <time>2014-01-22T13:50:38Z</time>
      </trkpt>
      <trkpt lat="43.29924" lon="5.64544">
        <ele>446.8</ele>
        <time>2014-01-22T13:50:42Z</time>
      </trkpt>
      <trkpt lat="43.29928" lon="5.64543">
        <ele>447</ele>
        <time>2014-01-22T13:50:46Z</time>
      </trkpt>
      <trkpt lat="43.29932" lon="5.64544">
        <ele>447.3</ele>
        <time>2014-01-22T13:50:50Z</time>
      </trkpt>
      <trkpt lat="43.29935" lon="5.64547">
        <ele>447.7</ele>
        <time>2014-01-22T13:50:54Z</time>
      </trkpt>
      <trkpt lat="43.29939" lon="5.6455">
        <ele>447.2</ele>
        <time>2014-01-22T13:50:58Z</time>
      </trkpt>
      <trkpt lat="43.29943" lon="5.64551">
        <ele>447.2</ele>
        <time>2014-01-22T13:51:02Z</time>
      </trkpt>
      <trkpt lat="43.29947" lon="5.64551">
        <ele>446.8</ele>
        <time>2014-01-22T13:51:06Z</time>
      </trkpt>
      <trkpt lat="43.29951" lon="5.64551">
        <ele>446.7</ele>
        <time>2014-01-22T13:51:10Z</time>
      </trkpt>
      <trkpt lat="43.29955" lon="5.64552">
        <ele>446.2</ele>
        <time>2014-01-22T13:51:14Z</time>
      </trkpt>
      <trkpt lat="43.29959" lon="5.64553">
        <ele>446.2</ele>
        <time>2014-01-22T13:51:18Z</time>
      </trkpt>
      <trkpt lat="43.2996" lon="5.64553">
        <ele>446.1</ele>
        <time>2014-01-22T13:51:19Z</time>
      </trkpt>
      <trkpt lat="43.29967" lon="5.64557">
        <ele>446</ele>
        <time>2014-01-22T13:51:26Z</time>
      </trkpt>
      <trkpt lat="43.2997" lon="5.64558">
        <ele>446</ele>
        <time>2014-01-22T13:51:29Z</time>
      </trkpt>
      <trkpt lat="43.29974" lon="5.64561">
        <ele>446.1</ele>
        <time>2014-01-22T13:51:33Z</time>
      </trkpt>
      <trkpt lat="43.29977" lon="5.64563">
        <ele>445.8</ele>
        <time>2014-01-22T13:51:36Z</time>
      </trkpt>
      <trkpt lat="43.2998" lon="5.64565">
        <ele>445.8</ele>
        <time>2014-01-22T13:51:39Z</time>
      </trkpt>
      <trkpt lat="43.29983" lon="5.64568">
        <ele>446.1</ele>
        <time>2014-01-22T13:51:42Z</time>
      </trkpt>
      <trkpt lat="43.29985" lon="5.64571">
        <ele>446.5</ele>
        <time>2014-01-22T13:51:45Z</time>
      </trkpt>
      <trkpt lat="43.29988" lon="5.64574">
        <ele>446.7</ele>
        <time>2014-01-22T13:51:48Z</time>
      </trkpt>
      <trkpt lat="43.2999" lon="5.64579">
        <ele>447.2</ele>
        <time>2014-01-22T13:51:51Z</time>
      </trkpt>
      <trkpt lat="43.29991" lon="5.64584">
        <ele>448</ele>
        <time>2014-01-22T13:51:54Z</time>
      </trkpt>
      <trkpt lat="43.29991" lon="5.64589">
        <ele>448.2</ele>
        <time>2014-01-22T13:51:57Z</time>
      </trkpt>
      <trkpt lat="43.29991" lon="5.64594">
        <ele>448.7</ele>
        <time>2014-01-22T13:52:00Z</time>
      </trkpt>
      <trkpt lat="43.2999" lon="5.64598">
        <ele>448.8</ele>
        <time>2014-01-22T13:52:03Z</time>
      </trkpt>
      <trkpt lat="43.29989" lon="5.64603">
        <ele>449</ele>
        <time>2014-01-22T13:52:06Z</time>
      </trkpt>
      <trkpt lat="43.29989" lon="5.64608">
        <ele>449.2</ele>
        <time>2014-01-22T13:52:09Z</time>
      </trkpt>
      <trkpt lat="43.29989" lon="5.64612">
        <ele>449.2</ele>
        <time>2014-01-22T13:52:12Z</time>
      </trkpt>
      <trkpt lat="43.29989" lon="5.64617">
        <ele>449.2</ele>
        <time>2014-01-22T13:52:15Z</time>
      </trkpt>
      <trkpt lat="43.2999" lon="5.64622">
        <ele>449.5</ele>
        <time>2014-01-22T13:52:18Z</time>
      </trkpt>
      <trkpt lat="43.29991" lon="5.64627">
        <ele>449.6</ele>
        <time>2014-01-22T13:52:21Z</time>
      </trkpt>
      <trkpt lat="43.29991" lon="5.64629">
        <ele>449.7</ele>
        <time>2014-01-22T13:52:22Z</time>
      </trkpt>
      <trkpt lat="43.29995" lon="5.64637">
        <ele>449.2</ele>
        <time>2014-01-22T13:52:28Z</time>
      </trkpt>
      <trkpt lat="43.29997" lon="5.64642">
        <ele>449.1</ele>
        <time>2014-01-22T13:52:32Z</time>
      </trkpt>
      <trkpt lat="43.29999" lon="5.64646">
        <ele>449.2</ele>
        <time>2014-01-22T13:52:35Z</time>
      </trkpt>
      <trkpt lat="43.30001" lon="5.6465">
        <ele>449.6</ele>
        <time>2014-01-22T13:52:38Z</time>
      </trkpt>
      <trkpt lat="43.30003" lon="5.64654">
        <ele>449.6</ele>
        <time>2014-01-22T13:52:41Z</time>
      </trkpt>
      <trkpt lat="43.30005" lon="5.64658">
        <ele>449.5</ele>
        <time>2014-01-22T13:52:44Z</time>
      </trkpt>
      <trkpt lat="43.30007" lon="5.64662">
        <ele>449.7</ele>
        <time>2014-01-22T13:52:47Z</time>
      </trkpt>
      <trkpt lat="43.30009" lon="5.64667">
        <ele>449.8</ele>
        <time>2014-01-22T13:52:51Z</time>
      </trkpt>
      <trkpt lat="43.30011" lon="5.6467">
        <ele>449.7</ele>
        <time>2014-01-22T13:52:54Z</time>
      </trkpt>
      <trkpt lat="43.30013" lon="5.64674">
        <ele>450</ele>
        <time>2014-01-22T13:52:57Z</time>
      </trkpt>
      <trkpt lat="43.30015" lon="5.64678">
        <ele>450.1</ele>
        <time>2014-01-22T13:53:00Z</time>
      </trkpt>
      <trkpt lat="43.30018" lon="5.64683">
        <ele>450</ele>
        <time>2014-01-22T13:53:04Z</time>
      </trkpt>
      <trkpt lat="43.3002" lon="5.64687">
        <ele>450.2</ele>
        <time>2014-01-22T13:53:07Z</time>
      </trkpt>
      <trkpt lat="43.30022" lon="5.64691">
        <ele>450.6</ele>
        <time>2014-01-22T13:53:10Z</time>
      </trkpt>
      <trkpt lat="43.30024" lon="5.64696">
        <ele>450.7</ele>
        <time>2014-01-22T13:53:13Z</time>
      </trkpt>
      <trkpt lat="43.30026" lon="5.64699">
        <ele>450.7</ele>
        <time>2014-01-22T13:53:16Z</time>
      </trkpt>
      <trkpt lat="43.30028" lon="5.64703">
        <ele>451.1</ele>
        <time>2014-01-22T13:53:19Z</time>
      </trkpt>
      <trkpt lat="43.3003" lon="5.64709">
        <ele>451.5</ele>
        <time>2014-01-22T13:53:23Z</time>
      </trkpt>
      <trkpt lat="43.3003" lon="5.6471">
        <ele>451.3</ele>
        <time>2014-01-22T13:53:24Z</time>
      </trkpt>
      <trkpt lat="43.30033" lon="5.64718">
        <ele>451.8</ele>
        <time>2014-01-22T13:53:30Z</time>
      </trkpt>
      <trkpt lat="43.30035" lon="5.64722">
        <ele>451.7</ele>
        <time>2014-01-22T13:53:33Z</time>
      </trkpt>
      <trkpt lat="43.30036" lon="5.64727">
        <ele>451.7</ele>
        <time>2014-01-22T13:53:36Z</time>
      </trkpt>
      <trkpt lat="43.30038" lon="5.64731">
        <ele>452.1</ele>
        <time>2014-01-22T13:53:39Z</time>
      </trkpt>
      <trkpt lat="43.30039" lon="5.64736">
        <ele>452.5</ele>
        <time>2014-01-22T13:53:42Z</time>
      </trkpt>
      <trkpt lat="43.3004" lon="5.64741">
        <ele>452.8</ele>
        <time>2014-01-22T13:53:45Z</time>
      </trkpt>
      <trkpt lat="43.3004" lon="5.64746">
        <ele>453</ele>
        <time>2014-01-22T13:53:48Z</time>
      </trkpt>
      <trkpt lat="43.30041" lon="5.64751">
        <ele>453.2</ele>
        <time>2014-01-22T13:53:51Z</time>
      </trkpt>
      <trkpt lat="43.30041" lon="5.64756">
        <ele>453.3</ele>
        <time>2014-01-22T13:53:54Z</time>
      </trkpt>
      <trkpt lat="43.30041" lon="5.64761">
        <ele>453.3</ele>
        <time>2014-01-22T13:53:57Z</time>
      </trkpt>
      <trkpt lat="43.30041" lon="5.64767">
        <ele>453.6</ele>
        <time>2014-01-22T13:54:00Z</time>
      </trkpt>
      <trkpt lat="43.3004" lon="5.64771">
        <ele>453.6</ele>
        <time>2014-01-22T13:54:03Z</time>
      </trkpt>
      <trkpt lat="43.30039" lon="5.64776">
        <ele>453.2</ele>
        <time>2014-01-22T13:54:06Z</time>
      </trkpt>
      <trkpt lat="43.30038" lon="5.64781">
        <ele>453.2</ele>
        <time>2014-01-22T13:54:09Z</time>
      </trkpt>
      <trkpt lat="43.30036" lon="5.64786">
        <ele>453.7</ele>
        <time>2014-01-22T13:54:12Z</time>
      </trkpt>
      <trkpt lat="43.30033" lon="5.6479">
        <ele>453.8</ele>
        <time>2014-01-22T13:54:15Z</time>
      </trkpt>
      <trkpt lat="43.3003" lon="5.64794">
        <ele>454</ele>
        <time>2014-01-22T13:54:19Z</time>
      </trkpt>
      <trkpt lat="43.30028" lon="5.64798">
        <ele>455.2</ele>
        <time>2014-01-22T13:54:22Z</time>
      </trkpt>
      <trkpt lat="43.30025" lon="5.64801">
        <ele>456</ele>
        <time>2014-01-22T13:54:25Z</time>
      </trkpt>
      <trkpt lat="43.30024" lon="5.64802">
        <ele>456.3</ele>
        <time>2014-01-22T13:54:26Z</time>
      </trkpt>
      <trkpt lat="43.30019" lon="5.64808">
        <ele>456.2</ele>
        <time>2014-01-22T13:54:31Z</time>
      </trkpt>
      <trkpt lat="43.30017" lon="5.64812">
        <ele>456.5</ele>
        <time>2014-01-22T13:54:34Z</time>
      </trkpt>
      <trkpt lat="43.30015" lon="5.64817">
        <ele>456.5</ele>
        <time>2014-01-22T13:54:38Z</time>
      </trkpt>
      <trkpt lat="43.30016" lon="5.64822">
        <ele>456.2</ele>
        <time>2014-01-22T13:54:41Z</time>
      </trkpt>
      <trkpt lat="43.30017" lon="5.64826">
        <ele>455.7</ele>
        <time>2014-01-22T13:54:44Z</time>
      </trkpt>
      <trkpt lat="43.30017" lon="5.64831">
        <ele>455.1</ele>
        <time>2014-01-22T13:54:47Z</time>
      </trkpt>
      <trkpt lat="43.30019" lon="5.64836">
        <ele>454.7</ele>
        <time>2014-01-22T13:54:51Z</time>
      </trkpt>
      <trkpt lat="43.3002" lon="5.64841">
        <ele>453.5</ele>
        <time>2014-01-22T13:55:10Z</time>
      </trkpt>
      <trkpt lat="43.30021" lon="5.64847">
        <ele>452</ele>
        <time>2014-01-22T13:55:42Z</time>
      </trkpt>
      <trkpt lat="43.30021" lon="5.64848">
        <ele>451.6</ele>
        <time>2014-01-22T13:55:43Z</time>
      </trkpt>
      <trkpt lat="43.30024" lon="5.64858">
        <ele>447</ele>
        <time>2014-01-22T13:55:58Z</time>
      </trkpt>
      <trkpt lat="43.30024" lon="5.64864">
        <ele>444.2</ele>
        <time>2014-01-22T13:56:07Z</time>
      </trkpt>
      <trkpt lat="43.30025" lon="5.64869">
        <ele>442.2</ele>
        <time>2014-01-22T13:56:17Z</time>
      </trkpt>
      <trkpt lat="43.30024" lon="5.64875">
        <ele>440.3</ele>
        <time>2014-01-22T13:56:25Z</time>
      </trkpt>
      <trkpt lat="43.30025" lon="5.64881">
        <ele>439.6</ele>
        <time>2014-01-22T13:56:29Z</time>
      </trkpt>
      <trkpt lat="43.30026" lon="5.64886">
        <ele>438.6</ele>
        <time>2014-01-22T13:56:34Z</time>
      </trkpt>
      <trkpt lat="43.30026" lon="5.64892">
        <ele>438</ele>
        <time>2014-01-22T13:56:39Z</time>
      </trkpt>
      <trkpt lat="43.30026" lon="5.64897">
        <ele>437.6</ele>
        <time>2014-01-22T13:56:45Z</time>
      </trkpt>
      <trkpt lat="43.30026" lon="5.64898">
        <ele>437.5</ele>
        <time>2014-01-22T13:56:46Z</time>
      </trkpt>
      <trkpt lat="43.30026" lon="5.64907">
        <ele>436.8</ele>
        <time>2014-01-22T13:56:54Z</time>
      </trkpt>
      <trkpt lat="43.30026" lon="5.64913">
        <ele>436.2</ele>
        <time>2014-01-22T13:57:01Z</time>
      </trkpt>
      <trkpt lat="43.30027" lon="5.64919">
        <ele>435.3</ele>
        <time>2014-01-22T13:57:08Z</time>
      </trkpt>
      <trkpt lat="43.30027" lon="5.64925">
        <ele>434.6</ele>
        <time>2014-01-22T13:57:13Z</time>
      </trkpt>
      <trkpt lat="43.30026" lon="5.6493">
        <ele>433.6</ele>
        <time>2014-01-22T13:57:19Z</time>
      </trkpt>
      <trkpt lat="43.30027" lon="5.64936">
        <ele>432.5</ele>
        <time>2014-01-22T13:57:25Z</time>
      </trkpt>
      <trkpt lat="43.30026" lon="5.64942">
        <ele>431.3</ele>
        <time>2014-01-22T13:57:32Z</time>
      </trkpt>
      <trkpt lat="43.30025" lon="5.64947">
        <ele>429.8</ele>
        <time>2014-01-22T13:57:41Z</time>
      </trkpt>
      <trkpt lat="43.30022" lon="5.64952">
        <ele>430.1</ele>
        <time>2014-01-22T13:57:48Z</time>
      </trkpt>
      <trkpt lat="43.30021" lon="5.64952">
        <ele>430</ele>
        <time>2014-01-22T13:57:49Z</time>
      </trkpt>
      <trkpt lat="43.30015" lon="5.64959">
        <ele>427.3</ele>
        <time>2014-01-22T13:58:09Z</time>
      </trkpt>
      <trkpt lat="43.30013" lon="5.64964">
        <ele>427.2</ele>
        <time>2014-01-22T13:58:15Z</time>
      </trkpt>
      <trkpt lat="43.3001" lon="5.64968">
        <ele>427.2</ele>
        <time>2014-01-22T13:58:20Z</time>
      </trkpt>
      <trkpt lat="43.30008" lon="5.64973">
        <ele>426</ele>
        <time>2014-01-22T13:58:26Z</time>
      </trkpt>
      <trkpt lat="43.30006" lon="5.64978">
        <ele>424.5</ele>
        <time>2014-01-22T13:58:32Z</time>
      </trkpt>
      <trkpt lat="43.30004" lon="5.64983">
        <ele>422.1</ele>
        <time>2014-01-22T13:58:39Z</time>
      </trkpt>
      <trkpt lat="43.30002" lon="5.64988">
        <ele>419.6</ele>
        <time>2014-01-22T13:58:47Z</time>
      </trkpt>
      <trkpt lat="43.29999" lon="5.64992">
        <ele>418.8</ele>
        <time>2014-01-22T13:58:53Z</time>
      </trkpt>
      <trkpt lat="43.29998" lon="5.64992">
        <ele>418.8</ele>
        <time>2014-01-22T13:58:54Z</time>
      </trkpt>
      <trkpt lat="43.29992" lon="5.64998">
        <ele>418.1</ele>
        <time>2014-01-22T13:59:04Z</time>
      </trkpt>
      <trkpt lat="43.29988" lon="5.64999">
        <ele>417.3</ele>
        <time>2014-01-22T13:59:08Z</time>
      </trkpt>
      <trkpt lat="43.29984" lon="5.64998">
        <ele>416.3</ele>
        <time>2014-01-22T13:59:12Z</time>
      </trkpt>
      <trkpt lat="43.2998" lon="5.64997">
        <ele>415.3</ele>
        <time>2014-01-22T13:59:16Z</time>
      </trkpt>
      <trkpt lat="43.29976" lon="5.64995">
        <ele>414.5</ele>
        <time>2014-01-22T13:59:20Z</time>
      </trkpt>
      <trkpt lat="43.29972" lon="5.64994">
        <ele>413.2</ele>
        <time>2014-01-22T13:59:24Z</time>
      </trkpt>
      <trkpt lat="43.29969" lon="5.64991">
        <ele>412.1</ele>
        <time>2014-01-22T13:59:29Z</time>
      </trkpt>
      <trkpt lat="43.29966" lon="5.64987">
        <ele>410.2</ele>
        <time>2014-01-22T13:59:35Z</time>
      </trkpt>
      <trkpt lat="43.29963" lon="5.64983">
        <ele>408.2</ele>
        <time>2014-01-22T13:59:41Z</time>
      </trkpt>
      <trkpt lat="43.2996" lon="5.6498">
        <ele>407</ele>
        <time>2014-01-22T13:59:45Z</time>
      </trkpt>
      <trkpt lat="43.29958" lon="5.64974">
        <ele>405.6</ele>
        <time>2014-01-22T14:00:02Z</time>
      </trkpt>
      <trkpt lat="43.29957" lon="5.64974">
        <ele>405.8</ele>
        <time>2014-01-22T14:00:03Z</time>
      </trkpt>
      <trkpt lat="43.29952" lon="5.64973">
        <ele>398.1</ele>
        <time>2014-01-22T14:01:32Z</time>
      </trkpt>
      <trkpt lat="43.29946" lon="5.6497">
        <ele>397.6</ele>
        <time>2014-01-22T14:01:38Z</time>
      </trkpt>
      <trkpt lat="43.29943" lon="5.64968">
        <ele>397.3</ele>
        <time>2014-01-22T14:01:41Z</time>
      </trkpt>
      <trkpt lat="43.29939" lon="5.64966">
        <ele>396.7</ele>
        <time>2014-01-22T14:01:45Z</time>
      </trkpt>
      <trkpt lat="43.29935" lon="5.64964">
        <ele>396</ele>
        <time>2014-01-22T14:01:49Z</time>
      </trkpt>
      <trkpt lat="43.29932" lon="5.64961">
        <ele>395.7</ele>
        <time>2014-01-22T14:01:53Z</time>
      </trkpt>
      <trkpt lat="43.29928" lon="5.64959">
        <ele>395.5</ele>
        <time>2014-01-22T14:01:57Z</time>
      </trkpt>
      <trkpt lat="43.29924" lon="5.64957">
        <ele>394.8</ele>
        <time>2014-01-22T14:02:01Z</time>
      </trkpt>
      <trkpt lat="43.2992" lon="5.64954">
        <ele>394.7</ele>
        <time>2014-01-22T14:02:06Z</time>
      </trkpt>
      <trkpt lat="43.29918" lon="5.6495">
        <ele>394.8</ele>
        <time>2014-01-22T14:02:10Z</time>
      </trkpt>
      <trkpt lat="43.29916" lon="5.64945">
        <ele>395.1</ele>
        <time>2014-01-22T14:02:14Z</time>
      </trkpt>
      <trkpt lat="43.29912" lon="5.64942">
        <ele>395.1</ele>
        <time>2014-01-22T14:02:19Z</time>
      </trkpt>
      <trkpt lat="43.29909" lon="5.64939">
        <ele>395</ele>
        <time>2014-01-22T14:02:25Z</time>
      </trkpt>
      <trkpt lat="43.29906" lon="5.64936">
        <ele>394.6</ele>
        <time>2014-01-22T14:02:30Z</time>
      </trkpt>
      <trkpt lat="43.29903" lon="5.64932">
        <ele>394</ele>
        <time>2014-01-22T14:02:34Z</time>
      </trkpt>
      <trkpt lat="43.29902" lon="5.64931">
        <ele>393.8</ele>
        <time>2014-01-22T14:02:35Z</time>
      </trkpt>
      <trkpt lat="43.29896" lon="5.64926">
        <ele>392.2</ele>
        <time>2014-01-22T14:02:44Z</time>
      </trkpt>
      <trkpt lat="43.29893" lon="5.64922">
        <ele>391.6</ele>
        <time>2014-01-22T14:02:49Z</time>
      </trkpt>
      <trkpt lat="43.2989" lon="5.64918">
        <ele>391</ele>
        <time>2014-01-22T14:02:54Z</time>
      </trkpt>
      <trkpt lat="43.29887" lon="5.64915">
        <ele>390.2</ele>
        <time>2014-01-22T14:02:58Z</time>
      </trkpt>
      <trkpt lat="43.29885" lon="5.64911">
        <ele>391.5</ele>
        <time>2014-01-22T14:03:01Z</time>
      </trkpt>
      <trkpt lat="43.29882" lon="5.64907">
        <ele>390.2</ele>
        <time>2014-01-22T14:03:06Z</time>
      </trkpt>
      <trkpt lat="43.29878" lon="5.64904">
        <ele>389.2</ele>
        <time>2014-01-22T14:03:11Z</time>
      </trkpt>
      <trkpt lat="43.29875" lon="5.649">
        <ele>388.2</ele>
        <time>2014-01-22T14:03:15Z</time>
      </trkpt>
      <trkpt lat="43.29873" lon="5.64896">
        <ele>387.6</ele>
        <time>2014-01-22T14:03:19Z</time>
      </trkpt>
      <trkpt lat="43.29869" lon="5.64893">
        <ele>386.6</ele>
        <time>2014-01-22T14:03:23Z</time>
      </trkpt>
      <trkpt lat="43.29866" lon="5.64889">
        <ele>385.6</ele>
        <time>2014-01-22T14:03:28Z</time>
      </trkpt>
      <trkpt lat="43.29864" lon="5.64885">
        <ele>384.2</ele>
        <time>2014-01-22T14:03:34Z</time>
      </trkpt>
      <trkpt lat="43.29862" lon="5.6488">
        <ele>383.5</ele>
        <time>2014-01-22T14:03:38Z</time>
      </trkpt>
      <trkpt lat="43.29862" lon="5.64879">
        <ele>383.2</ele>
        <time>2014-01-22T14:03:39Z</time>
      </trkpt>
      <trkpt lat="43.29857" lon="5.6487">
        <ele>380.7</ele>
        <time>2014-01-22T14:03:47Z</time>
      </trkpt>
      <trkpt lat="43.29855" lon="5.64866">
        <ele>379.7</ele>
        <time>2014-01-22T14:03:51Z</time>
      </trkpt>
      <trkpt lat="43.29854" lon="5.6486">
        <ele>377.6</ele>
        <time>2014-01-22T14:03:57Z</time>
      </trkpt>
      <trkpt lat="43.29854" lon="5.64854">
        <ele>376</ele>
        <time>2014-01-22T14:04:02Z</time>
      </trkpt>
      <trkpt lat="43.29854" lon="5.64849">
        <ele>374.1</ele>
        <time>2014-01-22T14:04:07Z</time>
      </trkpt>
      <trkpt lat="43.29854" lon="5.64843">
        <ele>372.5</ele>
        <time>2014-01-22T14:04:13Z</time>
      </trkpt>
      <trkpt lat="43.29853" lon="5.64837">
        <ele>371.2</ele>
        <time>2014-01-22T14:04:19Z</time>
      </trkpt>
      <trkpt lat="43.29853" lon="5.64832">
        <ele>369.2</ele>
        <time>2014-01-22T14:04:25Z</time>
      </trkpt>
      <trkpt lat="43.29854" lon="5.64826">
        <ele>367.7</ele>
        <time>2014-01-22T14:04:30Z</time>
      </trkpt>
      <trkpt lat="43.29855" lon="5.64821">
        <ele>365.2</ele>
        <time>2014-01-22T14:04:35Z</time>
      </trkpt>
      <trkpt lat="43.29857" lon="5.64816">
        <ele>363.6</ele>
        <time>2014-01-22T14:04:40Z</time>
      </trkpt>
      <trkpt lat="43.29857" lon="5.64815">
        <ele>363.5</ele>
        <time>2014-01-22T14:04:41Z</time>
      </trkpt>
      <trkpt lat="43.2986" lon="5.64805">
        <ele>361.2</ele>
        <time>2014-01-22T14:04:49Z</time>
      </trkpt>
      <trkpt lat="43.29861" lon="5.648">
        <ele>357.6</ele>
        <time>2014-01-22T14:04:58Z</time>
      </trkpt>
      <trkpt lat="43.29862" lon="5.64794">
        <ele>355.5</ele>
        <time>2014-01-22T14:05:04Z</time>
      </trkpt>
      <trkpt lat="43.29863" lon="5.64788">
        <ele>354.7</ele>
        <time>2014-01-22T14:05:09Z</time>
      </trkpt>
      <trkpt lat="43.29861" lon="5.64783">
        <ele>353.7</ele>
        <time>2014-01-22T14:05:15Z</time>
      </trkpt>
      <trkpt lat="43.29858" lon="5.64779">
        <ele>354.7</ele>
        <time>2014-01-22T14:05:19Z</time>
      </trkpt>
      <trkpt lat="43.29856" lon="5.64775">
        <ele>354.6</ele>
        <time>2014-01-22T14:05:24Z</time>
      </trkpt>
      <trkpt lat="43.29854" lon="5.64771">
        <ele>354.2</ele>
        <time>2014-01-22T14:05:29Z</time>
      </trkpt>
      <trkpt lat="43.2985" lon="5.64769">
        <ele>354.8</ele>
        <time>2014-01-22T14:05:34Z</time>
      </trkpt>
      <trkpt lat="43.29846" lon="5.64768">
        <ele>356.1</ele>
        <time>2014-01-22T14:05:39Z</time>
      </trkpt>
      <trkpt lat="43.29842" lon="5.64769">
        <ele>357.2</ele>
        <time>2014-01-22T14:05:46Z</time>
      </trkpt>
      <trkpt lat="43.29841" lon="5.64769">
        <ele>357.2</ele>
        <time>2014-01-22T14:05:47Z</time>
      </trkpt>
      <trkpt lat="43.29834" lon="5.64771">
        <ele>357.7</ele>
        <time>2014-01-22T14:05:58Z</time>
      </trkpt>
      <trkpt lat="43.2983" lon="5.64771">
        <ele>357.2</ele>
        <time>2014-01-22T14:06:03Z</time>
      </trkpt>
      <trkpt lat="43.29826" lon="5.64773">
        <ele>357</ele>
        <time>2014-01-22T14:06:08Z</time>
      </trkpt>
      <trkpt lat="43.29822" lon="5.64775">
        <ele>356.6</ele>
        <time>2014-01-22T14:06:14Z</time>
      </trkpt>
      <trkpt lat="43.29818" lon="5.64776">
        <ele>355.8</ele>
        <time>2014-01-22T14:06:21Z</time>
      </trkpt>
      <trkpt lat="43.29815" lon="5.64777">
        <ele>355.1</ele>
        <time>2014-01-22T14:06:26Z</time>
      </trkpt>
      <trkpt lat="43.29811" lon="5.64778">
        <ele>354.5</ele>
        <time>2014-01-22T14:06:30Z</time>
      </trkpt>
      <trkpt lat="43.29807" lon="5.64777">
        <ele>351.6</ele>
        <time>2014-01-22T14:06:46Z</time>
      </trkpt>
      <trkpt lat="43.29802" lon="5.64776">
        <ele>350.5</ele>
        <time>2014-01-22T14:06:54Z</time>
      </trkpt>
      <trkpt lat="43.29802" lon="5.64776">
        <ele>350.2</ele>
        <time>2014-01-22T14:06:55Z</time>
      </trkpt>
      <trkpt lat="43.29795" lon="5.64771">
        <ele>347.7</ele>
        <time>2014-01-22T14:07:05Z</time>
      </trkpt>
      <trkpt lat="43.29792" lon="5.64768">
        <ele>346.2</ele>
        <time>2014-01-22T14:07:10Z</time>
      </trkpt>
      <trkpt lat="43.29788" lon="5.64765">
        <ele>344.7</ele>
        <time>2014-01-22T14:07:15Z</time>
      </trkpt>
      <trkpt lat="43.29784" lon="5.64763">
        <ele>343.1</ele>
        <time>2014-01-22T14:07:19Z</time>
      </trkpt>
      <trkpt lat="43.29781" lon="5.64762">
        <ele>342.2</ele>
        <time>2014-01-22T14:07:22Z</time>
      </trkpt>
      <trkpt lat="43.29777" lon="5.64762">
        <ele>342.6</ele>
        <time>2014-01-22T14:07:25Z</time>
      </trkpt>
      <trkpt lat="43.29773" lon="5.64761">
        <ele>342.3</ele>
        <time>2014-01-22T14:07:29Z</time>
      </trkpt>
      <trkpt lat="43.2977" lon="5.6476">
        <ele>340.7</ele>
        <time>2014-01-22T14:07:34Z</time>
      </trkpt>
      <trkpt lat="43.29766" lon="5.64759">
        <ele>340.6</ele>
        <time>2014-01-22T14:07:38Z</time>
      </trkpt>
      <trkpt lat="43.29762" lon="5.6476">
        <ele>340.7</ele>
        <time>2014-01-22T14:07:45Z</time>
      </trkpt>
      <trkpt lat="43.29761" lon="5.64765">
        <ele>339.1</ele>
        <time>2014-01-22T14:07:53Z</time>
      </trkpt>
      <trkpt lat="43.29763" lon="5.6477">
        <ele>338.1</ele>
        <time>2014-01-22T14:07:57Z</time>
      </trkpt>
      <trkpt lat="43.29764" lon="5.64771">
        <ele>337.7</ele>
        <time>2014-01-22T14:07:58Z</time>
      </trkpt>
      <trkpt lat="43.29767" lon="5.6478">
        <ele>336.2</ele>
        <time>2014-01-22T14:08:05Z</time>
      </trkpt>
      <trkpt lat="43.29768" lon="5.64785">
        <ele>334.8</ele>
        <time>2014-01-22T14:08:09Z</time>
      </trkpt>
      <trkpt lat="43.29769" lon="5.64791">
        <ele>334.2</ele>
        <time>2014-01-22T14:08:13Z</time>
      </trkpt>
      <trkpt lat="43.29771" lon="5.64795">
        <ele>333.8</ele>
        <time>2014-01-22T14:08:16Z</time>
      </trkpt>
      <trkpt lat="43.29773" lon="5.648">
        <ele>333.2</ele>
        <time>2014-01-22T14:08:20Z</time>
      </trkpt>
      <trkpt lat="43.29774" lon="5.64806">
        <ele>331.8</ele>
        <time>2014-01-22T14:08:25Z</time>
      </trkpt>
      <trkpt lat="43.29773" lon="5.64812">
        <ele>331</ele>
        <time>2014-01-22T14:08:31Z</time>
      </trkpt>
      <trkpt lat="43.2977" lon="5.64815">
        <ele>331.2</ele>
        <time>2014-01-22T14:08:35Z</time>
      </trkpt>
      <trkpt lat="43.29766" lon="5.64817">
        <ele>331.3</ele>
        <time>2014-01-22T14:08:38Z</time>
      </trkpt>
      <trkpt lat="43.29762" lon="5.64819">
        <ele>331.5</ele>
        <time>2014-01-22T14:08:42Z</time>
      </trkpt>
      <trkpt lat="43.29758" lon="5.64821">
        <ele>331.6</ele>
        <time>2014-01-22T14:08:46Z</time>
      </trkpt>
      <trkpt lat="43.29754" lon="5.64821">
        <ele>330</ele>
        <time>2014-01-22T14:08:58Z</time>
      </trkpt>
      <trkpt lat="43.29753" lon="5.64821">
        <ele>330.1</ele>
        <time>2014-01-22T14:08:59Z</time>
      </trkpt>
      <trkpt lat="43.29746" lon="5.64826">
        <ele>330.6</ele>
        <time>2014-01-22T14:09:06Z</time>
      </trkpt>
      <trkpt lat="43.29743" lon="5.64828">
        <ele>330.8</ele>
        <time>2014-01-22T14:09:09Z</time>
      </trkpt>
      <trkpt lat="43.2974" lon="5.64831">
        <ele>331.2</ele>
        <time>2014-01-22T14:09:12Z</time>
      </trkpt>
      <trkpt lat="43.29737" lon="5.64833">
        <ele>331.7</ele>
        <time>2014-01-22T14:09:15Z</time>
      </trkpt>
      <trkpt lat="43.29733" lon="5.64835">
        <ele>332</ele>
        <time>2014-01-22T14:09:18Z</time>
      </trkpt>
      <trkpt lat="43.2973" lon="5.64838">
        <ele>332.2</ele>
        <time>2014-01-22T14:09:21Z</time>
      </trkpt>
      <trkpt lat="43.29727" lon="5.64842">
        <ele>331.2</ele>
        <time>2014-01-22T14:09:26Z</time>
      </trkpt>
      <trkpt lat="43.29728" lon="5.64847">
        <ele>329.7</ele>
        <time>2014-01-22T14:09:33Z</time>
      </trkpt>
      <trkpt lat="43.2973" lon="5.64853">
        <ele>327.7</ele>
        <time>2014-01-22T14:09:41Z</time>
      </trkpt>
      <trkpt lat="43.29731" lon="5.64858">
        <ele>325.8</ele>
        <time>2014-01-22T14:09:47Z</time>
      </trkpt>
      <trkpt lat="43.29732" lon="5.64864">
        <ele>323.8</ele>
        <time>2014-01-22T14:09:53Z</time>
      </trkpt>
      <trkpt lat="43.29734" lon="5.64869">
        <ele>322.2</ele>
        <time>2014-01-22T14:09:58Z</time>
      </trkpt>
      <trkpt lat="43.29733" lon="5.64875">
        <ele>321.3</ele>
        <time>2014-01-22T14:10:03Z</time>
      </trkpt>
      <trkpt lat="43.29733" lon="5.64875">
        <ele>321.5</ele>
        <time>2014-01-22T14:10:04Z</time>
      </trkpt>
      <trkpt lat="43.29732" lon="5.64885">
        <ele>323.6</ele>
        <time>2014-01-22T14:10:11Z</time>
      </trkpt>
      <trkpt lat="43.29732" lon="5.64891">
        <ele>324.2</ele>
        <time>2014-01-22T14:10:16Z</time>
      </trkpt>
      <trkpt lat="43.29735" lon="5.64895">
        <ele>324.6</ele>
        <time>2014-01-22T14:10:25Z</time>
      </trkpt>
      <trkpt lat="43.2974" lon="5.64894">
        <ele>321.6</ele>
        <time>2014-01-22T14:10:50Z</time>
      </trkpt>
      <trkpt lat="43.29738" lon="5.64899">
        <ele>323</ele>
        <time>2014-01-22T14:11:07Z</time>
      </trkpt>
      <trkpt lat="43.29737" lon="5.649">
        <ele>323.5</ele>
        <time>2014-01-22T14:11:08Z</time>
      </trkpt>
      <trkpt lat="43.29733" lon="5.6489">
        <ele>316.7</ele>
        <time>2014-01-22T14:11:29Z</time>
      </trkpt>
      <trkpt lat="43.29732" lon="5.64885">
        <ele>313.5</ele>
        <time>2014-01-22T14:11:36Z</time>
      </trkpt>
      <trkpt lat="43.29731" lon="5.64879">
        <ele>316.8</ele>
        <time>2014-01-22T14:11:50Z</time>
      </trkpt>
      <trkpt lat="43.29728" lon="5.64875">
        <ele>317.2</ele>
        <time>2014-01-22T14:11:59Z</time>
      </trkpt>
      <trkpt lat="43.29725" lon="5.64872">
        <ele>316.2</ele>
        <time>2014-01-22T14:12:08Z</time>
      </trkpt>
      <trkpt lat="43.29724" lon="5.64871">
        <ele>316</ele>
        <time>2014-01-22T14:12:09Z</time>
      </trkpt>
      <trkpt lat="43.29717" lon="5.64866">
        <ele>310.8</ele>
        <time>2014-01-22T14:12:21Z</time>
      </trkpt>
      <trkpt lat="43.29713" lon="5.64863">
        <ele>307.7</ele>
        <time>2014-01-22T14:12:28Z</time>
      </trkpt>
      <trkpt lat="43.29709" lon="5.64861">
        <ele>305.8</ele>
        <time>2014-01-22T14:12:34Z</time>
      </trkpt>
      <trkpt lat="43.29706" lon="5.64859">
        <ele>304.6</ele>
        <time>2014-01-22T14:12:39Z</time>
      </trkpt>
      <trkpt lat="43.29702" lon="5.64856">
        <ele>306.1</ele>
        <time>2014-01-22T14:12:44Z</time>
      </trkpt>
      <trkpt lat="43.29698" lon="5.64856">
        <ele>303.7</ele>
        <time>2014-01-22T14:12:51Z</time>
      </trkpt>
      <trkpt lat="43.29694" lon="5.64855">
        <ele>302.2</ele>
        <time>2014-01-22T14:12:59Z</time>
      </trkpt>
      <trkpt lat="43.29689" lon="5.64854">
        <ele>300.1</ele>
        <time>2014-01-22T14:13:07Z</time>
      </trkpt>
      <trkpt lat="43.29685" lon="5.64853">
        <ele>298.7</ele>
        <time>2014-01-22T14:13:15Z</time>
      </trkpt>
      <trkpt lat="43.29685" lon="5.64853">
        <ele>298.6</ele>
        <time>2014-01-22T14:13:16Z</time>
      </trkpt>
      <trkpt lat="43.29678" lon="5.64851">
        <ele>299.1</ele>
        <time>2014-01-22T14:13:27Z</time>
      </trkpt>
      <trkpt lat="43.29675" lon="5.64848">
        <ele>303.3</ele>
        <time>2014-01-22T14:13:29Z</time>
      </trkpt>
      <trkpt lat="43.29671" lon="5.64847">
        <ele>304.8</ele>
        <time>2014-01-22T14:13:35Z</time>
      </trkpt>
      <trkpt lat="43.29668" lon="5.64845">
        <ele>306.3</ele>
        <time>2014-01-22T14:13:39Z</time>
      </trkpt>
      <trkpt lat="43.29665" lon="5.64844">
        <ele>307.5</ele>
        <time>2014-01-22T14:13:43Z</time>
      </trkpt>
      <trkpt lat="43.29662" lon="5.64841">
        <ele>309.3</ele>
        <time>2014-01-22T14:13:48Z</time>
      </trkpt>
      <trkpt lat="43.29657" lon="5.64841">
        <ele>306</ele>
        <time>2014-01-22T14:13:55Z</time>
      </trkpt>
      <trkpt lat="43.29654" lon="5.64841">
        <ele>302.7</ele>
        <time>2014-01-22T14:14:01Z</time>
      </trkpt>
      <trkpt lat="43.2965" lon="5.6484">
        <ele>301.2</ele>
        <time>2014-01-22T14:14:07Z</time>
      </trkpt>
      <trkpt lat="43.29646" lon="5.64837">
        <ele>300.2</ele>
        <time>2014-01-22T14:14:12Z</time>
      </trkpt>
      <trkpt lat="43.29643" lon="5.64834">
        <ele>298.1</ele>
        <time>2014-01-22T14:14:19Z</time>
      </trkpt>
      <trkpt lat="43.29643" lon="5.64832">
        <ele>298.3</ele>
        <time>2014-01-22T14:14:20Z</time>
      </trkpt>
      <trkpt lat="43.29642" lon="5.64823">
        <ele>297.2</ele>
        <time>2014-01-22T14:14:29Z</time>
      </trkpt>
      <trkpt lat="43.29642" lon="5.64818">
        <ele>291.2</ele>
        <time>2014-01-22T14:14:37Z</time>
      </trkpt>
      <trkpt lat="43.2964" lon="5.64813">
        <ele>289.5</ele>
        <time>2014-01-22T14:14:43Z</time>
      </trkpt>
      <trkpt lat="43.29637" lon="5.64809">
        <ele>283.6</ele>
        <time>2014-01-22T14:14:51Z</time>
      </trkpt>
      <trkpt lat="43.29635" lon="5.64805">
        <ele>285.3</ele>
        <time>2014-01-22T14:14:54Z</time>
      </trkpt>
      <trkpt lat="43.29634" lon="5.648">
        <ele>284.6</ele>
        <time>2014-01-22T14:15:00Z</time>
      </trkpt>
      <trkpt lat="43.29631" lon="5.64796">
        <ele>282.1</ele>
        <time>2014-01-22T14:15:08Z</time>
      </trkpt>
      <trkpt lat="43.29627" lon="5.64793">
        <ele>276.2</ele>
        <time>2014-01-22T14:15:19Z</time>
      </trkpt>
      <trkpt lat="43.29624" lon="5.6479">
        <ele>273.7</ele>
        <time>2014-01-22T14:15:27Z</time>
      </trkpt>
      <trkpt lat="43.29623" lon="5.6479">
        <ele>273.2</ele>
        <time>2014-01-22T14:15:28Z</time>
      </trkpt>
      <trkpt lat="43.29615" lon="5.64787">
        <ele>272.3</ele>
        <time>2014-01-22T14:15:42Z</time>
      </trkpt>
      <trkpt lat="43.29612" lon="5.64789">
        <ele>271</ele>
        <time>2014-01-22T14:15:49Z</time>
      </trkpt>
      <trkpt lat="43.29608" lon="5.64787">
        <ele>277.7</ele>
        <time>2014-01-22T14:15:53Z</time>
      </trkpt>
      <trkpt lat="43.29604" lon="5.6479">
        <ele>278.6</ele>
        <time>2014-01-22T14:15:59Z</time>
      </trkpt>
      <trkpt lat="43.296" lon="5.64792">
        <ele>276.2</ele>
        <time>2014-01-22T14:16:05Z</time>
      </trkpt>
      <trkpt lat="43.29597" lon="5.64794">
        <ele>275.6</ele>
        <time>2014-01-22T14:16:11Z</time>
      </trkpt>
      <trkpt lat="43.29592" lon="5.64794">
        <ele>274.1</ele>
        <time>2014-01-22T14:16:20Z</time>
      </trkpt>
      <trkpt lat="43.29588" lon="5.64796">
        <ele>273.7</ele>
        <time>2014-01-22T14:16:27Z</time>
      </trkpt>
      <trkpt lat="43.29584" lon="5.64796">
        <ele>272</ele>
        <time>2014-01-22T14:16:33Z</time>
      </trkpt>
      <trkpt lat="43.29584" lon="5.64796">
        <ele>272.7</ele>
        <time>2014-01-22T14:16:34Z</time>
      </trkpt>
      <trkpt lat="43.2958" lon="5.64791">
        <ele>278.1</ele>
        <time>2014-01-22T14:16:38Z</time>
      </trkpt>
      <trkpt lat="43.29578" lon="5.64787">
        <ele>284.3</ele>
        <time>2014-01-22T14:16:39Z</time>
      </trkpt>
      <trkpt lat="43.29575" lon="5.64783">
        <ele>289.8</ele>
        <time>2014-01-22T14:16:40Z</time>
      </trkpt>
      <trkpt lat="43.29572" lon="5.64779">
        <ele>293.7</ele>
        <time>2014-01-22T14:16:44Z</time>
      </trkpt>
      <trkpt lat="43.29569" lon="5.64776">
        <ele>296.3</ele>
        <time>2014-01-22T14:16:51Z</time>
      </trkpt>
      <trkpt lat="43.29569" lon="5.6477">
        <ele>274.5</ele>
        <time>2014-01-22T14:17:18Z</time>
      </trkpt>
      <trkpt lat="43.29571" lon="5.64765">
        <ele>267.7</ele>
        <time>2014-01-22T14:17:25Z</time>
      </trkpt>
      <trkpt lat="43.29574" lon="5.6476">
        <ele>264.5</ele>
        <time>2014-01-22T14:17:31Z</time>
      </trkpt>
      <trkpt lat="43.29575" lon="5.64755">
        <ele>262.7</ele>
        <time>2014-01-22T14:17:36Z</time>
      </trkpt>
      <trkpt lat="43.29575" lon="5.64754">
        <ele>262.3</ele>
        <time>2014-01-22T14:17:37Z</time>
      </trkpt>
      <trkpt lat="43.29573" lon="5.64744">
        <ele>261.3</ele>
        <time>2014-01-22T14:17:47Z</time>
      </trkpt>
      <trkpt lat="43.29571" lon="5.6474">
        <ele>261.2</ele>
        <time>2014-01-22T14:17:51Z</time>
      </trkpt>
      <trkpt lat="43.29568" lon="5.64736">
        <ele>260.2</ele>
        <time>2014-01-22T14:17:55Z</time>
      </trkpt>
      <trkpt lat="43.29564" lon="5.64732">
        <ele>259</ele>
        <time>2014-01-22T14:18:01Z</time>
      </trkpt>
      <trkpt lat="43.29561" lon="5.64729">
        <ele>257.6</ele>
        <time>2014-01-22T14:18:07Z</time>
      </trkpt>
      <trkpt lat="43.29558" lon="5.64725">
        <ele>256.2</ele>
        <time>2014-01-22T14:18:13Z</time>
      </trkpt>
      <trkpt lat="43.29554" lon="5.64723">
        <ele>254.1</ele>
        <time>2014-01-22T14:18:20Z</time>
      </trkpt>
      <trkpt lat="43.2955" lon="5.64722">
        <ele>251.6</ele>
        <time>2014-01-22T14:18:26Z</time>
      </trkpt>
      <trkpt lat="43.29546" lon="5.64723">
        <ele>249</ele>
        <time>2014-01-22T14:18:33Z</time>
      </trkpt>
      <trkpt lat="43.29541" lon="5.64722">
        <ele>248.1</ele>
        <time>2014-01-22T14:18:40Z</time>
      </trkpt>
      <trkpt lat="43.29541" lon="5.64722">
        <ele>247.8</ele>
        <time>2014-01-22T14:18:41Z</time>
      </trkpt>
      <trkpt lat="43.29533" lon="5.64723">
        <ele>243.8</ele>
        <time>2014-01-22T14:18:52Z</time>
      </trkpt>
      <trkpt lat="43.29529" lon="5.64723">
        <ele>243.3</ele>
        <time>2014-01-22T14:18:57Z</time>
      </trkpt>
      <trkpt lat="43.29525" lon="5.6472">
        <ele>243.1</ele>
        <time>2014-01-22T14:19:01Z</time>
      </trkpt>
      <trkpt lat="43.29522" lon="5.64718">
        <ele>242.3</ele>
        <time>2014-01-22T14:19:05Z</time>
      </trkpt>
      <trkpt lat="43.29518" lon="5.64717">
        <ele>240.3</ele>
        <time>2014-01-22T14:19:09Z</time>
      </trkpt>
      <trkpt lat="43.29515" lon="5.64716">
        <ele>238.8</ele>
        <time>2014-01-22T14:19:13Z</time>
      </trkpt>
      <trkpt lat="43.29511" lon="5.64714">
        <ele>237.3</ele>
        <time>2014-01-22T14:19:17Z</time>
      </trkpt>
      <trkpt lat="43.29509" lon="5.64712">
        <ele>241.1</ele>
        <time>2014-01-22T14:19:18Z</time>
      </trkpt>
      <trkpt lat="43.29506" lon="5.64709">
        <ele>244.1</ele>
        <time>2014-01-22T14:19:21Z</time>
      </trkpt>
      <trkpt lat="43.29502" lon="5.64708">
        <ele>244.5</ele>
        <time>2014-01-22T14:19:25Z</time>
      </trkpt>
      <trkpt lat="43.29498" lon="5.64708">
        <ele>244</ele>
        <time>2014-01-22T14:19:29Z</time>
      </trkpt>
      <trkpt lat="43.29494" lon="5.64708">
        <ele>241.8</ele>
        <time>2014-01-22T14:19:34Z</time>
      </trkpt>
      <trkpt lat="43.2949" lon="5.64708">
        <ele>238.8</ele>
        <time>2014-01-22T14:19:40Z</time>
      </trkpt>
      <trkpt lat="43.29486" lon="5.64707">
        <ele>237.3</ele>
        <time>2014-01-22T14:19:45Z</time>
      </trkpt>
      <trkpt lat="43.29484" lon="5.64705">
        <ele>239.1</ele>
        <time>2014-01-22T14:19:46Z</time>
      </trkpt>
      <trkpt lat="43.29478" lon="5.64705">
        <ele>234.1</ele>
        <time>2014-01-22T14:19:55Z</time>
      </trkpt>
      <trkpt lat="43.29474" lon="5.64705">
        <ele>231.5</ele>
        <time>2014-01-22T14:20:00Z</time>
      </trkpt>
      <trkpt lat="43.2947" lon="5.64703">
        <ele>229.3</ele>
        <time>2014-01-22T14:20:05Z</time>
      </trkpt>
      <trkpt lat="43.29467" lon="5.64702">
        <ele>227.3</ele>
        <time>2014-01-22T14:20:09Z</time>
      </trkpt>
      <trkpt lat="43.29463" lon="5.64702">
        <ele>226.3</ele>
        <time>2014-01-22T14:20:13Z</time>
      </trkpt>
      <trkpt lat="43.29459" lon="5.64702">
        <ele>224.5</ele>
        <time>2014-01-22T14:20:19Z</time>
      </trkpt>
      <trkpt lat="43.29454" lon="5.64701">
        <ele>224.1</ele>
        <time>2014-01-22T14:20:24Z</time>
      </trkpt>
      <trkpt lat="43.2945" lon="5.64702">
        <ele>221.3</ele>
        <time>2014-01-22T14:20:30Z</time>
      </trkpt>
      <trkpt lat="43.29448" lon="5.64699">
        <ele>225.8</ele>
        <time>2014-01-22T14:20:32Z</time>
      </trkpt>
      <trkpt lat="43.29444" lon="5.64696">
        <ele>231.3</ele>
        <time>2014-01-22T14:20:35Z</time>
      </trkpt>
      <trkpt lat="43.2944" lon="5.64696">
        <ele>231.1</ele>
        <time>2014-01-22T14:20:40Z</time>
      </trkpt>
      <trkpt lat="43.29437" lon="5.64698">
        <ele>228.5</ele>
        <time>2014-01-22T14:20:46Z</time>
      </trkpt>
      <trkpt lat="43.29436" lon="5.64698">
        <ele>227.8</ele>
        <time>2014-01-22T14:20:47Z</time>
      </trkpt>
      <trkpt lat="43.29429" lon="5.64694">
        <ele>229.5</ele>
        <time>2014-01-22T14:20:57Z</time>
      </trkpt>
      <trkpt lat="43.29425" lon="5.64693">
        <ele>224.8</ele>
        <time>2014-01-22T14:21:05Z</time>
      </trkpt>
      <trkpt lat="43.29422" lon="5.64689">
        <ele>224.5</ele>
        <time>2014-01-22T14:21:10Z</time>
      </trkpt>
      <trkpt lat="43.29418" lon="5.64685">
        <ele>223.1</ele>
        <time>2014-01-22T14:21:16Z</time>
      </trkpt>
      <trkpt lat="43.29415" lon="5.64682">
        <ele>218.8</ele>
        <time>2014-01-22T14:21:22Z</time>
      </trkpt>
      <trkpt lat="43.29412" lon="5.64678">
        <ele>213.3</ele>
        <time>2014-01-22T14:21:29Z</time>
      </trkpt>
      <trkpt lat="43.2941" lon="5.64674">
        <ele>209.8</ele>
        <time>2014-01-22T14:21:35Z</time>
      </trkpt>
      <trkpt lat="43.29406" lon="5.64671">
        <ele>206.1</ele>
        <time>2014-01-22T14:21:42Z</time>
      </trkpt>
      <trkpt lat="43.29402" lon="5.6467">
        <ele>201.3</ele>
        <time>2014-01-22T14:21:48Z</time>
      </trkpt>
      <trkpt lat="43.29402" lon="5.64669">
        <ele>200.8</ele>
        <time>2014-01-22T14:21:49Z</time>
      </trkpt>
      <trkpt lat="43.29394" lon="5.64671">
        <ele>192.6</ele>
        <time>2014-01-22T14:22:00Z</time>
      </trkpt>
      <trkpt lat="43.2939" lon="5.64671">
        <ele>188.8</ele>
        <time>2014-01-22T14:22:06Z</time>
      </trkpt>
      <trkpt lat="43.29386" lon="5.64669">
        <ele>185.3</ele>
        <time>2014-01-22T14:22:12Z</time>
      </trkpt>
      <trkpt lat="43.29382" lon="5.64666">
        <ele>181.8</ele>
        <time>2014-01-22T14:22:18Z</time>
      </trkpt>
      <trkpt lat="43.29379" lon="5.6466">
        <ele>190.8</ele>
        <time>2014-01-22T14:22:19Z</time>
      </trkpt>
      <trkpt lat="43.29376" lon="5.64656">
        <ele>194.3</ele>
        <time>2014-01-22T14:22:22Z</time>
      </trkpt>
      <trkpt lat="43.29372" lon="5.64654">
        <ele>191.6</ele>
        <time>2014-01-22T14:22:27Z</time>
      </trkpt>
      <trkpt lat="43.29369" lon="5.64651">
        <ele>188.3</ele>
        <time>2014-01-22T14:22:33Z</time>
      </trkpt>
      <trkpt lat="43.29366" lon="5.64647">
        <ele>187.3</ele>
        <time>2014-01-22T14:22:37Z</time>
      </trkpt>
      <trkpt lat="43.29362" lon="5.64644">
        <ele>184.8</ele>
        <time>2014-01-22T14:22:43Z</time>
      </trkpt>
      <trkpt lat="43.29362" lon="5.64643">
        <ele>184.3</ele>
        <time>2014-01-22T14:22:44Z</time>
      </trkpt>
      <trkpt lat="43.29358" lon="5.64638">
        <ele>192.6</ele>
        <time>2014-01-22T14:22:45Z</time>
      </trkpt>
      <trkpt lat="43.29355" lon="5.64634">
        <ele>190.3</ele>
        <time>2014-01-22T14:22:51Z</time>
      </trkpt>
      <trkpt lat="43.29354" lon="5.64634">
        <ele>189.6</ele>
        <time>2014-01-22T14:22:52Z</time>
      </trkpt>
      <trkpt lat="43.29349" lon="5.64627">
        <ele>182.6</ele>
        <time>2014-01-22T14:23:02Z</time>
      </trkpt>
      <trkpt lat="43.29346" lon="5.64623">
        <ele>181.3</ele>
        <time>2014-01-22T14:23:06Z</time>
      </trkpt>
      <trkpt lat="43.29343" lon="5.6462">
        <ele>181.3</ele>
        <time>2014-01-22T14:23:09Z</time>
      </trkpt>
      <trkpt lat="43.2934" lon="5.64618">
        <ele>180.6</ele>
        <time>2014-01-22T14:23:13Z</time>
      </trkpt>
      <trkpt lat="43.29337" lon="5.64613">
        <ele>186.8</ele>
        <time>2014-01-22T14:23:14Z</time>
      </trkpt>
      <trkpt lat="43.29334" lon="5.6461">
        <ele>186</ele>
        <time>2014-01-22T14:23:17Z</time>
      </trkpt>
      <trkpt lat="43.2933" lon="5.64607">
        <ele>185.5</ele>
        <time>2014-01-22T14:23:21Z</time>
      </trkpt>
      <trkpt lat="43.29328" lon="5.64605">
        <ele>185.6</ele>
        <time>2014-01-22T14:23:24Z</time>
      </trkpt>
      <trkpt lat="43.29324" lon="5.64601">
        <ele>194.1</ele>
        <time>2014-01-22T14:23:25Z</time>
      </trkpt>
      <trkpt lat="43.29322" lon="5.64597">
        <ele>199.6</ele>
        <time>2014-01-22T14:23:26Z</time>
      </trkpt>
      <trkpt lat="43.29318" lon="5.64594">
        <ele>203.8</ele>
        <time>2014-01-22T14:23:28Z</time>
      </trkpt>
      <trkpt lat="43.29315" lon="5.64591">
        <ele>205.1</ele>
        <time>2014-01-22T14:23:31Z</time>
      </trkpt>
      <trkpt lat="43.29313" lon="5.64587">
        <ele>207</ele>
        <time>2014-01-22T14:23:33Z</time>
      </trkpt>
      <trkpt lat="43.29311" lon="5.64584">
        <ele>206.3</ele>
        <time>2014-01-22T14:23:36Z</time>
      </trkpt>
      <trkpt lat="43.29308" lon="5.64579">
        <ele>207.1</ele>
        <time>2014-01-22T14:23:39Z</time>
      </trkpt>
      <trkpt lat="43.29306" lon="5.64576">
        <ele>208.1</ele>
        <time>2014-01-22T14:23:43Z</time>
      </trkpt>
      <trkpt lat="43.29304" lon="5.64572">
        <ele>210.5</ele>
        <time>2014-01-22T14:23:46Z</time>
      </trkpt>
      <trkpt lat="43.293" lon="5.64571">
        <ele>207.8</ele>
        <time>2014-01-22T14:23:51Z</time>
      </trkpt>
      <trkpt lat="43.29297" lon="5.64568">
        <ele>210.8</ele>
        <time>2014-01-22T14:23:53Z</time>
      </trkpt>
      <trkpt lat="43.29296" lon="5.64567">
        <ele>210.8</ele>
        <time>2014-01-22T14:23:54Z</time>
      </trkpt>
      <trkpt lat="43.29288" lon="5.64567">
        <ele>197.1</ele>
        <time>2014-01-22T14:24:03Z</time>
      </trkpt>
      <trkpt lat="43.29285" lon="5.6457">
        <ele>190</ele>
        <time>2014-01-22T14:24:07Z</time>
      </trkpt>
      <trkpt lat="43.29283" lon="5.64567">
        <ele>194.1</ele>
        <time>2014-01-22T14:24:08Z</time>
      </trkpt>
      <trkpt lat="43.29279" lon="5.64564">
        <ele>198.6</ele>
        <time>2014-01-22T14:24:10Z</time>
      </trkpt>
      <trkpt lat="43.29277" lon="5.64563">
        <ele>201</ele>
        <time>2014-01-22T14:24:11Z</time>
      </trkpt>
      <trkpt lat="43.29273" lon="5.64563">
        <ele>201.8</ele>
        <time>2014-01-22T14:24:14Z</time>
      </trkpt>
      <trkpt lat="43.29269" lon="5.64563">
        <ele>198</ele>
        <time>2014-01-22T14:24:18Z</time>
      </trkpt>
      <trkpt lat="43.29266" lon="5.64564">
        <ele>187.1</ele>
        <time>2014-01-22T14:24:25Z</time>
      </trkpt>
      <trkpt lat="43.29262" lon="5.64562">
        <ele>189</ele>
        <time>2014-01-22T14:24:28Z</time>
      </trkpt>
      <trkpt lat="43.29258" lon="5.64561">
        <ele>189</ele>
        <time>2014-01-22T14:24:31Z</time>
      </trkpt>
      <trkpt lat="43.29255" lon="5.64562">
        <ele>185.3</ele>
        <time>2014-01-22T14:24:35Z</time>
      </trkpt>
      <trkpt lat="43.29251" lon="5.64563">
        <ele>182</ele>
        <time>2014-01-22T14:24:39Z</time>
      </trkpt>
      <trkpt lat="43.29247" lon="5.64565">
        <ele>179.8</ele>
        <time>2014-01-22T14:24:42Z</time>
      </trkpt>
      <trkpt lat="43.29244" lon="5.64564">
        <ele>181.8</ele>
        <time>2014-01-22T14:24:44Z</time>
      </trkpt>
      <trkpt lat="43.29241" lon="5.64565">
        <ele>183</ele>
        <time>2014-01-22T14:24:46Z</time>
      </trkpt>
      <trkpt lat="43.29237" lon="5.64566">
        <ele>184.3</ele>
        <time>2014-01-22T14:24:49Z</time>
      </trkpt>
      <trkpt lat="43.29234" lon="5.64568">
        <ele>185.3</ele>
        <time>2014-01-22T14:24:52Z</time>
      </trkpt>
      <trkpt lat="43.29232" lon="5.64574">
        <ele>183.8</ele>
        <time>2014-01-22T14:24:56Z</time>
      </trkpt>
      <trkpt lat="43.29232" lon="5.64574">
        <ele>183.6</ele>
        <time>2014-01-22T14:24:57Z</time>
      </trkpt>
      <trkpt lat="43.2923" lon="5.64585">
        <ele>185.3</ele>
        <time>2014-01-22T14:25:06Z</time>
      </trkpt>
      <trkpt lat="43.2923" lon="5.64591">
        <ele>181</ele>
        <time>2014-01-22T14:25:13Z</time>
      </trkpt>
      <trkpt lat="43.29231" lon="5.64597">
        <ele>180.8</ele>
        <time>2014-01-22T14:25:18Z</time>
      </trkpt>
      <trkpt lat="43.29229" lon="5.64602">
        <ele>181.1</ele>
        <time>2014-01-22T14:25:23Z</time>
      </trkpt>
      <trkpt lat="43.29228" lon="5.64607">
        <ele>180.6</ele>
        <time>2014-01-22T14:25:35Z</time>
      </trkpt>
      <trkpt lat="43.29224" lon="5.6461">
        <ele>185.8</ele>
        <time>2014-01-22T14:25:47Z</time>
      </trkpt>
      <trkpt lat="43.29224" lon="5.64604">
        <ele>186.8</ele>
        <time>2014-01-22T14:25:59Z</time>
      </trkpt>
      <trkpt lat="43.29225" lon="5.64603">
        <ele>186.3</ele>
        <time>2014-01-22T14:26:00Z</time>
      </trkpt>
      <trkpt lat="43.29228" lon="5.64596">
        <ele>185.6</ele>
        <time>2014-01-22T14:26:06Z</time>
      </trkpt>
      <trkpt lat="43.2923" lon="5.64592">
        <ele>185.1</ele>
        <time>2014-01-22T14:26:10Z</time>
      </trkpt>
      <trkpt lat="43.29232" lon="5.64587">
        <ele>185.6</ele>
        <time>2014-01-22T14:26:14Z</time>
      </trkpt>
      <trkpt lat="43.29234" lon="5.64582">
        <ele>185.3</ele>
        <time>2014-01-22T14:26:19Z</time>
      </trkpt>
      <trkpt lat="43.29234" lon="5.64576">
        <ele>186.8</ele>
        <time>2014-01-22T14:26:22Z</time>
      </trkpt>
      <trkpt lat="43.29235" lon="5.64571">
        <ele>187.8</ele>
        <time>2014-01-22T14:26:25Z</time>
      </trkpt>
      <trkpt lat="43.29235" lon="5.64565">
        <ele>188.8</ele>
        <time>2014-01-22T14:26:30Z</time>
      </trkpt>
      <trkpt lat="43.29234" lon="5.6456">
        <ele>188.8</ele>
        <time>2014-01-22T14:26:34Z</time>
      </trkpt>
      <trkpt lat="43.29233" lon="5.64554">
        <ele>188.8</ele>
        <time>2014-01-22T14:26:38Z</time>
      </trkpt>
      <trkpt lat="43.2923" lon="5.64549">
        <ele>189</ele>
        <time>2014-01-22T14:26:41Z</time>
      </trkpt>
      <trkpt lat="43.29228" lon="5.64546">
        <ele>187.6</ele>
        <time>2014-01-22T14:26:45Z</time>
      </trkpt>
      <trkpt lat="43.29225" lon="5.64542">
        <ele>186.6</ele>
        <time>2014-01-22T14:26:49Z</time>
      </trkpt>
      <trkpt lat="43.29221" lon="5.64539">
        <ele>185.3</ele>
        <time>2014-01-22T14:26:55Z</time>
      </trkpt>
      <trkpt lat="43.29217" lon="5.64538">
        <ele>182.8</ele>
        <time>2014-01-22T14:27:06Z</time>
      </trkpt>
      <trkpt lat="43.29217" lon="5.64537">
        <ele>184.6</ele>
        <time>2014-01-22T14:27:07Z</time>
      </trkpt>
      <trkpt lat="43.2921" lon="5.64538">
        <ele>198.8</ele>
        <time>2014-01-22T14:27:45Z</time>
      </trkpt>
      <trkpt lat="43.29209" lon="5.64532">
        <ele>202.8</ele>
        <time>2014-01-22T14:28:12Z</time>
      </trkpt>
      <trkpt lat="43.29208" lon="5.64532">
        <ele>202.3</ele>
        <time>2014-01-22T14:28:13Z</time>
      </trkpt>
      <trkpt lat="43.29201" lon="5.64528">
        <ele>194.3</ele>
        <time>2014-01-22T14:28:23Z</time>
      </trkpt>
      <trkpt lat="43.29198" lon="5.64525">
        <ele>192</ele>
        <time>2014-01-22T14:28:28Z</time>
      </trkpt>
      <trkpt lat="43.29194" lon="5.64521">
        <ele>190.1</ele>
        <time>2014-01-22T14:28:33Z</time>
      </trkpt>
      <trkpt lat="43.29195" lon="5.64517">
        <ele>189.5</ele>
        <time>2014-01-22T14:28:36Z</time>
      </trkpt>
      <trkpt lat="43.29196" lon="5.64511">
        <ele>188.8</ele>
        <time>2014-01-22T14:28:39Z</time>
      </trkpt>
      <trkpt lat="43.29197" lon="5.64508">
        <ele>187.8</ele>
        <time>2014-01-22T14:28:42Z</time>
      </trkpt>
      <trkpt lat="43.292" lon="5.64504">
        <ele>186.1</ele>
        <time>2014-01-22T14:28:45Z</time>
      </trkpt>
      <trkpt lat="43.29202" lon="5.645">
        <ele>185.6</ele>
        <time>2014-01-22T14:28:48Z</time>
      </trkpt>
      <trkpt lat="43.29204" lon="5.64496">
        <ele>185.3</ele>
        <time>2014-01-22T14:28:51Z</time>
      </trkpt>
      <trkpt lat="43.29206" lon="5.64492">
        <ele>184.6</ele>
        <time>2014-01-22T14:28:54Z</time>
      </trkpt>
      <trkpt lat="43.29209" lon="5.64487">
        <ele>183.8</ele>
        <time>2014-01-22T14:28:58Z</time>
      </trkpt>
      <trkpt lat="43.29211" lon="5.64483">
        <ele>183.8</ele>
        <time>2014-01-22T14:29:01Z</time>
      </trkpt>
      <trkpt lat="43.29213" lon="5.64478">
        <ele>184.5</ele>
        <time>2014-01-22T14:29:04Z</time>
      </trkpt>
      <trkpt lat="43.29214" lon="5.64473">
        <ele>183.8</ele>
        <time>2014-01-22T14:29:08Z</time>
      </trkpt>
      <trkpt lat="43.29216" lon="5.64468">
        <ele>184.3</ele>
        <time>2014-01-22T14:29:11Z</time>
      </trkpt>
      <trkpt lat="43.29219" lon="5.64464">
        <ele>184.3</ele>
        <time>2014-01-22T14:29:15Z</time>
      </trkpt>
      <trkpt lat="43.2922" lon="5.64462">
        <ele>184</ele>
        <time>2014-01-22T14:29:16Z</time>
      </trkpt>
      <trkpt lat="43.29223" lon="5.64455">
        <ele>181.8</ele>
        <time>2014-01-22T14:29:22Z</time>
      </trkpt>
      <trkpt lat="43.29225" lon="5.6445">
        <ele>179.8</ele>
        <time>2014-01-22T14:29:26Z</time>
      </trkpt>
      <trkpt lat="43.29225" lon="5.64445">
        <ele>179.3</ele>
        <time>2014-01-22T14:29:29Z</time>
      </trkpt>
      <trkpt lat="43.29226" lon="5.64439">
        <ele>178.3</ele>
        <time>2014-01-22T14:29:33Z</time>
      </trkpt>
      <trkpt lat="43.29226" lon="5.64434">
        <ele>177.8</ele>
        <time>2014-01-22T14:29:36Z</time>
      </trkpt>
      <trkpt lat="43.29227" lon="5.6443">
        <ele>179.6</ele>
        <time>2014-01-22T14:29:39Z</time>
      </trkpt>
      <trkpt lat="43.29228" lon="5.64424">
        <ele>180.1</ele>
        <time>2014-01-22T14:29:42Z</time>
      </trkpt>
      <trkpt lat="43.2923" lon="5.64419">
        <ele>179.6</ele>
        <time>2014-01-22T14:29:46Z</time>
      </trkpt>
      <trkpt lat="43.29231" lon="5.64414">
        <ele>180.6</ele>
        <time>2014-01-22T14:29:49Z</time>
      </trkpt>
      <trkpt lat="43.29234" lon="5.64409">
        <ele>181.6</ele>
        <time>2014-01-22T14:29:52Z</time>
      </trkpt>
      <trkpt lat="43.29236" lon="5.64405">
        <ele>183.1</ele>
        <time>2014-01-22T14:29:55Z</time>
      </trkpt>
      <trkpt lat="43.29238" lon="5.64399">
        <ele>184</ele>
        <time>2014-01-22T14:29:58Z</time>
      </trkpt>
      <trkpt lat="43.2924" lon="5.64396">
        <ele>184.6</ele>
        <time>2014-01-22T14:30:00Z</time>
      </trkpt>
      <trkpt lat="43.29242" lon="5.64391">
        <ele>187.5</ele>
        <time>2014-01-22T14:30:03Z</time>
      </trkpt>
      <trkpt lat="43.29244" lon="5.64386">
        <ele>189.3</ele>
        <time>2014-01-22T14:30:06Z</time>
      </trkpt>
      <trkpt lat="43.29246" lon="5.64381">
        <ele>189.5</ele>
        <time>2014-01-22T14:30:09Z</time>
      </trkpt>
      <trkpt lat="43.29248" lon="5.64376">
        <ele>191.6</ele>
        <time>2014-01-22T14:30:12Z</time>
      </trkpt>
      <trkpt lat="43.29247" lon="5.6437">
        <ele>189.1</ele>
        <time>2014-01-22T14:30:16Z</time>
      </trkpt>
      <trkpt lat="43.29247" lon="5.64369">
        <ele>188.3</ele>
        <time>2014-01-22T14:30:17Z</time>
      </trkpt>
      <trkpt lat="43.29247" lon="5.6436">
        <ele>183.8</ele>
        <time>2014-01-22T14:30:24Z</time>
      </trkpt>
      <trkpt lat="43.29249" lon="5.64354">
        <ele>181.3</ele>
        <time>2014-01-22T14:30:28Z</time>
      </trkpt>
      <trkpt lat="43.29249" lon="5.64348">
        <ele>181.1</ele>
        <time>2014-01-22T14:30:32Z</time>
      </trkpt>
      <trkpt lat="43.2925" lon="5.64343">
        <ele>178</ele>
        <time>2014-01-22T14:30:37Z</time>
      </trkpt>
      <trkpt lat="43.2925" lon="5.64338">
        <ele>177.5</ele>
        <time>2014-01-22T14:30:40Z</time>
      </trkpt>
      <trkpt lat="43.29251" lon="5.64332">
        <ele>177.1</ele>
        <time>2014-01-22T14:30:43Z</time>
      </trkpt>
      <trkpt lat="43.29253" lon="5.64328">
        <ele>175.3</ele>
        <time>2014-01-22T14:30:47Z</time>
      </trkpt>
      <trkpt lat="43.29253" lon="5.64324">
        <ele>175.6</ele>
        <time>2014-01-22T14:30:50Z</time>
      </trkpt>
      <trkpt lat="43.29254" lon="5.64318">
        <ele>176.1</ele>
        <time>2014-01-22T14:30:53Z</time>
      </trkpt>
      <trkpt lat="43.29255" lon="5.64312">
        <ele>176.3</ele>
        <time>2014-01-22T14:30:57Z</time>
      </trkpt>
      <trkpt lat="43.29256" lon="5.64307">
        <ele>177.5</ele>
        <time>2014-01-22T14:31:00Z</time>
      </trkpt>
      <trkpt lat="43.29257" lon="5.64302">
        <ele>178.3</ele>
        <time>2014-01-22T14:31:03Z</time>
      </trkpt>
      <trkpt lat="43.29259" lon="5.64297">
        <ele>178</ele>
        <time>2014-01-22T14:31:06Z</time>
      </trkpt>
      <trkpt lat="43.29259" lon="5.64292">
        <ele>177.8</ele>
        <time>2014-01-22T14:31:09Z</time>
      </trkpt>
      <trkpt lat="43.29259" lon="5.64287">
        <ele>178</ele>
        <time>2014-01-22T14:31:12Z</time>
      </trkpt>
      <trkpt lat="43.29258" lon="5.64282">
        <ele>178</ele>
        <time>2014-01-22T14:31:15Z</time>
      </trkpt>
      <trkpt lat="43.29257" lon="5.64276">
        <ele>177.8</ele>
        <time>2014-01-22T14:31:18Z</time>
      </trkpt>
      <trkpt lat="43.29257" lon="5.64275">
        <ele>177.8</ele>
        <time>2014-01-22T14:31:19Z</time>
      </trkpt>
    </trkseg>
  </trk>
</gpx>